<?xml version="1.0" encoding="utf-8"?>
<gpx xmlns:xsi="http://www.w3.org/2001/XMLSchema-instance" xmlns:xsd="http://www.w3.org/2001/XMLSchema" version="1.1" creator="Shapelink.com" xmlns="http://www.topografix.com/GPX/1/1" xmlns:gpxtpx="http://www.garmin.com/xmlschemas/TrackPointExtension/v1">
  <metadata>
    <name>Cykling 29.88 km, 2013-08-11</name>
    <desc></desc>
    <author><name>Alexander Engvall</name></author> 
    <time>2013-08-11T15:25:14Z</time>
  </metadata>
  <trk>
    <name>Cykling 29.88 km, 2013-08-11</name>
    <trkseg>
      <trkpt lat="59.340704" lon="18.11004">
        <ele>36</ele>
        <time>2013-08-11T15:25:14Z</time>
      </trkpt>
      <trkpt lat="59.340728" lon="18.10999">
        <ele>36.3</ele>
        <time>2013-08-11T15:25:54Z</time>
      </trkpt>
      <trkpt lat="59.340754" lon="18.109969">
        <ele>36.8</ele>
        <time>2013-08-11T15:25:58Z</time>
      </trkpt>
      <trkpt lat="59.340772" lon="18.109918">
        <ele>37.6</ele>
        <time>2013-08-11T15:32:52Z</time>
      </trkpt>
      <trkpt lat="59.340772" lon="18.109851">
        <ele>37.7</ele>
        <time>2013-08-11T15:32:54Z</time>
      </trkpt>
      <trkpt lat="59.340754" lon="18.109761">
        <ele>37.2</ele>
        <time>2013-08-11T15:32:56Z</time>
      </trkpt>
      <trkpt lat="59.340743" lon="18.109705">
        <ele>37.4</ele>
        <time>2013-08-11T15:32:57Z</time>
      </trkpt>
      <trkpt lat="59.340726" lon="18.10962">
        <ele>37.1</ele>
        <time>2013-08-11T15:32:58Z</time>
      </trkpt>
      <trkpt lat="59.340707" lon="18.109538">
        <ele>37.3</ele>
        <time>2013-08-11T15:32:59Z</time>
      </trkpt>
      <trkpt lat="59.340684" lon="18.109456">
        <ele>37.5</ele>
        <time>2013-08-11T15:33:00Z</time>
      </trkpt>
      <trkpt lat="59.340652" lon="18.109352">
        <ele>37.5</ele>
        <time>2013-08-11T15:33:01Z</time>
      </trkpt>
      <trkpt lat="59.340625" lon="18.109284">
        <ele>37.6</ele>
        <time>2013-08-11T15:33:02Z</time>
      </trkpt>
      <trkpt lat="59.340601" lon="18.109211">
        <ele>37.5</ele>
        <time>2013-08-11T15:33:03Z</time>
      </trkpt>
      <trkpt lat="59.340571" lon="18.109128">
        <ele>37.5</ele>
        <time>2013-08-11T15:33:04Z</time>
      </trkpt>
      <trkpt lat="59.34054" lon="18.109047">
        <ele>37.6</ele>
        <time>2013-08-11T15:33:05Z</time>
      </trkpt>
      <trkpt lat="59.340513" lon="18.108968">
        <ele>37.6</ele>
        <time>2013-08-11T15:33:06Z</time>
      </trkpt>
      <trkpt lat="59.340481" lon="18.108892">
        <ele>37.2</ele>
        <time>2013-08-11T15:33:07Z</time>
      </trkpt>
      <trkpt lat="59.340451" lon="18.108824">
        <ele>36.9</ele>
        <time>2013-08-11T15:33:08Z</time>
      </trkpt>
      <trkpt lat="59.340418" lon="18.108734">
        <ele>37</ele>
        <time>2013-08-11T15:33:09Z</time>
      </trkpt>
      <trkpt lat="59.340382" lon="18.108642">
        <ele>36.7</ele>
        <time>2013-08-11T15:33:10Z</time>
      </trkpt>
      <trkpt lat="59.340345" lon="18.108549">
        <ele>36.7</ele>
        <time>2013-08-11T15:33:11Z</time>
      </trkpt>
      <trkpt lat="59.340311" lon="18.108455">
        <ele>36.8</ele>
        <time>2013-08-11T15:33:12Z</time>
      </trkpt>
      <trkpt lat="59.340273" lon="18.108368">
        <ele>37.1</ele>
        <time>2013-08-11T15:33:13Z</time>
      </trkpt>
      <trkpt lat="59.340237" lon="18.10827">
        <ele>37.2</ele>
        <time>2013-08-11T15:33:14Z</time>
      </trkpt>
      <trkpt lat="59.340197" lon="18.108168">
        <ele>37.4</ele>
        <time>2013-08-11T15:33:15Z</time>
      </trkpt>
      <trkpt lat="59.340158" lon="18.108072">
        <ele>37.5</ele>
        <time>2013-08-11T15:33:16Z</time>
      </trkpt>
      <trkpt lat="59.34012" lon="18.107982">
        <ele>37.6</ele>
        <time>2013-08-11T15:33:17Z</time>
      </trkpt>
      <trkpt lat="59.340085" lon="18.107899">
        <ele>37.5</ele>
        <time>2013-08-11T15:33:18Z</time>
      </trkpt>
      <trkpt lat="59.340047" lon="18.10781">
        <ele>38.2</ele>
        <time>2013-08-11T15:33:19Z</time>
      </trkpt>
      <trkpt lat="59.340012" lon="18.107708">
        <ele>38.7</ele>
        <time>2013-08-11T15:33:20Z</time>
      </trkpt>
      <trkpt lat="59.339978" lon="18.107617">
        <ele>38.6</ele>
        <time>2013-08-11T15:33:21Z</time>
      </trkpt>
      <trkpt lat="59.339946" lon="18.107522">
        <ele>38.5</ele>
        <time>2013-08-11T15:33:22Z</time>
      </trkpt>
      <trkpt lat="59.339914" lon="18.107432">
        <ele>38.7</ele>
        <time>2013-08-11T15:33:23Z</time>
      </trkpt>
      <trkpt lat="59.33988" lon="18.107333">
        <ele>38.8</ele>
        <time>2013-08-11T15:33:24Z</time>
      </trkpt>
      <trkpt lat="59.339854" lon="18.107245">
        <ele>39.2</ele>
        <time>2013-08-11T15:33:25Z</time>
      </trkpt>
      <trkpt lat="59.339826" lon="18.107155">
        <ele>39</ele>
        <time>2013-08-11T15:33:26Z</time>
      </trkpt>
      <trkpt lat="59.339795" lon="18.107064">
        <ele>38.8</ele>
        <time>2013-08-11T15:33:27Z</time>
      </trkpt>
      <trkpt lat="59.339768" lon="18.106969">
        <ele>38.9</ele>
        <time>2013-08-11T15:33:28Z</time>
      </trkpt>
      <trkpt lat="59.339742" lon="18.106886">
        <ele>38.8</ele>
        <time>2013-08-11T15:33:29Z</time>
      </trkpt>
      <trkpt lat="59.339717" lon="18.106803">
        <ele>38.9</ele>
        <time>2013-08-11T15:33:30Z</time>
      </trkpt>
      <trkpt lat="59.339693" lon="18.106722">
        <ele>38.7</ele>
        <time>2013-08-11T15:33:31Z</time>
      </trkpt>
      <trkpt lat="59.339667" lon="18.106633">
        <ele>38.9</ele>
        <time>2013-08-11T15:33:32Z</time>
      </trkpt>
      <trkpt lat="59.339641" lon="18.106546">
        <ele>38.9</ele>
        <time>2013-08-11T15:33:33Z</time>
      </trkpt>
      <trkpt lat="59.339617" lon="18.106456">
        <ele>38.9</ele>
        <time>2013-08-11T15:33:34Z</time>
      </trkpt>
      <trkpt lat="59.339592" lon="18.106368">
        <ele>39</ele>
        <time>2013-08-11T15:33:35Z</time>
      </trkpt>
      <trkpt lat="59.339572" lon="18.10628">
        <ele>39.1</ele>
        <time>2013-08-11T15:33:36Z</time>
      </trkpt>
      <trkpt lat="59.339561" lon="18.106174">
        <ele>39.3</ele>
        <time>2013-08-11T15:33:37Z</time>
      </trkpt>
      <trkpt lat="59.339551" lon="18.106066">
        <ele>39.4</ele>
        <time>2013-08-11T15:33:38Z</time>
      </trkpt>
      <trkpt lat="59.339537" lon="18.105953">
        <ele>39.3</ele>
        <time>2013-08-11T15:33:39Z</time>
      </trkpt>
      <trkpt lat="59.339532" lon="18.105848">
        <ele>39.7</ele>
        <time>2013-08-11T15:33:40Z</time>
      </trkpt>
      <trkpt lat="59.339519" lon="18.10575">
        <ele>39.8</ele>
        <time>2013-08-11T15:33:41Z</time>
      </trkpt>
      <trkpt lat="59.339498" lon="18.105671">
        <ele>40</ele>
        <time>2013-08-11T15:33:42Z</time>
      </trkpt>
      <trkpt lat="59.339474" lon="18.105603">
        <ele>39.4</ele>
        <time>2013-08-11T15:33:43Z</time>
      </trkpt>
      <trkpt lat="59.339449" lon="18.10553">
        <ele>39.5</ele>
        <time>2013-08-11T15:33:44Z</time>
      </trkpt>
      <trkpt lat="59.339427" lon="18.105443">
        <ele>39.1</ele>
        <time>2013-08-11T15:33:45Z</time>
      </trkpt>
      <trkpt lat="59.339411" lon="18.105344">
        <ele>38.6</ele>
        <time>2013-08-11T15:33:46Z</time>
      </trkpt>
      <trkpt lat="59.339399" lon="18.10524">
        <ele>38.3</ele>
        <time>2013-08-11T15:33:47Z</time>
      </trkpt>
      <trkpt lat="59.339387" lon="18.105125">
        <ele>38.3</ele>
        <time>2013-08-11T15:33:48Z</time>
      </trkpt>
      <trkpt lat="59.339374" lon="18.105014">
        <ele>38.4</ele>
        <time>2013-08-11T15:33:49Z</time>
      </trkpt>
      <trkpt lat="59.339365" lon="18.104895">
        <ele>38.3</ele>
        <time>2013-08-11T15:33:50Z</time>
      </trkpt>
      <trkpt lat="59.339358" lon="18.104777">
        <ele>38.3</ele>
        <time>2013-08-11T15:33:51Z</time>
      </trkpt>
      <trkpt lat="59.339331" lon="18.104672">
        <ele>38.6</ele>
        <time>2013-08-11T15:33:52Z</time>
      </trkpt>
      <trkpt lat="59.339305" lon="18.104568">
        <ele>39.3</ele>
        <time>2013-08-11T15:33:53Z</time>
      </trkpt>
      <trkpt lat="59.339276" lon="18.104457">
        <ele>39.6</ele>
        <time>2013-08-11T15:33:54Z</time>
      </trkpt>
      <trkpt lat="59.339243" lon="18.104343">
        <ele>39.9</ele>
        <time>2013-08-11T15:33:55Z</time>
      </trkpt>
      <trkpt lat="59.339206" lon="18.104215">
        <ele>39.9</ele>
        <time>2013-08-11T15:33:56Z</time>
      </trkpt>
      <trkpt lat="59.339161" lon="18.104094">
        <ele>39.7</ele>
        <time>2013-08-11T15:33:57Z</time>
      </trkpt>
      <trkpt lat="59.339114" lon="18.103973">
        <ele>39.6</ele>
        <time>2013-08-11T15:33:58Z</time>
      </trkpt>
      <trkpt lat="59.339066" lon="18.103846">
        <ele>39.5</ele>
        <time>2013-08-11T15:33:59Z</time>
      </trkpt>
      <trkpt lat="59.339015" lon="18.103734">
        <ele>39.4</ele>
        <time>2013-08-11T15:34:00Z</time>
      </trkpt>
      <trkpt lat="59.338943" lon="18.103683">
        <ele>40</ele>
        <time>2013-08-11T15:34:01Z</time>
      </trkpt>
      <trkpt lat="59.338879" lon="18.103592">
        <ele>40</ele>
        <time>2013-08-11T15:34:02Z</time>
      </trkpt>
      <trkpt lat="59.338816" lon="18.103529">
        <ele>39.6</ele>
        <time>2013-08-11T15:34:03Z</time>
      </trkpt>
      <trkpt lat="59.338759" lon="18.103464">
        <ele>39.9</ele>
        <time>2013-08-11T15:34:04Z</time>
      </trkpt>
      <trkpt lat="59.338705" lon="18.103409">
        <ele>39.7</ele>
        <time>2013-08-11T15:34:05Z</time>
      </trkpt>
      <trkpt lat="59.33865" lon="18.103355">
        <ele>39.4</ele>
        <time>2013-08-11T15:34:06Z</time>
      </trkpt>
      <trkpt lat="59.338593" lon="18.103298">
        <ele>38.9</ele>
        <time>2013-08-11T15:34:07Z</time>
      </trkpt>
      <trkpt lat="59.338542" lon="18.103256">
        <ele>39.7</ele>
        <time>2013-08-11T15:34:08Z</time>
      </trkpt>
      <trkpt lat="59.338485" lon="18.103211">
        <ele>38.9</ele>
        <time>2013-08-11T15:34:09Z</time>
      </trkpt>
      <trkpt lat="59.338429" lon="18.103164">
        <ele>38.9</ele>
        <time>2013-08-11T15:34:10Z</time>
      </trkpt>
      <trkpt lat="59.338372" lon="18.103116">
        <ele>38.7</ele>
        <time>2013-08-11T15:34:11Z</time>
      </trkpt>
      <trkpt lat="59.338313" lon="18.103048">
        <ele>38.8</ele>
        <time>2013-08-11T15:34:12Z</time>
      </trkpt>
      <trkpt lat="59.338263" lon="18.102972">
        <ele>38.7</ele>
        <time>2013-08-11T15:34:13Z</time>
      </trkpt>
      <trkpt lat="59.338219" lon="18.102872">
        <ele>38.6</ele>
        <time>2013-08-11T15:34:14Z</time>
      </trkpt>
      <trkpt lat="59.338184" lon="18.102769">
        <ele>38.5</ele>
        <time>2013-08-11T15:34:15Z</time>
      </trkpt>
      <trkpt lat="59.338146" lon="18.102666">
        <ele>38.3</ele>
        <time>2013-08-11T15:34:16Z</time>
      </trkpt>
      <trkpt lat="59.338094" lon="18.102569">
        <ele>37.7</ele>
        <time>2013-08-11T15:34:17Z</time>
      </trkpt>
      <trkpt lat="59.33803" lon="18.102532">
        <ele>37.7</ele>
        <time>2013-08-11T15:34:18Z</time>
      </trkpt>
      <trkpt lat="59.337964" lon="18.102511">
        <ele>37.6</ele>
        <time>2013-08-11T15:34:19Z</time>
      </trkpt>
      <trkpt lat="59.337883" lon="18.102533">
        <ele>37</ele>
        <time>2013-08-11T15:34:20Z</time>
      </trkpt>
      <trkpt lat="59.337817" lon="18.102567">
        <ele>37</ele>
        <time>2013-08-11T15:34:21Z</time>
      </trkpt>
      <trkpt lat="59.337754" lon="18.102575">
        <ele>37.5</ele>
        <time>2013-08-11T15:34:22Z</time>
      </trkpt>
      <trkpt lat="59.337675" lon="18.10258">
        <ele>36.4</ele>
        <time>2013-08-11T15:34:23Z</time>
      </trkpt>
      <trkpt lat="59.337605" lon="18.102545">
        <ele>36.8</ele>
        <time>2013-08-11T15:34:24Z</time>
      </trkpt>
      <trkpt lat="59.337542" lon="18.102495">
        <ele>36.4</ele>
        <time>2013-08-11T15:34:25Z</time>
      </trkpt>
      <trkpt lat="59.337476" lon="18.102442">
        <ele>36.1</ele>
        <time>2013-08-11T15:34:26Z</time>
      </trkpt>
      <trkpt lat="59.337407" lon="18.102397">
        <ele>36.3</ele>
        <time>2013-08-11T15:34:27Z</time>
      </trkpt>
      <trkpt lat="59.337345" lon="18.102349">
        <ele>36.8</ele>
        <time>2013-08-11T15:34:28Z</time>
      </trkpt>
      <trkpt lat="59.33729" lon="18.102315">
        <ele>37.3</ele>
        <time>2013-08-11T15:34:29Z</time>
      </trkpt>
      <trkpt lat="59.337233" lon="18.102282">
        <ele>39.1</ele>
        <time>2013-08-11T15:34:30Z</time>
      </trkpt>
      <trkpt lat="59.337183" lon="18.102236">
        <ele>40.5</ele>
        <time>2013-08-11T15:34:31Z</time>
      </trkpt>
      <trkpt lat="59.337125" lon="18.102167">
        <ele>39.9</ele>
        <time>2013-08-11T15:34:32Z</time>
      </trkpt>
      <trkpt lat="59.337067" lon="18.102113">
        <ele>40.4</ele>
        <time>2013-08-11T15:34:33Z</time>
      </trkpt>
      <trkpt lat="59.336995" lon="18.102098">
        <ele>40.1</ele>
        <time>2013-08-11T15:34:34Z</time>
      </trkpt>
      <trkpt lat="59.336934" lon="18.102058">
        <ele>40.8</ele>
        <time>2013-08-11T15:34:35Z</time>
      </trkpt>
      <trkpt lat="59.336871" lon="18.10201">
        <ele>40.5</ele>
        <time>2013-08-11T15:34:36Z</time>
      </trkpt>
      <trkpt lat="59.336814" lon="18.101957">
        <ele>40.8</ele>
        <time>2013-08-11T15:34:37Z</time>
      </trkpt>
      <trkpt lat="59.336759" lon="18.101902">
        <ele>41.4</ele>
        <time>2013-08-11T15:34:38Z</time>
      </trkpt>
      <trkpt lat="59.336696" lon="18.101846">
        <ele>41.3</ele>
        <time>2013-08-11T15:34:39Z</time>
      </trkpt>
      <trkpt lat="59.336643" lon="18.101769">
        <ele>40.4</ele>
        <time>2013-08-11T15:34:40Z</time>
      </trkpt>
      <trkpt lat="59.33659" lon="18.101696">
        <ele>40</ele>
        <time>2013-08-11T15:34:41Z</time>
      </trkpt>
      <trkpt lat="59.33653" lon="18.101646">
        <ele>39.8</ele>
        <time>2013-08-11T15:34:42Z</time>
      </trkpt>
      <trkpt lat="59.336486" lon="18.101601">
        <ele>40.7</ele>
        <time>2013-08-11T15:34:43Z</time>
      </trkpt>
      <trkpt lat="59.336433" lon="18.101549">
        <ele>40.8</ele>
        <time>2013-08-11T15:34:44Z</time>
      </trkpt>
      <trkpt lat="59.336374" lon="18.101499">
        <ele>41.5</ele>
        <time>2013-08-11T15:34:45Z</time>
      </trkpt>
      <trkpt lat="59.336319" lon="18.101453">
        <ele>41.7</ele>
        <time>2013-08-11T15:34:46Z</time>
      </trkpt>
      <trkpt lat="59.336267" lon="18.101406">
        <ele>41.1</ele>
        <time>2013-08-11T15:34:47Z</time>
      </trkpt>
      <trkpt lat="59.336217" lon="18.101352">
        <ele>40.9</ele>
        <time>2013-08-11T15:34:48Z</time>
      </trkpt>
      <trkpt lat="59.336165" lon="18.101293">
        <ele>41.3</ele>
        <time>2013-08-11T15:34:49Z</time>
      </trkpt>
      <trkpt lat="59.336119" lon="18.101279">
        <ele>41.8</ele>
        <time>2013-08-11T15:34:50Z</time>
      </trkpt>
      <trkpt lat="59.336059" lon="18.101245">
        <ele>42.4</ele>
        <time>2013-08-11T15:34:51Z</time>
      </trkpt>
      <trkpt lat="59.336003" lon="18.101199">
        <ele>42.4</ele>
        <time>2013-08-11T15:34:52Z</time>
      </trkpt>
      <trkpt lat="59.33595" lon="18.101148">
        <ele>42.3</ele>
        <time>2013-08-11T15:34:53Z</time>
      </trkpt>
      <trkpt lat="59.33589" lon="18.101101">
        <ele>42.5</ele>
        <time>2013-08-11T15:34:54Z</time>
      </trkpt>
      <trkpt lat="59.335823" lon="18.101138">
        <ele>43.6</ele>
        <time>2013-08-11T15:34:55Z</time>
      </trkpt>
      <trkpt lat="59.335783" lon="18.10103">
        <ele>43.6</ele>
        <time>2013-08-11T15:34:56Z</time>
      </trkpt>
      <trkpt lat="59.335721" lon="18.100972">
        <ele>42.1</ele>
        <time>2013-08-11T15:34:57Z</time>
      </trkpt>
      <trkpt lat="59.33567" lon="18.100923">
        <ele>41.6</ele>
        <time>2013-08-11T15:34:58Z</time>
      </trkpt>
      <trkpt lat="59.335608" lon="18.100902">
        <ele>42.3</ele>
        <time>2013-08-11T15:34:59Z</time>
      </trkpt>
      <trkpt lat="59.335571" lon="18.100805">
        <ele>43</ele>
        <time>2013-08-11T15:35:00Z</time>
      </trkpt>
      <trkpt lat="59.335521" lon="18.100766">
        <ele>42.5</ele>
        <time>2013-08-11T15:35:01Z</time>
      </trkpt>
      <trkpt lat="59.335465" lon="18.100727">
        <ele>42.3</ele>
        <time>2013-08-11T15:35:02Z</time>
      </trkpt>
      <trkpt lat="59.335409" lon="18.100684">
        <ele>43</ele>
        <time>2013-08-11T15:35:03Z</time>
      </trkpt>
      <trkpt lat="59.335363" lon="18.100639">
        <ele>43.4</ele>
        <time>2013-08-11T15:35:04Z</time>
      </trkpt>
      <trkpt lat="59.335311" lon="18.100595">
        <ele>43.1</ele>
        <time>2013-08-11T15:35:05Z</time>
      </trkpt>
      <trkpt lat="59.335256" lon="18.100553">
        <ele>42</ele>
        <time>2013-08-11T15:35:06Z</time>
      </trkpt>
      <trkpt lat="59.335196" lon="18.100508">
        <ele>41.2</ele>
        <time>2013-08-11T15:35:07Z</time>
      </trkpt>
      <trkpt lat="59.335138" lon="18.100478">
        <ele>40.8</ele>
        <time>2013-08-11T15:35:08Z</time>
      </trkpt>
      <trkpt lat="59.335083" lon="18.100458">
        <ele>40.9</ele>
        <time>2013-08-11T15:35:09Z</time>
      </trkpt>
      <trkpt lat="59.335029" lon="18.100437">
        <ele>41.2</ele>
        <time>2013-08-11T15:35:10Z</time>
      </trkpt>
      <trkpt lat="59.334965" lon="18.100425">
        <ele>41.7</ele>
        <time>2013-08-11T15:35:11Z</time>
      </trkpt>
      <trkpt lat="59.334905" lon="18.100403">
        <ele>41.7</ele>
        <time>2013-08-11T15:35:12Z</time>
      </trkpt>
      <trkpt lat="59.334843" lon="18.100377">
        <ele>42.4</ele>
        <time>2013-08-11T15:35:13Z</time>
      </trkpt>
      <trkpt lat="59.334773" lon="18.100365">
        <ele>43.3</ele>
        <time>2013-08-11T15:35:14Z</time>
      </trkpt>
      <trkpt lat="59.334713" lon="18.100356">
        <ele>43.1</ele>
        <time>2013-08-11T15:35:15Z</time>
      </trkpt>
      <trkpt lat="59.334654" lon="18.10032">
        <ele>42.8</ele>
        <time>2013-08-11T15:35:16Z</time>
      </trkpt>
      <trkpt lat="59.334596" lon="18.100308">
        <ele>42.7</ele>
        <time>2013-08-11T15:35:17Z</time>
      </trkpt>
      <trkpt lat="59.334536" lon="18.100274">
        <ele>42.9</ele>
        <time>2013-08-11T15:35:18Z</time>
      </trkpt>
      <trkpt lat="59.33448" lon="18.100223">
        <ele>42.4</ele>
        <time>2013-08-11T15:35:19Z</time>
      </trkpt>
      <trkpt lat="59.334428" lon="18.100182">
        <ele>42.1</ele>
        <time>2013-08-11T15:35:20Z</time>
      </trkpt>
      <trkpt lat="59.334377" lon="18.100136">
        <ele>41.8</ele>
        <time>2013-08-11T15:35:21Z</time>
      </trkpt>
      <trkpt lat="59.334321" lon="18.100081">
        <ele>41.6</ele>
        <time>2013-08-11T15:35:22Z</time>
      </trkpt>
      <trkpt lat="59.334263" lon="18.100042">
        <ele>41.7</ele>
        <time>2013-08-11T15:35:23Z</time>
      </trkpt>
      <trkpt lat="59.334205" lon="18.099988">
        <ele>41.6</ele>
        <time>2013-08-11T15:35:24Z</time>
      </trkpt>
      <trkpt lat="59.334151" lon="18.099947">
        <ele>41.3</ele>
        <time>2013-08-11T15:35:25Z</time>
      </trkpt>
      <trkpt lat="59.334093" lon="18.099893">
        <ele>41</ele>
        <time>2013-08-11T15:35:26Z</time>
      </trkpt>
      <trkpt lat="59.334035" lon="18.099839">
        <ele>40.4</ele>
        <time>2013-08-11T15:35:27Z</time>
      </trkpt>
      <trkpt lat="59.333966" lon="18.099805">
        <ele>39.1</ele>
        <time>2013-08-11T15:35:28Z</time>
      </trkpt>
      <trkpt lat="59.333895" lon="18.099759">
        <ele>38.7</ele>
        <time>2013-08-11T15:35:29Z</time>
      </trkpt>
      <trkpt lat="59.333831" lon="18.099706">
        <ele>38.4</ele>
        <time>2013-08-11T15:35:30Z</time>
      </trkpt>
      <trkpt lat="59.333774" lon="18.099649">
        <ele>38</ele>
        <time>2013-08-11T15:35:31Z</time>
      </trkpt>
      <trkpt lat="59.333705" lon="18.099593">
        <ele>37.6</ele>
        <time>2013-08-11T15:35:32Z</time>
      </trkpt>
      <trkpt lat="59.333637" lon="18.099562">
        <ele>37.7</ele>
        <time>2013-08-11T15:35:33Z</time>
      </trkpt>
      <trkpt lat="59.333571" lon="18.099515">
        <ele>38.3</ele>
        <time>2013-08-11T15:35:34Z</time>
      </trkpt>
      <trkpt lat="59.333517" lon="18.099461">
        <ele>37.8</ele>
        <time>2013-08-11T15:35:35Z</time>
      </trkpt>
      <trkpt lat="59.333456" lon="18.099409">
        <ele>37.5</ele>
        <time>2013-08-11T15:35:36Z</time>
      </trkpt>
      <trkpt lat="59.333396" lon="18.099362">
        <ele>37.4</ele>
        <time>2013-08-11T15:35:37Z</time>
      </trkpt>
      <trkpt lat="59.333351" lon="18.099327">
        <ele>37.5</ele>
        <time>2013-08-11T15:35:38Z</time>
      </trkpt>
      <trkpt lat="59.333312" lon="18.099295">
        <ele>37.6</ele>
        <time>2013-08-11T15:35:39Z</time>
      </trkpt>
      <trkpt lat="59.333279" lon="18.099244">
        <ele>37</ele>
        <time>2013-08-11T15:35:40Z</time>
      </trkpt>
      <trkpt lat="59.333238" lon="18.099206">
        <ele>37.3</ele>
        <time>2013-08-11T15:35:41Z</time>
      </trkpt>
      <trkpt lat="59.333195" lon="18.099148">
        <ele>36.9</ele>
        <time>2013-08-11T15:35:42Z</time>
      </trkpt>
      <trkpt lat="59.333158" lon="18.099049">
        <ele>36.8</ele>
        <time>2013-08-11T15:35:43Z</time>
      </trkpt>
      <trkpt lat="59.333138" lon="18.098935">
        <ele>36.5</ele>
        <time>2013-08-11T15:35:44Z</time>
      </trkpt>
      <trkpt lat="59.333114" lon="18.09882">
        <ele>36</ele>
        <time>2013-08-11T15:35:45Z</time>
      </trkpt>
      <trkpt lat="59.333092" lon="18.098701">
        <ele>35.6</ele>
        <time>2013-08-11T15:35:46Z</time>
      </trkpt>
      <trkpt lat="59.333079" lon="18.098573">
        <ele>34.9</ele>
        <time>2013-08-11T15:35:47Z</time>
      </trkpt>
      <trkpt lat="59.333058" lon="18.098442">
        <ele>34.4</ele>
        <time>2013-08-11T15:35:48Z</time>
      </trkpt>
      <trkpt lat="59.333035" lon="18.098305">
        <ele>33.9</ele>
        <time>2013-08-11T15:35:49Z</time>
      </trkpt>
      <trkpt lat="59.333012" lon="18.098169">
        <ele>34.1</ele>
        <time>2013-08-11T15:35:50Z</time>
      </trkpt>
      <trkpt lat="59.332989" lon="18.098021">
        <ele>34</ele>
        <time>2013-08-11T15:35:51Z</time>
      </trkpt>
      <trkpt lat="59.332964" lon="18.097879">
        <ele>34.1</ele>
        <time>2013-08-11T15:35:52Z</time>
      </trkpt>
      <trkpt lat="59.332939" lon="18.097737">
        <ele>34.2</ele>
        <time>2013-08-11T15:35:53Z</time>
      </trkpt>
      <trkpt lat="59.3329" lon="18.097607">
        <ele>34</ele>
        <time>2013-08-11T15:35:54Z</time>
      </trkpt>
      <trkpt lat="59.332857" lon="18.097484">
        <ele>32.8</ele>
        <time>2013-08-11T15:35:55Z</time>
      </trkpt>
      <trkpt lat="59.332814" lon="18.097358">
        <ele>33.1</ele>
        <time>2013-08-11T15:35:56Z</time>
      </trkpt>
      <trkpt lat="59.332763" lon="18.097232">
        <ele>33.2</ele>
        <time>2013-08-11T15:35:57Z</time>
      </trkpt>
      <trkpt lat="59.332691" lon="18.097162">
        <ele>33.4</ele>
        <time>2013-08-11T15:35:58Z</time>
      </trkpt>
      <trkpt lat="59.332633" lon="18.097069">
        <ele>32.9</ele>
        <time>2013-08-11T15:35:59Z</time>
      </trkpt>
      <trkpt lat="59.332569" lon="18.096989">
        <ele>32.6</ele>
        <time>2013-08-11T15:36:00Z</time>
      </trkpt>
      <trkpt lat="59.332506" lon="18.096893">
        <ele>32.3</ele>
        <time>2013-08-11T15:36:01Z</time>
      </trkpt>
      <trkpt lat="59.332445" lon="18.096801">
        <ele>32.4</ele>
        <time>2013-08-11T15:36:02Z</time>
      </trkpt>
      <trkpt lat="59.332378" lon="18.096721">
        <ele>32</ele>
        <time>2013-08-11T15:36:03Z</time>
      </trkpt>
      <trkpt lat="59.332316" lon="18.096629">
        <ele>32.1</ele>
        <time>2013-08-11T15:36:04Z</time>
      </trkpt>
      <trkpt lat="59.332254" lon="18.096543">
        <ele>31.7</ele>
        <time>2013-08-11T15:36:05Z</time>
      </trkpt>
      <trkpt lat="59.332188" lon="18.096458">
        <ele>31.4</ele>
        <time>2013-08-11T15:36:06Z</time>
      </trkpt>
      <trkpt lat="59.332129" lon="18.096383">
        <ele>31</ele>
        <time>2013-08-11T15:36:07Z</time>
      </trkpt>
      <trkpt lat="59.332072" lon="18.096286">
        <ele>30.6</ele>
        <time>2013-08-11T15:36:08Z</time>
      </trkpt>
      <trkpt lat="59.332059" lon="18.096121">
        <ele>30.3</ele>
        <time>2013-08-11T15:36:09Z</time>
      </trkpt>
      <trkpt lat="59.332047" lon="18.095993">
        <ele>29.6</ele>
        <time>2013-08-11T15:36:10Z</time>
      </trkpt>
      <trkpt lat="59.332037" lon="18.095889">
        <ele>30.2</ele>
        <time>2013-08-11T15:36:11Z</time>
      </trkpt>
      <trkpt lat="59.332032" lon="18.095776">
        <ele>30.3</ele>
        <time>2013-08-11T15:36:12Z</time>
      </trkpt>
      <trkpt lat="59.332031" lon="18.095666">
        <ele>30.2</ele>
        <time>2013-08-11T15:36:13Z</time>
      </trkpt>
      <trkpt lat="59.332029" lon="18.095554">
        <ele>29.7</ele>
        <time>2013-08-11T15:36:14Z</time>
      </trkpt>
      <trkpt lat="59.33202" lon="18.095464">
        <ele>30.2</ele>
        <time>2013-08-11T15:36:15Z</time>
      </trkpt>
      <trkpt lat="59.332019" lon="18.095334">
        <ele>29.9</ele>
        <time>2013-08-11T15:36:16Z</time>
      </trkpt>
      <trkpt lat="59.332016" lon="18.095213">
        <ele>29.9</ele>
        <time>2013-08-11T15:36:17Z</time>
      </trkpt>
      <trkpt lat="59.332014" lon="18.095085">
        <ele>29.5</ele>
        <time>2013-08-11T15:36:18Z</time>
      </trkpt>
      <trkpt lat="59.332013" lon="18.09496">
        <ele>29.5</ele>
        <time>2013-08-11T15:36:19Z</time>
      </trkpt>
      <trkpt lat="59.332005" lon="18.094851">
        <ele>29.6</ele>
        <time>2013-08-11T15:36:20Z</time>
      </trkpt>
      <trkpt lat="59.331997" lon="18.094744">
        <ele>29.7</ele>
        <time>2013-08-11T15:36:21Z</time>
      </trkpt>
      <trkpt lat="59.331993" lon="18.094641">
        <ele>29.6</ele>
        <time>2013-08-11T15:36:22Z</time>
      </trkpt>
      <trkpt lat="59.331986" lon="18.09457">
        <ele>27.6</ele>
        <time>2013-08-11T15:36:23Z</time>
      </trkpt>
      <trkpt lat="59.331985" lon="18.094497">
        <ele>27.6</ele>
        <time>2013-08-11T15:36:24Z</time>
      </trkpt>
      <trkpt lat="59.331987" lon="18.094442">
        <ele>28</ele>
        <time>2013-08-11T15:36:25Z</time>
      </trkpt>
      <trkpt lat="59.331976" lon="18.094353">
        <ele>28.4</ele>
        <time>2013-08-11T15:36:27Z</time>
      </trkpt>
      <trkpt lat="59.331973" lon="18.094299">
        <ele>28.4</ele>
        <time>2013-08-11T15:36:29Z</time>
      </trkpt>
      <trkpt lat="59.331979" lon="18.094219">
        <ele>31.5</ele>
        <time>2013-08-11T15:36:32Z</time>
      </trkpt>
      <trkpt lat="59.331966" lon="18.094166">
        <ele>31.7</ele>
        <time>2013-08-11T15:36:36Z</time>
      </trkpt>
      <trkpt lat="59.331955" lon="18.094099">
        <ele>30.2</ele>
        <time>2013-08-11T15:36:46Z</time>
      </trkpt>
      <trkpt lat="59.33195" lon="18.094035">
        <ele>30.5</ele>
        <time>2013-08-11T15:36:47Z</time>
      </trkpt>
      <trkpt lat="59.331948" lon="18.093948">
        <ele>28.9</ele>
        <time>2013-08-11T15:36:48Z</time>
      </trkpt>
      <trkpt lat="59.331946" lon="18.093849">
        <ele>28.4</ele>
        <time>2013-08-11T15:36:49Z</time>
      </trkpt>
      <trkpt lat="59.331957" lon="18.093668">
        <ele>30.5</ele>
        <time>2013-08-11T15:36:50Z</time>
      </trkpt>
      <trkpt lat="59.331954" lon="18.093531">
        <ele>30.6</ele>
        <time>2013-08-11T15:36:51Z</time>
      </trkpt>
      <trkpt lat="59.331961" lon="18.09339">
        <ele>29.9</ele>
        <time>2013-08-11T15:36:52Z</time>
      </trkpt>
      <trkpt lat="59.331958" lon="18.093269">
        <ele>30.2</ele>
        <time>2013-08-11T15:36:53Z</time>
      </trkpt>
      <trkpt lat="59.33196" lon="18.093142">
        <ele>29.3</ele>
        <time>2013-08-11T15:36:54Z</time>
      </trkpt>
      <trkpt lat="59.331953" lon="18.093029">
        <ele>29.2</ele>
        <time>2013-08-11T15:36:55Z</time>
      </trkpt>
      <trkpt lat="59.33196" lon="18.09291">
        <ele>28.6</ele>
        <time>2013-08-11T15:36:56Z</time>
      </trkpt>
      <trkpt lat="59.33196" lon="18.092794">
        <ele>28.9</ele>
        <time>2013-08-11T15:36:57Z</time>
      </trkpt>
      <trkpt lat="59.331958" lon="18.092683">
        <ele>28.1</ele>
        <time>2013-08-11T15:36:58Z</time>
      </trkpt>
      <trkpt lat="59.331957" lon="18.092582">
        <ele>28.1</ele>
        <time>2013-08-11T15:36:59Z</time>
      </trkpt>
      <trkpt lat="59.331958" lon="18.092476">
        <ele>27.6</ele>
        <time>2013-08-11T15:37:00Z</time>
      </trkpt>
      <trkpt lat="59.331955" lon="18.092364">
        <ele>26.8</ele>
        <time>2013-08-11T15:37:01Z</time>
      </trkpt>
      <trkpt lat="59.331953" lon="18.092264">
        <ele>27.2</ele>
        <time>2013-08-11T15:37:02Z</time>
      </trkpt>
      <trkpt lat="59.331947" lon="18.092158">
        <ele>27</ele>
        <time>2013-08-11T15:37:03Z</time>
      </trkpt>
      <trkpt lat="59.331946" lon="18.092032">
        <ele>26.7</ele>
        <time>2013-08-11T15:37:04Z</time>
      </trkpt>
      <trkpt lat="59.331938" lon="18.091903">
        <ele>27.7</ele>
        <time>2013-08-11T15:37:05Z</time>
      </trkpt>
      <trkpt lat="59.33193" lon="18.091782">
        <ele>27</ele>
        <time>2013-08-11T15:37:06Z</time>
      </trkpt>
      <trkpt lat="59.331925" lon="18.091642">
        <ele>27.5</ele>
        <time>2013-08-11T15:37:07Z</time>
      </trkpt>
      <trkpt lat="59.331919" lon="18.091502">
        <ele>27.3</ele>
        <time>2013-08-11T15:37:08Z</time>
      </trkpt>
      <trkpt lat="59.331916" lon="18.091362">
        <ele>27.3</ele>
        <time>2013-08-11T15:37:09Z</time>
      </trkpt>
      <trkpt lat="59.331917" lon="18.09122">
        <ele>26.9</ele>
        <time>2013-08-11T15:37:10Z</time>
      </trkpt>
      <trkpt lat="59.331913" lon="18.091075">
        <ele>27.1</ele>
        <time>2013-08-11T15:37:11Z</time>
      </trkpt>
      <trkpt lat="59.331908" lon="18.090928">
        <ele>27.1</ele>
        <time>2013-08-11T15:37:12Z</time>
      </trkpt>
      <trkpt lat="59.331908" lon="18.090767">
        <ele>26.8</ele>
        <time>2013-08-11T15:37:13Z</time>
      </trkpt>
      <trkpt lat="59.331906" lon="18.090632">
        <ele>26.6</ele>
        <time>2013-08-11T15:37:14Z</time>
      </trkpt>
      <trkpt lat="59.331904" lon="18.090501">
        <ele>27.1</ele>
        <time>2013-08-11T15:37:15Z</time>
      </trkpt>
      <trkpt lat="59.331903" lon="18.090366">
        <ele>27</ele>
        <time>2013-08-11T15:37:16Z</time>
      </trkpt>
      <trkpt lat="59.331897" lon="18.090226">
        <ele>27.2</ele>
        <time>2013-08-11T15:37:17Z</time>
      </trkpt>
      <trkpt lat="59.331896" lon="18.090069">
        <ele>27.1</ele>
        <time>2013-08-11T15:37:18Z</time>
      </trkpt>
      <trkpt lat="59.331899" lon="18.089917">
        <ele>27.2</ele>
        <time>2013-08-11T15:37:19Z</time>
      </trkpt>
      <trkpt lat="59.331891" lon="18.089788">
        <ele>27.4</ele>
        <time>2013-08-11T15:37:20Z</time>
      </trkpt>
      <trkpt lat="59.33188" lon="18.089658">
        <ele>27.5</ele>
        <time>2013-08-11T15:37:21Z</time>
      </trkpt>
      <trkpt lat="59.331873" lon="18.089508">
        <ele>27.7</ele>
        <time>2013-08-11T15:37:22Z</time>
      </trkpt>
      <trkpt lat="59.331863" lon="18.089364">
        <ele>27.9</ele>
        <time>2013-08-11T15:37:23Z</time>
      </trkpt>
      <trkpt lat="59.331858" lon="18.089213">
        <ele>28</ele>
        <time>2013-08-11T15:37:24Z</time>
      </trkpt>
      <trkpt lat="59.331857" lon="18.08905">
        <ele>27.8</ele>
        <time>2013-08-11T15:37:25Z</time>
      </trkpt>
      <trkpt lat="59.331855" lon="18.088891">
        <ele>27.5</ele>
        <time>2013-08-11T15:37:26Z</time>
      </trkpt>
      <trkpt lat="59.331848" lon="18.088746">
        <ele>27.5</ele>
        <time>2013-08-11T15:37:27Z</time>
      </trkpt>
      <trkpt lat="59.331845" lon="18.088599">
        <ele>28</ele>
        <time>2013-08-11T15:37:28Z</time>
      </trkpt>
      <trkpt lat="59.331847" lon="18.088437">
        <ele>27.7</ele>
        <time>2013-08-11T15:37:29Z</time>
      </trkpt>
      <trkpt lat="59.331849" lon="18.088292">
        <ele>27.5</ele>
        <time>2013-08-11T15:37:30Z</time>
      </trkpt>
      <trkpt lat="59.331838" lon="18.08816">
        <ele>26.1</ele>
        <time>2013-08-11T15:37:31Z</time>
      </trkpt>
      <trkpt lat="59.331836" lon="18.088002">
        <ele>26.1</ele>
        <time>2013-08-11T15:37:32Z</time>
      </trkpt>
      <trkpt lat="59.33183" lon="18.087846">
        <ele>26.9</ele>
        <time>2013-08-11T15:37:33Z</time>
      </trkpt>
      <trkpt lat="59.331826" lon="18.0877">
        <ele>26.5</ele>
        <time>2013-08-11T15:37:34Z</time>
      </trkpt>
      <trkpt lat="59.331825" lon="18.087552">
        <ele>26.4</ele>
        <time>2013-08-11T15:37:35Z</time>
      </trkpt>
      <trkpt lat="59.331825" lon="18.087395">
        <ele>26.1</ele>
        <time>2013-08-11T15:37:36Z</time>
      </trkpt>
      <trkpt lat="59.331824" lon="18.087249">
        <ele>25.9</ele>
        <time>2013-08-11T15:37:37Z</time>
      </trkpt>
      <trkpt lat="59.331819" lon="18.087113">
        <ele>25.4</ele>
        <time>2013-08-11T15:37:38Z</time>
      </trkpt>
      <trkpt lat="59.331819" lon="18.086965">
        <ele>25.3</ele>
        <time>2013-08-11T15:37:39Z</time>
      </trkpt>
      <trkpt lat="59.331817" lon="18.086831">
        <ele>24.9</ele>
        <time>2013-08-11T15:37:40Z</time>
      </trkpt>
      <trkpt lat="59.331822" lon="18.086701">
        <ele>24.6</ele>
        <time>2013-08-11T15:37:41Z</time>
      </trkpt>
      <trkpt lat="59.331832" lon="18.086566">
        <ele>24.3</ele>
        <time>2013-08-11T15:37:42Z</time>
      </trkpt>
      <trkpt lat="59.331825" lon="18.086448">
        <ele>24.3</ele>
        <time>2013-08-11T15:37:43Z</time>
      </trkpt>
      <trkpt lat="59.33182" lon="18.086325">
        <ele>24.7</ele>
        <time>2013-08-11T15:37:44Z</time>
      </trkpt>
      <trkpt lat="59.331817" lon="18.08621">
        <ele>25.5</ele>
        <time>2013-08-11T15:37:45Z</time>
      </trkpt>
      <trkpt lat="59.33181" lon="18.086125">
        <ele>24.3</ele>
        <time>2013-08-11T15:37:46Z</time>
      </trkpt>
      <trkpt lat="59.331805" lon="18.086028">
        <ele>24.6</ele>
        <time>2013-08-11T15:37:47Z</time>
      </trkpt>
      <trkpt lat="59.3318" lon="18.085928">
        <ele>25.7</ele>
        <time>2013-08-11T15:37:48Z</time>
      </trkpt>
      <trkpt lat="59.331804" lon="18.085833">
        <ele>25.7</ele>
        <time>2013-08-11T15:37:49Z</time>
      </trkpt>
      <trkpt lat="59.331803" lon="18.085729">
        <ele>26.3</ele>
        <time>2013-08-11T15:37:50Z</time>
      </trkpt>
      <trkpt lat="59.331801" lon="18.085649">
        <ele>26.3</ele>
        <time>2013-08-11T15:37:51Z</time>
      </trkpt>
      <trkpt lat="59.331796" lon="18.085575">
        <ele>26.4</ele>
        <time>2013-08-11T15:37:52Z</time>
      </trkpt>
      <trkpt lat="59.331795" lon="18.0855">
        <ele>26.4</ele>
        <time>2013-08-11T15:37:53Z</time>
      </trkpt>
      <trkpt lat="59.331798" lon="18.085439">
        <ele>26.4</ele>
        <time>2013-08-11T15:37:54Z</time>
      </trkpt>
      <trkpt lat="59.331801" lon="18.085352">
        <ele>26.5</ele>
        <time>2013-08-11T15:37:56Z</time>
      </trkpt>
      <trkpt lat="59.331815" lon="18.085282">
        <ele>27.9</ele>
        <time>2013-08-11T15:37:57Z</time>
      </trkpt>
      <trkpt lat="59.331824" lon="18.085204">
        <ele>28.4</ele>
        <time>2013-08-11T15:37:59Z</time>
      </trkpt>
      <trkpt lat="59.331822" lon="18.085143">
        <ele>28.4</ele>
        <time>2013-08-11T15:38:04Z</time>
      </trkpt>
      <trkpt lat="59.3318" lon="18.085176">
        <ele>27.6</ele>
        <time>2013-08-11T15:38:07Z</time>
      </trkpt>
      <trkpt lat="59.331782" lon="18.085091">
        <ele>26.6</ele>
        <time>2013-08-11T15:38:15Z</time>
      </trkpt>
      <trkpt lat="59.331779" lon="18.085027">
        <ele>26.5</ele>
        <time>2013-08-11T15:38:16Z</time>
      </trkpt>
      <trkpt lat="59.331779" lon="18.084952">
        <ele>26</ele>
        <time>2013-08-11T15:38:17Z</time>
      </trkpt>
      <trkpt lat="59.331777" lon="18.084861">
        <ele>26.4</ele>
        <time>2013-08-11T15:38:18Z</time>
      </trkpt>
      <trkpt lat="59.331771" lon="18.084756">
        <ele>26.2</ele>
        <time>2013-08-11T15:38:19Z</time>
      </trkpt>
      <trkpt lat="59.331769" lon="18.084608">
        <ele>25.8</ele>
        <time>2013-08-11T15:38:20Z</time>
      </trkpt>
      <trkpt lat="59.331774" lon="18.084475">
        <ele>25.2</ele>
        <time>2013-08-11T15:38:21Z</time>
      </trkpt>
      <trkpt lat="59.331769" lon="18.084347">
        <ele>26.2</ele>
        <time>2013-08-11T15:38:22Z</time>
      </trkpt>
      <trkpt lat="59.331767" lon="18.084226">
        <ele>26.5</ele>
        <time>2013-08-11T15:38:23Z</time>
      </trkpt>
      <trkpt lat="59.331761" lon="18.0841">
        <ele>26.4</ele>
        <time>2013-08-11T15:38:24Z</time>
      </trkpt>
      <trkpt lat="59.331758" lon="18.083975">
        <ele>26.2</ele>
        <time>2013-08-11T15:38:25Z</time>
      </trkpt>
      <trkpt lat="59.331755" lon="18.083853">
        <ele>25.8</ele>
        <time>2013-08-11T15:38:26Z</time>
      </trkpt>
      <trkpt lat="59.331763" lon="18.083709">
        <ele>25.4</ele>
        <time>2013-08-11T15:38:27Z</time>
      </trkpt>
      <trkpt lat="59.331771" lon="18.083562">
        <ele>24.8</ele>
        <time>2013-08-11T15:38:28Z</time>
      </trkpt>
      <trkpt lat="59.331759" lon="18.083428">
        <ele>24.9</ele>
        <time>2013-08-11T15:38:29Z</time>
      </trkpt>
      <trkpt lat="59.331746" lon="18.083303">
        <ele>25.1</ele>
        <time>2013-08-11T15:38:30Z</time>
      </trkpt>
      <trkpt lat="59.331739" lon="18.083176">
        <ele>24.8</ele>
        <time>2013-08-11T15:38:31Z</time>
      </trkpt>
      <trkpt lat="59.331738" lon="18.083039">
        <ele>24.2</ele>
        <time>2013-08-11T15:38:32Z</time>
      </trkpt>
      <trkpt lat="59.331733" lon="18.082912">
        <ele>24.4</ele>
        <time>2013-08-11T15:38:33Z</time>
      </trkpt>
      <trkpt lat="59.331735" lon="18.082791">
        <ele>24</ele>
        <time>2013-08-11T15:38:34Z</time>
      </trkpt>
      <trkpt lat="59.331731" lon="18.082669">
        <ele>23.6</ele>
        <time>2013-08-11T15:38:35Z</time>
      </trkpt>
      <trkpt lat="59.331727" lon="18.082544">
        <ele>24.2</ele>
        <time>2013-08-11T15:38:36Z</time>
      </trkpt>
      <trkpt lat="59.331722" lon="18.082427">
        <ele>24.7</ele>
        <time>2013-08-11T15:38:37Z</time>
      </trkpt>
      <trkpt lat="59.331716" lon="18.082312">
        <ele>24.9</ele>
        <time>2013-08-11T15:38:38Z</time>
      </trkpt>
      <trkpt lat="59.331713" lon="18.082191">
        <ele>24.9</ele>
        <time>2013-08-11T15:38:39Z</time>
      </trkpt>
      <trkpt lat="59.33171" lon="18.082064">
        <ele>24.7</ele>
        <time>2013-08-11T15:38:40Z</time>
      </trkpt>
      <trkpt lat="59.331697" lon="18.081959">
        <ele>25.3</ele>
        <time>2013-08-11T15:38:41Z</time>
      </trkpt>
      <trkpt lat="59.331697" lon="18.081837">
        <ele>25.2</ele>
        <time>2013-08-11T15:38:42Z</time>
      </trkpt>
      <trkpt lat="59.331701" lon="18.081707">
        <ele>25.2</ele>
        <time>2013-08-11T15:38:43Z</time>
      </trkpt>
      <trkpt lat="59.331696" lon="18.081605">
        <ele>25.1</ele>
        <time>2013-08-11T15:38:44Z</time>
      </trkpt>
      <trkpt lat="59.331697" lon="18.081498">
        <ele>24.6</ele>
        <time>2013-08-11T15:38:45Z</time>
      </trkpt>
      <trkpt lat="59.331704" lon="18.081397">
        <ele>24.2</ele>
        <time>2013-08-11T15:38:46Z</time>
      </trkpt>
      <trkpt lat="59.331707" lon="18.081309">
        <ele>23.9</ele>
        <time>2013-08-11T15:38:47Z</time>
      </trkpt>
      <trkpt lat="59.331712" lon="18.081221">
        <ele>23.9</ele>
        <time>2013-08-11T15:38:48Z</time>
      </trkpt>
      <trkpt lat="59.331721" lon="18.081138">
        <ele>23.4</ele>
        <time>2013-08-11T15:38:49Z</time>
      </trkpt>
      <trkpt lat="59.331707" lon="18.08108">
        <ele>23.5</ele>
        <time>2013-08-11T15:38:50Z</time>
      </trkpt>
      <trkpt lat="59.331721" lon="18.080979">
        <ele>25.6</ele>
        <time>2013-08-11T15:38:51Z</time>
      </trkpt>
      <trkpt lat="59.331733" lon="18.080914">
        <ele>25.9</ele>
        <time>2013-08-11T15:38:52Z</time>
      </trkpt>
      <trkpt lat="59.331746" lon="18.080848">
        <ele>25.6</ele>
        <time>2013-08-11T15:38:53Z</time>
      </trkpt>
      <trkpt lat="59.331769" lon="18.080766">
        <ele>26.5</ele>
        <time>2013-08-11T15:38:54Z</time>
      </trkpt>
      <trkpt lat="59.331792" lon="18.08068">
        <ele>27.3</ele>
        <time>2013-08-11T15:38:55Z</time>
      </trkpt>
      <trkpt lat="59.331808" lon="18.080605">
        <ele>27.6</ele>
        <time>2013-08-11T15:38:56Z</time>
      </trkpt>
      <trkpt lat="59.33182" lon="18.080557">
        <ele>27.1</ele>
        <time>2013-08-11T15:38:57Z</time>
      </trkpt>
      <trkpt lat="59.331838" lon="18.080481">
        <ele>27.9</ele>
        <time>2013-08-11T15:38:59Z</time>
      </trkpt>
      <trkpt lat="59.331857" lon="18.080399">
        <ele>27.5</ele>
        <time>2013-08-11T15:39:01Z</time>
      </trkpt>
      <trkpt lat="59.331871" lon="18.080346">
        <ele>27.3</ele>
        <time>2013-08-11T15:39:02Z</time>
      </trkpt>
      <trkpt lat="59.331889" lon="18.080288">
        <ele>26</ele>
        <time>2013-08-11T15:39:03Z</time>
      </trkpt>
      <trkpt lat="59.331913" lon="18.080202">
        <ele>26.6</ele>
        <time>2013-08-11T15:39:04Z</time>
      </trkpt>
      <trkpt lat="59.331944" lon="18.08009">
        <ele>26</ele>
        <time>2013-08-11T15:39:05Z</time>
      </trkpt>
      <trkpt lat="59.331966" lon="18.080006">
        <ele>25.8</ele>
        <time>2013-08-11T15:39:06Z</time>
      </trkpt>
      <trkpt lat="59.331985" lon="18.079929">
        <ele>26.3</ele>
        <time>2013-08-11T15:39:07Z</time>
      </trkpt>
      <trkpt lat="59.332002" lon="18.079858">
        <ele>26.5</ele>
        <time>2013-08-11T15:39:08Z</time>
      </trkpt>
      <trkpt lat="59.332019" lon="18.079794">
        <ele>26.2</ele>
        <time>2013-08-11T15:39:09Z</time>
      </trkpt>
      <trkpt lat="59.332035" lon="18.079729">
        <ele>26.6</ele>
        <time>2013-08-11T15:39:10Z</time>
      </trkpt>
      <trkpt lat="59.332056" lon="18.07967">
        <ele>26.7</ele>
        <time>2013-08-11T15:39:11Z</time>
      </trkpt>
      <trkpt lat="59.332076" lon="18.079607">
        <ele>26.4</ele>
        <time>2013-08-11T15:39:12Z</time>
      </trkpt>
      <trkpt lat="59.332091" lon="18.079549">
        <ele>25.5</ele>
        <time>2013-08-11T15:39:13Z</time>
      </trkpt>
      <trkpt lat="59.332109" lon="18.079482">
        <ele>25.5</ele>
        <time>2013-08-11T15:39:14Z</time>
      </trkpt>
      <trkpt lat="59.33212" lon="18.07941">
        <ele>26.1</ele>
        <time>2013-08-11T15:39:15Z</time>
      </trkpt>
      <trkpt lat="59.332134" lon="18.079345">
        <ele>26.9</ele>
        <time>2013-08-11T15:39:16Z</time>
      </trkpt>
      <trkpt lat="59.332149" lon="18.079274">
        <ele>26.5</ele>
        <time>2013-08-11T15:39:17Z</time>
      </trkpt>
      <trkpt lat="59.332167" lon="18.079199">
        <ele>26.2</ele>
        <time>2013-08-11T15:39:18Z</time>
      </trkpt>
      <trkpt lat="59.332196" lon="18.079107">
        <ele>26</ele>
        <time>2013-08-11T15:39:19Z</time>
      </trkpt>
      <trkpt lat="59.332219" lon="18.07903">
        <ele>26.1</ele>
        <time>2013-08-11T15:39:20Z</time>
      </trkpt>
      <trkpt lat="59.332235" lon="18.078961">
        <ele>26.5</ele>
        <time>2013-08-11T15:39:21Z</time>
      </trkpt>
      <trkpt lat="59.332251" lon="18.078894">
        <ele>26.8</ele>
        <time>2013-08-11T15:39:22Z</time>
      </trkpt>
      <trkpt lat="59.332266" lon="18.078837">
        <ele>26</ele>
        <time>2013-08-11T15:39:23Z</time>
      </trkpt>
      <trkpt lat="59.332277" lon="18.078781">
        <ele>26.6</ele>
        <time>2013-08-11T15:39:24Z</time>
      </trkpt>
      <trkpt lat="59.332293" lon="18.078725">
        <ele>26.6</ele>
        <time>2013-08-11T15:39:25Z</time>
      </trkpt>
      <trkpt lat="59.332306" lon="18.078665">
        <ele>26.7</ele>
        <time>2013-08-11T15:39:26Z</time>
      </trkpt>
      <trkpt lat="59.332322" lon="18.07861">
        <ele>26.7</ele>
        <time>2013-08-11T15:39:27Z</time>
      </trkpt>
      <trkpt lat="59.332336" lon="18.078557">
        <ele>26.7</ele>
        <time>2013-08-11T15:39:28Z</time>
      </trkpt>
      <trkpt lat="59.332355" lon="18.078487">
        <ele>27.9</ele>
        <time>2013-08-11T15:39:29Z</time>
      </trkpt>
      <trkpt lat="59.332373" lon="18.078427">
        <ele>27.6</ele>
        <time>2013-08-11T15:39:30Z</time>
      </trkpt>
      <trkpt lat="59.332392" lon="18.078364">
        <ele>28</ele>
        <time>2013-08-11T15:39:31Z</time>
      </trkpt>
      <trkpt lat="59.33241" lon="18.0783">
        <ele>27.8</ele>
        <time>2013-08-11T15:39:32Z</time>
      </trkpt>
      <trkpt lat="59.332428" lon="18.078236">
        <ele>28.2</ele>
        <time>2013-08-11T15:39:33Z</time>
      </trkpt>
      <trkpt lat="59.332445" lon="18.078171">
        <ele>28</ele>
        <time>2013-08-11T15:39:34Z</time>
      </trkpt>
      <trkpt lat="59.332461" lon="18.078107">
        <ele>27.1</ele>
        <time>2013-08-11T15:39:35Z</time>
      </trkpt>
      <trkpt lat="59.332476" lon="18.078045">
        <ele>27.2</ele>
        <time>2013-08-11T15:39:36Z</time>
      </trkpt>
      <trkpt lat="59.332491" lon="18.077984">
        <ele>26.9</ele>
        <time>2013-08-11T15:39:37Z</time>
      </trkpt>
      <trkpt lat="59.332505" lon="18.077927">
        <ele>27</ele>
        <time>2013-08-11T15:39:38Z</time>
      </trkpt>
      <trkpt lat="59.332523" lon="18.07785">
        <ele>26.9</ele>
        <time>2013-08-11T15:39:40Z</time>
      </trkpt>
      <trkpt lat="59.332534" lon="18.077796">
        <ele>26.6</ele>
        <time>2013-08-11T15:39:42Z</time>
      </trkpt>
      <trkpt lat="59.332544" lon="18.077744">
        <ele>25.7</ele>
        <time>2013-08-11T15:39:44Z</time>
      </trkpt>
      <trkpt lat="59.332564" lon="18.077704">
        <ele>26</ele>
        <time>2013-08-11T15:40:32Z</time>
      </trkpt>
      <trkpt lat="59.332576" lon="18.077648">
        <ele>26</ele>
        <time>2013-08-11T15:40:33Z</time>
      </trkpt>
      <trkpt lat="59.332594" lon="18.077578">
        <ele>25.6</ele>
        <time>2013-08-11T15:40:34Z</time>
      </trkpt>
      <trkpt lat="59.332614" lon="18.077493">
        <ele>26.8</ele>
        <time>2013-08-11T15:40:35Z</time>
      </trkpt>
      <trkpt lat="59.332636" lon="18.077401">
        <ele>27.1</ele>
        <time>2013-08-11T15:40:36Z</time>
      </trkpt>
      <trkpt lat="59.332661" lon="18.077291">
        <ele>26.8</ele>
        <time>2013-08-11T15:40:37Z</time>
      </trkpt>
      <trkpt lat="59.33268" lon="18.07721">
        <ele>27.8</ele>
        <time>2013-08-11T15:40:38Z</time>
      </trkpt>
      <trkpt lat="59.332697" lon="18.077141">
        <ele>27.4</ele>
        <time>2013-08-11T15:40:39Z</time>
      </trkpt>
      <trkpt lat="59.332715" lon="18.077083">
        <ele>27.4</ele>
        <time>2013-08-11T15:40:40Z</time>
      </trkpt>
      <trkpt lat="59.332723" lon="18.077032">
        <ele>27.9</ele>
        <time>2013-08-11T15:40:41Z</time>
      </trkpt>
      <trkpt lat="59.332742" lon="18.076974">
        <ele>28.6</ele>
        <time>2013-08-11T15:40:42Z</time>
      </trkpt>
      <trkpt lat="59.332752" lon="18.076903">
        <ele>30.1</ele>
        <time>2013-08-11T15:40:43Z</time>
      </trkpt>
      <trkpt lat="59.33277" lon="18.076836">
        <ele>30.2</ele>
        <time>2013-08-11T15:40:44Z</time>
      </trkpt>
      <trkpt lat="59.332789" lon="18.07677">
        <ele>30</ele>
        <time>2013-08-11T15:40:45Z</time>
      </trkpt>
      <trkpt lat="59.332805" lon="18.076708">
        <ele>30</ele>
        <time>2013-08-11T15:40:46Z</time>
      </trkpt>
      <trkpt lat="59.332823" lon="18.07664">
        <ele>29.8</ele>
        <time>2013-08-11T15:40:47Z</time>
      </trkpt>
      <trkpt lat="59.332839" lon="18.076538">
        <ele>30.2</ele>
        <time>2013-08-11T15:40:48Z</time>
      </trkpt>
      <trkpt lat="59.332862" lon="18.076451">
        <ele>30.1</ele>
        <time>2013-08-11T15:40:49Z</time>
      </trkpt>
      <trkpt lat="59.332882" lon="18.076365">
        <ele>30.1</ele>
        <time>2013-08-11T15:40:50Z</time>
      </trkpt>
      <trkpt lat="59.332901" lon="18.076291">
        <ele>30.4</ele>
        <time>2013-08-11T15:40:51Z</time>
      </trkpt>
      <trkpt lat="59.332921" lon="18.076215">
        <ele>30.8</ele>
        <time>2013-08-11T15:40:52Z</time>
      </trkpt>
      <trkpt lat="59.332936" lon="18.076141">
        <ele>30.9</ele>
        <time>2013-08-11T15:40:53Z</time>
      </trkpt>
      <trkpt lat="59.332955" lon="18.076071">
        <ele>30.4</ele>
        <time>2013-08-11T15:40:54Z</time>
      </trkpt>
      <trkpt lat="59.332971" lon="18.075989">
        <ele>30.6</ele>
        <time>2013-08-11T15:40:55Z</time>
      </trkpt>
      <trkpt lat="59.332982" lon="18.075891">
        <ele>30.6</ele>
        <time>2013-08-11T15:40:56Z</time>
      </trkpt>
      <trkpt lat="59.332986" lon="18.075787">
        <ele>30.6</ele>
        <time>2013-08-11T15:40:57Z</time>
      </trkpt>
      <trkpt lat="59.332994" lon="18.075678">
        <ele>30.7</ele>
        <time>2013-08-11T15:40:58Z</time>
      </trkpt>
      <trkpt lat="59.333003" lon="18.075566">
        <ele>31.1</ele>
        <time>2013-08-11T15:40:59Z</time>
      </trkpt>
      <trkpt lat="59.333018" lon="18.07544">
        <ele>30.8</ele>
        <time>2013-08-11T15:41:00Z</time>
      </trkpt>
      <trkpt lat="59.333028" lon="18.075308">
        <ele>30.4</ele>
        <time>2013-08-11T15:41:01Z</time>
      </trkpt>
      <trkpt lat="59.333034" lon="18.075182">
        <ele>29.8</ele>
        <time>2013-08-11T15:41:02Z</time>
      </trkpt>
      <trkpt lat="59.333032" lon="18.075055">
        <ele>30.1</ele>
        <time>2013-08-11T15:41:03Z</time>
      </trkpt>
      <trkpt lat="59.333029" lon="18.074942">
        <ele>30.5</ele>
        <time>2013-08-11T15:41:04Z</time>
      </trkpt>
      <trkpt lat="59.333027" lon="18.074829">
        <ele>30.4</ele>
        <time>2013-08-11T15:41:05Z</time>
      </trkpt>
      <trkpt lat="59.333025" lon="18.074719">
        <ele>30.5</ele>
        <time>2013-08-11T15:41:06Z</time>
      </trkpt>
      <trkpt lat="59.333019" lon="18.074608">
        <ele>30.6</ele>
        <time>2013-08-11T15:41:07Z</time>
      </trkpt>
      <trkpt lat="59.333015" lon="18.074496">
        <ele>30.6</ele>
        <time>2013-08-11T15:41:08Z</time>
      </trkpt>
      <trkpt lat="59.33303" lon="18.074355">
        <ele>29.5</ele>
        <time>2013-08-11T15:41:09Z</time>
      </trkpt>
      <trkpt lat="59.333021" lon="18.07424">
        <ele>29.1</ele>
        <time>2013-08-11T15:41:10Z</time>
      </trkpt>
      <trkpt lat="59.333016" lon="18.07411">
        <ele>28.9</ele>
        <time>2013-08-11T15:41:11Z</time>
      </trkpt>
      <trkpt lat="59.333019" lon="18.073973">
        <ele>28.8</ele>
        <time>2013-08-11T15:41:12Z</time>
      </trkpt>
      <trkpt lat="59.333024" lon="18.073863">
        <ele>29</ele>
        <time>2013-08-11T15:41:13Z</time>
      </trkpt>
      <trkpt lat="59.333044" lon="18.073748">
        <ele>29</ele>
        <time>2013-08-11T15:41:14Z</time>
      </trkpt>
      <trkpt lat="59.333042" lon="18.073662">
        <ele>28.5</ele>
        <time>2013-08-11T15:41:15Z</time>
      </trkpt>
      <trkpt lat="59.333046" lon="18.073561">
        <ele>28.4</ele>
        <time>2013-08-11T15:41:16Z</time>
      </trkpt>
      <trkpt lat="59.333038" lon="18.073467">
        <ele>28.1</ele>
        <time>2013-08-11T15:41:17Z</time>
      </trkpt>
      <trkpt lat="59.333043" lon="18.073346">
        <ele>28.5</ele>
        <time>2013-08-11T15:41:18Z</time>
      </trkpt>
      <trkpt lat="59.333049" lon="18.073245">
        <ele>28.6</ele>
        <time>2013-08-11T15:41:19Z</time>
      </trkpt>
      <trkpt lat="59.33303" lon="18.073151">
        <ele>29.1</ele>
        <time>2013-08-11T15:41:20Z</time>
      </trkpt>
      <trkpt lat="59.333015" lon="18.073053">
        <ele>29.7</ele>
        <time>2013-08-11T15:41:21Z</time>
      </trkpt>
      <trkpt lat="59.333019" lon="18.072963">
        <ele>29</ele>
        <time>2013-08-11T15:41:22Z</time>
      </trkpt>
      <trkpt lat="59.333014" lon="18.072865">
        <ele>29.6</ele>
        <time>2013-08-11T15:41:23Z</time>
      </trkpt>
      <trkpt lat="59.333017" lon="18.072797">
        <ele>29.4</ele>
        <time>2013-08-11T15:41:24Z</time>
      </trkpt>
      <trkpt lat="59.333015" lon="18.07274">
        <ele>29.6</ele>
        <time>2013-08-11T15:41:25Z</time>
      </trkpt>
      <trkpt lat="59.333018" lon="18.072683">
        <ele>28.9</ele>
        <time>2013-08-11T15:41:26Z</time>
      </trkpt>
      <trkpt lat="59.333014" lon="18.072616">
        <ele>29.6</ele>
        <time>2013-08-11T15:41:28Z</time>
      </trkpt>
      <trkpt lat="59.332993" lon="18.072661">
        <ele>29.8</ele>
        <time>2013-08-11T15:41:30Z</time>
      </trkpt>
      <trkpt lat="59.332969" lon="18.072596">
        <ele>30</ele>
        <time>2013-08-11T15:41:35Z</time>
      </trkpt>
      <trkpt lat="59.332949" lon="18.072524">
        <ele>29.2</ele>
        <time>2013-08-11T15:41:37Z</time>
      </trkpt>
      <trkpt lat="59.332928" lon="18.07244">
        <ele>29.3</ele>
        <time>2013-08-11T15:41:39Z</time>
      </trkpt>
      <trkpt lat="59.332908" lon="18.072354">
        <ele>29.4</ele>
        <time>2013-08-11T15:41:41Z</time>
      </trkpt>
      <trkpt lat="59.332906" lon="18.072299">
        <ele>31.3</ele>
        <time>2013-08-11T15:41:42Z</time>
      </trkpt>
      <trkpt lat="59.332904" lon="18.072239">
        <ele>31.3</ele>
        <time>2013-08-11T15:41:43Z</time>
      </trkpt>
      <trkpt lat="59.332904" lon="18.07218">
        <ele>32.4</ele>
        <time>2013-08-11T15:41:44Z</time>
      </trkpt>
      <trkpt lat="59.332882" lon="18.072093">
        <ele>31.8</ele>
        <time>2013-08-11T15:41:46Z</time>
      </trkpt>
      <trkpt lat="59.332869" lon="18.072046">
        <ele>32.4</ele>
        <time>2013-08-11T15:41:47Z</time>
      </trkpt>
      <trkpt lat="59.332855" lon="18.071996">
        <ele>32.1</ele>
        <time>2013-08-11T15:41:48Z</time>
      </trkpt>
      <trkpt lat="59.332831" lon="18.071938">
        <ele>33.5</ele>
        <time>2013-08-11T15:41:49Z</time>
      </trkpt>
      <trkpt lat="59.332792" lon="18.071893">
        <ele>34.6</ele>
        <time>2013-08-11T15:41:50Z</time>
      </trkpt>
      <trkpt lat="59.332758" lon="18.071835">
        <ele>38.1</ele>
        <time>2013-08-11T15:41:51Z</time>
      </trkpt>
      <trkpt lat="59.332721" lon="18.071802">
        <ele>38.9</ele>
        <time>2013-08-11T15:41:52Z</time>
      </trkpt>
      <trkpt lat="59.332711" lon="18.071713">
        <ele>39.8</ele>
        <time>2013-08-11T15:41:53Z</time>
      </trkpt>
      <trkpt lat="59.332647" lon="18.071716">
        <ele>38.5</ele>
        <time>2013-08-11T15:41:54Z</time>
      </trkpt>
      <trkpt lat="59.332586" lon="18.071785">
        <ele>35.7</ele>
        <time>2013-08-11T15:41:55Z</time>
      </trkpt>
      <trkpt lat="59.332538" lon="18.071817">
        <ele>36</ele>
        <time>2013-08-11T15:41:56Z</time>
      </trkpt>
      <trkpt lat="59.332486" lon="18.071848">
        <ele>36.3</ele>
        <time>2013-08-11T15:41:57Z</time>
      </trkpt>
      <trkpt lat="59.332441" lon="18.071883">
        <ele>37.2</ele>
        <time>2013-08-11T15:41:58Z</time>
      </trkpt>
      <trkpt lat="59.332388" lon="18.071915">
        <ele>37.9</ele>
        <time>2013-08-11T15:41:59Z</time>
      </trkpt>
      <trkpt lat="59.332339" lon="18.071952">
        <ele>37.6</ele>
        <time>2013-08-11T15:42:00Z</time>
      </trkpt>
      <trkpt lat="59.332277" lon="18.071991">
        <ele>36.7</ele>
        <time>2013-08-11T15:42:01Z</time>
      </trkpt>
      <trkpt lat="59.332215" lon="18.072014">
        <ele>35.8</ele>
        <time>2013-08-11T15:42:02Z</time>
      </trkpt>
      <trkpt lat="59.332162" lon="18.072045">
        <ele>37.2</ele>
        <time>2013-08-11T15:42:03Z</time>
      </trkpt>
      <trkpt lat="59.332101" lon="18.072066">
        <ele>36.8</ele>
        <time>2013-08-11T15:42:04Z</time>
      </trkpt>
      <trkpt lat="59.332047" lon="18.072093">
        <ele>37.1</ele>
        <time>2013-08-11T15:42:05Z</time>
      </trkpt>
      <trkpt lat="59.331988" lon="18.072118">
        <ele>37.5</ele>
        <time>2013-08-11T15:42:06Z</time>
      </trkpt>
      <trkpt lat="59.331917" lon="18.072151">
        <ele>38.4</ele>
        <time>2013-08-11T15:42:07Z</time>
      </trkpt>
      <trkpt lat="59.331855" lon="18.072191">
        <ele>38.3</ele>
        <time>2013-08-11T15:42:08Z</time>
      </trkpt>
      <trkpt lat="59.331795" lon="18.072247">
        <ele>37.7</ele>
        <time>2013-08-11T15:42:09Z</time>
      </trkpt>
      <trkpt lat="59.331721" lon="18.072268">
        <ele>36.6</ele>
        <time>2013-08-11T15:42:10Z</time>
      </trkpt>
      <trkpt lat="59.33165" lon="18.072309">
        <ele>37.3</ele>
        <time>2013-08-11T15:42:11Z</time>
      </trkpt>
      <trkpt lat="59.331576" lon="18.072361">
        <ele>37.4</ele>
        <time>2013-08-11T15:42:12Z</time>
      </trkpt>
      <trkpt lat="59.331508" lon="18.072403">
        <ele>37.8</ele>
        <time>2013-08-11T15:42:13Z</time>
      </trkpt>
      <trkpt lat="59.331437" lon="18.072464">
        <ele>37.8</ele>
        <time>2013-08-11T15:42:14Z</time>
      </trkpt>
      <trkpt lat="59.331351" lon="18.072488">
        <ele>38.1</ele>
        <time>2013-08-11T15:42:15Z</time>
      </trkpt>
      <trkpt lat="59.331282" lon="18.072517">
        <ele>38.5</ele>
        <time>2013-08-11T15:42:16Z</time>
      </trkpt>
      <trkpt lat="59.33121" lon="18.072555">
        <ele>38.8</ele>
        <time>2013-08-11T15:42:17Z</time>
      </trkpt>
      <trkpt lat="59.331134" lon="18.072603">
        <ele>39.2</ele>
        <time>2013-08-11T15:42:18Z</time>
      </trkpt>
      <trkpt lat="59.331059" lon="18.072647">
        <ele>37.9</ele>
        <time>2013-08-11T15:42:19Z</time>
      </trkpt>
      <trkpt lat="59.330987" lon="18.072682">
        <ele>37</ele>
        <time>2013-08-11T15:42:20Z</time>
      </trkpt>
      <trkpt lat="59.330916" lon="18.072719">
        <ele>37.2</ele>
        <time>2013-08-11T15:42:21Z</time>
      </trkpt>
      <trkpt lat="59.330846" lon="18.072753">
        <ele>36.7</ele>
        <time>2013-08-11T15:42:22Z</time>
      </trkpt>
      <trkpt lat="59.330785" lon="18.072789">
        <ele>36.2</ele>
        <time>2013-08-11T15:42:23Z</time>
      </trkpt>
      <trkpt lat="59.330721" lon="18.072816">
        <ele>35.8</ele>
        <time>2013-08-11T15:42:24Z</time>
      </trkpt>
      <trkpt lat="59.33067" lon="18.072851">
        <ele>37.6</ele>
        <time>2013-08-11T15:42:25Z</time>
      </trkpt>
      <trkpt lat="59.330611" lon="18.072883">
        <ele>36.8</ele>
        <time>2013-08-11T15:42:26Z</time>
      </trkpt>
      <trkpt lat="59.330552" lon="18.072904">
        <ele>37.3</ele>
        <time>2013-08-11T15:42:27Z</time>
      </trkpt>
      <trkpt lat="59.330498" lon="18.072926">
        <ele>37.5</ele>
        <time>2013-08-11T15:42:28Z</time>
      </trkpt>
      <trkpt lat="59.330442" lon="18.072948">
        <ele>37.8</ele>
        <time>2013-08-11T15:42:29Z</time>
      </trkpt>
      <trkpt lat="59.330388" lon="18.072966">
        <ele>37.5</ele>
        <time>2013-08-11T15:42:30Z</time>
      </trkpt>
      <trkpt lat="59.330343" lon="18.072995">
        <ele>36.9</ele>
        <time>2013-08-11T15:42:31Z</time>
      </trkpt>
      <trkpt lat="59.3303" lon="18.073016">
        <ele>37</ele>
        <time>2013-08-11T15:42:32Z</time>
      </trkpt>
      <trkpt lat="59.330258" lon="18.073048">
        <ele>36.4</ele>
        <time>2013-08-11T15:42:33Z</time>
      </trkpt>
      <trkpt lat="59.330217" lon="18.073081">
        <ele>36.1</ele>
        <time>2013-08-11T15:42:34Z</time>
      </trkpt>
      <trkpt lat="59.330178" lon="18.073076">
        <ele>36.8</ele>
        <time>2013-08-11T15:42:35Z</time>
      </trkpt>
      <trkpt lat="59.330146" lon="18.073091">
        <ele>36.6</ele>
        <time>2013-08-11T15:42:36Z</time>
      </trkpt>
      <trkpt lat="59.330097" lon="18.073132">
        <ele>36.4</ele>
        <time>2013-08-11T15:42:38Z</time>
      </trkpt>
      <trkpt lat="59.330062" lon="18.073148">
        <ele>37.1</ele>
        <time>2013-08-11T15:42:40Z</time>
      </trkpt>
      <trkpt lat="59.330039" lon="18.073211">
        <ele>36.2</ele>
        <time>2013-08-11T15:42:42Z</time>
      </trkpt>
      <trkpt lat="59.329997" lon="18.073226">
        <ele>37.1</ele>
        <time>2013-08-11T15:42:44Z</time>
      </trkpt>
      <trkpt lat="59.32997" lon="18.073243">
        <ele>37.4</ele>
        <time>2013-08-11T15:42:45Z</time>
      </trkpt>
      <trkpt lat="59.329944" lon="18.07326">
        <ele>37.5</ele>
        <time>2013-08-11T15:42:46Z</time>
      </trkpt>
      <trkpt lat="59.329916" lon="18.073273">
        <ele>36.5</ele>
        <time>2013-08-11T15:42:47Z</time>
      </trkpt>
      <trkpt lat="59.329888" lon="18.073284">
        <ele>36</ele>
        <time>2013-08-11T15:42:48Z</time>
      </trkpt>
      <trkpt lat="59.329857" lon="18.07329">
        <ele>35.2</ele>
        <time>2013-08-11T15:42:49Z</time>
      </trkpt>
      <trkpt lat="59.32982" lon="18.073296">
        <ele>33.8</ele>
        <time>2013-08-11T15:42:50Z</time>
      </trkpt>
      <trkpt lat="59.329785" lon="18.073299">
        <ele>32</ele>
        <time>2013-08-11T15:42:51Z</time>
      </trkpt>
      <trkpt lat="59.329747" lon="18.073282">
        <ele>32.5</ele>
        <time>2013-08-11T15:42:52Z</time>
      </trkpt>
      <trkpt lat="59.32971" lon="18.073244">
        <ele>31.4</ele>
        <time>2013-08-11T15:42:53Z</time>
      </trkpt>
      <trkpt lat="59.32968" lon="18.073185">
        <ele>31.2</ele>
        <time>2013-08-11T15:42:54Z</time>
      </trkpt>
      <trkpt lat="59.329656" lon="18.073113">
        <ele>30.5</ele>
        <time>2013-08-11T15:42:55Z</time>
      </trkpt>
      <trkpt lat="59.329638" lon="18.073032">
        <ele>30.5</ele>
        <time>2013-08-11T15:42:56Z</time>
      </trkpt>
      <trkpt lat="59.329626" lon="18.072942">
        <ele>30.3</ele>
        <time>2013-08-11T15:42:57Z</time>
      </trkpt>
      <trkpt lat="59.329614" lon="18.072762">
        <ele>30.3</ele>
        <time>2013-08-11T15:42:58Z</time>
      </trkpt>
      <trkpt lat="59.329601" lon="18.072669">
        <ele>29.8</ele>
        <time>2013-08-11T15:42:59Z</time>
      </trkpt>
      <trkpt lat="59.329591" lon="18.072572">
        <ele>29.7</ele>
        <time>2013-08-11T15:43:00Z</time>
      </trkpt>
      <trkpt lat="59.329576" lon="18.072466">
        <ele>29.4</ele>
        <time>2013-08-11T15:43:01Z</time>
      </trkpt>
      <trkpt lat="59.32956" lon="18.072354">
        <ele>29.8</ele>
        <time>2013-08-11T15:43:02Z</time>
      </trkpt>
      <trkpt lat="59.329546" lon="18.072245">
        <ele>29.8</ele>
        <time>2013-08-11T15:43:03Z</time>
      </trkpt>
      <trkpt lat="59.329532" lon="18.072136">
        <ele>29.6</ele>
        <time>2013-08-11T15:43:04Z</time>
      </trkpt>
      <trkpt lat="59.329524" lon="18.072039">
        <ele>28.8</ele>
        <time>2013-08-11T15:43:05Z</time>
      </trkpt>
      <trkpt lat="59.32952" lon="18.071944">
        <ele>28.8</ele>
        <time>2013-08-11T15:43:06Z</time>
      </trkpt>
      <trkpt lat="59.329513" lon="18.071845">
        <ele>29</ele>
        <time>2013-08-11T15:43:07Z</time>
      </trkpt>
      <trkpt lat="59.32951" lon="18.071737">
        <ele>29.5</ele>
        <time>2013-08-11T15:43:08Z</time>
      </trkpt>
      <trkpt lat="59.329504" lon="18.071629">
        <ele>29.6</ele>
        <time>2013-08-11T15:43:09Z</time>
      </trkpt>
      <trkpt lat="59.329495" lon="18.071525">
        <ele>29.3</ele>
        <time>2013-08-11T15:43:10Z</time>
      </trkpt>
      <trkpt lat="59.32948" lon="18.071414">
        <ele>29.6</ele>
        <time>2013-08-11T15:43:11Z</time>
      </trkpt>
      <trkpt lat="59.329473" lon="18.071306">
        <ele>30.4</ele>
        <time>2013-08-11T15:43:12Z</time>
      </trkpt>
      <trkpt lat="59.329463" lon="18.071193">
        <ele>30.6</ele>
        <time>2013-08-11T15:43:13Z</time>
      </trkpt>
      <trkpt lat="59.329452" lon="18.071082">
        <ele>31</ele>
        <time>2013-08-11T15:43:14Z</time>
      </trkpt>
      <trkpt lat="59.329444" lon="18.07097">
        <ele>31.4</ele>
        <time>2013-08-11T15:43:15Z</time>
      </trkpt>
      <trkpt lat="59.329433" lon="18.070862">
        <ele>32.1</ele>
        <time>2013-08-11T15:43:16Z</time>
      </trkpt>
      <trkpt lat="59.329421" lon="18.070764">
        <ele>32.2</ele>
        <time>2013-08-11T15:43:17Z</time>
      </trkpt>
      <trkpt lat="59.329411" lon="18.070652">
        <ele>32.4</ele>
        <time>2013-08-11T15:43:18Z</time>
      </trkpt>
      <trkpt lat="59.329394" lon="18.070543">
        <ele>32.3</ele>
        <time>2013-08-11T15:43:19Z</time>
      </trkpt>
      <trkpt lat="59.329377" lon="18.070437">
        <ele>32.5</ele>
        <time>2013-08-11T15:43:20Z</time>
      </trkpt>
      <trkpt lat="59.329366" lon="18.070327">
        <ele>32.5</ele>
        <time>2013-08-11T15:43:21Z</time>
      </trkpt>
      <trkpt lat="59.329356" lon="18.070212">
        <ele>32.4</ele>
        <time>2013-08-11T15:43:22Z</time>
      </trkpt>
      <trkpt lat="59.329343" lon="18.070085">
        <ele>33</ele>
        <time>2013-08-11T15:43:23Z</time>
      </trkpt>
      <trkpt lat="59.329331" lon="18.069969">
        <ele>32.7</ele>
        <time>2013-08-11T15:43:24Z</time>
      </trkpt>
      <trkpt lat="59.329315" lon="18.069856">
        <ele>32.7</ele>
        <time>2013-08-11T15:43:25Z</time>
      </trkpt>
      <trkpt lat="59.329301" lon="18.069737">
        <ele>32.6</ele>
        <time>2013-08-11T15:43:26Z</time>
      </trkpt>
      <trkpt lat="59.329292" lon="18.069653">
        <ele>32.2</ele>
        <time>2013-08-11T15:43:27Z</time>
      </trkpt>
      <trkpt lat="59.329284" lon="18.069556">
        <ele>32.7</ele>
        <time>2013-08-11T15:43:28Z</time>
      </trkpt>
      <trkpt lat="59.329281" lon="18.069457">
        <ele>32.8</ele>
        <time>2013-08-11T15:43:29Z</time>
      </trkpt>
      <trkpt lat="59.32928" lon="18.069376">
        <ele>33</ele>
        <time>2013-08-11T15:43:30Z</time>
      </trkpt>
      <trkpt lat="59.329291" lon="18.069317">
        <ele>33.6</ele>
        <time>2013-08-11T15:43:31Z</time>
      </trkpt>
      <trkpt lat="59.329322" lon="18.069254">
        <ele>34.5</ele>
        <time>2013-08-11T15:43:32Z</time>
      </trkpt>
      <trkpt lat="59.329374" lon="18.069208">
        <ele>34.3</ele>
        <time>2013-08-11T15:43:33Z</time>
      </trkpt>
      <trkpt lat="59.329434" lon="18.069152">
        <ele>34.1</ele>
        <time>2013-08-11T15:43:34Z</time>
      </trkpt>
      <trkpt lat="59.329485" lon="18.069092">
        <ele>34</ele>
        <time>2013-08-11T15:43:35Z</time>
      </trkpt>
      <trkpt lat="59.329531" lon="18.069021">
        <ele>33.8</ele>
        <time>2013-08-11T15:43:36Z</time>
      </trkpt>
      <trkpt lat="59.32956" lon="18.068909">
        <ele>33.9</ele>
        <time>2013-08-11T15:43:37Z</time>
      </trkpt>
      <trkpt lat="59.329581" lon="18.068797">
        <ele>33.6</ele>
        <time>2013-08-11T15:43:38Z</time>
      </trkpt>
      <trkpt lat="59.329572" lon="18.068682">
        <ele>33.9</ele>
        <time>2013-08-11T15:43:39Z</time>
      </trkpt>
      <trkpt lat="59.329555" lon="18.068576">
        <ele>34.1</ele>
        <time>2013-08-11T15:43:40Z</time>
      </trkpt>
      <trkpt lat="59.329527" lon="18.068472">
        <ele>33.9</ele>
        <time>2013-08-11T15:43:41Z</time>
      </trkpt>
      <trkpt lat="59.329496" lon="18.068379">
        <ele>33.9</ele>
        <time>2013-08-11T15:43:42Z</time>
      </trkpt>
      <trkpt lat="59.329457" lon="18.068292">
        <ele>34.6</ele>
        <time>2013-08-11T15:43:43Z</time>
      </trkpt>
      <trkpt lat="59.329406" lon="18.068233">
        <ele>34.7</ele>
        <time>2013-08-11T15:43:44Z</time>
      </trkpt>
      <trkpt lat="59.329355" lon="18.068168">
        <ele>34.5</ele>
        <time>2013-08-11T15:43:45Z</time>
      </trkpt>
      <trkpt lat="59.329291" lon="18.068174">
        <ele>35.5</ele>
        <time>2013-08-11T15:43:46Z</time>
      </trkpt>
      <trkpt lat="59.32924" lon="18.068209">
        <ele>35.4</ele>
        <time>2013-08-11T15:43:47Z</time>
      </trkpt>
      <trkpt lat="59.32919" lon="18.068212">
        <ele>35.2</ele>
        <time>2013-08-11T15:43:48Z</time>
      </trkpt>
      <trkpt lat="59.32915" lon="18.068228">
        <ele>35.4</ele>
        <time>2013-08-11T15:43:49Z</time>
      </trkpt>
      <trkpt lat="59.329113" lon="18.06827">
        <ele>36</ele>
        <time>2013-08-11T15:43:50Z</time>
      </trkpt>
      <trkpt lat="59.329085" lon="18.068295">
        <ele>35.8</ele>
        <time>2013-08-11T15:43:51Z</time>
      </trkpt>
      <trkpt lat="59.329056" lon="18.068315">
        <ele>35.5</ele>
        <time>2013-08-11T15:43:52Z</time>
      </trkpt>
      <trkpt lat="59.329005" lon="18.068347">
        <ele>32.6</ele>
        <time>2013-08-11T15:43:54Z</time>
      </trkpt>
      <trkpt lat="59.328974" lon="18.068372">
        <ele>31.8</ele>
        <time>2013-08-11T15:43:56Z</time>
      </trkpt>
      <trkpt lat="59.32891" lon="18.068337">
        <ele>32.1</ele>
        <time>2013-08-11T15:43:58Z</time>
      </trkpt>
      <trkpt lat="59.328881" lon="18.068283">
        <ele>31.7</ele>
        <time>2013-08-11T15:43:59Z</time>
      </trkpt>
      <trkpt lat="59.328858" lon="18.06822">
        <ele>30.9</ele>
        <time>2013-08-11T15:44:00Z</time>
      </trkpt>
      <trkpt lat="59.328834" lon="18.068163">
        <ele>31</ele>
        <time>2013-08-11T15:44:01Z</time>
      </trkpt>
      <trkpt lat="59.328817" lon="18.068112">
        <ele>31.1</ele>
        <time>2013-08-11T15:44:02Z</time>
      </trkpt>
      <trkpt lat="59.328793" lon="18.068059">
        <ele>30.2</ele>
        <time>2013-08-11T15:44:04Z</time>
      </trkpt>
      <trkpt lat="59.328763" lon="18.067955">
        <ele>30</ele>
        <time>2013-08-11T15:44:06Z</time>
      </trkpt>
      <trkpt lat="59.328741" lon="18.067828">
        <ele>29.3</ele>
        <time>2013-08-11T15:44:07Z</time>
      </trkpt>
      <trkpt lat="59.328721" lon="18.067734">
        <ele>29.2</ele>
        <time>2013-08-11T15:44:08Z</time>
      </trkpt>
      <trkpt lat="59.328703" lon="18.067634">
        <ele>29.5</ele>
        <time>2013-08-11T15:44:09Z</time>
      </trkpt>
      <trkpt lat="59.328679" lon="18.067545">
        <ele>29.2</ele>
        <time>2013-08-11T15:44:10Z</time>
      </trkpt>
      <trkpt lat="59.328655" lon="18.067449">
        <ele>29.5</ele>
        <time>2013-08-11T15:44:11Z</time>
      </trkpt>
      <trkpt lat="59.328627" lon="18.067353">
        <ele>29.4</ele>
        <time>2013-08-11T15:44:12Z</time>
      </trkpt>
      <trkpt lat="59.328599" lon="18.067258">
        <ele>29.4</ele>
        <time>2013-08-11T15:44:13Z</time>
      </trkpt>
      <trkpt lat="59.328576" lon="18.067174">
        <ele>29.6</ele>
        <time>2013-08-11T15:44:14Z</time>
      </trkpt>
      <trkpt lat="59.328555" lon="18.06709">
        <ele>29.4</ele>
        <time>2013-08-11T15:44:15Z</time>
      </trkpt>
      <trkpt lat="59.328533" lon="18.066994">
        <ele>29.8</ele>
        <time>2013-08-11T15:44:16Z</time>
      </trkpt>
      <trkpt lat="59.328505" lon="18.066903">
        <ele>30.5</ele>
        <time>2013-08-11T15:44:17Z</time>
      </trkpt>
      <trkpt lat="59.32848" lon="18.066817">
        <ele>30.3</ele>
        <time>2013-08-11T15:44:18Z</time>
      </trkpt>
      <trkpt lat="59.328457" lon="18.066727">
        <ele>30</ele>
        <time>2013-08-11T15:44:19Z</time>
      </trkpt>
      <trkpt lat="59.328426" lon="18.066644">
        <ele>30.4</ele>
        <time>2013-08-11T15:44:20Z</time>
      </trkpt>
      <trkpt lat="59.328397" lon="18.066554">
        <ele>29.8</ele>
        <time>2013-08-11T15:44:21Z</time>
      </trkpt>
      <trkpt lat="59.328362" lon="18.066457">
        <ele>29.8</ele>
        <time>2013-08-11T15:44:22Z</time>
      </trkpt>
      <trkpt lat="59.328324" lon="18.066339">
        <ele>30.1</ele>
        <time>2013-08-11T15:44:23Z</time>
      </trkpt>
      <trkpt lat="59.328295" lon="18.06622">
        <ele>30.2</ele>
        <time>2013-08-11T15:44:24Z</time>
      </trkpt>
      <trkpt lat="59.328264" lon="18.066111">
        <ele>29.9</ele>
        <time>2013-08-11T15:44:25Z</time>
      </trkpt>
      <trkpt lat="59.328226" lon="18.065988">
        <ele>29.3</ele>
        <time>2013-08-11T15:44:26Z</time>
      </trkpt>
      <trkpt lat="59.328197" lon="18.065875">
        <ele>29</ele>
        <time>2013-08-11T15:44:27Z</time>
      </trkpt>
      <trkpt lat="59.328166" lon="18.065754">
        <ele>29.2</ele>
        <time>2013-08-11T15:44:28Z</time>
      </trkpt>
      <trkpt lat="59.32814" lon="18.06564">
        <ele>29.7</ele>
        <time>2013-08-11T15:44:29Z</time>
      </trkpt>
      <trkpt lat="59.328121" lon="18.065536">
        <ele>29.5</ele>
        <time>2013-08-11T15:44:30Z</time>
      </trkpt>
      <trkpt lat="59.328114" lon="18.065386">
        <ele>29.1</ele>
        <time>2013-08-11T15:44:31Z</time>
      </trkpt>
      <trkpt lat="59.328123" lon="18.065269">
        <ele>29.6</ele>
        <time>2013-08-11T15:44:32Z</time>
      </trkpt>
      <trkpt lat="59.328148" lon="18.065164">
        <ele>28.9</ele>
        <time>2013-08-11T15:44:33Z</time>
      </trkpt>
      <trkpt lat="59.328178" lon="18.065056">
        <ele>28.7</ele>
        <time>2013-08-11T15:44:34Z</time>
      </trkpt>
      <trkpt lat="59.328199" lon="18.064944">
        <ele>28.6</ele>
        <time>2013-08-11T15:44:35Z</time>
      </trkpt>
      <trkpt lat="59.328224" lon="18.06484">
        <ele>28.6</ele>
        <time>2013-08-11T15:44:36Z</time>
      </trkpt>
      <trkpt lat="59.328247" lon="18.06473">
        <ele>28.6</ele>
        <time>2013-08-11T15:44:37Z</time>
      </trkpt>
      <trkpt lat="59.328282" lon="18.064625">
        <ele>28.5</ele>
        <time>2013-08-11T15:44:38Z</time>
      </trkpt>
      <trkpt lat="59.328304" lon="18.064532">
        <ele>28.2</ele>
        <time>2013-08-11T15:44:39Z</time>
      </trkpt>
      <trkpt lat="59.32833" lon="18.064425">
        <ele>28.1</ele>
        <time>2013-08-11T15:44:40Z</time>
      </trkpt>
      <trkpt lat="59.328353" lon="18.064315">
        <ele>27.5</ele>
        <time>2013-08-11T15:44:41Z</time>
      </trkpt>
      <trkpt lat="59.328375" lon="18.064219">
        <ele>27.9</ele>
        <time>2013-08-11T15:44:42Z</time>
      </trkpt>
      <trkpt lat="59.328402" lon="18.064122">
        <ele>28</ele>
        <time>2013-08-11T15:44:43Z</time>
      </trkpt>
      <trkpt lat="59.328424" lon="18.064044">
        <ele>27.3</ele>
        <time>2013-08-11T15:44:44Z</time>
      </trkpt>
      <trkpt lat="59.328427" lon="18.063961">
        <ele>27.5</ele>
        <time>2013-08-11T15:44:45Z</time>
      </trkpt>
      <trkpt lat="59.32842" lon="18.063856">
        <ele>27.1</ele>
        <time>2013-08-11T15:44:46Z</time>
      </trkpt>
      <trkpt lat="59.328378" lon="18.06374">
        <ele>26.6</ele>
        <time>2013-08-11T15:44:47Z</time>
      </trkpt>
      <trkpt lat="59.328347" lon="18.063645">
        <ele>27.2</ele>
        <time>2013-08-11T15:44:48Z</time>
      </trkpt>
      <trkpt lat="59.328329" lon="18.063579">
        <ele>27.3</ele>
        <time>2013-08-11T15:44:49Z</time>
      </trkpt>
      <trkpt lat="59.328309" lon="18.063513">
        <ele>27.6</ele>
        <time>2013-08-11T15:44:50Z</time>
      </trkpt>
      <trkpt lat="59.328299" lon="18.063453">
        <ele>27.8</ele>
        <time>2013-08-11T15:44:51Z</time>
      </trkpt>
      <trkpt lat="59.328282" lon="18.063401">
        <ele>27.5</ele>
        <time>2013-08-11T15:44:52Z</time>
      </trkpt>
      <trkpt lat="59.32827" lon="18.063337">
        <ele>27.6</ele>
        <time>2013-08-11T15:44:54Z</time>
      </trkpt>
      <trkpt lat="59.328271" lon="18.063276">
        <ele>28.9</ele>
        <time>2013-08-11T15:45:57Z</time>
      </trkpt>
      <trkpt lat="59.328253" lon="18.063179">
        <ele>29.4</ele>
        <time>2013-08-11T15:46:00Z</time>
      </trkpt>
      <trkpt lat="59.328244" lon="18.063119">
        <ele>29.6</ele>
        <time>2013-08-11T15:46:01Z</time>
      </trkpt>
      <trkpt lat="59.32823" lon="18.063037">
        <ele>30.3</ele>
        <time>2013-08-11T15:46:02Z</time>
      </trkpt>
      <trkpt lat="59.328214" lon="18.062945">
        <ele>30.6</ele>
        <time>2013-08-11T15:46:03Z</time>
      </trkpt>
      <trkpt lat="59.328197" lon="18.062811">
        <ele>30.3</ele>
        <time>2013-08-11T15:46:04Z</time>
      </trkpt>
      <trkpt lat="59.328212" lon="18.0627">
        <ele>30.6</ele>
        <time>2013-08-11T15:46:05Z</time>
      </trkpt>
      <trkpt lat="59.32822" lon="18.062601">
        <ele>30.8</ele>
        <time>2013-08-11T15:46:06Z</time>
      </trkpt>
      <trkpt lat="59.328249" lon="18.062506">
        <ele>30.3</ele>
        <time>2013-08-11T15:46:07Z</time>
      </trkpt>
      <trkpt lat="59.328269" lon="18.062405">
        <ele>30</ele>
        <time>2013-08-11T15:46:08Z</time>
      </trkpt>
      <trkpt lat="59.328275" lon="18.062265">
        <ele>29.4</ele>
        <time>2013-08-11T15:46:09Z</time>
      </trkpt>
      <trkpt lat="59.328292" lon="18.062136">
        <ele>29</ele>
        <time>2013-08-11T15:46:10Z</time>
      </trkpt>
      <trkpt lat="59.328294" lon="18.062002">
        <ele>28.9</ele>
        <time>2013-08-11T15:46:11Z</time>
      </trkpt>
      <trkpt lat="59.328291" lon="18.061845">
        <ele>29</ele>
        <time>2013-08-11T15:46:12Z</time>
      </trkpt>
      <trkpt lat="59.328293" lon="18.06167">
        <ele>28.8</ele>
        <time>2013-08-11T15:46:13Z</time>
      </trkpt>
      <trkpt lat="59.328292" lon="18.061519">
        <ele>28.5</ele>
        <time>2013-08-11T15:46:14Z</time>
      </trkpt>
      <trkpt lat="59.328277" lon="18.061365">
        <ele>28.8</ele>
        <time>2013-08-11T15:46:15Z</time>
      </trkpt>
      <trkpt lat="59.32826" lon="18.061221">
        <ele>28.6</ele>
        <time>2013-08-11T15:46:16Z</time>
      </trkpt>
      <trkpt lat="59.328246" lon="18.061075">
        <ele>28.6</ele>
        <time>2013-08-11T15:46:17Z</time>
      </trkpt>
      <trkpt lat="59.328225" lon="18.060924">
        <ele>28.8</ele>
        <time>2013-08-11T15:46:18Z</time>
      </trkpt>
      <trkpt lat="59.328204" lon="18.060763">
        <ele>28.1</ele>
        <time>2013-08-11T15:46:19Z</time>
      </trkpt>
      <trkpt lat="59.32818" lon="18.060601">
        <ele>27.8</ele>
        <time>2013-08-11T15:46:20Z</time>
      </trkpt>
      <trkpt lat="59.328164" lon="18.060445">
        <ele>27.6</ele>
        <time>2013-08-11T15:46:21Z</time>
      </trkpt>
      <trkpt lat="59.328163" lon="18.060254">
        <ele>27.4</ele>
        <time>2013-08-11T15:46:22Z</time>
      </trkpt>
      <trkpt lat="59.328161" lon="18.060086">
        <ele>27.5</ele>
        <time>2013-08-11T15:46:23Z</time>
      </trkpt>
      <trkpt lat="59.328138" lon="18.05989">
        <ele>27.3</ele>
        <time>2013-08-11T15:46:24Z</time>
      </trkpt>
      <trkpt lat="59.328122" lon="18.059737">
        <ele>27.3</ele>
        <time>2013-08-11T15:46:25Z</time>
      </trkpt>
      <trkpt lat="59.328103" lon="18.059543">
        <ele>26.9</ele>
        <time>2013-08-11T15:46:26Z</time>
      </trkpt>
      <trkpt lat="59.328058" lon="18.05941">
        <ele>27.4</ele>
        <time>2013-08-11T15:46:27Z</time>
      </trkpt>
      <trkpt lat="59.328022" lon="18.059285">
        <ele>28.4</ele>
        <time>2013-08-11T15:46:28Z</time>
      </trkpt>
      <trkpt lat="59.328009" lon="18.059146">
        <ele>28.1</ele>
        <time>2013-08-11T15:46:29Z</time>
      </trkpt>
      <trkpt lat="59.327992" lon="18.059028">
        <ele>27.5</ele>
        <time>2013-08-11T15:46:30Z</time>
      </trkpt>
      <trkpt lat="59.327997" lon="18.058873">
        <ele>28</ele>
        <time>2013-08-11T15:46:31Z</time>
      </trkpt>
      <trkpt lat="59.328013" lon="18.058721">
        <ele>28.5</ele>
        <time>2013-08-11T15:46:32Z</time>
      </trkpt>
      <trkpt lat="59.328038" lon="18.058566">
        <ele>28.9</ele>
        <time>2013-08-11T15:46:33Z</time>
      </trkpt>
      <trkpt lat="59.32806" lon="18.058429">
        <ele>28.9</ele>
        <time>2013-08-11T15:46:34Z</time>
      </trkpt>
      <trkpt lat="59.32808" lon="18.058296">
        <ele>29.4</ele>
        <time>2013-08-11T15:46:35Z</time>
      </trkpt>
      <trkpt lat="59.328104" lon="18.058164">
        <ele>29.9</ele>
        <time>2013-08-11T15:46:36Z</time>
      </trkpt>
      <trkpt lat="59.328137" lon="18.05803">
        <ele>30.3</ele>
        <time>2013-08-11T15:46:37Z</time>
      </trkpt>
      <trkpt lat="59.32817" lon="18.057907">
        <ele>30.2</ele>
        <time>2013-08-11T15:46:38Z</time>
      </trkpt>
      <trkpt lat="59.3282" lon="18.057776">
        <ele>30.6</ele>
        <time>2013-08-11T15:46:39Z</time>
      </trkpt>
      <trkpt lat="59.328219" lon="18.05764">
        <ele>31</ele>
        <time>2013-08-11T15:46:40Z</time>
      </trkpt>
      <trkpt lat="59.328234" lon="18.057505">
        <ele>31.5</ele>
        <time>2013-08-11T15:46:41Z</time>
      </trkpt>
      <trkpt lat="59.328229" lon="18.057364">
        <ele>31.8</ele>
        <time>2013-08-11T15:46:42Z</time>
      </trkpt>
      <trkpt lat="59.328208" lon="18.057229">
        <ele>31.7</ele>
        <time>2013-08-11T15:46:43Z</time>
      </trkpt>
      <trkpt lat="59.328201" lon="18.057094">
        <ele>32.1</ele>
        <time>2013-08-11T15:46:44Z</time>
      </trkpt>
      <trkpt lat="59.328181" lon="18.056962">
        <ele>32.7</ele>
        <time>2013-08-11T15:46:45Z</time>
      </trkpt>
      <trkpt lat="59.328166" lon="18.056837">
        <ele>32.3</ele>
        <time>2013-08-11T15:46:46Z</time>
      </trkpt>
      <trkpt lat="59.328156" lon="18.056718">
        <ele>32.3</ele>
        <time>2013-08-11T15:46:47Z</time>
      </trkpt>
      <trkpt lat="59.328142" lon="18.05661">
        <ele>32.1</ele>
        <time>2013-08-11T15:46:48Z</time>
      </trkpt>
      <trkpt lat="59.328131" lon="18.056487">
        <ele>32.2</ele>
        <time>2013-08-11T15:46:49Z</time>
      </trkpt>
      <trkpt lat="59.328117" lon="18.056362">
        <ele>32.1</ele>
        <time>2013-08-11T15:46:50Z</time>
      </trkpt>
      <trkpt lat="59.328102" lon="18.056242">
        <ele>32.1</ele>
        <time>2013-08-11T15:46:51Z</time>
      </trkpt>
      <trkpt lat="59.328094" lon="18.056112">
        <ele>32.3</ele>
        <time>2013-08-11T15:46:52Z</time>
      </trkpt>
      <trkpt lat="59.328081" lon="18.055988">
        <ele>31.6</ele>
        <time>2013-08-11T15:46:53Z</time>
      </trkpt>
      <trkpt lat="59.328076" lon="18.055857">
        <ele>31.4</ele>
        <time>2013-08-11T15:46:54Z</time>
      </trkpt>
      <trkpt lat="59.32806" lon="18.055736">
        <ele>31.4</ele>
        <time>2013-08-11T15:46:55Z</time>
      </trkpt>
      <trkpt lat="59.328044" lon="18.055607">
        <ele>31.5</ele>
        <time>2013-08-11T15:46:56Z</time>
      </trkpt>
      <trkpt lat="59.328016" lon="18.055502">
        <ele>31.7</ele>
        <time>2013-08-11T15:46:57Z</time>
      </trkpt>
      <trkpt lat="59.327994" lon="18.055399">
        <ele>31.6</ele>
        <time>2013-08-11T15:46:58Z</time>
      </trkpt>
      <trkpt lat="59.327955" lon="18.055331">
        <ele>31.9</ele>
        <time>2013-08-11T15:46:59Z</time>
      </trkpt>
      <trkpt lat="59.327929" lon="18.055224">
        <ele>32.3</ele>
        <time>2013-08-11T15:47:00Z</time>
      </trkpt>
      <trkpt lat="59.327937" lon="18.055088">
        <ele>32</ele>
        <time>2013-08-11T15:47:01Z</time>
      </trkpt>
      <trkpt lat="59.327928" lon="18.054963">
        <ele>32</ele>
        <time>2013-08-11T15:47:02Z</time>
      </trkpt>
      <trkpt lat="59.327919" lon="18.054846">
        <ele>32.1</ele>
        <time>2013-08-11T15:47:03Z</time>
      </trkpt>
      <trkpt lat="59.327909" lon="18.05472">
        <ele>31.9</ele>
        <time>2013-08-11T15:47:04Z</time>
      </trkpt>
      <trkpt lat="59.3279" lon="18.054593">
        <ele>32</ele>
        <time>2013-08-11T15:47:05Z</time>
      </trkpt>
      <trkpt lat="59.327882" lon="18.054465">
        <ele>31.8</ele>
        <time>2013-08-11T15:47:06Z</time>
      </trkpt>
      <trkpt lat="59.327867" lon="18.05433">
        <ele>31.7</ele>
        <time>2013-08-11T15:47:07Z</time>
      </trkpt>
      <trkpt lat="59.327848" lon="18.054233">
        <ele>31.8</ele>
        <time>2013-08-11T15:47:08Z</time>
      </trkpt>
      <trkpt lat="59.327836" lon="18.054089">
        <ele>32</ele>
        <time>2013-08-11T15:47:09Z</time>
      </trkpt>
      <trkpt lat="59.327832" lon="18.053954">
        <ele>31.7</ele>
        <time>2013-08-11T15:47:10Z</time>
      </trkpt>
      <trkpt lat="59.327805" lon="18.053835">
        <ele>29.6</ele>
        <time>2013-08-11T15:47:11Z</time>
      </trkpt>
      <trkpt lat="59.327794" lon="18.053708">
        <ele>29.4</ele>
        <time>2013-08-11T15:47:12Z</time>
      </trkpt>
      <trkpt lat="59.327777" lon="18.05358">
        <ele>28.7</ele>
        <time>2013-08-11T15:47:13Z</time>
      </trkpt>
      <trkpt lat="59.327775" lon="18.053449">
        <ele>28.8</ele>
        <time>2013-08-11T15:47:14Z</time>
      </trkpt>
      <trkpt lat="59.327768" lon="18.053357">
        <ele>27.1</ele>
        <time>2013-08-11T15:47:15Z</time>
      </trkpt>
      <trkpt lat="59.327758" lon="18.053257">
        <ele>26.6</ele>
        <time>2013-08-11T15:47:16Z</time>
      </trkpt>
      <trkpt lat="59.327748" lon="18.053169">
        <ele>26.9</ele>
        <time>2013-08-11T15:47:17Z</time>
      </trkpt>
      <trkpt lat="59.32771" lon="18.053128">
        <ele>26.1</ele>
        <time>2013-08-11T15:47:18Z</time>
      </trkpt>
      <trkpt lat="59.327647" lon="18.053186">
        <ele>27.6</ele>
        <time>2013-08-11T15:47:19Z</time>
      </trkpt>
      <trkpt lat="59.327583" lon="18.053211">
        <ele>27.7</ele>
        <time>2013-08-11T15:47:20Z</time>
      </trkpt>
      <trkpt lat="59.327524" lon="18.053228">
        <ele>28.3</ele>
        <time>2013-08-11T15:47:21Z</time>
      </trkpt>
      <trkpt lat="59.327461" lon="18.053252">
        <ele>28.4</ele>
        <time>2013-08-11T15:47:22Z</time>
      </trkpt>
      <trkpt lat="59.327405" lon="18.053268">
        <ele>29.7</ele>
        <time>2013-08-11T15:47:23Z</time>
      </trkpt>
      <trkpt lat="59.327348" lon="18.053283">
        <ele>29.1</ele>
        <time>2013-08-11T15:47:24Z</time>
      </trkpt>
      <trkpt lat="59.327285" lon="18.053308">
        <ele>27.7</ele>
        <time>2013-08-11T15:47:25Z</time>
      </trkpt>
      <trkpt lat="59.327228" lon="18.05333">
        <ele>28.2</ele>
        <time>2013-08-11T15:47:26Z</time>
      </trkpt>
      <trkpt lat="59.327176" lon="18.053349">
        <ele>28.1</ele>
        <time>2013-08-11T15:47:27Z</time>
      </trkpt>
      <trkpt lat="59.327139" lon="18.053362">
        <ele>28.4</ele>
        <time>2013-08-11T15:47:28Z</time>
      </trkpt>
      <trkpt lat="59.327095" lon="18.053377">
        <ele>28.4</ele>
        <time>2013-08-11T15:47:29Z</time>
      </trkpt>
      <trkpt lat="59.32706" lon="18.053351">
        <ele>29.3</ele>
        <time>2013-08-11T15:47:30Z</time>
      </trkpt>
      <trkpt lat="59.327024" lon="18.053287">
        <ele>29.5</ele>
        <time>2013-08-11T15:47:31Z</time>
      </trkpt>
      <trkpt lat="59.327006" lon="18.053181">
        <ele>29.7</ele>
        <time>2013-08-11T15:47:32Z</time>
      </trkpt>
      <trkpt lat="59.326993" lon="18.05306">
        <ele>29.5</ele>
        <time>2013-08-11T15:47:33Z</time>
      </trkpt>
      <trkpt lat="59.326983" lon="18.052931">
        <ele>30</ele>
        <time>2013-08-11T15:47:34Z</time>
      </trkpt>
      <trkpt lat="59.326967" lon="18.052816">
        <ele>29</ele>
        <time>2013-08-11T15:47:35Z</time>
      </trkpt>
      <trkpt lat="59.326954" lon="18.052697">
        <ele>28.9</ele>
        <time>2013-08-11T15:47:36Z</time>
      </trkpt>
      <trkpt lat="59.326934" lon="18.05254">
        <ele>30</ele>
        <time>2013-08-11T15:47:37Z</time>
      </trkpt>
      <trkpt lat="59.326918" lon="18.052407">
        <ele>30.1</ele>
        <time>2013-08-11T15:47:38Z</time>
      </trkpt>
      <trkpt lat="59.326909" lon="18.05227">
        <ele>29.7</ele>
        <time>2013-08-11T15:47:39Z</time>
      </trkpt>
      <trkpt lat="59.326904" lon="18.05212">
        <ele>29.5</ele>
        <time>2013-08-11T15:47:40Z</time>
      </trkpt>
      <trkpt lat="59.32689" lon="18.051979">
        <ele>29.5</ele>
        <time>2013-08-11T15:47:41Z</time>
      </trkpt>
      <trkpt lat="59.326879" lon="18.051857">
        <ele>30.1</ele>
        <time>2013-08-11T15:47:42Z</time>
      </trkpt>
      <trkpt lat="59.326871" lon="18.051695">
        <ele>28.7</ele>
        <time>2013-08-11T15:47:43Z</time>
      </trkpt>
      <trkpt lat="59.326859" lon="18.05155">
        <ele>28.7</ele>
        <time>2013-08-11T15:47:44Z</time>
      </trkpt>
      <trkpt lat="59.32685" lon="18.051392">
        <ele>29</ele>
        <time>2013-08-11T15:47:45Z</time>
      </trkpt>
      <trkpt lat="59.326838" lon="18.051247">
        <ele>29.5</ele>
        <time>2013-08-11T15:47:46Z</time>
      </trkpt>
      <trkpt lat="59.326818" lon="18.051099">
        <ele>28.2</ele>
        <time>2013-08-11T15:47:47Z</time>
      </trkpt>
      <trkpt lat="59.326804" lon="18.050957">
        <ele>28.3</ele>
        <time>2013-08-11T15:47:48Z</time>
      </trkpt>
      <trkpt lat="59.32679" lon="18.050814">
        <ele>28.5</ele>
        <time>2013-08-11T15:47:49Z</time>
      </trkpt>
      <trkpt lat="59.326777" lon="18.050672">
        <ele>27.8</ele>
        <time>2013-08-11T15:47:50Z</time>
      </trkpt>
      <trkpt lat="59.326761" lon="18.050536">
        <ele>27.8</ele>
        <time>2013-08-11T15:47:51Z</time>
      </trkpt>
      <trkpt lat="59.326776" lon="18.050423">
        <ele>28.5</ele>
        <time>2013-08-11T15:47:52Z</time>
      </trkpt>
      <trkpt lat="59.326788" lon="18.050284">
        <ele>28.5</ele>
        <time>2013-08-11T15:47:53Z</time>
      </trkpt>
      <trkpt lat="59.326815" lon="18.050134">
        <ele>29</ele>
        <time>2013-08-11T15:47:54Z</time>
      </trkpt>
      <trkpt lat="59.326821" lon="18.049975">
        <ele>29.4</ele>
        <time>2013-08-11T15:47:55Z</time>
      </trkpt>
      <trkpt lat="59.326815" lon="18.049823">
        <ele>29</ele>
        <time>2013-08-11T15:47:56Z</time>
      </trkpt>
      <trkpt lat="59.326803" lon="18.049652">
        <ele>29.3</ele>
        <time>2013-08-11T15:47:57Z</time>
      </trkpt>
      <trkpt lat="59.326799" lon="18.049492">
        <ele>29.4</ele>
        <time>2013-08-11T15:47:58Z</time>
      </trkpt>
      <trkpt lat="59.326795" lon="18.049344">
        <ele>29.6</ele>
        <time>2013-08-11T15:47:59Z</time>
      </trkpt>
      <trkpt lat="59.326793" lon="18.049202">
        <ele>29</ele>
        <time>2013-08-11T15:48:00Z</time>
      </trkpt>
      <trkpt lat="59.326786" lon="18.049044">
        <ele>29.1</ele>
        <time>2013-08-11T15:48:01Z</time>
      </trkpt>
      <trkpt lat="59.326782" lon="18.048891">
        <ele>29</ele>
        <time>2013-08-11T15:48:02Z</time>
      </trkpt>
      <trkpt lat="59.32676" lon="18.048738">
        <ele>28.3</ele>
        <time>2013-08-11T15:48:03Z</time>
      </trkpt>
      <trkpt lat="59.326751" lon="18.048578">
        <ele>27.9</ele>
        <time>2013-08-11T15:48:04Z</time>
      </trkpt>
      <trkpt lat="59.326765" lon="18.048432">
        <ele>26.7</ele>
        <time>2013-08-11T15:48:05Z</time>
      </trkpt>
      <trkpt lat="59.32676" lon="18.048288">
        <ele>26.7</ele>
        <time>2013-08-11T15:48:06Z</time>
      </trkpt>
      <trkpt lat="59.326757" lon="18.048134">
        <ele>26.7</ele>
        <time>2013-08-11T15:48:07Z</time>
      </trkpt>
      <trkpt lat="59.326755" lon="18.047977">
        <ele>26.1</ele>
        <time>2013-08-11T15:48:08Z</time>
      </trkpt>
      <trkpt lat="59.326748" lon="18.047811">
        <ele>26.3</ele>
        <time>2013-08-11T15:48:09Z</time>
      </trkpt>
      <trkpt lat="59.32673" lon="18.047677">
        <ele>27</ele>
        <time>2013-08-11T15:48:10Z</time>
      </trkpt>
      <trkpt lat="59.326719" lon="18.047528">
        <ele>27</ele>
        <time>2013-08-11T15:48:11Z</time>
      </trkpt>
      <trkpt lat="59.32672" lon="18.047371">
        <ele>26.3</ele>
        <time>2013-08-11T15:48:12Z</time>
      </trkpt>
      <trkpt lat="59.326716" lon="18.047222">
        <ele>26.5</ele>
        <time>2013-08-11T15:48:13Z</time>
      </trkpt>
      <trkpt lat="59.326716" lon="18.047083">
        <ele>26.4</ele>
        <time>2013-08-11T15:48:14Z</time>
      </trkpt>
      <trkpt lat="59.326709" lon="18.04694">
        <ele>26.5</ele>
        <time>2013-08-11T15:48:15Z</time>
      </trkpt>
      <trkpt lat="59.326706" lon="18.046798">
        <ele>26.4</ele>
        <time>2013-08-11T15:48:16Z</time>
      </trkpt>
      <trkpt lat="59.326703" lon="18.046662">
        <ele>26.4</ele>
        <time>2013-08-11T15:48:17Z</time>
      </trkpt>
      <trkpt lat="59.326706" lon="18.046523">
        <ele>26.4</ele>
        <time>2013-08-11T15:48:18Z</time>
      </trkpt>
      <trkpt lat="59.326707" lon="18.046392">
        <ele>26.4</ele>
        <time>2013-08-11T15:48:19Z</time>
      </trkpt>
      <trkpt lat="59.32669" lon="18.046253">
        <ele>26.4</ele>
        <time>2013-08-11T15:48:20Z</time>
      </trkpt>
      <trkpt lat="59.326678" lon="18.046131">
        <ele>26.4</ele>
        <time>2013-08-11T15:48:21Z</time>
      </trkpt>
      <trkpt lat="59.326659" lon="18.045988">
        <ele>26</ele>
        <time>2013-08-11T15:48:22Z</time>
      </trkpt>
      <trkpt lat="59.326672" lon="18.045902">
        <ele>27.6</ele>
        <time>2013-08-11T15:48:23Z</time>
      </trkpt>
      <trkpt lat="59.326688" lon="18.045804">
        <ele>27.1</ele>
        <time>2013-08-11T15:48:24Z</time>
      </trkpt>
      <trkpt lat="59.326721" lon="18.045685">
        <ele>27.6</ele>
        <time>2013-08-11T15:48:25Z</time>
      </trkpt>
      <trkpt lat="59.32672" lon="18.045588">
        <ele>27.5</ele>
        <time>2013-08-11T15:48:26Z</time>
      </trkpt>
      <trkpt lat="59.326715" lon="18.045485">
        <ele>28</ele>
        <time>2013-08-11T15:48:27Z</time>
      </trkpt>
      <trkpt lat="59.326716" lon="18.045356">
        <ele>28.7</ele>
        <time>2013-08-11T15:48:28Z</time>
      </trkpt>
      <trkpt lat="59.326716" lon="18.045226">
        <ele>29.3</ele>
        <time>2013-08-11T15:48:29Z</time>
      </trkpt>
      <trkpt lat="59.326714" lon="18.045087">
        <ele>29.3</ele>
        <time>2013-08-11T15:48:30Z</time>
      </trkpt>
      <trkpt lat="59.326714" lon="18.044945">
        <ele>28.7</ele>
        <time>2013-08-11T15:48:31Z</time>
      </trkpt>
      <trkpt lat="59.326718" lon="18.04481">
        <ele>28.9</ele>
        <time>2013-08-11T15:48:32Z</time>
      </trkpt>
      <trkpt lat="59.326722" lon="18.044665">
        <ele>28.9</ele>
        <time>2013-08-11T15:48:33Z</time>
      </trkpt>
      <trkpt lat="59.326725" lon="18.044509">
        <ele>28.6</ele>
        <time>2013-08-11T15:48:34Z</time>
      </trkpt>
      <trkpt lat="59.32673" lon="18.044357">
        <ele>28.6</ele>
        <time>2013-08-11T15:48:35Z</time>
      </trkpt>
      <trkpt lat="59.326731" lon="18.044216">
        <ele>28.6</ele>
        <time>2013-08-11T15:48:36Z</time>
      </trkpt>
      <trkpt lat="59.326731" lon="18.044075">
        <ele>28.7</ele>
        <time>2013-08-11T15:48:37Z</time>
      </trkpt>
      <trkpt lat="59.326734" lon="18.043937">
        <ele>29.1</ele>
        <time>2013-08-11T15:48:38Z</time>
      </trkpt>
      <trkpt lat="59.326731" lon="18.043794">
        <ele>29</ele>
        <time>2013-08-11T15:48:39Z</time>
      </trkpt>
      <trkpt lat="59.326725" lon="18.043653">
        <ele>29.4</ele>
        <time>2013-08-11T15:48:40Z</time>
      </trkpt>
      <trkpt lat="59.32673" lon="18.043504">
        <ele>28.8</ele>
        <time>2013-08-11T15:48:41Z</time>
      </trkpt>
      <trkpt lat="59.326727" lon="18.043372">
        <ele>29.3</ele>
        <time>2013-08-11T15:48:42Z</time>
      </trkpt>
      <trkpt lat="59.326727" lon="18.043228">
        <ele>29.6</ele>
        <time>2013-08-11T15:48:43Z</time>
      </trkpt>
      <trkpt lat="59.326724" lon="18.043087">
        <ele>30</ele>
        <time>2013-08-11T15:48:44Z</time>
      </trkpt>
      <trkpt lat="59.326736" lon="18.04292">
        <ele>29.6</ele>
        <time>2013-08-11T15:48:45Z</time>
      </trkpt>
      <trkpt lat="59.326742" lon="18.042781">
        <ele>28.8</ele>
        <time>2013-08-11T15:48:46Z</time>
      </trkpt>
      <trkpt lat="59.326735" lon="18.042637">
        <ele>28.7</ele>
        <time>2013-08-11T15:48:47Z</time>
      </trkpt>
      <trkpt lat="59.326732" lon="18.042495">
        <ele>28.5</ele>
        <time>2013-08-11T15:48:48Z</time>
      </trkpt>
      <trkpt lat="59.326722" lon="18.042344">
        <ele>27.6</ele>
        <time>2013-08-11T15:48:49Z</time>
      </trkpt>
      <trkpt lat="59.326701" lon="18.042204">
        <ele>28.2</ele>
        <time>2013-08-11T15:48:50Z</time>
      </trkpt>
      <trkpt lat="59.326675" lon="18.042074">
        <ele>28</ele>
        <time>2013-08-11T15:48:51Z</time>
      </trkpt>
      <trkpt lat="59.326629" lon="18.041945">
        <ele>28.3</ele>
        <time>2013-08-11T15:48:52Z</time>
      </trkpt>
      <trkpt lat="59.326588" lon="18.041822">
        <ele>28.5</ele>
        <time>2013-08-11T15:48:53Z</time>
      </trkpt>
      <trkpt lat="59.326559" lon="18.041686">
        <ele>28.6</ele>
        <time>2013-08-11T15:48:54Z</time>
      </trkpt>
      <trkpt lat="59.326558" lon="18.041552">
        <ele>28.7</ele>
        <time>2013-08-11T15:48:55Z</time>
      </trkpt>
      <trkpt lat="59.326572" lon="18.041422">
        <ele>29.2</ele>
        <time>2013-08-11T15:48:56Z</time>
      </trkpt>
      <trkpt lat="59.326593" lon="18.041286">
        <ele>29.1</ele>
        <time>2013-08-11T15:48:57Z</time>
      </trkpt>
      <trkpt lat="59.326612" lon="18.041144">
        <ele>29.3</ele>
        <time>2013-08-11T15:48:58Z</time>
      </trkpt>
      <trkpt lat="59.326637" lon="18.04101">
        <ele>29.5</ele>
        <time>2013-08-11T15:48:59Z</time>
      </trkpt>
      <trkpt lat="59.326658" lon="18.04088">
        <ele>29.8</ele>
        <time>2013-08-11T15:49:00Z</time>
      </trkpt>
      <trkpt lat="59.32668" lon="18.040752">
        <ele>30.9</ele>
        <time>2013-08-11T15:49:01Z</time>
      </trkpt>
      <trkpt lat="59.326719" lon="18.04064">
        <ele>30.8</ele>
        <time>2013-08-11T15:49:02Z</time>
      </trkpt>
      <trkpt lat="59.32675" lon="18.040541">
        <ele>29.7</ele>
        <time>2013-08-11T15:49:03Z</time>
      </trkpt>
      <trkpt lat="59.32678" lon="18.040427">
        <ele>29.6</ele>
        <time>2013-08-11T15:49:04Z</time>
      </trkpt>
      <trkpt lat="59.326805" lon="18.040281">
        <ele>30</ele>
        <time>2013-08-11T15:49:05Z</time>
      </trkpt>
      <trkpt lat="59.326825" lon="18.04015">
        <ele>30.2</ele>
        <time>2013-08-11T15:49:06Z</time>
      </trkpt>
      <trkpt lat="59.326841" lon="18.040023">
        <ele>30.8</ele>
        <time>2013-08-11T15:49:07Z</time>
      </trkpt>
      <trkpt lat="59.326863" lon="18.039877">
        <ele>31</ele>
        <time>2013-08-11T15:49:08Z</time>
      </trkpt>
      <trkpt lat="59.326884" lon="18.039737">
        <ele>31</ele>
        <time>2013-08-11T15:49:09Z</time>
      </trkpt>
      <trkpt lat="59.326903" lon="18.039604">
        <ele>31.4</ele>
        <time>2013-08-11T15:49:10Z</time>
      </trkpt>
      <trkpt lat="59.326925" lon="18.039482">
        <ele>31.8</ele>
        <time>2013-08-11T15:49:11Z</time>
      </trkpt>
      <trkpt lat="59.326945" lon="18.039359">
        <ele>31.8</ele>
        <time>2013-08-11T15:49:12Z</time>
      </trkpt>
      <trkpt lat="59.32696" lon="18.03923">
        <ele>30.9</ele>
        <time>2013-08-11T15:49:13Z</time>
      </trkpt>
      <trkpt lat="59.326975" lon="18.039098">
        <ele>30.6</ele>
        <time>2013-08-11T15:49:14Z</time>
      </trkpt>
      <trkpt lat="59.326994" lon="18.038961">
        <ele>30</ele>
        <time>2013-08-11T15:49:15Z</time>
      </trkpt>
      <trkpt lat="59.327013" lon="18.038832">
        <ele>29.8</ele>
        <time>2013-08-11T15:49:16Z</time>
      </trkpt>
      <trkpt lat="59.327043" lon="18.038686">
        <ele>30.5</ele>
        <time>2013-08-11T15:49:17Z</time>
      </trkpt>
      <trkpt lat="59.327063" lon="18.038546">
        <ele>29.9</ele>
        <time>2013-08-11T15:49:18Z</time>
      </trkpt>
      <trkpt lat="59.327089" lon="18.038407">
        <ele>30.3</ele>
        <time>2013-08-11T15:49:19Z</time>
      </trkpt>
      <trkpt lat="59.327113" lon="18.038272">
        <ele>30.4</ele>
        <time>2013-08-11T15:49:20Z</time>
      </trkpt>
      <trkpt lat="59.32713" lon="18.038126">
        <ele>30.5</ele>
        <time>2013-08-11T15:49:21Z</time>
      </trkpt>
      <trkpt lat="59.327154" lon="18.037983">
        <ele>30.7</ele>
        <time>2013-08-11T15:49:22Z</time>
      </trkpt>
      <trkpt lat="59.32719" lon="18.037796">
        <ele>31.6</ele>
        <time>2013-08-11T15:49:23Z</time>
      </trkpt>
      <trkpt lat="59.327211" lon="18.037648">
        <ele>31.8</ele>
        <time>2013-08-11T15:49:24Z</time>
      </trkpt>
      <trkpt lat="59.32723" lon="18.037512">
        <ele>31.7</ele>
        <time>2013-08-11T15:49:25Z</time>
      </trkpt>
      <trkpt lat="59.327254" lon="18.037365">
        <ele>31.6</ele>
        <time>2013-08-11T15:49:26Z</time>
      </trkpt>
      <trkpt lat="59.327272" lon="18.03724">
        <ele>31.4</ele>
        <time>2013-08-11T15:49:27Z</time>
      </trkpt>
      <trkpt lat="59.327303" lon="18.037121">
        <ele>31.5</ele>
        <time>2013-08-11T15:49:28Z</time>
      </trkpt>
      <trkpt lat="59.327324" lon="18.03699">
        <ele>31.7</ele>
        <time>2013-08-11T15:49:29Z</time>
      </trkpt>
      <trkpt lat="59.327342" lon="18.036862">
        <ele>34.5</ele>
        <time>2013-08-11T15:49:30Z</time>
      </trkpt>
      <trkpt lat="59.327356" lon="18.036757">
        <ele>34.1</ele>
        <time>2013-08-11T15:49:31Z</time>
      </trkpt>
      <trkpt lat="59.327372" lon="18.036649">
        <ele>33</ele>
        <time>2013-08-11T15:49:32Z</time>
      </trkpt>
      <trkpt lat="59.327386" lon="18.036544">
        <ele>32.6</ele>
        <time>2013-08-11T15:49:33Z</time>
      </trkpt>
      <trkpt lat="59.327405" lon="18.036428">
        <ele>32.5</ele>
        <time>2013-08-11T15:49:34Z</time>
      </trkpt>
      <trkpt lat="59.327428" lon="18.036305">
        <ele>32.9</ele>
        <time>2013-08-11T15:49:35Z</time>
      </trkpt>
      <trkpt lat="59.32744" lon="18.036198">
        <ele>32.3</ele>
        <time>2013-08-11T15:49:36Z</time>
      </trkpt>
      <trkpt lat="59.327461" lon="18.036081">
        <ele>32.9</ele>
        <time>2013-08-11T15:49:37Z</time>
      </trkpt>
      <trkpt lat="59.327475" lon="18.035961">
        <ele>33.2</ele>
        <time>2013-08-11T15:49:38Z</time>
      </trkpt>
      <trkpt lat="59.32749" lon="18.035855">
        <ele>33.5</ele>
        <time>2013-08-11T15:49:39Z</time>
      </trkpt>
      <trkpt lat="59.327516" lon="18.035736">
        <ele>34.2</ele>
        <time>2013-08-11T15:49:40Z</time>
      </trkpt>
      <trkpt lat="59.327536" lon="18.035593">
        <ele>34.8</ele>
        <time>2013-08-11T15:49:41Z</time>
      </trkpt>
      <trkpt lat="59.327556" lon="18.035439">
        <ele>35.2</ele>
        <time>2013-08-11T15:49:42Z</time>
      </trkpt>
      <trkpt lat="59.327579" lon="18.035289">
        <ele>35.1</ele>
        <time>2013-08-11T15:49:43Z</time>
      </trkpt>
      <trkpt lat="59.327604" lon="18.035145">
        <ele>34.7</ele>
        <time>2013-08-11T15:49:44Z</time>
      </trkpt>
      <trkpt lat="59.327631" lon="18.034999">
        <ele>33.8</ele>
        <time>2013-08-11T15:49:45Z</time>
      </trkpt>
      <trkpt lat="59.32765" lon="18.034871">
        <ele>34</ele>
        <time>2013-08-11T15:49:46Z</time>
      </trkpt>
      <trkpt lat="59.327668" lon="18.03473">
        <ele>34.3</ele>
        <time>2013-08-11T15:49:47Z</time>
      </trkpt>
      <trkpt lat="59.327688" lon="18.034585">
        <ele>34.4</ele>
        <time>2013-08-11T15:49:48Z</time>
      </trkpt>
      <trkpt lat="59.327709" lon="18.034426">
        <ele>35.4</ele>
        <time>2013-08-11T15:49:49Z</time>
      </trkpt>
      <trkpt lat="59.327744" lon="18.034266">
        <ele>37.2</ele>
        <time>2013-08-11T15:49:50Z</time>
      </trkpt>
      <trkpt lat="59.327767" lon="18.034119">
        <ele>37.5</ele>
        <time>2013-08-11T15:49:51Z</time>
      </trkpt>
      <trkpt lat="59.32779" lon="18.033986">
        <ele>37.7</ele>
        <time>2013-08-11T15:49:52Z</time>
      </trkpt>
      <trkpt lat="59.327813" lon="18.033826">
        <ele>37</ele>
        <time>2013-08-11T15:49:53Z</time>
      </trkpt>
      <trkpt lat="59.327835" lon="18.033673">
        <ele>37.5</ele>
        <time>2013-08-11T15:49:54Z</time>
      </trkpt>
      <trkpt lat="59.327861" lon="18.033531">
        <ele>37.7</ele>
        <time>2013-08-11T15:49:55Z</time>
      </trkpt>
      <trkpt lat="59.327885" lon="18.033381">
        <ele>38.1</ele>
        <time>2013-08-11T15:49:56Z</time>
      </trkpt>
      <trkpt lat="59.327898" lon="18.033245">
        <ele>36.5</ele>
        <time>2013-08-11T15:49:57Z</time>
      </trkpt>
      <trkpt lat="59.327926" lon="18.033101">
        <ele>35.5</ele>
        <time>2013-08-11T15:49:58Z</time>
      </trkpt>
      <trkpt lat="59.327944" lon="18.032966">
        <ele>35</ele>
        <time>2013-08-11T15:49:59Z</time>
      </trkpt>
      <trkpt lat="59.327967" lon="18.032823">
        <ele>34.9</ele>
        <time>2013-08-11T15:50:00Z</time>
      </trkpt>
      <trkpt lat="59.327998" lon="18.032671">
        <ele>34.9</ele>
        <time>2013-08-11T15:50:01Z</time>
      </trkpt>
      <trkpt lat="59.328022" lon="18.03253">
        <ele>34.6</ele>
        <time>2013-08-11T15:50:02Z</time>
      </trkpt>
      <trkpt lat="59.328033" lon="18.032362">
        <ele>33.4</ele>
        <time>2013-08-11T15:50:03Z</time>
      </trkpt>
      <trkpt lat="59.328052" lon="18.032213">
        <ele>35.9</ele>
        <time>2013-08-11T15:50:04Z</time>
      </trkpt>
      <trkpt lat="59.328068" lon="18.032067">
        <ele>36.5</ele>
        <time>2013-08-11T15:50:05Z</time>
      </trkpt>
      <trkpt lat="59.328069" lon="18.031931">
        <ele>34.9</ele>
        <time>2013-08-11T15:50:06Z</time>
      </trkpt>
      <trkpt lat="59.328087" lon="18.031778">
        <ele>35</ele>
        <time>2013-08-11T15:50:07Z</time>
      </trkpt>
      <trkpt lat="59.328099" lon="18.031627">
        <ele>35.6</ele>
        <time>2013-08-11T15:50:08Z</time>
      </trkpt>
      <trkpt lat="59.32811" lon="18.031479">
        <ele>35.3</ele>
        <time>2013-08-11T15:50:09Z</time>
      </trkpt>
      <trkpt lat="59.328123" lon="18.031295">
        <ele>34.6</ele>
        <time>2013-08-11T15:50:10Z</time>
      </trkpt>
      <trkpt lat="59.32815" lon="18.031184">
        <ele>35.4</ele>
        <time>2013-08-11T15:50:11Z</time>
      </trkpt>
      <trkpt lat="59.32818" lon="18.031008">
        <ele>35.6</ele>
        <time>2013-08-11T15:50:12Z</time>
      </trkpt>
      <trkpt lat="59.328208" lon="18.030828">
        <ele>36.4</ele>
        <time>2013-08-11T15:50:13Z</time>
      </trkpt>
      <trkpt lat="59.328223" lon="18.030676">
        <ele>35.6</ele>
        <time>2013-08-11T15:50:14Z</time>
      </trkpt>
      <trkpt lat="59.328241" lon="18.030526">
        <ele>34.8</ele>
        <time>2013-08-11T15:50:15Z</time>
      </trkpt>
      <trkpt lat="59.328253" lon="18.03039">
        <ele>34.7</ele>
        <time>2013-08-11T15:50:16Z</time>
      </trkpt>
      <trkpt lat="59.328273" lon="18.030255">
        <ele>34.8</ele>
        <time>2013-08-11T15:50:17Z</time>
      </trkpt>
      <trkpt lat="59.328284" lon="18.030131">
        <ele>33.9</ele>
        <time>2013-08-11T15:50:18Z</time>
      </trkpt>
      <trkpt lat="59.328302" lon="18.03">
        <ele>34.1</ele>
        <time>2013-08-11T15:50:19Z</time>
      </trkpt>
      <trkpt lat="59.328311" lon="18.029872">
        <ele>33.8</ele>
        <time>2013-08-11T15:50:20Z</time>
      </trkpt>
      <trkpt lat="59.328309" lon="18.029747">
        <ele>33.9</ele>
        <time>2013-08-11T15:50:21Z</time>
      </trkpt>
      <trkpt lat="59.328302" lon="18.029622">
        <ele>33.9</ele>
        <time>2013-08-11T15:50:22Z</time>
      </trkpt>
      <trkpt lat="59.32832" lon="18.029509">
        <ele>34.5</ele>
        <time>2013-08-11T15:50:23Z</time>
      </trkpt>
      <trkpt lat="59.328367" lon="18.029387">
        <ele>34.1</ele>
        <time>2013-08-11T15:50:24Z</time>
      </trkpt>
      <trkpt lat="59.328404" lon="18.029276">
        <ele>33.9</ele>
        <time>2013-08-11T15:50:25Z</time>
      </trkpt>
      <trkpt lat="59.328449" lon="18.029132">
        <ele>33.9</ele>
        <time>2013-08-11T15:50:26Z</time>
      </trkpt>
      <trkpt lat="59.328478" lon="18.028991">
        <ele>34.2</ele>
        <time>2013-08-11T15:50:27Z</time>
      </trkpt>
      <trkpt lat="59.328499" lon="18.028863">
        <ele>33.3</ele>
        <time>2013-08-11T15:50:28Z</time>
      </trkpt>
      <trkpt lat="59.328523" lon="18.028739">
        <ele>33.8</ele>
        <time>2013-08-11T15:50:29Z</time>
      </trkpt>
      <trkpt lat="59.328544" lon="18.028605">
        <ele>34.3</ele>
        <time>2013-08-11T15:50:30Z</time>
      </trkpt>
      <trkpt lat="59.328569" lon="18.028466">
        <ele>34.5</ele>
        <time>2013-08-11T15:50:31Z</time>
      </trkpt>
      <trkpt lat="59.328594" lon="18.028328">
        <ele>34.6</ele>
        <time>2013-08-11T15:50:32Z</time>
      </trkpt>
      <trkpt lat="59.328619" lon="18.028179">
        <ele>34.3</ele>
        <time>2013-08-11T15:50:33Z</time>
      </trkpt>
      <trkpt lat="59.328644" lon="18.028041">
        <ele>34.6</ele>
        <time>2013-08-11T15:50:34Z</time>
      </trkpt>
      <trkpt lat="59.328681" lon="18.02788">
        <ele>34.4</ele>
        <time>2013-08-11T15:50:35Z</time>
      </trkpt>
      <trkpt lat="59.328726" lon="18.027735">
        <ele>34.2</ele>
        <time>2013-08-11T15:50:36Z</time>
      </trkpt>
      <trkpt lat="59.328767" lon="18.027611">
        <ele>33.9</ele>
        <time>2013-08-11T15:50:37Z</time>
      </trkpt>
      <trkpt lat="59.328809" lon="18.027486">
        <ele>33.8</ele>
        <time>2013-08-11T15:50:38Z</time>
      </trkpt>
      <trkpt lat="59.328851" lon="18.027368">
        <ele>33.4</ele>
        <time>2013-08-11T15:50:39Z</time>
      </trkpt>
      <trkpt lat="59.328894" lon="18.027246">
        <ele>32.7</ele>
        <time>2013-08-11T15:50:40Z</time>
      </trkpt>
      <trkpt lat="59.328932" lon="18.027118">
        <ele>32.4</ele>
        <time>2013-08-11T15:50:41Z</time>
      </trkpt>
      <trkpt lat="59.328969" lon="18.026996">
        <ele>32.6</ele>
        <time>2013-08-11T15:50:42Z</time>
      </trkpt>
      <trkpt lat="59.329004" lon="18.026869">
        <ele>33.1</ele>
        <time>2013-08-11T15:50:43Z</time>
      </trkpt>
      <trkpt lat="59.32904" lon="18.026749">
        <ele>33.2</ele>
        <time>2013-08-11T15:50:44Z</time>
      </trkpt>
      <trkpt lat="59.329081" lon="18.026625">
        <ele>33.2</ele>
        <time>2013-08-11T15:50:45Z</time>
      </trkpt>
      <trkpt lat="59.32912" lon="18.026493">
        <ele>33.2</ele>
        <time>2013-08-11T15:50:46Z</time>
      </trkpt>
      <trkpt lat="59.329161" lon="18.026371">
        <ele>33.2</ele>
        <time>2013-08-11T15:50:47Z</time>
      </trkpt>
      <trkpt lat="59.329198" lon="18.02624">
        <ele>33.6</ele>
        <time>2013-08-11T15:50:48Z</time>
      </trkpt>
      <trkpt lat="59.329237" lon="18.026109">
        <ele>33.6</ele>
        <time>2013-08-11T15:50:49Z</time>
      </trkpt>
      <trkpt lat="59.329276" lon="18.02599">
        <ele>33.7</ele>
        <time>2013-08-11T15:50:50Z</time>
      </trkpt>
      <trkpt lat="59.32931" lon="18.025864">
        <ele>32.3</ele>
        <time>2013-08-11T15:50:51Z</time>
      </trkpt>
      <trkpt lat="59.329347" lon="18.025738">
        <ele>32.4</ele>
        <time>2013-08-11T15:50:52Z</time>
      </trkpt>
      <trkpt lat="59.329383" lon="18.025611">
        <ele>32.5</ele>
        <time>2013-08-11T15:50:53Z</time>
      </trkpt>
      <trkpt lat="59.329423" lon="18.02548">
        <ele>32.6</ele>
        <time>2013-08-11T15:50:54Z</time>
      </trkpt>
      <trkpt lat="59.329461" lon="18.025352">
        <ele>32.6</ele>
        <time>2013-08-11T15:50:55Z</time>
      </trkpt>
      <trkpt lat="59.329503" lon="18.025215">
        <ele>32.4</ele>
        <time>2013-08-11T15:50:56Z</time>
      </trkpt>
      <trkpt lat="59.32954" lon="18.025084">
        <ele>32.1</ele>
        <time>2013-08-11T15:50:57Z</time>
      </trkpt>
      <trkpt lat="59.329575" lon="18.024953">
        <ele>32.6</ele>
        <time>2013-08-11T15:50:58Z</time>
      </trkpt>
      <trkpt lat="59.329612" lon="18.024827">
        <ele>32.8</ele>
        <time>2013-08-11T15:50:59Z</time>
      </trkpt>
      <trkpt lat="59.329651" lon="18.024709">
        <ele>31.9</ele>
        <time>2013-08-11T15:51:00Z</time>
      </trkpt>
      <trkpt lat="59.329683" lon="18.024597">
        <ele>31.9</ele>
        <time>2013-08-11T15:51:01Z</time>
      </trkpt>
      <trkpt lat="59.329712" lon="18.024482">
        <ele>32</ele>
        <time>2013-08-11T15:51:02Z</time>
      </trkpt>
      <trkpt lat="59.329742" lon="18.024393">
        <ele>31.9</ele>
        <time>2013-08-11T15:51:03Z</time>
      </trkpt>
      <trkpt lat="59.329773" lon="18.024297">
        <ele>32</ele>
        <time>2013-08-11T15:51:04Z</time>
      </trkpt>
      <trkpt lat="59.329804" lon="18.024199">
        <ele>32.1</ele>
        <time>2013-08-11T15:51:05Z</time>
      </trkpt>
      <trkpt lat="59.329825" lon="18.024118">
        <ele>33</ele>
        <time>2013-08-11T15:51:06Z</time>
      </trkpt>
      <trkpt lat="59.329852" lon="18.024034">
        <ele>32.9</ele>
        <time>2013-08-11T15:51:07Z</time>
      </trkpt>
      <trkpt lat="59.329876" lon="18.023932">
        <ele>32.6</ele>
        <time>2013-08-11T15:51:08Z</time>
      </trkpt>
      <trkpt lat="59.329898" lon="18.023847">
        <ele>32.7</ele>
        <time>2013-08-11T15:51:09Z</time>
      </trkpt>
      <trkpt lat="59.329937" lon="18.023743">
        <ele>32.6</ele>
        <time>2013-08-11T15:51:10Z</time>
      </trkpt>
      <trkpt lat="59.329981" lon="18.023644">
        <ele>33.8</ele>
        <time>2013-08-11T15:51:11Z</time>
      </trkpt>
      <trkpt lat="59.330015" lon="18.023544">
        <ele>34.3</ele>
        <time>2013-08-11T15:51:12Z</time>
      </trkpt>
      <trkpt lat="59.330053" lon="18.023406">
        <ele>34.6</ele>
        <time>2013-08-11T15:51:13Z</time>
      </trkpt>
      <trkpt lat="59.330084" lon="18.023305">
        <ele>35</ele>
        <time>2013-08-11T15:51:14Z</time>
      </trkpt>
      <trkpt lat="59.33011" lon="18.023201">
        <ele>34.9</ele>
        <time>2013-08-11T15:51:15Z</time>
      </trkpt>
      <trkpt lat="59.330147" lon="18.02309">
        <ele>35.1</ele>
        <time>2013-08-11T15:51:16Z</time>
      </trkpt>
      <trkpt lat="59.330173" lon="18.02297">
        <ele>34.6</ele>
        <time>2013-08-11T15:51:17Z</time>
      </trkpt>
      <trkpt lat="59.330203" lon="18.022844">
        <ele>34.9</ele>
        <time>2013-08-11T15:51:18Z</time>
      </trkpt>
      <trkpt lat="59.330229" lon="18.02272">
        <ele>34.9</ele>
        <time>2013-08-11T15:51:19Z</time>
      </trkpt>
      <trkpt lat="59.330252" lon="18.022611">
        <ele>32.5</ele>
        <time>2013-08-11T15:51:20Z</time>
      </trkpt>
      <trkpt lat="59.330289" lon="18.022485">
        <ele>33.1</ele>
        <time>2013-08-11T15:51:21Z</time>
      </trkpt>
      <trkpt lat="59.330313" lon="18.02237">
        <ele>34.3</ele>
        <time>2013-08-11T15:51:22Z</time>
      </trkpt>
      <trkpt lat="59.330342" lon="18.022254">
        <ele>34.2</ele>
        <time>2013-08-11T15:51:23Z</time>
      </trkpt>
      <trkpt lat="59.330368" lon="18.022132">
        <ele>34.5</ele>
        <time>2013-08-11T15:51:24Z</time>
      </trkpt>
      <trkpt lat="59.330393" lon="18.022016">
        <ele>36.6</ele>
        <time>2013-08-11T15:51:25Z</time>
      </trkpt>
      <trkpt lat="59.330392" lon="18.021889">
        <ele>36.7</ele>
        <time>2013-08-11T15:51:26Z</time>
      </trkpt>
      <trkpt lat="59.330328" lon="18.021766">
        <ele>35.2</ele>
        <time>2013-08-11T15:51:27Z</time>
      </trkpt>
      <trkpt lat="59.330297" lon="18.021653">
        <ele>34.9</ele>
        <time>2013-08-11T15:51:28Z</time>
      </trkpt>
      <trkpt lat="59.330249" lon="18.02156">
        <ele>35.3</ele>
        <time>2013-08-11T15:51:29Z</time>
      </trkpt>
      <trkpt lat="59.330201" lon="18.021479">
        <ele>35.2</ele>
        <time>2013-08-11T15:51:30Z</time>
      </trkpt>
      <trkpt lat="59.330165" lon="18.02139">
        <ele>33.9</ele>
        <time>2013-08-11T15:51:31Z</time>
      </trkpt>
      <trkpt lat="59.330128" lon="18.021298">
        <ele>33.8</ele>
        <time>2013-08-11T15:51:32Z</time>
      </trkpt>
      <trkpt lat="59.330095" lon="18.021213">
        <ele>33.1</ele>
        <time>2013-08-11T15:51:33Z</time>
      </trkpt>
      <trkpt lat="59.330093" lon="18.021094">
        <ele>33</ele>
        <time>2013-08-11T15:51:34Z</time>
      </trkpt>
      <trkpt lat="59.330107" lon="18.020995">
        <ele>33.4</ele>
        <time>2013-08-11T15:51:35Z</time>
      </trkpt>
      <trkpt lat="59.330118" lon="18.020897">
        <ele>33.6</ele>
        <time>2013-08-11T15:51:36Z</time>
      </trkpt>
      <trkpt lat="59.330127" lon="18.020802">
        <ele>33.7</ele>
        <time>2013-08-11T15:51:37Z</time>
      </trkpt>
      <trkpt lat="59.330188" lon="18.02065">
        <ele>33.8</ele>
        <time>2013-08-11T15:51:39Z</time>
      </trkpt>
      <trkpt lat="59.330261" lon="18.020647">
        <ele>33.8</ele>
        <time>2013-08-11T15:51:40Z</time>
      </trkpt>
      <trkpt lat="59.330331" lon="18.020694">
        <ele>33.6</ele>
        <time>2013-08-11T15:51:41Z</time>
      </trkpt>
      <trkpt lat="59.330387" lon="18.020685">
        <ele>33.9</ele>
        <time>2013-08-11T15:51:42Z</time>
      </trkpt>
      <trkpt lat="59.330476" lon="18.020643">
        <ele>33.2</ele>
        <time>2013-08-11T15:51:43Z</time>
      </trkpt>
      <trkpt lat="59.330521" lon="18.020637">
        <ele>32.1</ele>
        <time>2013-08-11T15:51:44Z</time>
      </trkpt>
      <trkpt lat="59.330579" lon="18.020641">
        <ele>32.3</ele>
        <time>2013-08-11T15:51:45Z</time>
      </trkpt>
      <trkpt lat="59.330636" lon="18.020605">
        <ele>32.2</ele>
        <time>2013-08-11T15:51:46Z</time>
      </trkpt>
      <trkpt lat="59.330693" lon="18.020528">
        <ele>31.9</ele>
        <time>2013-08-11T15:51:47Z</time>
      </trkpt>
      <trkpt lat="59.330744" lon="18.020453">
        <ele>31.6</ele>
        <time>2013-08-11T15:51:48Z</time>
      </trkpt>
      <trkpt lat="59.330803" lon="18.020358">
        <ele>31.6</ele>
        <time>2013-08-11T15:51:49Z</time>
      </trkpt>
      <trkpt lat="59.330835" lon="18.020232">
        <ele>31.7</ele>
        <time>2013-08-11T15:51:50Z</time>
      </trkpt>
      <trkpt lat="59.330875" lon="18.020129">
        <ele>31.8</ele>
        <time>2013-08-11T15:51:51Z</time>
      </trkpt>
      <trkpt lat="59.330926" lon="18.020022">
        <ele>32.6</ele>
        <time>2013-08-11T15:51:52Z</time>
      </trkpt>
      <trkpt lat="59.33097" lon="18.019917">
        <ele>33.1</ele>
        <time>2013-08-11T15:51:53Z</time>
      </trkpt>
      <trkpt lat="59.331006" lon="18.019799">
        <ele>32.3</ele>
        <time>2013-08-11T15:51:54Z</time>
      </trkpt>
      <trkpt lat="59.331038" lon="18.019699">
        <ele>33</ele>
        <time>2013-08-11T15:51:55Z</time>
      </trkpt>
      <trkpt lat="59.33108" lon="18.019588">
        <ele>33.8</ele>
        <time>2013-08-11T15:51:56Z</time>
      </trkpt>
      <trkpt lat="59.331117" lon="18.019458">
        <ele>34</ele>
        <time>2013-08-11T15:51:57Z</time>
      </trkpt>
      <trkpt lat="59.331149" lon="18.019346">
        <ele>34.2</ele>
        <time>2013-08-11T15:51:58Z</time>
      </trkpt>
      <trkpt lat="59.331175" lon="18.019221">
        <ele>34.4</ele>
        <time>2013-08-11T15:51:59Z</time>
      </trkpt>
      <trkpt lat="59.331201" lon="18.019108">
        <ele>34.6</ele>
        <time>2013-08-11T15:52:00Z</time>
      </trkpt>
      <trkpt lat="59.331227" lon="18.018986">
        <ele>34.4</ele>
        <time>2013-08-11T15:52:01Z</time>
      </trkpt>
      <trkpt lat="59.331245" lon="18.018826">
        <ele>33.5</ele>
        <time>2013-08-11T15:52:02Z</time>
      </trkpt>
      <trkpt lat="59.331256" lon="18.018712">
        <ele>34.1</ele>
        <time>2013-08-11T15:52:03Z</time>
      </trkpt>
      <trkpt lat="59.33128" lon="18.018594">
        <ele>33.5</ele>
        <time>2013-08-11T15:52:04Z</time>
      </trkpt>
      <trkpt lat="59.331306" lon="18.01844">
        <ele>33.5</ele>
        <time>2013-08-11T15:52:05Z</time>
      </trkpt>
      <trkpt lat="59.331309" lon="18.018301">
        <ele>33.5</ele>
        <time>2013-08-11T15:52:06Z</time>
      </trkpt>
      <trkpt lat="59.331303" lon="18.018166">
        <ele>33</ele>
        <time>2013-08-11T15:52:07Z</time>
      </trkpt>
      <trkpt lat="59.331292" lon="18.018034">
        <ele>33.4</ele>
        <time>2013-08-11T15:52:08Z</time>
      </trkpt>
      <trkpt lat="59.331281" lon="18.017886">
        <ele>33.5</ele>
        <time>2013-08-11T15:52:09Z</time>
      </trkpt>
      <trkpt lat="59.331268" lon="18.017746">
        <ele>33.7</ele>
        <time>2013-08-11T15:52:10Z</time>
      </trkpt>
      <trkpt lat="59.331256" lon="18.017608">
        <ele>33.8</ele>
        <time>2013-08-11T15:52:11Z</time>
      </trkpt>
      <trkpt lat="59.331255" lon="18.017476">
        <ele>36.2</ele>
        <time>2013-08-11T15:52:12Z</time>
      </trkpt>
      <trkpt lat="59.331253" lon="18.017329">
        <ele>36.3</ele>
        <time>2013-08-11T15:52:13Z</time>
      </trkpt>
      <trkpt lat="59.331238" lon="18.017187">
        <ele>36.8</ele>
        <time>2013-08-11T15:52:14Z</time>
      </trkpt>
      <trkpt lat="59.33122" lon="18.017031">
        <ele>36</ele>
        <time>2013-08-11T15:52:15Z</time>
      </trkpt>
      <trkpt lat="59.331208" lon="18.016883">
        <ele>35.9</ele>
        <time>2013-08-11T15:52:16Z</time>
      </trkpt>
      <trkpt lat="59.331197" lon="18.016741">
        <ele>35.7</ele>
        <time>2013-08-11T15:52:17Z</time>
      </trkpt>
      <trkpt lat="59.331189" lon="18.016594">
        <ele>35.9</ele>
        <time>2013-08-11T15:52:18Z</time>
      </trkpt>
      <trkpt lat="59.331175" lon="18.016446">
        <ele>36.3</ele>
        <time>2013-08-11T15:52:19Z</time>
      </trkpt>
      <trkpt lat="59.331163" lon="18.016287">
        <ele>35.5</ele>
        <time>2013-08-11T15:52:20Z</time>
      </trkpt>
      <trkpt lat="59.331152" lon="18.016136">
        <ele>35.9</ele>
        <time>2013-08-11T15:52:21Z</time>
      </trkpt>
      <trkpt lat="59.331143" lon="18.015994">
        <ele>35.2</ele>
        <time>2013-08-11T15:52:22Z</time>
      </trkpt>
      <trkpt lat="59.331134" lon="18.015849">
        <ele>36.1</ele>
        <time>2013-08-11T15:52:23Z</time>
      </trkpt>
      <trkpt lat="59.331122" lon="18.015708">
        <ele>36.2</ele>
        <time>2013-08-11T15:52:24Z</time>
      </trkpt>
      <trkpt lat="59.331112" lon="18.015569">
        <ele>36.5</ele>
        <time>2013-08-11T15:52:25Z</time>
      </trkpt>
      <trkpt lat="59.331108" lon="18.015442">
        <ele>37.5</ele>
        <time>2013-08-11T15:52:26Z</time>
      </trkpt>
      <trkpt lat="59.331102" lon="18.015299">
        <ele>37.8</ele>
        <time>2013-08-11T15:52:27Z</time>
      </trkpt>
      <trkpt lat="59.331095" lon="18.015175">
        <ele>38.1</ele>
        <time>2013-08-11T15:52:28Z</time>
      </trkpt>
      <trkpt lat="59.331093" lon="18.015079">
        <ele>38</ele>
        <time>2013-08-11T15:52:29Z</time>
      </trkpt>
      <trkpt lat="59.331088" lon="18.014969">
        <ele>38.2</ele>
        <time>2013-08-11T15:52:30Z</time>
      </trkpt>
      <trkpt lat="59.33108" lon="18.014874">
        <ele>38.2</ele>
        <time>2013-08-11T15:52:31Z</time>
      </trkpt>
      <trkpt lat="59.331069" lon="18.014773">
        <ele>38</ele>
        <time>2013-08-11T15:52:32Z</time>
      </trkpt>
      <trkpt lat="59.331055" lon="18.014656">
        <ele>37.7</ele>
        <time>2013-08-11T15:52:33Z</time>
      </trkpt>
      <trkpt lat="59.331052" lon="18.014535">
        <ele>38.5</ele>
        <time>2013-08-11T15:52:34Z</time>
      </trkpt>
      <trkpt lat="59.331054" lon="18.014422">
        <ele>39.4</ele>
        <time>2013-08-11T15:52:35Z</time>
      </trkpt>
      <trkpt lat="59.331054" lon="18.014316">
        <ele>40.1</ele>
        <time>2013-08-11T15:52:36Z</time>
      </trkpt>
      <trkpt lat="59.33105" lon="18.014206">
        <ele>40.4</ele>
        <time>2013-08-11T15:52:37Z</time>
      </trkpt>
      <trkpt lat="59.331052" lon="18.014106">
        <ele>40.8</ele>
        <time>2013-08-11T15:52:38Z</time>
      </trkpt>
      <trkpt lat="59.331049" lon="18.013996">
        <ele>41.3</ele>
        <time>2013-08-11T15:52:39Z</time>
      </trkpt>
      <trkpt lat="59.331044" lon="18.013894">
        <ele>41.8</ele>
        <time>2013-08-11T15:52:40Z</time>
      </trkpt>
      <trkpt lat="59.33104" lon="18.013782">
        <ele>42</ele>
        <time>2013-08-11T15:52:41Z</time>
      </trkpt>
      <trkpt lat="59.331034" lon="18.01365">
        <ele>41.4</ele>
        <time>2013-08-11T15:52:42Z</time>
      </trkpt>
      <trkpt lat="59.331031" lon="18.013531">
        <ele>41.4</ele>
        <time>2013-08-11T15:52:43Z</time>
      </trkpt>
      <trkpt lat="59.331046" lon="18.013388">
        <ele>42.3</ele>
        <time>2013-08-11T15:52:44Z</time>
      </trkpt>
      <trkpt lat="59.331043" lon="18.013262">
        <ele>43.3</ele>
        <time>2013-08-11T15:52:45Z</time>
      </trkpt>
      <trkpt lat="59.331037" lon="18.013123">
        <ele>42</ele>
        <time>2013-08-11T15:52:46Z</time>
      </trkpt>
      <trkpt lat="59.331029" lon="18.012984">
        <ele>41.5</ele>
        <time>2013-08-11T15:52:47Z</time>
      </trkpt>
      <trkpt lat="59.331024" lon="18.012847">
        <ele>40.9</ele>
        <time>2013-08-11T15:52:48Z</time>
      </trkpt>
      <trkpt lat="59.331021" lon="18.012694">
        <ele>41</ele>
        <time>2013-08-11T15:52:49Z</time>
      </trkpt>
      <trkpt lat="59.331015" lon="18.012531">
        <ele>41.6</ele>
        <time>2013-08-11T15:52:50Z</time>
      </trkpt>
      <trkpt lat="59.331" lon="18.012353">
        <ele>41.6</ele>
        <time>2013-08-11T15:52:51Z</time>
      </trkpt>
      <trkpt lat="59.330987" lon="18.012184">
        <ele>41.3</ele>
        <time>2013-08-11T15:52:52Z</time>
      </trkpt>
      <trkpt lat="59.330976" lon="18.012022">
        <ele>41.1</ele>
        <time>2013-08-11T15:52:53Z</time>
      </trkpt>
      <trkpt lat="59.330955" lon="18.011853">
        <ele>42</ele>
        <time>2013-08-11T15:52:54Z</time>
      </trkpt>
      <trkpt lat="59.33096" lon="18.011677">
        <ele>41.5</ele>
        <time>2013-08-11T15:52:55Z</time>
      </trkpt>
      <trkpt lat="59.330977" lon="18.011492">
        <ele>40.2</ele>
        <time>2013-08-11T15:52:56Z</time>
      </trkpt>
      <trkpt lat="59.330983" lon="18.011315">
        <ele>39.9</ele>
        <time>2013-08-11T15:52:57Z</time>
      </trkpt>
      <trkpt lat="59.330994" lon="18.011122">
        <ele>40.9</ele>
        <time>2013-08-11T15:52:58Z</time>
      </trkpt>
      <trkpt lat="59.331004" lon="18.010937">
        <ele>40.7</ele>
        <time>2013-08-11T15:52:59Z</time>
      </trkpt>
      <trkpt lat="59.331015" lon="18.010744">
        <ele>39.1</ele>
        <time>2013-08-11T15:53:00Z</time>
      </trkpt>
      <trkpt lat="59.331022" lon="18.010554">
        <ele>37.5</ele>
        <time>2013-08-11T15:53:01Z</time>
      </trkpt>
      <trkpt lat="59.331031" lon="18.010363">
        <ele>37.1</ele>
        <time>2013-08-11T15:53:02Z</time>
      </trkpt>
      <trkpt lat="59.331034" lon="18.010171">
        <ele>36.9</ele>
        <time>2013-08-11T15:53:03Z</time>
      </trkpt>
      <trkpt lat="59.331039" lon="18.009984">
        <ele>36.4</ele>
        <time>2013-08-11T15:53:04Z</time>
      </trkpt>
      <trkpt lat="59.331045" lon="18.009797">
        <ele>36.2</ele>
        <time>2013-08-11T15:53:05Z</time>
      </trkpt>
      <trkpt lat="59.331047" lon="18.009598">
        <ele>36.4</ele>
        <time>2013-08-11T15:53:06Z</time>
      </trkpt>
      <trkpt lat="59.331049" lon="18.009419">
        <ele>36.5</ele>
        <time>2013-08-11T15:53:07Z</time>
      </trkpt>
      <trkpt lat="59.331057" lon="18.009251">
        <ele>36.3</ele>
        <time>2013-08-11T15:53:08Z</time>
      </trkpt>
      <trkpt lat="59.331066" lon="18.009084">
        <ele>35.9</ele>
        <time>2013-08-11T15:53:09Z</time>
      </trkpt>
      <trkpt lat="59.331138" lon="18.008928">
        <ele>37.2</ele>
        <time>2013-08-11T15:53:10Z</time>
      </trkpt>
      <trkpt lat="59.33118" lon="18.008762">
        <ele>37.4</ele>
        <time>2013-08-11T15:53:11Z</time>
      </trkpt>
      <trkpt lat="59.331232" lon="18.008614">
        <ele>37.1</ele>
        <time>2013-08-11T15:53:12Z</time>
      </trkpt>
      <trkpt lat="59.331272" lon="18.008455">
        <ele>37.1</ele>
        <time>2013-08-11T15:53:13Z</time>
      </trkpt>
      <trkpt lat="59.331321" lon="18.008308">
        <ele>39</ele>
        <time>2013-08-11T15:53:14Z</time>
      </trkpt>
      <trkpt lat="59.331364" lon="18.008172">
        <ele>39</ele>
        <time>2013-08-11T15:53:15Z</time>
      </trkpt>
      <trkpt lat="59.33141" lon="18.008028">
        <ele>38.8</ele>
        <time>2013-08-11T15:53:16Z</time>
      </trkpt>
      <trkpt lat="59.331453" lon="18.007894">
        <ele>39.1</ele>
        <time>2013-08-11T15:53:17Z</time>
      </trkpt>
      <trkpt lat="59.331493" lon="18.007765">
        <ele>39.7</ele>
        <time>2013-08-11T15:53:18Z</time>
      </trkpt>
      <trkpt lat="59.331532" lon="18.00764">
        <ele>39.8</ele>
        <time>2013-08-11T15:53:19Z</time>
      </trkpt>
      <trkpt lat="59.331571" lon="18.00751">
        <ele>39.9</ele>
        <time>2013-08-11T15:53:20Z</time>
      </trkpt>
      <trkpt lat="59.331613" lon="18.007389">
        <ele>40.9</ele>
        <time>2013-08-11T15:53:21Z</time>
      </trkpt>
      <trkpt lat="59.331654" lon="18.007262">
        <ele>41.2</ele>
        <time>2013-08-11T15:53:22Z</time>
      </trkpt>
      <trkpt lat="59.331693" lon="18.007138">
        <ele>41.2</ele>
        <time>2013-08-11T15:53:23Z</time>
      </trkpt>
      <trkpt lat="59.331731" lon="18.00701">
        <ele>41.2</ele>
        <time>2013-08-11T15:53:24Z</time>
      </trkpt>
      <trkpt lat="59.331764" lon="18.00688">
        <ele>40.9</ele>
        <time>2013-08-11T15:53:25Z</time>
      </trkpt>
      <trkpt lat="59.331802" lon="18.006743">
        <ele>41.7</ele>
        <time>2013-08-11T15:53:26Z</time>
      </trkpt>
      <trkpt lat="59.331839" lon="18.006606">
        <ele>42.2</ele>
        <time>2013-08-11T15:53:27Z</time>
      </trkpt>
      <trkpt lat="59.331867" lon="18.006459">
        <ele>41.8</ele>
        <time>2013-08-11T15:53:28Z</time>
      </trkpt>
      <trkpt lat="59.331891" lon="18.006334">
        <ele>42.3</ele>
        <time>2013-08-11T15:53:29Z</time>
      </trkpt>
      <trkpt lat="59.331914" lon="18.006191">
        <ele>42.4</ele>
        <time>2013-08-11T15:53:30Z</time>
      </trkpt>
      <trkpt lat="59.331943" lon="18.006049">
        <ele>42.6</ele>
        <time>2013-08-11T15:53:31Z</time>
      </trkpt>
      <trkpt lat="59.331971" lon="18.005908">
        <ele>42</ele>
        <time>2013-08-11T15:53:32Z</time>
      </trkpt>
      <trkpt lat="59.331993" lon="18.005754">
        <ele>42.5</ele>
        <time>2013-08-11T15:53:33Z</time>
      </trkpt>
      <trkpt lat="59.332019" lon="18.005605">
        <ele>43.3</ele>
        <time>2013-08-11T15:53:34Z</time>
      </trkpt>
      <trkpt lat="59.33205" lon="18.005465">
        <ele>43.8</ele>
        <time>2013-08-11T15:53:35Z</time>
      </trkpt>
      <trkpt lat="59.332077" lon="18.005315">
        <ele>44.1</ele>
        <time>2013-08-11T15:53:36Z</time>
      </trkpt>
      <trkpt lat="59.332103" lon="18.005166">
        <ele>44.1</ele>
        <time>2013-08-11T15:53:37Z</time>
      </trkpt>
      <trkpt lat="59.33213" lon="18.005039">
        <ele>43.8</ele>
        <time>2013-08-11T15:53:38Z</time>
      </trkpt>
      <trkpt lat="59.332153" lon="18.004895">
        <ele>43.9</ele>
        <time>2013-08-11T15:53:39Z</time>
      </trkpt>
      <trkpt lat="59.332172" lon="18.004752">
        <ele>42.4</ele>
        <time>2013-08-11T15:53:40Z</time>
      </trkpt>
      <trkpt lat="59.3322" lon="18.004603">
        <ele>43.6</ele>
        <time>2013-08-11T15:53:41Z</time>
      </trkpt>
      <trkpt lat="59.332224" lon="18.004455">
        <ele>43.5</ele>
        <time>2013-08-11T15:53:42Z</time>
      </trkpt>
      <trkpt lat="59.332249" lon="18.004305">
        <ele>43.3</ele>
        <time>2013-08-11T15:53:43Z</time>
      </trkpt>
      <trkpt lat="59.332287" lon="18.004144">
        <ele>43.6</ele>
        <time>2013-08-11T15:53:44Z</time>
      </trkpt>
      <trkpt lat="59.332315" lon="18.003997">
        <ele>43.9</ele>
        <time>2013-08-11T15:53:45Z</time>
      </trkpt>
      <trkpt lat="59.332345" lon="18.003843">
        <ele>43.9</ele>
        <time>2013-08-11T15:53:46Z</time>
      </trkpt>
      <trkpt lat="59.332369" lon="18.003687">
        <ele>44.1</ele>
        <time>2013-08-11T15:53:47Z</time>
      </trkpt>
      <trkpt lat="59.332391" lon="18.00355">
        <ele>44.3</ele>
        <time>2013-08-11T15:53:48Z</time>
      </trkpt>
      <trkpt lat="59.332413" lon="18.003406">
        <ele>44.7</ele>
        <time>2013-08-11T15:53:49Z</time>
      </trkpt>
      <trkpt lat="59.332437" lon="18.003258">
        <ele>45</ele>
        <time>2013-08-11T15:53:50Z</time>
      </trkpt>
      <trkpt lat="59.332466" lon="18.003114">
        <ele>45.2</ele>
        <time>2013-08-11T15:53:51Z</time>
      </trkpt>
      <trkpt lat="59.33249" lon="18.00297">
        <ele>45.9</ele>
        <time>2013-08-11T15:53:52Z</time>
      </trkpt>
      <trkpt lat="59.332515" lon="18.002826">
        <ele>46.4</ele>
        <time>2013-08-11T15:53:53Z</time>
      </trkpt>
      <trkpt lat="59.332538" lon="18.002686">
        <ele>46.1</ele>
        <time>2013-08-11T15:53:54Z</time>
      </trkpt>
      <trkpt lat="59.332559" lon="18.002541">
        <ele>46.6</ele>
        <time>2013-08-11T15:53:55Z</time>
      </trkpt>
      <trkpt lat="59.332584" lon="18.002403">
        <ele>47</ele>
        <time>2013-08-11T15:53:56Z</time>
      </trkpt>
      <trkpt lat="59.332608" lon="18.002259">
        <ele>47.2</ele>
        <time>2013-08-11T15:53:57Z</time>
      </trkpt>
      <trkpt lat="59.332632" lon="18.002111">
        <ele>46.9</ele>
        <time>2013-08-11T15:53:58Z</time>
      </trkpt>
      <trkpt lat="59.332657" lon="18.001966">
        <ele>47.1</ele>
        <time>2013-08-11T15:53:59Z</time>
      </trkpt>
      <trkpt lat="59.332684" lon="18.001809">
        <ele>48.2</ele>
        <time>2013-08-11T15:54:00Z</time>
      </trkpt>
      <trkpt lat="59.332712" lon="18.001658">
        <ele>48.8</ele>
        <time>2013-08-11T15:54:01Z</time>
      </trkpt>
      <trkpt lat="59.332742" lon="18.001506">
        <ele>49.8</ele>
        <time>2013-08-11T15:54:02Z</time>
      </trkpt>
      <trkpt lat="59.332767" lon="18.001356">
        <ele>50.1</ele>
        <time>2013-08-11T15:54:03Z</time>
      </trkpt>
      <trkpt lat="59.332789" lon="18.001217">
        <ele>50</ele>
        <time>2013-08-11T15:54:04Z</time>
      </trkpt>
      <trkpt lat="59.332812" lon="18.001077">
        <ele>50.4</ele>
        <time>2013-08-11T15:54:05Z</time>
      </trkpt>
      <trkpt lat="59.332836" lon="18.000942">
        <ele>50.8</ele>
        <time>2013-08-11T15:54:06Z</time>
      </trkpt>
      <trkpt lat="59.332862" lon="18.000789">
        <ele>50.8</ele>
        <time>2013-08-11T15:54:07Z</time>
      </trkpt>
      <trkpt lat="59.332887" lon="18.000647">
        <ele>51.1</ele>
        <time>2013-08-11T15:54:08Z</time>
      </trkpt>
      <trkpt lat="59.332907" lon="18.000505">
        <ele>51.9</ele>
        <time>2013-08-11T15:54:09Z</time>
      </trkpt>
      <trkpt lat="59.33293" lon="18.000368">
        <ele>52.5</ele>
        <time>2013-08-11T15:54:10Z</time>
      </trkpt>
      <trkpt lat="59.33295" lon="18.000228">
        <ele>52.7</ele>
        <time>2013-08-11T15:54:11Z</time>
      </trkpt>
      <trkpt lat="59.332973" lon="18.00009">
        <ele>52.5</ele>
        <time>2013-08-11T15:54:12Z</time>
      </trkpt>
      <trkpt lat="59.332995" lon="17.999951">
        <ele>52.8</ele>
        <time>2013-08-11T15:54:13Z</time>
      </trkpt>
      <trkpt lat="59.333015" lon="17.999819">
        <ele>53.3</ele>
        <time>2013-08-11T15:54:14Z</time>
      </trkpt>
      <trkpt lat="59.333041" lon="17.999687">
        <ele>53.8</ele>
        <time>2013-08-11T15:54:15Z</time>
      </trkpt>
      <trkpt lat="59.333061" lon="17.999545">
        <ele>54</ele>
        <time>2013-08-11T15:54:16Z</time>
      </trkpt>
      <trkpt lat="59.333086" lon="17.999408">
        <ele>54.3</ele>
        <time>2013-08-11T15:54:17Z</time>
      </trkpt>
      <trkpt lat="59.333107" lon="17.999273">
        <ele>54.6</ele>
        <time>2013-08-11T15:54:18Z</time>
      </trkpt>
      <trkpt lat="59.333132" lon="17.999138">
        <ele>54.9</ele>
        <time>2013-08-11T15:54:19Z</time>
      </trkpt>
      <trkpt lat="59.333154" lon="17.999006">
        <ele>55.4</ele>
        <time>2013-08-11T15:54:20Z</time>
      </trkpt>
      <trkpt lat="59.333175" lon="17.998878">
        <ele>55.5</ele>
        <time>2013-08-11T15:54:21Z</time>
      </trkpt>
      <trkpt lat="59.333197" lon="17.998745">
        <ele>55.8</ele>
        <time>2013-08-11T15:54:22Z</time>
      </trkpt>
      <trkpt lat="59.333223" lon="17.998605">
        <ele>56.1</ele>
        <time>2013-08-11T15:54:23Z</time>
      </trkpt>
      <trkpt lat="59.333236" lon="17.998473">
        <ele>55.6</ele>
        <time>2013-08-11T15:54:24Z</time>
      </trkpt>
      <trkpt lat="59.333251" lon="17.998332">
        <ele>55.7</ele>
        <time>2013-08-11T15:54:25Z</time>
      </trkpt>
      <trkpt lat="59.333266" lon="17.998204">
        <ele>56</ele>
        <time>2013-08-11T15:54:26Z</time>
      </trkpt>
      <trkpt lat="59.333279" lon="17.998073">
        <ele>56.5</ele>
        <time>2013-08-11T15:54:27Z</time>
      </trkpt>
      <trkpt lat="59.333304" lon="17.997809">
        <ele>52.5</ele>
        <time>2013-08-11T15:54:29Z</time>
      </trkpt>
      <trkpt lat="59.333326" lon="17.997659">
        <ele>56.6</ele>
        <time>2013-08-11T15:54:30Z</time>
      </trkpt>
      <trkpt lat="59.333338" lon="17.997531">
        <ele>56.4</ele>
        <time>2013-08-11T15:54:31Z</time>
      </trkpt>
      <trkpt lat="59.333347" lon="17.997402">
        <ele>56.5</ele>
        <time>2013-08-11T15:54:32Z</time>
      </trkpt>
      <trkpt lat="59.333358" lon="17.997268">
        <ele>56.8</ele>
        <time>2013-08-11T15:54:33Z</time>
      </trkpt>
      <trkpt lat="59.333361" lon="17.997121">
        <ele>56.9</ele>
        <time>2013-08-11T15:54:34Z</time>
      </trkpt>
      <trkpt lat="59.333362" lon="17.996987">
        <ele>57</ele>
        <time>2013-08-11T15:54:35Z</time>
      </trkpt>
      <trkpt lat="59.333367" lon="17.996849">
        <ele>57.1</ele>
        <time>2013-08-11T15:54:36Z</time>
      </trkpt>
      <trkpt lat="59.333373" lon="17.996717">
        <ele>57.3</ele>
        <time>2013-08-11T15:54:37Z</time>
      </trkpt>
      <trkpt lat="59.333375" lon="17.996589">
        <ele>57.5</ele>
        <time>2013-08-11T15:54:38Z</time>
      </trkpt>
      <trkpt lat="59.333385" lon="17.996456">
        <ele>57.7</ele>
        <time>2013-08-11T15:54:39Z</time>
      </trkpt>
      <trkpt lat="59.333391" lon="17.996312">
        <ele>58.2</ele>
        <time>2013-08-11T15:54:40Z</time>
      </trkpt>
      <trkpt lat="59.333399" lon="17.996175">
        <ele>58.4</ele>
        <time>2013-08-11T15:54:41Z</time>
      </trkpt>
      <trkpt lat="59.333406" lon="17.996035">
        <ele>58.1</ele>
        <time>2013-08-11T15:54:42Z</time>
      </trkpt>
      <trkpt lat="59.333413" lon="17.995897">
        <ele>58.1</ele>
        <time>2013-08-11T15:54:43Z</time>
      </trkpt>
      <trkpt lat="59.333418" lon="17.995751">
        <ele>58</ele>
        <time>2013-08-11T15:54:44Z</time>
      </trkpt>
      <trkpt lat="59.333425" lon="17.995611">
        <ele>58.1</ele>
        <time>2013-08-11T15:54:45Z</time>
      </trkpt>
      <trkpt lat="59.333436" lon="17.995469">
        <ele>58.6</ele>
        <time>2013-08-11T15:54:46Z</time>
      </trkpt>
      <trkpt lat="59.333442" lon="17.995332">
        <ele>59</ele>
        <time>2013-08-11T15:54:47Z</time>
      </trkpt>
      <trkpt lat="59.333446" lon="17.995196">
        <ele>59.3</ele>
        <time>2013-08-11T15:54:48Z</time>
      </trkpt>
      <trkpt lat="59.33345" lon="17.995062">
        <ele>59.4</ele>
        <time>2013-08-11T15:54:49Z</time>
      </trkpt>
      <trkpt lat="59.333458" lon="17.994918">
        <ele>59.7</ele>
        <time>2013-08-11T15:54:50Z</time>
      </trkpt>
      <trkpt lat="59.333459" lon="17.994783">
        <ele>59.9</ele>
        <time>2013-08-11T15:54:51Z</time>
      </trkpt>
      <trkpt lat="59.333466" lon="17.99462">
        <ele>59.6</ele>
        <time>2013-08-11T15:54:52Z</time>
      </trkpt>
      <trkpt lat="59.333473" lon="17.994459">
        <ele>59.2</ele>
        <time>2013-08-11T15:54:53Z</time>
      </trkpt>
      <trkpt lat="59.333478" lon="17.994304">
        <ele>59.1</ele>
        <time>2013-08-11T15:54:54Z</time>
      </trkpt>
      <trkpt lat="59.333484" lon="17.994143">
        <ele>59.1</ele>
        <time>2013-08-11T15:54:55Z</time>
      </trkpt>
      <trkpt lat="59.333487" lon="17.993988">
        <ele>58.7</ele>
        <time>2013-08-11T15:54:56Z</time>
      </trkpt>
      <trkpt lat="59.33349" lon="17.993822">
        <ele>58.4</ele>
        <time>2013-08-11T15:54:57Z</time>
      </trkpt>
      <trkpt lat="59.333499" lon="17.99366">
        <ele>58.4</ele>
        <time>2013-08-11T15:54:58Z</time>
      </trkpt>
      <trkpt lat="59.333505" lon="17.993492">
        <ele>58.4</ele>
        <time>2013-08-11T15:54:59Z</time>
      </trkpt>
      <trkpt lat="59.333507" lon="17.993335">
        <ele>57.3</ele>
        <time>2013-08-11T15:55:00Z</time>
      </trkpt>
      <trkpt lat="59.333513" lon="17.993169">
        <ele>57</ele>
        <time>2013-08-11T15:55:01Z</time>
      </trkpt>
      <trkpt lat="59.333514" lon="17.992994">
        <ele>56.2</ele>
        <time>2013-08-11T15:55:02Z</time>
      </trkpt>
      <trkpt lat="59.333519" lon="17.992819">
        <ele>55.9</ele>
        <time>2013-08-11T15:55:03Z</time>
      </trkpt>
      <trkpt lat="59.333515" lon="17.992646">
        <ele>55.7</ele>
        <time>2013-08-11T15:55:04Z</time>
      </trkpt>
      <trkpt lat="59.333516" lon="17.992458">
        <ele>55.5</ele>
        <time>2013-08-11T15:55:05Z</time>
      </trkpt>
      <trkpt lat="59.333509" lon="17.992277">
        <ele>55.5</ele>
        <time>2013-08-11T15:55:06Z</time>
      </trkpt>
      <trkpt lat="59.333504" lon="17.992099">
        <ele>55</ele>
        <time>2013-08-11T15:55:07Z</time>
      </trkpt>
      <trkpt lat="59.333497" lon="17.991933">
        <ele>54.9</ele>
        <time>2013-08-11T15:55:08Z</time>
      </trkpt>
      <trkpt lat="59.333483" lon="17.991771">
        <ele>55.1</ele>
        <time>2013-08-11T15:55:09Z</time>
      </trkpt>
      <trkpt lat="59.333467" lon="17.991604">
        <ele>55</ele>
        <time>2013-08-11T15:55:10Z</time>
      </trkpt>
      <trkpt lat="59.33345" lon="17.991442">
        <ele>54.5</ele>
        <time>2013-08-11T15:55:11Z</time>
      </trkpt>
      <trkpt lat="59.333433" lon="17.99128">
        <ele>54.2</ele>
        <time>2013-08-11T15:55:12Z</time>
      </trkpt>
      <trkpt lat="59.333414" lon="17.991128">
        <ele>54.1</ele>
        <time>2013-08-11T15:55:13Z</time>
      </trkpt>
      <trkpt lat="59.333387" lon="17.990971">
        <ele>53.7</ele>
        <time>2013-08-11T15:55:14Z</time>
      </trkpt>
      <trkpt lat="59.333362" lon="17.990812">
        <ele>53.6</ele>
        <time>2013-08-11T15:55:15Z</time>
      </trkpt>
      <trkpt lat="59.333322" lon="17.99067">
        <ele>52.2</ele>
        <time>2013-08-11T15:55:16Z</time>
      </trkpt>
      <trkpt lat="59.333285" lon="17.990526">
        <ele>51.7</ele>
        <time>2013-08-11T15:55:17Z</time>
      </trkpt>
      <trkpt lat="59.333213" lon="17.990434">
        <ele>52.4</ele>
        <time>2013-08-11T15:55:18Z</time>
      </trkpt>
      <trkpt lat="59.333155" lon="17.990318">
        <ele>52.4</ele>
        <time>2013-08-11T15:55:19Z</time>
      </trkpt>
      <trkpt lat="59.333061" lon="17.990281">
        <ele>52</ele>
        <time>2013-08-11T15:55:20Z</time>
      </trkpt>
      <trkpt lat="59.332985" lon="17.990214">
        <ele>51.8</ele>
        <time>2013-08-11T15:55:21Z</time>
      </trkpt>
      <trkpt lat="59.33291" lon="17.990142">
        <ele>51.9</ele>
        <time>2013-08-11T15:55:22Z</time>
      </trkpt>
      <trkpt lat="59.332836" lon="17.990064">
        <ele>52</ele>
        <time>2013-08-11T15:55:23Z</time>
      </trkpt>
      <trkpt lat="59.332801" lon="17.989903">
        <ele>51.8</ele>
        <time>2013-08-11T15:55:24Z</time>
      </trkpt>
      <trkpt lat="59.332766" lon="17.989746">
        <ele>51.2</ele>
        <time>2013-08-11T15:55:25Z</time>
      </trkpt>
      <trkpt lat="59.332752" lon="17.989594">
        <ele>51.4</ele>
        <time>2013-08-11T15:55:26Z</time>
      </trkpt>
      <trkpt lat="59.332735" lon="17.989442">
        <ele>51.8</ele>
        <time>2013-08-11T15:55:27Z</time>
      </trkpt>
      <trkpt lat="59.332754" lon="17.989354">
        <ele>51</ele>
        <time>2013-08-11T15:55:28Z</time>
      </trkpt>
      <trkpt lat="59.332772" lon="17.989257">
        <ele>51</ele>
        <time>2013-08-11T15:55:29Z</time>
      </trkpt>
      <trkpt lat="59.33279" lon="17.989165">
        <ele>50.5</ele>
        <time>2013-08-11T15:55:30Z</time>
      </trkpt>
      <trkpt lat="59.332809" lon="17.989075">
        <ele>50.4</ele>
        <time>2013-08-11T15:55:31Z</time>
      </trkpt>
      <trkpt lat="59.33284" lon="17.989007">
        <ele>50.4</ele>
        <time>2013-08-11T15:55:32Z</time>
      </trkpt>
      <trkpt lat="59.332865" lon="17.988925">
        <ele>50.3</ele>
        <time>2013-08-11T15:55:33Z</time>
      </trkpt>
      <trkpt lat="59.332893" lon="17.988833">
        <ele>49.7</ele>
        <time>2013-08-11T15:55:34Z</time>
      </trkpt>
      <trkpt lat="59.33292" lon="17.988741">
        <ele>49.5</ele>
        <time>2013-08-11T15:55:35Z</time>
      </trkpt>
      <trkpt lat="59.332927" lon="17.988645">
        <ele>49.3</ele>
        <time>2013-08-11T15:55:36Z</time>
      </trkpt>
      <trkpt lat="59.332942" lon="17.988554">
        <ele>49.4</ele>
        <time>2013-08-11T15:55:37Z</time>
      </trkpt>
      <trkpt lat="59.332934" lon="17.988431">
        <ele>48.9</ele>
        <time>2013-08-11T15:55:38Z</time>
      </trkpt>
      <trkpt lat="59.332935" lon="17.988319">
        <ele>48.9</ele>
        <time>2013-08-11T15:55:39Z</time>
      </trkpt>
      <trkpt lat="59.332907" lon="17.9882">
        <ele>49</ele>
        <time>2013-08-11T15:55:40Z</time>
      </trkpt>
      <trkpt lat="59.33289" lon="17.988088">
        <ele>49.3</ele>
        <time>2013-08-11T15:55:41Z</time>
      </trkpt>
      <trkpt lat="59.332866" lon="17.987957">
        <ele>48.7</ele>
        <time>2013-08-11T15:55:42Z</time>
      </trkpt>
      <trkpt lat="59.332857" lon="17.987806">
        <ele>48.6</ele>
        <time>2013-08-11T15:55:43Z</time>
      </trkpt>
      <trkpt lat="59.332851" lon="17.987642">
        <ele>48.2</ele>
        <time>2013-08-11T15:55:44Z</time>
      </trkpt>
      <trkpt lat="59.332841" lon="17.987482">
        <ele>48</ele>
        <time>2013-08-11T15:55:45Z</time>
      </trkpt>
      <trkpt lat="59.332813" lon="17.987314">
        <ele>47.8</ele>
        <time>2013-08-11T15:55:46Z</time>
      </trkpt>
      <trkpt lat="59.332798" lon="17.987147">
        <ele>47.7</ele>
        <time>2013-08-11T15:55:47Z</time>
      </trkpt>
      <trkpt lat="59.33279" lon="17.986979">
        <ele>46.8</ele>
        <time>2013-08-11T15:55:48Z</time>
      </trkpt>
      <trkpt lat="59.33278" lon="17.986814">
        <ele>46.2</ele>
        <time>2013-08-11T15:55:49Z</time>
      </trkpt>
      <trkpt lat="59.332786" lon="17.986646">
        <ele>46.5</ele>
        <time>2013-08-11T15:55:50Z</time>
      </trkpt>
      <trkpt lat="59.332791" lon="17.986475">
        <ele>46.3</ele>
        <time>2013-08-11T15:55:51Z</time>
      </trkpt>
      <trkpt lat="59.332791" lon="17.986298">
        <ele>45.1</ele>
        <time>2013-08-11T15:55:52Z</time>
      </trkpt>
      <trkpt lat="59.332796" lon="17.986125">
        <ele>44.4</ele>
        <time>2013-08-11T15:55:53Z</time>
      </trkpt>
      <trkpt lat="59.332802" lon="17.985945">
        <ele>43.8</ele>
        <time>2013-08-11T15:55:54Z</time>
      </trkpt>
      <trkpt lat="59.332808" lon="17.985761">
        <ele>44.3</ele>
        <time>2013-08-11T15:55:55Z</time>
      </trkpt>
      <trkpt lat="59.332816" lon="17.98558">
        <ele>44.1</ele>
        <time>2013-08-11T15:55:56Z</time>
      </trkpt>
      <trkpt lat="59.332822" lon="17.985393">
        <ele>44.1</ele>
        <time>2013-08-11T15:55:57Z</time>
      </trkpt>
      <trkpt lat="59.332829" lon="17.985212">
        <ele>43.9</ele>
        <time>2013-08-11T15:55:58Z</time>
      </trkpt>
      <trkpt lat="59.332835" lon="17.985032">
        <ele>43.2</ele>
        <time>2013-08-11T15:55:59Z</time>
      </trkpt>
      <trkpt lat="59.332848" lon="17.984859">
        <ele>42.6</ele>
        <time>2013-08-11T15:56:00Z</time>
      </trkpt>
      <trkpt lat="59.33286" lon="17.984684">
        <ele>42.3</ele>
        <time>2013-08-11T15:56:01Z</time>
      </trkpt>
      <trkpt lat="59.33287" lon="17.984509">
        <ele>42.2</ele>
        <time>2013-08-11T15:56:02Z</time>
      </trkpt>
      <trkpt lat="59.332883" lon="17.984324">
        <ele>42</ele>
        <time>2013-08-11T15:56:03Z</time>
      </trkpt>
      <trkpt lat="59.332898" lon="17.984143">
        <ele>42</ele>
        <time>2013-08-11T15:56:04Z</time>
      </trkpt>
      <trkpt lat="59.332913" lon="17.983953">
        <ele>42</ele>
        <time>2013-08-11T15:56:05Z</time>
      </trkpt>
      <trkpt lat="59.332927" lon="17.983769">
        <ele>41.6</ele>
        <time>2013-08-11T15:56:06Z</time>
      </trkpt>
      <trkpt lat="59.332944" lon="17.983576">
        <ele>41.3</ele>
        <time>2013-08-11T15:56:07Z</time>
      </trkpt>
      <trkpt lat="59.332958" lon="17.983382">
        <ele>40.6</ele>
        <time>2013-08-11T15:56:08Z</time>
      </trkpt>
      <trkpt lat="59.332978" lon="17.983186">
        <ele>40.1</ele>
        <time>2013-08-11T15:56:09Z</time>
      </trkpt>
      <trkpt lat="59.332996" lon="17.982973">
        <ele>39.4</ele>
        <time>2013-08-11T15:56:10Z</time>
      </trkpt>
      <trkpt lat="59.333014" lon="17.98277">
        <ele>39.5</ele>
        <time>2013-08-11T15:56:11Z</time>
      </trkpt>
      <trkpt lat="59.333032" lon="17.982586">
        <ele>39.8</ele>
        <time>2013-08-11T15:56:12Z</time>
      </trkpt>
      <trkpt lat="59.33305" lon="17.982391">
        <ele>39.9</ele>
        <time>2013-08-11T15:56:13Z</time>
      </trkpt>
      <trkpt lat="59.333069" lon="17.982211">
        <ele>39.7</ele>
        <time>2013-08-11T15:56:14Z</time>
      </trkpt>
      <trkpt lat="59.333089" lon="17.982045">
        <ele>39.6</ele>
        <time>2013-08-11T15:56:15Z</time>
      </trkpt>
      <trkpt lat="59.333107" lon="17.98186">
        <ele>39.6</ele>
        <time>2013-08-11T15:56:16Z</time>
      </trkpt>
      <trkpt lat="59.333129" lon="17.981667">
        <ele>39.7</ele>
        <time>2013-08-11T15:56:17Z</time>
      </trkpt>
      <trkpt lat="59.33315" lon="17.981471">
        <ele>39.7</ele>
        <time>2013-08-11T15:56:18Z</time>
      </trkpt>
      <trkpt lat="59.333171" lon="17.981288">
        <ele>40.1</ele>
        <time>2013-08-11T15:56:19Z</time>
      </trkpt>
      <trkpt lat="59.333192" lon="17.981103">
        <ele>39.7</ele>
        <time>2013-08-11T15:56:20Z</time>
      </trkpt>
      <trkpt lat="59.333212" lon="17.980917">
        <ele>39.7</ele>
        <time>2013-08-11T15:56:21Z</time>
      </trkpt>
      <trkpt lat="59.333235" lon="17.980734">
        <ele>39.8</ele>
        <time>2013-08-11T15:56:22Z</time>
      </trkpt>
      <trkpt lat="59.333254" lon="17.980568">
        <ele>39.5</ele>
        <time>2013-08-11T15:56:23Z</time>
      </trkpt>
      <trkpt lat="59.333273" lon="17.980399">
        <ele>39.7</ele>
        <time>2013-08-11T15:56:24Z</time>
      </trkpt>
      <trkpt lat="59.333287" lon="17.980207">
        <ele>38.8</ele>
        <time>2013-08-11T15:56:25Z</time>
      </trkpt>
      <trkpt lat="59.333302" lon="17.980029">
        <ele>38.8</ele>
        <time>2013-08-11T15:56:26Z</time>
      </trkpt>
      <trkpt lat="59.333315" lon="17.97985">
        <ele>38.4</ele>
        <time>2013-08-11T15:56:27Z</time>
      </trkpt>
      <trkpt lat="59.333333" lon="17.979673">
        <ele>39.2</ele>
        <time>2013-08-11T15:56:28Z</time>
      </trkpt>
      <trkpt lat="59.333354" lon="17.979489">
        <ele>38.9</ele>
        <time>2013-08-11T15:56:29Z</time>
      </trkpt>
      <trkpt lat="59.333369" lon="17.979304">
        <ele>38.7</ele>
        <time>2013-08-11T15:56:30Z</time>
      </trkpt>
      <trkpt lat="59.333388" lon="17.979114">
        <ele>39.4</ele>
        <time>2013-08-11T15:56:31Z</time>
      </trkpt>
      <trkpt lat="59.333405" lon="17.978946">
        <ele>39.3</ele>
        <time>2013-08-11T15:56:32Z</time>
      </trkpt>
      <trkpt lat="59.333422" lon="17.978782">
        <ele>39.2</ele>
        <time>2013-08-11T15:56:33Z</time>
      </trkpt>
      <trkpt lat="59.33344" lon="17.978613">
        <ele>39.6</ele>
        <time>2013-08-11T15:56:34Z</time>
      </trkpt>
      <trkpt lat="59.333459" lon="17.978459">
        <ele>39.5</ele>
        <time>2013-08-11T15:56:35Z</time>
      </trkpt>
      <trkpt lat="59.333472" lon="17.978306">
        <ele>39.8</ele>
        <time>2013-08-11T15:56:36Z</time>
      </trkpt>
      <trkpt lat="59.33349" lon="17.978164">
        <ele>39.7</ele>
        <time>2013-08-11T15:56:37Z</time>
      </trkpt>
      <trkpt lat="59.333503" lon="17.978028">
        <ele>39.5</ele>
        <time>2013-08-11T15:56:38Z</time>
      </trkpt>
      <trkpt lat="59.333517" lon="17.977889">
        <ele>39.6</ele>
        <time>2013-08-11T15:56:39Z</time>
      </trkpt>
      <trkpt lat="59.33352" lon="17.977772">
        <ele>39.2</ele>
        <time>2013-08-11T15:56:40Z</time>
      </trkpt>
      <trkpt lat="59.333523" lon="17.977651">
        <ele>39.6</ele>
        <time>2013-08-11T15:56:41Z</time>
      </trkpt>
      <trkpt lat="59.333527" lon="17.97753">
        <ele>39.4</ele>
        <time>2013-08-11T15:56:42Z</time>
      </trkpt>
      <trkpt lat="59.333492" lon="17.977434">
        <ele>39.6</ele>
        <time>2013-08-11T15:56:43Z</time>
      </trkpt>
      <trkpt lat="59.333466" lon="17.977333">
        <ele>39.6</ele>
        <time>2013-08-11T15:56:44Z</time>
      </trkpt>
      <trkpt lat="59.333423" lon="17.977293">
        <ele>38.7</ele>
        <time>2013-08-11T15:56:45Z</time>
      </trkpt>
      <trkpt lat="59.333387" lon="17.977226">
        <ele>38.6</ele>
        <time>2013-08-11T15:56:46Z</time>
      </trkpt>
      <trkpt lat="59.333356" lon="17.977191">
        <ele>39</ele>
        <time>2013-08-11T15:56:47Z</time>
      </trkpt>
      <trkpt lat="59.333325" lon="17.977145">
        <ele>39</ele>
        <time>2013-08-11T15:56:48Z</time>
      </trkpt>
      <trkpt lat="59.333302" lon="17.977107">
        <ele>39.7</ele>
        <time>2013-08-11T15:56:51Z</time>
      </trkpt>
      <trkpt lat="59.333281" lon="17.977066">
        <ele>40.1</ele>
        <time>2013-08-11T15:56:53Z</time>
      </trkpt>
      <trkpt lat="59.333247" lon="17.977011">
        <ele>40.8</ele>
        <time>2013-08-11T15:57:23Z</time>
      </trkpt>
      <trkpt lat="59.333226" lon="17.976979">
        <ele>40.5</ele>
        <time>2013-08-11T15:57:24Z</time>
      </trkpt>
      <trkpt lat="59.3332" lon="17.976935">
        <ele>41.2</ele>
        <time>2013-08-11T15:57:25Z</time>
      </trkpt>
      <trkpt lat="59.333171" lon="17.976886">
        <ele>42.2</ele>
        <time>2013-08-11T15:57:26Z</time>
      </trkpt>
      <trkpt lat="59.333122" lon="17.976819">
        <ele>43.1</ele>
        <time>2013-08-11T15:57:27Z</time>
      </trkpt>
      <trkpt lat="59.3331" lon="17.976765">
        <ele>44.3</ele>
        <time>2013-08-11T15:57:28Z</time>
      </trkpt>
      <trkpt lat="59.333077" lon="17.976705">
        <ele>43.9</ele>
        <time>2013-08-11T15:57:29Z</time>
      </trkpt>
      <trkpt lat="59.333058" lon="17.976637">
        <ele>44.9</ele>
        <time>2013-08-11T15:57:30Z</time>
      </trkpt>
      <trkpt lat="59.33304" lon="17.976567">
        <ele>44.8</ele>
        <time>2013-08-11T15:57:31Z</time>
      </trkpt>
      <trkpt lat="59.333032" lon="17.976479">
        <ele>44.8</ele>
        <time>2013-08-11T15:57:32Z</time>
      </trkpt>
      <trkpt lat="59.33302" lon="17.976389">
        <ele>42.6</ele>
        <time>2013-08-11T15:57:33Z</time>
      </trkpt>
      <trkpt lat="59.333036" lon="17.976292">
        <ele>41.7</ele>
        <time>2013-08-11T15:57:34Z</time>
      </trkpt>
      <trkpt lat="59.333057" lon="17.976191">
        <ele>41.1</ele>
        <time>2013-08-11T15:57:35Z</time>
      </trkpt>
      <trkpt lat="59.333072" lon="17.976103">
        <ele>40.7</ele>
        <time>2013-08-11T15:57:36Z</time>
      </trkpt>
      <trkpt lat="59.333086" lon="17.976014">
        <ele>40.7</ele>
        <time>2013-08-11T15:57:37Z</time>
      </trkpt>
      <trkpt lat="59.333101" lon="17.975923">
        <ele>39.9</ele>
        <time>2013-08-11T15:57:38Z</time>
      </trkpt>
      <trkpt lat="59.333122" lon="17.975826">
        <ele>40.2</ele>
        <time>2013-08-11T15:57:39Z</time>
      </trkpt>
      <trkpt lat="59.333143" lon="17.975727">
        <ele>39.6</ele>
        <time>2013-08-11T15:57:40Z</time>
      </trkpt>
      <trkpt lat="59.333163" lon="17.975619">
        <ele>39.6</ele>
        <time>2013-08-11T15:57:41Z</time>
      </trkpt>
      <trkpt lat="59.333183" lon="17.975512">
        <ele>39.5</ele>
        <time>2013-08-11T15:57:42Z</time>
      </trkpt>
      <trkpt lat="59.333195" lon="17.975412">
        <ele>39.5</ele>
        <time>2013-08-11T15:57:43Z</time>
      </trkpt>
      <trkpt lat="59.333211" lon="17.975305">
        <ele>39.9</ele>
        <time>2013-08-11T15:57:44Z</time>
      </trkpt>
      <trkpt lat="59.333223" lon="17.9752">
        <ele>39.7</ele>
        <time>2013-08-11T15:57:45Z</time>
      </trkpt>
      <trkpt lat="59.333237" lon="17.975095">
        <ele>39.9</ele>
        <time>2013-08-11T15:57:46Z</time>
      </trkpt>
      <trkpt lat="59.333249" lon="17.975008">
        <ele>39.9</ele>
        <time>2013-08-11T15:57:47Z</time>
      </trkpt>
      <trkpt lat="59.333272" lon="17.974895">
        <ele>41.3</ele>
        <time>2013-08-11T15:57:48Z</time>
      </trkpt>
      <trkpt lat="59.333287" lon="17.974793">
        <ele>41.1</ele>
        <time>2013-08-11T15:57:49Z</time>
      </trkpt>
      <trkpt lat="59.333309" lon="17.974703">
        <ele>41</ele>
        <time>2013-08-11T15:57:50Z</time>
      </trkpt>
      <trkpt lat="59.33333" lon="17.974606">
        <ele>40.8</ele>
        <time>2013-08-11T15:57:51Z</time>
      </trkpt>
      <trkpt lat="59.333341" lon="17.974508">
        <ele>40.8</ele>
        <time>2013-08-11T15:57:52Z</time>
      </trkpt>
      <trkpt lat="59.33337" lon="17.97438">
        <ele>40.5</ele>
        <time>2013-08-11T15:57:53Z</time>
      </trkpt>
      <trkpt lat="59.333401" lon="17.974262">
        <ele>40.6</ele>
        <time>2013-08-11T15:57:54Z</time>
      </trkpt>
      <trkpt lat="59.333434" lon="17.974147">
        <ele>40.8</ele>
        <time>2013-08-11T15:57:55Z</time>
      </trkpt>
      <trkpt lat="59.333459" lon="17.974029">
        <ele>41</ele>
        <time>2013-08-11T15:57:56Z</time>
      </trkpt>
      <trkpt lat="59.333485" lon="17.973896">
        <ele>40.9</ele>
        <time>2013-08-11T15:57:57Z</time>
      </trkpt>
      <trkpt lat="59.333512" lon="17.973783">
        <ele>41</ele>
        <time>2013-08-11T15:57:58Z</time>
      </trkpt>
      <trkpt lat="59.333533" lon="17.973657">
        <ele>40.8</ele>
        <time>2013-08-11T15:57:59Z</time>
      </trkpt>
      <trkpt lat="59.33356" lon="17.973538">
        <ele>40.4</ele>
        <time>2013-08-11T15:58:00Z</time>
      </trkpt>
      <trkpt lat="59.333582" lon="17.973426">
        <ele>40.1</ele>
        <time>2013-08-11T15:58:01Z</time>
      </trkpt>
      <trkpt lat="59.333608" lon="17.973306">
        <ele>39.4</ele>
        <time>2013-08-11T15:58:02Z</time>
      </trkpt>
      <trkpt lat="59.333632" lon="17.973181">
        <ele>39.3</ele>
        <time>2013-08-11T15:58:03Z</time>
      </trkpt>
      <trkpt lat="59.333655" lon="17.973053">
        <ele>39.2</ele>
        <time>2013-08-11T15:58:04Z</time>
      </trkpt>
      <trkpt lat="59.33368" lon="17.972917">
        <ele>39.1</ele>
        <time>2013-08-11T15:58:05Z</time>
      </trkpt>
      <trkpt lat="59.333709" lon="17.972782">
        <ele>38.7</ele>
        <time>2013-08-11T15:58:06Z</time>
      </trkpt>
      <trkpt lat="59.333734" lon="17.972647">
        <ele>38.6</ele>
        <time>2013-08-11T15:58:07Z</time>
      </trkpt>
      <trkpt lat="59.333762" lon="17.972524">
        <ele>38.4</ele>
        <time>2013-08-11T15:58:08Z</time>
      </trkpt>
      <trkpt lat="59.333785" lon="17.972392">
        <ele>38.6</ele>
        <time>2013-08-11T15:58:09Z</time>
      </trkpt>
      <trkpt lat="59.33381" lon="17.972268">
        <ele>38.5</ele>
        <time>2013-08-11T15:58:10Z</time>
      </trkpt>
      <trkpt lat="59.333834" lon="17.97213">
        <ele>38.9</ele>
        <time>2013-08-11T15:58:11Z</time>
      </trkpt>
      <trkpt lat="59.33386" lon="17.971991">
        <ele>39.1</ele>
        <time>2013-08-11T15:58:12Z</time>
      </trkpt>
      <trkpt lat="59.333888" lon="17.971854">
        <ele>39</ele>
        <time>2013-08-11T15:58:13Z</time>
      </trkpt>
      <trkpt lat="59.333919" lon="17.971721">
        <ele>39.2</ele>
        <time>2013-08-11T15:58:14Z</time>
      </trkpt>
      <trkpt lat="59.333944" lon="17.971584">
        <ele>39.2</ele>
        <time>2013-08-11T15:58:15Z</time>
      </trkpt>
      <trkpt lat="59.333968" lon="17.971457">
        <ele>38.9</ele>
        <time>2013-08-11T15:58:16Z</time>
      </trkpt>
      <trkpt lat="59.333991" lon="17.971338">
        <ele>39.1</ele>
        <time>2013-08-11T15:58:17Z</time>
      </trkpt>
      <trkpt lat="59.334012" lon="17.97121">
        <ele>38.9</ele>
        <time>2013-08-11T15:58:18Z</time>
      </trkpt>
      <trkpt lat="59.334041" lon="17.971084">
        <ele>39.4</ele>
        <time>2013-08-11T15:58:19Z</time>
      </trkpt>
      <trkpt lat="59.334062" lon="17.97096">
        <ele>39.4</ele>
        <time>2013-08-11T15:58:20Z</time>
      </trkpt>
      <trkpt lat="59.334086" lon="17.970835">
        <ele>39.4</ele>
        <time>2013-08-11T15:58:21Z</time>
      </trkpt>
      <trkpt lat="59.334107" lon="17.970716">
        <ele>39.3</ele>
        <time>2013-08-11T15:58:22Z</time>
      </trkpt>
      <trkpt lat="59.334133" lon="17.970604">
        <ele>39.4</ele>
        <time>2013-08-11T15:58:23Z</time>
      </trkpt>
      <trkpt lat="59.334154" lon="17.970485">
        <ele>39.9</ele>
        <time>2013-08-11T15:58:24Z</time>
      </trkpt>
      <trkpt lat="59.334169" lon="17.970372">
        <ele>39.9</ele>
        <time>2013-08-11T15:58:25Z</time>
      </trkpt>
      <trkpt lat="59.334179" lon="17.970268">
        <ele>40</ele>
        <time>2013-08-11T15:58:26Z</time>
      </trkpt>
      <trkpt lat="59.33419" lon="17.970174">
        <ele>40.4</ele>
        <time>2013-08-11T15:58:27Z</time>
      </trkpt>
      <trkpt lat="59.334207" lon="17.970078">
        <ele>40.5</ele>
        <time>2013-08-11T15:58:28Z</time>
      </trkpt>
      <trkpt lat="59.334227" lon="17.969975">
        <ele>40.4</ele>
        <time>2013-08-11T15:58:29Z</time>
      </trkpt>
      <trkpt lat="59.334241" lon="17.969871">
        <ele>40.7</ele>
        <time>2013-08-11T15:58:30Z</time>
      </trkpt>
      <trkpt lat="59.334251" lon="17.969762">
        <ele>41</ele>
        <time>2013-08-11T15:58:31Z</time>
      </trkpt>
      <trkpt lat="59.334262" lon="17.969661">
        <ele>41.1</ele>
        <time>2013-08-11T15:58:32Z</time>
      </trkpt>
      <trkpt lat="59.334272" lon="17.969554">
        <ele>40.7</ele>
        <time>2013-08-11T15:58:33Z</time>
      </trkpt>
      <trkpt lat="59.334281" lon="17.969453">
        <ele>40.7</ele>
        <time>2013-08-11T15:58:34Z</time>
      </trkpt>
      <trkpt lat="59.334289" lon="17.969357">
        <ele>40.3</ele>
        <time>2013-08-11T15:58:35Z</time>
      </trkpt>
      <trkpt lat="59.334299" lon="17.969269">
        <ele>40.5</ele>
        <time>2013-08-11T15:58:36Z</time>
      </trkpt>
      <trkpt lat="59.334308" lon="17.969181">
        <ele>40.5</ele>
        <time>2013-08-11T15:58:37Z</time>
      </trkpt>
      <trkpt lat="59.334317" lon="17.969118">
        <ele>40.9</ele>
        <time>2013-08-11T15:58:38Z</time>
      </trkpt>
      <trkpt lat="59.334325" lon="17.969043">
        <ele>41</ele>
        <time>2013-08-11T15:58:39Z</time>
      </trkpt>
      <trkpt lat="59.334333" lon="17.968969">
        <ele>41</ele>
        <time>2013-08-11T15:58:40Z</time>
      </trkpt>
      <trkpt lat="59.334344" lon="17.968893">
        <ele>41.5</ele>
        <time>2013-08-11T15:58:41Z</time>
      </trkpt>
      <trkpt lat="59.334346" lon="17.968814">
        <ele>41.4</ele>
        <time>2013-08-11T15:58:42Z</time>
      </trkpt>
      <trkpt lat="59.334353" lon="17.968751">
        <ele>41.4</ele>
        <time>2013-08-11T15:58:43Z</time>
      </trkpt>
      <trkpt lat="59.334362" lon="17.968666">
        <ele>41.5</ele>
        <time>2013-08-11T15:58:45Z</time>
      </trkpt>
      <trkpt lat="59.334367" lon="17.968595">
        <ele>41.9</ele>
        <time>2013-08-11T15:58:47Z</time>
      </trkpt>
      <trkpt lat="59.334365" lon="17.968511">
        <ele>41.9</ele>
        <time>2013-08-11T15:58:49Z</time>
      </trkpt>
      <trkpt lat="59.334377" lon="17.968405">
        <ele>41.5</ele>
        <time>2013-08-11T15:58:51Z</time>
      </trkpt>
      <trkpt lat="59.334395" lon="17.968349">
        <ele>41.8</ele>
        <time>2013-08-11T15:58:52Z</time>
      </trkpt>
      <trkpt lat="59.334418" lon="17.968297">
        <ele>41.7</ele>
        <time>2013-08-11T15:58:53Z</time>
      </trkpt>
      <trkpt lat="59.334444" lon="17.968245">
        <ele>41.5</ele>
        <time>2013-08-11T15:58:54Z</time>
      </trkpt>
      <trkpt lat="59.334473" lon="17.968188">
        <ele>41.6</ele>
        <time>2013-08-11T15:58:55Z</time>
      </trkpt>
      <trkpt lat="59.334518" lon="17.968076">
        <ele>39.6</ele>
        <time>2013-08-11T15:58:56Z</time>
      </trkpt>
      <trkpt lat="59.334541" lon="17.967982">
        <ele>37.4</ele>
        <time>2013-08-11T15:58:57Z</time>
      </trkpt>
      <trkpt lat="59.334569" lon="17.967892">
        <ele>35.9</ele>
        <time>2013-08-11T15:58:58Z</time>
      </trkpt>
      <trkpt lat="59.334594" lon="17.967789">
        <ele>36.4</ele>
        <time>2013-08-11T15:58:59Z</time>
      </trkpt>
      <trkpt lat="59.334607" lon="17.967687">
        <ele>36.8</ele>
        <time>2013-08-11T15:59:00Z</time>
      </trkpt>
      <trkpt lat="59.33462" lon="17.967591">
        <ele>36.7</ele>
        <time>2013-08-11T15:59:01Z</time>
      </trkpt>
      <trkpt lat="59.334634" lon="17.96749">
        <ele>37</ele>
        <time>2013-08-11T15:59:02Z</time>
      </trkpt>
      <trkpt lat="59.334648" lon="17.967388">
        <ele>36.7</ele>
        <time>2013-08-11T15:59:03Z</time>
      </trkpt>
      <trkpt lat="59.334666" lon="17.967279">
        <ele>36.9</ele>
        <time>2013-08-11T15:59:04Z</time>
      </trkpt>
      <trkpt lat="59.334681" lon="17.967169">
        <ele>36.9</ele>
        <time>2013-08-11T15:59:05Z</time>
      </trkpt>
      <trkpt lat="59.334696" lon="17.96706">
        <ele>37.1</ele>
        <time>2013-08-11T15:59:06Z</time>
      </trkpt>
      <trkpt lat="59.334708" lon="17.966948">
        <ele>37.7</ele>
        <time>2013-08-11T15:59:07Z</time>
      </trkpt>
      <trkpt lat="59.334731" lon="17.966843">
        <ele>38.2</ele>
        <time>2013-08-11T15:59:08Z</time>
      </trkpt>
      <trkpt lat="59.334758" lon="17.966704">
        <ele>39.8</ele>
        <time>2013-08-11T15:59:09Z</time>
      </trkpt>
      <trkpt lat="59.334775" lon="17.966593">
        <ele>39.9</ele>
        <time>2013-08-11T15:59:10Z</time>
      </trkpt>
      <trkpt lat="59.33479" lon="17.966462">
        <ele>40</ele>
        <time>2013-08-11T15:59:11Z</time>
      </trkpt>
      <trkpt lat="59.334802" lon="17.966346">
        <ele>40.3</ele>
        <time>2013-08-11T15:59:12Z</time>
      </trkpt>
      <trkpt lat="59.334818" lon="17.966229">
        <ele>40.2</ele>
        <time>2013-08-11T15:59:13Z</time>
      </trkpt>
      <trkpt lat="59.334826" lon="17.966103">
        <ele>39.6</ele>
        <time>2013-08-11T15:59:14Z</time>
      </trkpt>
      <trkpt lat="59.334836" lon="17.965984">
        <ele>40.7</ele>
        <time>2013-08-11T15:59:15Z</time>
      </trkpt>
      <trkpt lat="59.334829" lon="17.965851">
        <ele>41.1</ele>
        <time>2013-08-11T15:59:16Z</time>
      </trkpt>
      <trkpt lat="59.334823" lon="17.965713">
        <ele>41.4</ele>
        <time>2013-08-11T15:59:17Z</time>
      </trkpt>
      <trkpt lat="59.334828" lon="17.965554">
        <ele>42.7</ele>
        <time>2013-08-11T15:59:18Z</time>
      </trkpt>
      <trkpt lat="59.334836" lon="17.96542">
        <ele>42.9</ele>
        <time>2013-08-11T15:59:19Z</time>
      </trkpt>
      <trkpt lat="59.334853" lon="17.965273">
        <ele>42.2</ele>
        <time>2013-08-11T15:59:20Z</time>
      </trkpt>
      <trkpt lat="59.334869" lon="17.965137">
        <ele>42.2</ele>
        <time>2013-08-11T15:59:21Z</time>
      </trkpt>
      <trkpt lat="59.334891" lon="17.964971">
        <ele>41.3</ele>
        <time>2013-08-11T15:59:22Z</time>
      </trkpt>
      <trkpt lat="59.334909" lon="17.964834">
        <ele>41.5</ele>
        <time>2013-08-11T15:59:23Z</time>
      </trkpt>
      <trkpt lat="59.334936" lon="17.96469">
        <ele>41.4</ele>
        <time>2013-08-11T15:59:24Z</time>
      </trkpt>
      <trkpt lat="59.33496" lon="17.964544">
        <ele>42</ele>
        <time>2013-08-11T15:59:25Z</time>
      </trkpt>
      <trkpt lat="59.334985" lon="17.9644">
        <ele>41.7</ele>
        <time>2013-08-11T15:59:26Z</time>
      </trkpt>
      <trkpt lat="59.335006" lon="17.964242">
        <ele>41.7</ele>
        <time>2013-08-11T15:59:27Z</time>
      </trkpt>
      <trkpt lat="59.335032" lon="17.964083">
        <ele>41.9</ele>
        <time>2013-08-11T15:59:28Z</time>
      </trkpt>
      <trkpt lat="59.335053" lon="17.963929">
        <ele>41.6</ele>
        <time>2013-08-11T15:59:29Z</time>
      </trkpt>
      <trkpt lat="59.335076" lon="17.963775">
        <ele>41.6</ele>
        <time>2013-08-11T15:59:30Z</time>
      </trkpt>
      <trkpt lat="59.3351" lon="17.963622">
        <ele>41.1</ele>
        <time>2013-08-11T15:59:31Z</time>
      </trkpt>
      <trkpt lat="59.335123" lon="17.963467">
        <ele>40.7</ele>
        <time>2013-08-11T15:59:32Z</time>
      </trkpt>
      <trkpt lat="59.335149" lon="17.96331">
        <ele>40.7</ele>
        <time>2013-08-11T15:59:33Z</time>
      </trkpt>
      <trkpt lat="59.335181" lon="17.96317">
        <ele>41.3</ele>
        <time>2013-08-11T15:59:34Z</time>
      </trkpt>
      <trkpt lat="59.335212" lon="17.963016">
        <ele>41.5</ele>
        <time>2013-08-11T15:59:35Z</time>
      </trkpt>
      <trkpt lat="59.335236" lon="17.962858">
        <ele>42.2</ele>
        <time>2013-08-11T15:59:36Z</time>
      </trkpt>
      <trkpt lat="59.335262" lon="17.962692">
        <ele>42.4</ele>
        <time>2013-08-11T15:59:37Z</time>
      </trkpt>
      <trkpt lat="59.335292" lon="17.962533">
        <ele>42</ele>
        <time>2013-08-11T15:59:38Z</time>
      </trkpt>
      <trkpt lat="59.335321" lon="17.962372">
        <ele>42.1</ele>
        <time>2013-08-11T15:59:39Z</time>
      </trkpt>
      <trkpt lat="59.335356" lon="17.962194">
        <ele>42.6</ele>
        <time>2013-08-11T15:59:40Z</time>
      </trkpt>
      <trkpt lat="59.335392" lon="17.962036">
        <ele>42.6</ele>
        <time>2013-08-11T15:59:41Z</time>
      </trkpt>
      <trkpt lat="59.335424" lon="17.961879">
        <ele>42.1</ele>
        <time>2013-08-11T15:59:42Z</time>
      </trkpt>
      <trkpt lat="59.335454" lon="17.961718">
        <ele>42.2</ele>
        <time>2013-08-11T15:59:43Z</time>
      </trkpt>
      <trkpt lat="59.335483" lon="17.961552">
        <ele>42.3</ele>
        <time>2013-08-11T15:59:44Z</time>
      </trkpt>
      <trkpt lat="59.335512" lon="17.961387">
        <ele>41.5</ele>
        <time>2013-08-11T15:59:45Z</time>
      </trkpt>
      <trkpt lat="59.335543" lon="17.961221">
        <ele>41</ele>
        <time>2013-08-11T15:59:46Z</time>
      </trkpt>
      <trkpt lat="59.335569" lon="17.961065">
        <ele>41</ele>
        <time>2013-08-11T15:59:47Z</time>
      </trkpt>
      <trkpt lat="59.335597" lon="17.960898">
        <ele>41.1</ele>
        <time>2013-08-11T15:59:48Z</time>
      </trkpt>
      <trkpt lat="59.335624" lon="17.960733">
        <ele>40.6</ele>
        <time>2013-08-11T15:59:49Z</time>
      </trkpt>
      <trkpt lat="59.335662" lon="17.960561">
        <ele>40.4</ele>
        <time>2013-08-11T15:59:50Z</time>
      </trkpt>
      <trkpt lat="59.335693" lon="17.960397">
        <ele>40.2</ele>
        <time>2013-08-11T15:59:51Z</time>
      </trkpt>
      <trkpt lat="59.335731" lon="17.960228">
        <ele>40.2</ele>
        <time>2013-08-11T15:59:52Z</time>
      </trkpt>
      <trkpt lat="59.335769" lon="17.960062">
        <ele>40.4</ele>
        <time>2013-08-11T15:59:53Z</time>
      </trkpt>
      <trkpt lat="59.335803" lon="17.959883">
        <ele>41.1</ele>
        <time>2013-08-11T15:59:54Z</time>
      </trkpt>
      <trkpt lat="59.335832" lon="17.95972">
        <ele>41.2</ele>
        <time>2013-08-11T15:59:55Z</time>
      </trkpt>
      <trkpt lat="59.335869" lon="17.959534">
        <ele>41.9</ele>
        <time>2013-08-11T15:59:56Z</time>
      </trkpt>
      <trkpt lat="59.335904" lon="17.959354">
        <ele>41.9</ele>
        <time>2013-08-11T15:59:57Z</time>
      </trkpt>
      <trkpt lat="59.335934" lon="17.959173">
        <ele>42</ele>
        <time>2013-08-11T15:59:58Z</time>
      </trkpt>
      <trkpt lat="59.33597" lon="17.958994">
        <ele>42.8</ele>
        <time>2013-08-11T15:59:59Z</time>
      </trkpt>
      <trkpt lat="59.336005" lon="17.958818">
        <ele>43.3</ele>
        <time>2013-08-11T16:00:00Z</time>
      </trkpt>
      <trkpt lat="59.33604" lon="17.958633">
        <ele>43.1</ele>
        <time>2013-08-11T16:00:01Z</time>
      </trkpt>
      <trkpt lat="59.336075" lon="17.958447">
        <ele>43.3</ele>
        <time>2013-08-11T16:00:02Z</time>
      </trkpt>
      <trkpt lat="59.336112" lon="17.958265">
        <ele>42.5</ele>
        <time>2013-08-11T16:00:03Z</time>
      </trkpt>
      <trkpt lat="59.33615" lon="17.958073">
        <ele>42.5</ele>
        <time>2013-08-11T16:00:04Z</time>
      </trkpt>
      <trkpt lat="59.336182" lon="17.957879">
        <ele>42.2</ele>
        <time>2013-08-11T16:00:05Z</time>
      </trkpt>
      <trkpt lat="59.336216" lon="17.957709">
        <ele>41.5</ele>
        <time>2013-08-11T16:00:06Z</time>
      </trkpt>
      <trkpt lat="59.336254" lon="17.957518">
        <ele>41</ele>
        <time>2013-08-11T16:00:07Z</time>
      </trkpt>
      <trkpt lat="59.336298" lon="17.957309">
        <ele>41.3</ele>
        <time>2013-08-11T16:00:08Z</time>
      </trkpt>
      <trkpt lat="59.336337" lon="17.957116">
        <ele>41.5</ele>
        <time>2013-08-11T16:00:09Z</time>
      </trkpt>
      <trkpt lat="59.336375" lon="17.956909">
        <ele>40.8</ele>
        <time>2013-08-11T16:00:10Z</time>
      </trkpt>
      <trkpt lat="59.336414" lon="17.956699">
        <ele>41.3</ele>
        <time>2013-08-11T16:00:11Z</time>
      </trkpt>
      <trkpt lat="59.33645" lon="17.956509">
        <ele>40.4</ele>
        <time>2013-08-11T16:00:12Z</time>
      </trkpt>
      <trkpt lat="59.336487" lon="17.956315">
        <ele>40.1</ele>
        <time>2013-08-11T16:00:13Z</time>
      </trkpt>
      <trkpt lat="59.336522" lon="17.956123">
        <ele>39.2</ele>
        <time>2013-08-11T16:00:14Z</time>
      </trkpt>
      <trkpt lat="59.336555" lon="17.955925">
        <ele>38.5</ele>
        <time>2013-08-11T16:00:15Z</time>
      </trkpt>
      <trkpt lat="59.336592" lon="17.955725">
        <ele>38.1</ele>
        <time>2013-08-11T16:00:16Z</time>
      </trkpt>
      <trkpt lat="59.33663" lon="17.955528">
        <ele>37.7</ele>
        <time>2013-08-11T16:00:17Z</time>
      </trkpt>
      <trkpt lat="59.336658" lon="17.955351">
        <ele>37</ele>
        <time>2013-08-11T16:00:18Z</time>
      </trkpt>
      <trkpt lat="59.336692" lon="17.955161">
        <ele>36.7</ele>
        <time>2013-08-11T16:00:19Z</time>
      </trkpt>
      <trkpt lat="59.336734" lon="17.954969">
        <ele>37.4</ele>
        <time>2013-08-11T16:00:20Z</time>
      </trkpt>
      <trkpt lat="59.33676" lon="17.954795">
        <ele>36.8</ele>
        <time>2013-08-11T16:00:21Z</time>
      </trkpt>
      <trkpt lat="59.336788" lon="17.954626">
        <ele>35.6</ele>
        <time>2013-08-11T16:00:22Z</time>
      </trkpt>
      <trkpt lat="59.336824" lon="17.954472">
        <ele>35.8</ele>
        <time>2013-08-11T16:00:23Z</time>
      </trkpt>
      <trkpt lat="59.336858" lon="17.954317">
        <ele>36.1</ele>
        <time>2013-08-11T16:00:24Z</time>
      </trkpt>
      <trkpt lat="59.336888" lon="17.954159">
        <ele>36.9</ele>
        <time>2013-08-11T16:00:25Z</time>
      </trkpt>
      <trkpt lat="59.336914" lon="17.954022">
        <ele>37.1</ele>
        <time>2013-08-11T16:00:26Z</time>
      </trkpt>
      <trkpt lat="59.336943" lon="17.953881">
        <ele>37.6</ele>
        <time>2013-08-11T16:00:27Z</time>
      </trkpt>
      <trkpt lat="59.336968" lon="17.953745">
        <ele>38</ele>
        <time>2013-08-11T16:00:28Z</time>
      </trkpt>
      <trkpt lat="59.336986" lon="17.953621">
        <ele>38</ele>
        <time>2013-08-11T16:00:29Z</time>
      </trkpt>
      <trkpt lat="59.337003" lon="17.953503">
        <ele>38.1</ele>
        <time>2013-08-11T16:00:30Z</time>
      </trkpt>
      <trkpt lat="59.33702" lon="17.953399">
        <ele>38.7</ele>
        <time>2013-08-11T16:00:31Z</time>
      </trkpt>
      <trkpt lat="59.337034" lon="17.953293">
        <ele>39.1</ele>
        <time>2013-08-11T16:00:32Z</time>
      </trkpt>
      <trkpt lat="59.337044" lon="17.953182">
        <ele>38.4</ele>
        <time>2013-08-11T16:00:33Z</time>
      </trkpt>
      <trkpt lat="59.337043" lon="17.953067">
        <ele>37.7</ele>
        <time>2013-08-11T16:00:34Z</time>
      </trkpt>
      <trkpt lat="59.337037" lon="17.952992">
        <ele>37.1</ele>
        <time>2013-08-11T16:00:35Z</time>
      </trkpt>
      <trkpt lat="59.337037" lon="17.952934">
        <ele>37.3</ele>
        <time>2013-08-11T16:00:37Z</time>
      </trkpt>
      <trkpt lat="59.337043" lon="17.952865">
        <ele>35.9</ele>
        <time>2013-08-11T16:01:10Z</time>
      </trkpt>
      <trkpt lat="59.337052" lon="17.952812">
        <ele>35.4</ele>
        <time>2013-08-11T16:01:11Z</time>
      </trkpt>
      <trkpt lat="59.337064" lon="17.952754">
        <ele>34.6</ele>
        <time>2013-08-11T16:01:12Z</time>
      </trkpt>
      <trkpt lat="59.337078" lon="17.952689">
        <ele>34.3</ele>
        <time>2013-08-11T16:01:13Z</time>
      </trkpt>
      <trkpt lat="59.337099" lon="17.952616">
        <ele>34</ele>
        <time>2013-08-11T16:01:14Z</time>
      </trkpt>
      <trkpt lat="59.337128" lon="17.952548">
        <ele>33.9</ele>
        <time>2013-08-11T16:01:15Z</time>
      </trkpt>
      <trkpt lat="59.337165" lon="17.952453">
        <ele>34.4</ele>
        <time>2013-08-11T16:01:16Z</time>
      </trkpt>
      <trkpt lat="59.337195" lon="17.952364">
        <ele>34</ele>
        <time>2013-08-11T16:01:17Z</time>
      </trkpt>
      <trkpt lat="59.337219" lon="17.952266">
        <ele>34.3</ele>
        <time>2013-08-11T16:01:18Z</time>
      </trkpt>
      <trkpt lat="59.337245" lon="17.952161">
        <ele>34.3</ele>
        <time>2013-08-11T16:01:19Z</time>
      </trkpt>
      <trkpt lat="59.33727" lon="17.952045">
        <ele>34.3</ele>
        <time>2013-08-11T16:01:20Z</time>
      </trkpt>
      <trkpt lat="59.337293" lon="17.951929">
        <ele>34.2</ele>
        <time>2013-08-11T16:01:21Z</time>
      </trkpt>
      <trkpt lat="59.337317" lon="17.951807">
        <ele>34</ele>
        <time>2013-08-11T16:01:22Z</time>
      </trkpt>
      <trkpt lat="59.337344" lon="17.951683">
        <ele>34</ele>
        <time>2013-08-11T16:01:23Z</time>
      </trkpt>
      <trkpt lat="59.337369" lon="17.951551">
        <ele>33.7</ele>
        <time>2013-08-11T16:01:24Z</time>
      </trkpt>
      <trkpt lat="59.337393" lon="17.951417">
        <ele>33.5</ele>
        <time>2013-08-11T16:01:25Z</time>
      </trkpt>
      <trkpt lat="59.33742" lon="17.951287">
        <ele>33.3</ele>
        <time>2013-08-11T16:01:26Z</time>
      </trkpt>
      <trkpt lat="59.337446" lon="17.951148">
        <ele>33.3</ele>
        <time>2013-08-11T16:01:27Z</time>
      </trkpt>
      <trkpt lat="59.337471" lon="17.951019">
        <ele>33.5</ele>
        <time>2013-08-11T16:01:28Z</time>
      </trkpt>
      <trkpt lat="59.337499" lon="17.950879">
        <ele>33.3</ele>
        <time>2013-08-11T16:01:29Z</time>
      </trkpt>
      <trkpt lat="59.337524" lon="17.950736">
        <ele>33.1</ele>
        <time>2013-08-11T16:01:30Z</time>
      </trkpt>
      <trkpt lat="59.33755" lon="17.950601">
        <ele>33.4</ele>
        <time>2013-08-11T16:01:31Z</time>
      </trkpt>
      <trkpt lat="59.337575" lon="17.950475">
        <ele>34.1</ele>
        <time>2013-08-11T16:01:32Z</time>
      </trkpt>
      <trkpt lat="59.337603" lon="17.950341">
        <ele>34.5</ele>
        <time>2013-08-11T16:01:33Z</time>
      </trkpt>
      <trkpt lat="59.33763" lon="17.950206">
        <ele>34.6</ele>
        <time>2013-08-11T16:01:34Z</time>
      </trkpt>
      <trkpt lat="59.337653" lon="17.950065">
        <ele>34.4</ele>
        <time>2013-08-11T16:01:35Z</time>
      </trkpt>
      <trkpt lat="59.337677" lon="17.94992">
        <ele>34.7</ele>
        <time>2013-08-11T16:01:36Z</time>
      </trkpt>
      <trkpt lat="59.337697" lon="17.949781">
        <ele>35.2</ele>
        <time>2013-08-11T16:01:37Z</time>
      </trkpt>
      <trkpt lat="59.337727" lon="17.949644">
        <ele>35.1</ele>
        <time>2013-08-11T16:01:38Z</time>
      </trkpt>
      <trkpt lat="59.337749" lon="17.949509">
        <ele>34.7</ele>
        <time>2013-08-11T16:01:39Z</time>
      </trkpt>
      <trkpt lat="59.337772" lon="17.949368">
        <ele>34.3</ele>
        <time>2013-08-11T16:01:40Z</time>
      </trkpt>
      <trkpt lat="59.3378" lon="17.949224">
        <ele>34.2</ele>
        <time>2013-08-11T16:01:41Z</time>
      </trkpt>
      <trkpt lat="59.337826" lon="17.949081">
        <ele>34.2</ele>
        <time>2013-08-11T16:01:42Z</time>
      </trkpt>
      <trkpt lat="59.337866" lon="17.948914">
        <ele>33.5</ele>
        <time>2013-08-11T16:01:43Z</time>
      </trkpt>
      <trkpt lat="59.337892" lon="17.948777">
        <ele>33.1</ele>
        <time>2013-08-11T16:01:44Z</time>
      </trkpt>
      <trkpt lat="59.337917" lon="17.948637">
        <ele>33.6</ele>
        <time>2013-08-11T16:01:45Z</time>
      </trkpt>
      <trkpt lat="59.337947" lon="17.948489">
        <ele>33.5</ele>
        <time>2013-08-11T16:01:46Z</time>
      </trkpt>
      <trkpt lat="59.337975" lon="17.948347">
        <ele>33</ele>
        <time>2013-08-11T16:01:47Z</time>
      </trkpt>
      <trkpt lat="59.338001" lon="17.948209">
        <ele>32.2</ele>
        <time>2013-08-11T16:01:48Z</time>
      </trkpt>
      <trkpt lat="59.338031" lon="17.948056">
        <ele>31.8</ele>
        <time>2013-08-11T16:01:49Z</time>
      </trkpt>
      <trkpt lat="59.338057" lon="17.947916">
        <ele>31.7</ele>
        <time>2013-08-11T16:01:50Z</time>
      </trkpt>
      <trkpt lat="59.338083" lon="17.947787">
        <ele>31.9</ele>
        <time>2013-08-11T16:01:51Z</time>
      </trkpt>
      <trkpt lat="59.33811" lon="17.947648">
        <ele>32.3</ele>
        <time>2013-08-11T16:01:52Z</time>
      </trkpt>
      <trkpt lat="59.338137" lon="17.947505">
        <ele>32.2</ele>
        <time>2013-08-11T16:01:53Z</time>
      </trkpt>
      <trkpt lat="59.33816" lon="17.947359">
        <ele>31.9</ele>
        <time>2013-08-11T16:01:54Z</time>
      </trkpt>
      <trkpt lat="59.338187" lon="17.947214">
        <ele>31.4</ele>
        <time>2013-08-11T16:01:55Z</time>
      </trkpt>
      <trkpt lat="59.338214" lon="17.947071">
        <ele>31.3</ele>
        <time>2013-08-11T16:01:56Z</time>
      </trkpt>
      <trkpt lat="59.338242" lon="17.946923">
        <ele>31.4</ele>
        <time>2013-08-11T16:01:57Z</time>
      </trkpt>
      <trkpt lat="59.338271" lon="17.946778">
        <ele>31.5</ele>
        <time>2013-08-11T16:01:58Z</time>
      </trkpt>
      <trkpt lat="59.3383" lon="17.946629">
        <ele>31.3</ele>
        <time>2013-08-11T16:01:59Z</time>
      </trkpt>
      <trkpt lat="59.338326" lon="17.946478">
        <ele>31.2</ele>
        <time>2013-08-11T16:02:00Z</time>
      </trkpt>
      <trkpt lat="59.338356" lon="17.946322">
        <ele>31.2</ele>
        <time>2013-08-11T16:02:01Z</time>
      </trkpt>
      <trkpt lat="59.338383" lon="17.946172">
        <ele>31.3</ele>
        <time>2013-08-11T16:02:02Z</time>
      </trkpt>
      <trkpt lat="59.338416" lon="17.946024">
        <ele>31</ele>
        <time>2013-08-11T16:02:03Z</time>
      </trkpt>
      <trkpt lat="59.338444" lon="17.945881">
        <ele>31</ele>
        <time>2013-08-11T16:02:04Z</time>
      </trkpt>
      <trkpt lat="59.338472" lon="17.945735">
        <ele>31</ele>
        <time>2013-08-11T16:02:05Z</time>
      </trkpt>
      <trkpt lat="59.3385" lon="17.945594">
        <ele>31.2</ele>
        <time>2013-08-11T16:02:06Z</time>
      </trkpt>
      <trkpt lat="59.338524" lon="17.945447">
        <ele>31.2</ele>
        <time>2013-08-11T16:02:07Z</time>
      </trkpt>
      <trkpt lat="59.338552" lon="17.945311">
        <ele>31.4</ele>
        <time>2013-08-11T16:02:08Z</time>
      </trkpt>
      <trkpt lat="59.33857" lon="17.945182">
        <ele>31.2</ele>
        <time>2013-08-11T16:02:09Z</time>
      </trkpt>
      <trkpt lat="59.338599" lon="17.94504">
        <ele>31.1</ele>
        <time>2013-08-11T16:02:10Z</time>
      </trkpt>
      <trkpt lat="59.338628" lon="17.944901">
        <ele>31.7</ele>
        <time>2013-08-11T16:02:11Z</time>
      </trkpt>
      <trkpt lat="59.338658" lon="17.94475">
        <ele>31.7</ele>
        <time>2013-08-11T16:02:12Z</time>
      </trkpt>
      <trkpt lat="59.338686" lon="17.944613">
        <ele>31.5</ele>
        <time>2013-08-11T16:02:13Z</time>
      </trkpt>
      <trkpt lat="59.33871" lon="17.944482">
        <ele>31.5</ele>
        <time>2013-08-11T16:02:14Z</time>
      </trkpt>
      <trkpt lat="59.338742" lon="17.944332">
        <ele>31.3</ele>
        <time>2013-08-11T16:02:15Z</time>
      </trkpt>
      <trkpt lat="59.33877" lon="17.944192">
        <ele>31</ele>
        <time>2013-08-11T16:02:16Z</time>
      </trkpt>
      <trkpt lat="59.338795" lon="17.944042">
        <ele>30.7</ele>
        <time>2013-08-11T16:02:17Z</time>
      </trkpt>
      <trkpt lat="59.338826" lon="17.943896">
        <ele>30.6</ele>
        <time>2013-08-11T16:02:18Z</time>
      </trkpt>
      <trkpt lat="59.338851" lon="17.943756">
        <ele>30.6</ele>
        <time>2013-08-11T16:02:19Z</time>
      </trkpt>
      <trkpt lat="59.338879" lon="17.943622">
        <ele>30</ele>
        <time>2013-08-11T16:02:20Z</time>
      </trkpt>
      <trkpt lat="59.338903" lon="17.943466">
        <ele>30.3</ele>
        <time>2013-08-11T16:02:21Z</time>
      </trkpt>
      <trkpt lat="59.338935" lon="17.943318">
        <ele>31.2</ele>
        <time>2013-08-11T16:02:22Z</time>
      </trkpt>
      <trkpt lat="59.338963" lon="17.94315">
        <ele>31.7</ele>
        <time>2013-08-11T16:02:23Z</time>
      </trkpt>
      <trkpt lat="59.338984" lon="17.943">
        <ele>31</ele>
        <time>2013-08-11T16:02:24Z</time>
      </trkpt>
      <trkpt lat="59.339015" lon="17.942856">
        <ele>31.2</ele>
        <time>2013-08-11T16:02:25Z</time>
      </trkpt>
      <trkpt lat="59.33904" lon="17.942711">
        <ele>31.6</ele>
        <time>2013-08-11T16:02:26Z</time>
      </trkpt>
      <trkpt lat="59.339067" lon="17.942566">
        <ele>31.8</ele>
        <time>2013-08-11T16:02:27Z</time>
      </trkpt>
      <trkpt lat="59.3391" lon="17.942423">
        <ele>32.4</ele>
        <time>2013-08-11T16:02:28Z</time>
      </trkpt>
      <trkpt lat="59.339131" lon="17.942269">
        <ele>31.5</ele>
        <time>2013-08-11T16:02:29Z</time>
      </trkpt>
      <trkpt lat="59.339162" lon="17.942121">
        <ele>32</ele>
        <time>2013-08-11T16:02:30Z</time>
      </trkpt>
      <trkpt lat="59.339188" lon="17.941983">
        <ele>32.1</ele>
        <time>2013-08-11T16:02:31Z</time>
      </trkpt>
      <trkpt lat="59.339215" lon="17.941843">
        <ele>32.1</ele>
        <time>2013-08-11T16:02:32Z</time>
      </trkpt>
      <trkpt lat="59.339239" lon="17.941689">
        <ele>32.8</ele>
        <time>2013-08-11T16:02:33Z</time>
      </trkpt>
      <trkpt lat="59.33927" lon="17.94155">
        <ele>32.9</ele>
        <time>2013-08-11T16:02:34Z</time>
      </trkpt>
      <trkpt lat="59.339292" lon="17.94141">
        <ele>32.5</ele>
        <time>2013-08-11T16:02:35Z</time>
      </trkpt>
      <trkpt lat="59.339311" lon="17.94127">
        <ele>32.5</ele>
        <time>2013-08-11T16:02:36Z</time>
      </trkpt>
      <trkpt lat="59.339337" lon="17.941135">
        <ele>32.3</ele>
        <time>2013-08-11T16:02:37Z</time>
      </trkpt>
      <trkpt lat="59.339366" lon="17.941006">
        <ele>32.3</ele>
        <time>2013-08-11T16:02:38Z</time>
      </trkpt>
      <trkpt lat="59.339391" lon="17.940884">
        <ele>32.3</ele>
        <time>2013-08-11T16:02:39Z</time>
      </trkpt>
      <trkpt lat="59.339416" lon="17.940764">
        <ele>33</ele>
        <time>2013-08-11T16:02:40Z</time>
      </trkpt>
      <trkpt lat="59.339441" lon="17.940633">
        <ele>33</ele>
        <time>2013-08-11T16:02:41Z</time>
      </trkpt>
      <trkpt lat="59.339469" lon="17.940514">
        <ele>32.3</ele>
        <time>2013-08-11T16:02:42Z</time>
      </trkpt>
      <trkpt lat="59.339489" lon="17.940392">
        <ele>31.3</ele>
        <time>2013-08-11T16:02:43Z</time>
      </trkpt>
      <trkpt lat="59.339503" lon="17.940265">
        <ele>31.4</ele>
        <time>2013-08-11T16:02:44Z</time>
      </trkpt>
      <trkpt lat="59.3395" lon="17.940138">
        <ele>31</ele>
        <time>2013-08-11T16:02:45Z</time>
      </trkpt>
      <trkpt lat="59.339492" lon="17.940027">
        <ele>31.3</ele>
        <time>2013-08-11T16:02:46Z</time>
      </trkpt>
      <trkpt lat="59.339486" lon="17.939912">
        <ele>31.4</ele>
        <time>2013-08-11T16:02:47Z</time>
      </trkpt>
      <trkpt lat="59.339375" lon="17.939913">
        <ele>30.8</ele>
        <time>2013-08-11T16:02:48Z</time>
      </trkpt>
      <trkpt lat="59.339312" lon="17.939907">
        <ele>29.6</ele>
        <time>2013-08-11T16:02:49Z</time>
      </trkpt>
      <trkpt lat="59.33926" lon="17.939911">
        <ele>29.9</ele>
        <time>2013-08-11T16:02:50Z</time>
      </trkpt>
      <trkpt lat="59.339208" lon="17.939909">
        <ele>29.5</ele>
        <time>2013-08-11T16:02:51Z</time>
      </trkpt>
      <trkpt lat="59.339172" lon="17.939922">
        <ele>30.2</ele>
        <time>2013-08-11T16:02:52Z</time>
      </trkpt>
      <trkpt lat="59.33914" lon="17.939898">
        <ele>31.7</ele>
        <time>2013-08-11T16:02:53Z</time>
      </trkpt>
      <trkpt lat="59.339121" lon="17.939823">
        <ele>31.8</ele>
        <time>2013-08-11T16:02:54Z</time>
      </trkpt>
      <trkpt lat="59.339116" lon="17.93973">
        <ele>32.2</ele>
        <time>2013-08-11T16:02:55Z</time>
      </trkpt>
      <trkpt lat="59.339123" lon="17.939638">
        <ele>31.9</ele>
        <time>2013-08-11T16:02:56Z</time>
      </trkpt>
      <trkpt lat="59.339126" lon="17.93954">
        <ele>32.1</ele>
        <time>2013-08-11T16:02:57Z</time>
      </trkpt>
      <trkpt lat="59.339136" lon="17.93943">
        <ele>32.4</ele>
        <time>2013-08-11T16:02:58Z</time>
      </trkpt>
      <trkpt lat="59.33915" lon="17.939319">
        <ele>32.5</ele>
        <time>2013-08-11T16:02:59Z</time>
      </trkpt>
      <trkpt lat="59.339163" lon="17.939211">
        <ele>32.2</ele>
        <time>2013-08-11T16:03:00Z</time>
      </trkpt>
      <trkpt lat="59.339182" lon="17.939105">
        <ele>30.6</ele>
        <time>2013-08-11T16:03:01Z</time>
      </trkpt>
      <trkpt lat="59.339205" lon="17.939008">
        <ele>30.6</ele>
        <time>2013-08-11T16:03:02Z</time>
      </trkpt>
      <trkpt lat="59.339234" lon="17.938908">
        <ele>29.7</ele>
        <time>2013-08-11T16:03:03Z</time>
      </trkpt>
      <trkpt lat="59.339256" lon="17.938843">
        <ele>29.3</ele>
        <time>2013-08-11T16:03:04Z</time>
      </trkpt>
      <trkpt lat="59.339275" lon="17.938797">
        <ele>29.3</ele>
        <time>2013-08-11T16:03:05Z</time>
      </trkpt>
      <trkpt lat="59.339302" lon="17.938755">
        <ele>31.3</ele>
        <time>2013-08-11T16:03:07Z</time>
      </trkpt>
      <trkpt lat="59.339335" lon="17.938695">
        <ele>31.5</ele>
        <time>2013-08-11T16:03:11Z</time>
      </trkpt>
      <trkpt lat="59.339366" lon="17.938652">
        <ele>32.6</ele>
        <time>2013-08-11T16:03:12Z</time>
      </trkpt>
      <trkpt lat="59.339392" lon="17.938606">
        <ele>33</ele>
        <time>2013-08-11T16:03:13Z</time>
      </trkpt>
      <trkpt lat="59.339425" lon="17.938576">
        <ele>31.7</ele>
        <time>2013-08-11T16:03:14Z</time>
      </trkpt>
      <trkpt lat="59.339461" lon="17.938545">
        <ele>32.4</ele>
        <time>2013-08-11T16:03:15Z</time>
      </trkpt>
      <trkpt lat="59.3395" lon="17.93852">
        <ele>33.4</ele>
        <time>2013-08-11T16:03:16Z</time>
      </trkpt>
      <trkpt lat="59.33954" lon="17.938487">
        <ele>33.5</ele>
        <time>2013-08-11T16:03:17Z</time>
      </trkpt>
      <trkpt lat="59.339593" lon="17.938447">
        <ele>33.9</ele>
        <time>2013-08-11T16:03:18Z</time>
      </trkpt>
      <trkpt lat="59.339635" lon="17.938422">
        <ele>34.1</ele>
        <time>2013-08-11T16:03:19Z</time>
      </trkpt>
      <trkpt lat="59.339678" lon="17.938416">
        <ele>35.1</ele>
        <time>2013-08-11T16:03:20Z</time>
      </trkpt>
      <trkpt lat="59.339727" lon="17.938408">
        <ele>35.2</ele>
        <time>2013-08-11T16:03:21Z</time>
      </trkpt>
      <trkpt lat="59.339771" lon="17.938392">
        <ele>35.4</ele>
        <time>2013-08-11T16:03:22Z</time>
      </trkpt>
      <trkpt lat="59.339805" lon="17.93839">
        <ele>34.8</ele>
        <time>2013-08-11T16:03:23Z</time>
      </trkpt>
      <trkpt lat="59.339839" lon="17.938375">
        <ele>34.7</ele>
        <time>2013-08-11T16:03:24Z</time>
      </trkpt>
      <trkpt lat="59.339837" lon="17.938263">
        <ele>33.2</ele>
        <time>2013-08-11T16:03:25Z</time>
      </trkpt>
      <trkpt lat="59.339839" lon="17.938186">
        <ele>33.4</ele>
        <time>2013-08-11T16:03:26Z</time>
      </trkpt>
      <trkpt lat="59.339861" lon="17.938105">
        <ele>33.1</ele>
        <time>2013-08-11T16:03:27Z</time>
      </trkpt>
      <trkpt lat="59.33988" lon="17.938007">
        <ele>34.2</ele>
        <time>2013-08-11T16:03:28Z</time>
      </trkpt>
      <trkpt lat="59.339895" lon="17.937903">
        <ele>33.9</ele>
        <time>2013-08-11T16:03:29Z</time>
      </trkpt>
      <trkpt lat="59.339909" lon="17.937788">
        <ele>33.7</ele>
        <time>2013-08-11T16:03:30Z</time>
      </trkpt>
      <trkpt lat="59.339929" lon="17.937677">
        <ele>33</ele>
        <time>2013-08-11T16:03:31Z</time>
      </trkpt>
      <trkpt lat="59.339954" lon="17.937568">
        <ele>33.3</ele>
        <time>2013-08-11T16:03:32Z</time>
      </trkpt>
      <trkpt lat="59.33998" lon="17.937461">
        <ele>33.2</ele>
        <time>2013-08-11T16:03:33Z</time>
      </trkpt>
      <trkpt lat="59.340006" lon="17.937356">
        <ele>33</ele>
        <time>2013-08-11T16:03:34Z</time>
      </trkpt>
      <trkpt lat="59.340029" lon="17.937243">
        <ele>33.1</ele>
        <time>2013-08-11T16:03:35Z</time>
      </trkpt>
      <trkpt lat="59.340053" lon="17.937135">
        <ele>32.9</ele>
        <time>2013-08-11T16:03:36Z</time>
      </trkpt>
      <trkpt lat="59.340076" lon="17.937019">
        <ele>33.5</ele>
        <time>2013-08-11T16:03:37Z</time>
      </trkpt>
      <trkpt lat="59.340096" lon="17.936902">
        <ele>33</ele>
        <time>2013-08-11T16:03:38Z</time>
      </trkpt>
      <trkpt lat="59.340117" lon="17.936792">
        <ele>33.1</ele>
        <time>2013-08-11T16:03:39Z</time>
      </trkpt>
      <trkpt lat="59.340141" lon="17.936663">
        <ele>33</ele>
        <time>2013-08-11T16:03:40Z</time>
      </trkpt>
      <trkpt lat="59.340163" lon="17.936539">
        <ele>32.4</ele>
        <time>2013-08-11T16:03:41Z</time>
      </trkpt>
      <trkpt lat="59.34018" lon="17.936416">
        <ele>32.6</ele>
        <time>2013-08-11T16:03:42Z</time>
      </trkpt>
      <trkpt lat="59.340204" lon="17.936287">
        <ele>33.3</ele>
        <time>2013-08-11T16:03:43Z</time>
      </trkpt>
      <trkpt lat="59.340225" lon="17.936158">
        <ele>33.3</ele>
        <time>2013-08-11T16:03:44Z</time>
      </trkpt>
      <trkpt lat="59.34025" lon="17.936031">
        <ele>33.4</ele>
        <time>2013-08-11T16:03:45Z</time>
      </trkpt>
      <trkpt lat="59.340277" lon="17.935908">
        <ele>33.8</ele>
        <time>2013-08-11T16:03:46Z</time>
      </trkpt>
      <trkpt lat="59.340301" lon="17.935771">
        <ele>33</ele>
        <time>2013-08-11T16:03:47Z</time>
      </trkpt>
      <trkpt lat="59.340325" lon="17.935638">
        <ele>33.1</ele>
        <time>2013-08-11T16:03:48Z</time>
      </trkpt>
      <trkpt lat="59.340352" lon="17.93551">
        <ele>33.2</ele>
        <time>2013-08-11T16:03:49Z</time>
      </trkpt>
      <trkpt lat="59.340378" lon="17.935376">
        <ele>33.4</ele>
        <time>2013-08-11T16:03:50Z</time>
      </trkpt>
      <trkpt lat="59.340408" lon="17.935243">
        <ele>33.8</ele>
        <time>2013-08-11T16:03:51Z</time>
      </trkpt>
      <trkpt lat="59.340439" lon="17.935109">
        <ele>33.8</ele>
        <time>2013-08-11T16:03:52Z</time>
      </trkpt>
      <trkpt lat="59.340468" lon="17.934973">
        <ele>33.5</ele>
        <time>2013-08-11T16:03:53Z</time>
      </trkpt>
      <trkpt lat="59.340496" lon="17.934836">
        <ele>32.6</ele>
        <time>2013-08-11T16:03:54Z</time>
      </trkpt>
      <trkpt lat="59.340523" lon="17.934679">
        <ele>32</ele>
        <time>2013-08-11T16:03:55Z</time>
      </trkpt>
      <trkpt lat="59.34055" lon="17.934544">
        <ele>31.8</ele>
        <time>2013-08-11T16:03:56Z</time>
      </trkpt>
      <trkpt lat="59.340579" lon="17.934395">
        <ele>31.4</ele>
        <time>2013-08-11T16:03:57Z</time>
      </trkpt>
      <trkpt lat="59.340603" lon="17.934263">
        <ele>31.6</ele>
        <time>2013-08-11T16:03:58Z</time>
      </trkpt>
      <trkpt lat="59.340628" lon="17.93413">
        <ele>31.9</ele>
        <time>2013-08-11T16:03:59Z</time>
      </trkpt>
      <trkpt lat="59.340655" lon="17.93399">
        <ele>31.8</ele>
        <time>2013-08-11T16:04:00Z</time>
      </trkpt>
      <trkpt lat="59.340679" lon="17.933851">
        <ele>31.7</ele>
        <time>2013-08-11T16:04:01Z</time>
      </trkpt>
      <trkpt lat="59.340702" lon="17.933712">
        <ele>31.4</ele>
        <time>2013-08-11T16:04:02Z</time>
      </trkpt>
      <trkpt lat="59.340727" lon="17.933579">
        <ele>31.8</ele>
        <time>2013-08-11T16:04:03Z</time>
      </trkpt>
      <trkpt lat="59.340748" lon="17.933438">
        <ele>31.9</ele>
        <time>2013-08-11T16:04:04Z</time>
      </trkpt>
      <trkpt lat="59.340771" lon="17.9333">
        <ele>32.2</ele>
        <time>2013-08-11T16:04:05Z</time>
      </trkpt>
      <trkpt lat="59.340795" lon="17.933171">
        <ele>32.3</ele>
        <time>2013-08-11T16:04:06Z</time>
      </trkpt>
      <trkpt lat="59.340816" lon="17.933041">
        <ele>32.7</ele>
        <time>2013-08-11T16:04:07Z</time>
      </trkpt>
      <trkpt lat="59.34084" lon="17.932909">
        <ele>32.9</ele>
        <time>2013-08-11T16:04:08Z</time>
      </trkpt>
      <trkpt lat="59.340863" lon="17.932777">
        <ele>32.5</ele>
        <time>2013-08-11T16:04:09Z</time>
      </trkpt>
      <trkpt lat="59.340887" lon="17.93265">
        <ele>32.5</ele>
        <time>2013-08-11T16:04:10Z</time>
      </trkpt>
      <trkpt lat="59.34091" lon="17.93253">
        <ele>33.2</ele>
        <time>2013-08-11T16:04:11Z</time>
      </trkpt>
      <trkpt lat="59.340933" lon="17.932394">
        <ele>32.7</ele>
        <time>2013-08-11T16:04:12Z</time>
      </trkpt>
      <trkpt lat="59.340956" lon="17.932269">
        <ele>32.8</ele>
        <time>2013-08-11T16:04:13Z</time>
      </trkpt>
      <trkpt lat="59.340979" lon="17.932138">
        <ele>32.2</ele>
        <time>2013-08-11T16:04:14Z</time>
      </trkpt>
      <trkpt lat="59.341004" lon="17.932017">
        <ele>32.3</ele>
        <time>2013-08-11T16:04:15Z</time>
      </trkpt>
      <trkpt lat="59.341037" lon="17.931906">
        <ele>32.1</ele>
        <time>2013-08-11T16:04:16Z</time>
      </trkpt>
      <trkpt lat="59.34107" lon="17.931798">
        <ele>32.3</ele>
        <time>2013-08-11T16:04:17Z</time>
      </trkpt>
      <trkpt lat="59.341097" lon="17.931678">
        <ele>32.6</ele>
        <time>2013-08-11T16:04:18Z</time>
      </trkpt>
      <trkpt lat="59.341121" lon="17.931561">
        <ele>32.8</ele>
        <time>2013-08-11T16:04:19Z</time>
      </trkpt>
      <trkpt lat="59.341153" lon="17.93144">
        <ele>33.6</ele>
        <time>2013-08-11T16:04:20Z</time>
      </trkpt>
      <trkpt lat="59.341177" lon="17.931324">
        <ele>34</ele>
        <time>2013-08-11T16:04:21Z</time>
      </trkpt>
      <trkpt lat="59.341197" lon="17.931202">
        <ele>34.2</ele>
        <time>2013-08-11T16:04:22Z</time>
      </trkpt>
      <trkpt lat="59.341227" lon="17.931063">
        <ele>35.2</ele>
        <time>2013-08-11T16:04:23Z</time>
      </trkpt>
      <trkpt lat="59.34125" lon="17.930944">
        <ele>35.1</ele>
        <time>2013-08-11T16:04:24Z</time>
      </trkpt>
      <trkpt lat="59.341272" lon="17.930831">
        <ele>34.9</ele>
        <time>2013-08-11T16:04:25Z</time>
      </trkpt>
      <trkpt lat="59.341296" lon="17.930715">
        <ele>35</ele>
        <time>2013-08-11T16:04:26Z</time>
      </trkpt>
      <trkpt lat="59.34132" lon="17.930591">
        <ele>34.3</ele>
        <time>2013-08-11T16:04:27Z</time>
      </trkpt>
      <trkpt lat="59.341345" lon="17.93047">
        <ele>34.3</ele>
        <time>2013-08-11T16:04:28Z</time>
      </trkpt>
      <trkpt lat="59.341361" lon="17.930334">
        <ele>34.6</ele>
        <time>2013-08-11T16:04:29Z</time>
      </trkpt>
      <trkpt lat="59.341378" lon="17.930204">
        <ele>34.7</ele>
        <time>2013-08-11T16:04:30Z</time>
      </trkpt>
      <trkpt lat="59.341399" lon="17.930074">
        <ele>34.9</ele>
        <time>2013-08-11T16:04:31Z</time>
      </trkpt>
      <trkpt lat="59.341423" lon="17.929958">
        <ele>34.9</ele>
        <time>2013-08-11T16:04:32Z</time>
      </trkpt>
      <trkpt lat="59.341441" lon="17.929837">
        <ele>34.2</ele>
        <time>2013-08-11T16:04:33Z</time>
      </trkpt>
      <trkpt lat="59.341466" lon="17.929717">
        <ele>34.1</ele>
        <time>2013-08-11T16:04:34Z</time>
      </trkpt>
      <trkpt lat="59.341489" lon="17.929596">
        <ele>35</ele>
        <time>2013-08-11T16:04:35Z</time>
      </trkpt>
      <trkpt lat="59.341513" lon="17.929477">
        <ele>34.8</ele>
        <time>2013-08-11T16:04:36Z</time>
      </trkpt>
      <trkpt lat="59.341536" lon="17.929368">
        <ele>35</ele>
        <time>2013-08-11T16:04:37Z</time>
      </trkpt>
      <trkpt lat="59.341556" lon="17.929248">
        <ele>35.6</ele>
        <time>2013-08-11T16:04:38Z</time>
      </trkpt>
      <trkpt lat="59.34158" lon="17.929129">
        <ele>35.9</ele>
        <time>2013-08-11T16:04:39Z</time>
      </trkpt>
      <trkpt lat="59.341606" lon="17.929014">
        <ele>35.1</ele>
        <time>2013-08-11T16:04:40Z</time>
      </trkpt>
      <trkpt lat="59.341631" lon="17.928892">
        <ele>35</ele>
        <time>2013-08-11T16:04:41Z</time>
      </trkpt>
      <trkpt lat="59.341652" lon="17.928761">
        <ele>35.9</ele>
        <time>2013-08-11T16:04:42Z</time>
      </trkpt>
      <trkpt lat="59.341676" lon="17.928639">
        <ele>36</ele>
        <time>2013-08-11T16:04:43Z</time>
      </trkpt>
      <trkpt lat="59.341696" lon="17.928521">
        <ele>36.1</ele>
        <time>2013-08-11T16:04:44Z</time>
      </trkpt>
      <trkpt lat="59.34172" lon="17.928398">
        <ele>36.3</ele>
        <time>2013-08-11T16:04:45Z</time>
      </trkpt>
      <trkpt lat="59.341743" lon="17.928276">
        <ele>37.2</ele>
        <time>2013-08-11T16:04:46Z</time>
      </trkpt>
      <trkpt lat="59.341767" lon="17.928151">
        <ele>37</ele>
        <time>2013-08-11T16:04:47Z</time>
      </trkpt>
      <trkpt lat="59.34179" lon="17.92803">
        <ele>37.1</ele>
        <time>2013-08-11T16:04:48Z</time>
      </trkpt>
      <trkpt lat="59.341811" lon="17.927904">
        <ele>37.3</ele>
        <time>2013-08-11T16:04:49Z</time>
      </trkpt>
      <trkpt lat="59.341834" lon="17.927779">
        <ele>37.3</ele>
        <time>2013-08-11T16:04:50Z</time>
      </trkpt>
      <trkpt lat="59.34186" lon="17.92766">
        <ele>37.2</ele>
        <time>2013-08-11T16:04:51Z</time>
      </trkpt>
      <trkpt lat="59.341884" lon="17.927539">
        <ele>37.3</ele>
        <time>2013-08-11T16:04:52Z</time>
      </trkpt>
      <trkpt lat="59.34191" lon="17.927425">
        <ele>37.5</ele>
        <time>2013-08-11T16:04:53Z</time>
      </trkpt>
      <trkpt lat="59.341931" lon="17.927311">
        <ele>37.5</ele>
        <time>2013-08-11T16:04:54Z</time>
      </trkpt>
      <trkpt lat="59.341952" lon="17.927197">
        <ele>37.6</ele>
        <time>2013-08-11T16:04:55Z</time>
      </trkpt>
      <trkpt lat="59.341975" lon="17.927077">
        <ele>37.7</ele>
        <time>2013-08-11T16:04:56Z</time>
      </trkpt>
      <trkpt lat="59.342001" lon="17.92695">
        <ele>38.1</ele>
        <time>2013-08-11T16:04:57Z</time>
      </trkpt>
      <trkpt lat="59.342023" lon="17.926829">
        <ele>38.1</ele>
        <time>2013-08-11T16:04:58Z</time>
      </trkpt>
      <trkpt lat="59.342043" lon="17.926715">
        <ele>38.6</ele>
        <time>2013-08-11T16:04:59Z</time>
      </trkpt>
      <trkpt lat="59.342071" lon="17.9266">
        <ele>39.3</ele>
        <time>2013-08-11T16:05:00Z</time>
      </trkpt>
      <trkpt lat="59.342094" lon="17.926483">
        <ele>39.3</ele>
        <time>2013-08-11T16:05:01Z</time>
      </trkpt>
      <trkpt lat="59.342121" lon="17.926365">
        <ele>39.8</ele>
        <time>2013-08-11T16:05:02Z</time>
      </trkpt>
      <trkpt lat="59.342149" lon="17.926241">
        <ele>39.8</ele>
        <time>2013-08-11T16:05:03Z</time>
      </trkpt>
      <trkpt lat="59.342174" lon="17.926119">
        <ele>40.1</ele>
        <time>2013-08-11T16:05:04Z</time>
      </trkpt>
      <trkpt lat="59.342196" lon="17.926004">
        <ele>40.6</ele>
        <time>2013-08-11T16:05:05Z</time>
      </trkpt>
      <trkpt lat="59.34222" lon="17.925886">
        <ele>40.7</ele>
        <time>2013-08-11T16:05:06Z</time>
      </trkpt>
      <trkpt lat="59.342246" lon="17.925752">
        <ele>40.9</ele>
        <time>2013-08-11T16:05:07Z</time>
      </trkpt>
      <trkpt lat="59.342269" lon="17.925627">
        <ele>41.1</ele>
        <time>2013-08-11T16:05:08Z</time>
      </trkpt>
      <trkpt lat="59.342275" lon="17.925494">
        <ele>39.9</ele>
        <time>2013-08-11T16:05:09Z</time>
      </trkpt>
      <trkpt lat="59.342272" lon="17.925185">
        <ele>41.7</ele>
        <time>2013-08-11T16:05:11Z</time>
      </trkpt>
      <trkpt lat="59.342296" lon="17.925086">
        <ele>40.3</ele>
        <time>2013-08-11T16:05:12Z</time>
      </trkpt>
      <trkpt lat="59.342301" lon="17.924949">
        <ele>40.2</ele>
        <time>2013-08-11T16:05:13Z</time>
      </trkpt>
      <trkpt lat="59.342304" lon="17.924813">
        <ele>40.1</ele>
        <time>2013-08-11T16:05:14Z</time>
      </trkpt>
      <trkpt lat="59.342309" lon="17.924677">
        <ele>40.1</ele>
        <time>2013-08-11T16:05:15Z</time>
      </trkpt>
      <trkpt lat="59.342311" lon="17.924535">
        <ele>39.3</ele>
        <time>2013-08-11T16:05:16Z</time>
      </trkpt>
      <trkpt lat="59.34231" lon="17.924411">
        <ele>39.7</ele>
        <time>2013-08-11T16:05:17Z</time>
      </trkpt>
      <trkpt lat="59.342301" lon="17.924275">
        <ele>40.2</ele>
        <time>2013-08-11T16:05:18Z</time>
      </trkpt>
      <trkpt lat="59.342298" lon="17.92414">
        <ele>40.3</ele>
        <time>2013-08-11T16:05:19Z</time>
      </trkpt>
      <trkpt lat="59.342292" lon="17.923988">
        <ele>40.7</ele>
        <time>2013-08-11T16:05:20Z</time>
      </trkpt>
      <trkpt lat="59.34229" lon="17.923849">
        <ele>41</ele>
        <time>2013-08-11T16:05:21Z</time>
      </trkpt>
      <trkpt lat="59.342296" lon="17.923718">
        <ele>41</ele>
        <time>2013-08-11T16:05:22Z</time>
      </trkpt>
      <trkpt lat="59.342317" lon="17.923593">
        <ele>41</ele>
        <time>2013-08-11T16:05:23Z</time>
      </trkpt>
      <trkpt lat="59.342333" lon="17.923464">
        <ele>40.9</ele>
        <time>2013-08-11T16:05:24Z</time>
      </trkpt>
      <trkpt lat="59.342298" lon="17.919579">
        <ele>30.4</ele>
        <time>2013-08-11T16:05:52Z</time>
      </trkpt>
      <trkpt lat="59.342288" lon="17.919403">
        <ele>35.5</ele>
        <time>2013-08-11T16:05:53Z</time>
      </trkpt>
      <trkpt lat="59.342298" lon="17.919324">
        <ele>37</ele>
        <time>2013-08-11T16:05:54Z</time>
      </trkpt>
      <trkpt lat="59.342306" lon="17.91918">
        <ele>40.1</ele>
        <time>2013-08-11T16:05:55Z</time>
      </trkpt>
      <trkpt lat="59.342326" lon="17.91901">
        <ele>43.3</ele>
        <time>2013-08-11T16:05:56Z</time>
      </trkpt>
      <trkpt lat="59.342309" lon="17.91885">
        <ele>40</ele>
        <time>2013-08-11T16:05:57Z</time>
      </trkpt>
      <trkpt lat="59.342303" lon="17.918712">
        <ele>42.8</ele>
        <time>2013-08-11T16:05:58Z</time>
      </trkpt>
      <trkpt lat="59.342309" lon="17.918563">
        <ele>44.3</ele>
        <time>2013-08-11T16:05:59Z</time>
      </trkpt>
      <trkpt lat="59.342287" lon="17.918394">
        <ele>42.1</ele>
        <time>2013-08-11T16:06:00Z</time>
      </trkpt>
      <trkpt lat="59.342277" lon="17.918234">
        <ele>41.9</ele>
        <time>2013-08-11T16:06:01Z</time>
      </trkpt>
      <trkpt lat="59.342271" lon="17.918082">
        <ele>43.1</ele>
        <time>2013-08-11T16:06:02Z</time>
      </trkpt>
      <trkpt lat="59.342274" lon="17.917918">
        <ele>44.3</ele>
        <time>2013-08-11T16:06:03Z</time>
      </trkpt>
      <trkpt lat="59.342268" lon="17.917756">
        <ele>44.5</ele>
        <time>2013-08-11T16:06:04Z</time>
      </trkpt>
      <trkpt lat="59.342265" lon="17.91758">
        <ele>45.4</ele>
        <time>2013-08-11T16:06:05Z</time>
      </trkpt>
      <trkpt lat="59.342254" lon="17.917422">
        <ele>45.3</ele>
        <time>2013-08-11T16:06:06Z</time>
      </trkpt>
      <trkpt lat="59.34225" lon="17.917264">
        <ele>45.4</ele>
        <time>2013-08-11T16:06:07Z</time>
      </trkpt>
      <trkpt lat="59.342245" lon="17.917107">
        <ele>45.6</ele>
        <time>2013-08-11T16:06:08Z</time>
      </trkpt>
      <trkpt lat="59.342238" lon="17.916955">
        <ele>46</ele>
        <time>2013-08-11T16:06:09Z</time>
      </trkpt>
      <trkpt lat="59.34223" lon="17.9168">
        <ele>45.8</ele>
        <time>2013-08-11T16:06:10Z</time>
      </trkpt>
      <trkpt lat="59.342218" lon="17.916631">
        <ele>42.7</ele>
        <time>2013-08-11T16:06:11Z</time>
      </trkpt>
      <trkpt lat="59.342215" lon="17.916465">
        <ele>43.1</ele>
        <time>2013-08-11T16:06:12Z</time>
      </trkpt>
      <trkpt lat="59.342205" lon="17.916316">
        <ele>44.4</ele>
        <time>2013-08-11T16:06:13Z</time>
      </trkpt>
      <trkpt lat="59.342202" lon="17.916155">
        <ele>45</ele>
        <time>2013-08-11T16:06:14Z</time>
      </trkpt>
      <trkpt lat="59.342204" lon="17.915999">
        <ele>45.3</ele>
        <time>2013-08-11T16:06:15Z</time>
      </trkpt>
      <trkpt lat="59.342198" lon="17.915844">
        <ele>44.4</ele>
        <time>2013-08-11T16:06:16Z</time>
      </trkpt>
      <trkpt lat="59.342191" lon="17.915694">
        <ele>44.1</ele>
        <time>2013-08-11T16:06:17Z</time>
      </trkpt>
      <trkpt lat="59.34218" lon="17.915542">
        <ele>42.9</ele>
        <time>2013-08-11T16:06:18Z</time>
      </trkpt>
      <trkpt lat="59.342172" lon="17.915385">
        <ele>42.2</ele>
        <time>2013-08-11T16:06:19Z</time>
      </trkpt>
      <trkpt lat="59.342167" lon="17.915224">
        <ele>42.1</ele>
        <time>2013-08-11T16:06:20Z</time>
      </trkpt>
      <trkpt lat="59.342166" lon="17.915069">
        <ele>42.3</ele>
        <time>2013-08-11T16:06:21Z</time>
      </trkpt>
      <trkpt lat="59.342161" lon="17.914916">
        <ele>43</ele>
        <time>2013-08-11T16:06:22Z</time>
      </trkpt>
      <trkpt lat="59.342156" lon="17.914761">
        <ele>42.6</ele>
        <time>2013-08-11T16:06:23Z</time>
      </trkpt>
      <trkpt lat="59.342155" lon="17.914606">
        <ele>43</ele>
        <time>2013-08-11T16:06:24Z</time>
      </trkpt>
      <trkpt lat="59.342145" lon="17.914451">
        <ele>43.2</ele>
        <time>2013-08-11T16:06:25Z</time>
      </trkpt>
      <trkpt lat="59.342134" lon="17.914294">
        <ele>42.9</ele>
        <time>2013-08-11T16:06:26Z</time>
      </trkpt>
      <trkpt lat="59.342108" lon="17.914126">
        <ele>37.7</ele>
        <time>2013-08-11T16:06:27Z</time>
      </trkpt>
      <trkpt lat="59.342102" lon="17.913969">
        <ele>37.6</ele>
        <time>2013-08-11T16:06:28Z</time>
      </trkpt>
      <trkpt lat="59.342092" lon="17.913815">
        <ele>38.6</ele>
        <time>2013-08-11T16:06:29Z</time>
      </trkpt>
      <trkpt lat="59.342084" lon="17.913659">
        <ele>38.5</ele>
        <time>2013-08-11T16:06:30Z</time>
      </trkpt>
      <trkpt lat="59.342081" lon="17.913493">
        <ele>37.7</ele>
        <time>2013-08-11T16:06:31Z</time>
      </trkpt>
      <trkpt lat="59.342075" lon="17.913332">
        <ele>37.7</ele>
        <time>2013-08-11T16:06:32Z</time>
      </trkpt>
      <trkpt lat="59.342066" lon="17.91317">
        <ele>37.9</ele>
        <time>2013-08-11T16:06:33Z</time>
      </trkpt>
      <trkpt lat="59.342059" lon="17.91301">
        <ele>37.9</ele>
        <time>2013-08-11T16:06:34Z</time>
      </trkpt>
      <trkpt lat="59.342057" lon="17.91284">
        <ele>37.9</ele>
        <time>2013-08-11T16:06:35Z</time>
      </trkpt>
      <trkpt lat="59.342051" lon="17.912677">
        <ele>38</ele>
        <time>2013-08-11T16:06:36Z</time>
      </trkpt>
      <trkpt lat="59.342045" lon="17.912518">
        <ele>38.1</ele>
        <time>2013-08-11T16:06:37Z</time>
      </trkpt>
      <trkpt lat="59.342038" lon="17.912359">
        <ele>38.3</ele>
        <time>2013-08-11T16:06:38Z</time>
      </trkpt>
      <trkpt lat="59.342033" lon="17.912202">
        <ele>38</ele>
        <time>2013-08-11T16:06:39Z</time>
      </trkpt>
      <trkpt lat="59.342026" lon="17.912047">
        <ele>37.9</ele>
        <time>2013-08-11T16:06:40Z</time>
      </trkpt>
      <trkpt lat="59.342017" lon="17.911889">
        <ele>37.8</ele>
        <time>2013-08-11T16:06:41Z</time>
      </trkpt>
      <trkpt lat="59.342009" lon="17.911727">
        <ele>37.6</ele>
        <time>2013-08-11T16:06:42Z</time>
      </trkpt>
      <trkpt lat="59.342002" lon="17.911563">
        <ele>37.6</ele>
        <time>2013-08-11T16:06:43Z</time>
      </trkpt>
      <trkpt lat="59.341997" lon="17.911397">
        <ele>37.3</ele>
        <time>2013-08-11T16:06:44Z</time>
      </trkpt>
      <trkpt lat="59.341991" lon="17.911236">
        <ele>37</ele>
        <time>2013-08-11T16:06:45Z</time>
      </trkpt>
      <trkpt lat="59.341984" lon="17.91107">
        <ele>36.9</ele>
        <time>2013-08-11T16:06:46Z</time>
      </trkpt>
      <trkpt lat="59.341978" lon="17.910903">
        <ele>37</ele>
        <time>2013-08-11T16:06:47Z</time>
      </trkpt>
      <trkpt lat="59.341977" lon="17.910735">
        <ele>37.8</ele>
        <time>2013-08-11T16:06:48Z</time>
      </trkpt>
      <trkpt lat="59.341971" lon="17.910575">
        <ele>37.7</ele>
        <time>2013-08-11T16:06:49Z</time>
      </trkpt>
      <trkpt lat="59.341964" lon="17.910403">
        <ele>37.9</ele>
        <time>2013-08-11T16:06:50Z</time>
      </trkpt>
      <trkpt lat="59.341956" lon="17.910245">
        <ele>38.2</ele>
        <time>2013-08-11T16:06:51Z</time>
      </trkpt>
      <trkpt lat="59.341954" lon="17.910086">
        <ele>38.4</ele>
        <time>2013-08-11T16:06:52Z</time>
      </trkpt>
      <trkpt lat="59.341949" lon="17.909922">
        <ele>38.6</ele>
        <time>2013-08-11T16:06:53Z</time>
      </trkpt>
      <trkpt lat="59.34195" lon="17.909765">
        <ele>38.9</ele>
        <time>2013-08-11T16:06:54Z</time>
      </trkpt>
      <trkpt lat="59.341954" lon="17.909606">
        <ele>39.2</ele>
        <time>2013-08-11T16:06:55Z</time>
      </trkpt>
      <trkpt lat="59.341961" lon="17.90945">
        <ele>38.8</ele>
        <time>2013-08-11T16:06:56Z</time>
      </trkpt>
      <trkpt lat="59.341972" lon="17.909294">
        <ele>38.6</ele>
        <time>2013-08-11T16:06:57Z</time>
      </trkpt>
      <trkpt lat="59.341986" lon="17.909135">
        <ele>38.4</ele>
        <time>2013-08-11T16:06:58Z</time>
      </trkpt>
      <trkpt lat="59.342" lon="17.908967">
        <ele>38.4</ele>
        <time>2013-08-11T16:06:59Z</time>
      </trkpt>
      <trkpt lat="59.342019" lon="17.908814">
        <ele>38.3</ele>
        <time>2013-08-11T16:07:00Z</time>
      </trkpt>
      <trkpt lat="59.342038" lon="17.908653">
        <ele>37.9</ele>
        <time>2013-08-11T16:07:01Z</time>
      </trkpt>
      <trkpt lat="59.342067" lon="17.908538">
        <ele>38.9</ele>
        <time>2013-08-11T16:07:02Z</time>
      </trkpt>
      <trkpt lat="59.342094" lon="17.908389">
        <ele>38.9</ele>
        <time>2013-08-11T16:07:03Z</time>
      </trkpt>
      <trkpt lat="59.342124" lon="17.908249">
        <ele>38.6</ele>
        <time>2013-08-11T16:07:04Z</time>
      </trkpt>
      <trkpt lat="59.342158" lon="17.908101">
        <ele>39</ele>
        <time>2013-08-11T16:07:05Z</time>
      </trkpt>
      <trkpt lat="59.34219" lon="17.907961">
        <ele>38.4</ele>
        <time>2013-08-11T16:07:06Z</time>
      </trkpt>
      <trkpt lat="59.342221" lon="17.907811">
        <ele>36.8</ele>
        <time>2013-08-11T16:07:07Z</time>
      </trkpt>
      <trkpt lat="59.342259" lon="17.907669">
        <ele>37.3</ele>
        <time>2013-08-11T16:07:08Z</time>
      </trkpt>
      <trkpt lat="59.342294" lon="17.907517">
        <ele>36.9</ele>
        <time>2013-08-11T16:07:09Z</time>
      </trkpt>
      <trkpt lat="59.342327" lon="17.907364">
        <ele>37</ele>
        <time>2013-08-11T16:07:10Z</time>
      </trkpt>
      <trkpt lat="59.342364" lon="17.907204">
        <ele>36.9</ele>
        <time>2013-08-11T16:07:11Z</time>
      </trkpt>
      <trkpt lat="59.3424" lon="17.907051">
        <ele>36.7</ele>
        <time>2013-08-11T16:07:12Z</time>
      </trkpt>
      <trkpt lat="59.342441" lon="17.906882">
        <ele>35.8</ele>
        <time>2013-08-11T16:07:13Z</time>
      </trkpt>
      <trkpt lat="59.342478" lon="17.906729">
        <ele>35.6</ele>
        <time>2013-08-11T16:07:14Z</time>
      </trkpt>
      <trkpt lat="59.342515" lon="17.906573">
        <ele>35.3</ele>
        <time>2013-08-11T16:07:15Z</time>
      </trkpt>
      <trkpt lat="59.342553" lon="17.906402">
        <ele>36.1</ele>
        <time>2013-08-11T16:07:16Z</time>
      </trkpt>
      <trkpt lat="59.342593" lon="17.906243">
        <ele>36.4</ele>
        <time>2013-08-11T16:07:17Z</time>
      </trkpt>
      <trkpt lat="59.342629" lon="17.906087">
        <ele>36.8</ele>
        <time>2013-08-11T16:07:18Z</time>
      </trkpt>
      <trkpt lat="59.342667" lon="17.905931">
        <ele>37</ele>
        <time>2013-08-11T16:07:19Z</time>
      </trkpt>
      <trkpt lat="59.342701" lon="17.905803">
        <ele>37</ele>
        <time>2013-08-11T16:07:20Z</time>
      </trkpt>
      <trkpt lat="59.342738" lon="17.905658">
        <ele>37.3</ele>
        <time>2013-08-11T16:07:21Z</time>
      </trkpt>
      <trkpt lat="59.342773" lon="17.9055">
        <ele>37.5</ele>
        <time>2013-08-11T16:07:22Z</time>
      </trkpt>
      <trkpt lat="59.342808" lon="17.905352">
        <ele>37.7</ele>
        <time>2013-08-11T16:07:23Z</time>
      </trkpt>
      <trkpt lat="59.342839" lon="17.905189">
        <ele>38.1</ele>
        <time>2013-08-11T16:07:24Z</time>
      </trkpt>
      <trkpt lat="59.342874" lon="17.905044">
        <ele>38.5</ele>
        <time>2013-08-11T16:07:25Z</time>
      </trkpt>
      <trkpt lat="59.342914" lon="17.904903">
        <ele>38.9</ele>
        <time>2013-08-11T16:07:26Z</time>
      </trkpt>
      <trkpt lat="59.342946" lon="17.904762">
        <ele>39.3</ele>
        <time>2013-08-11T16:07:27Z</time>
      </trkpt>
      <trkpt lat="59.342984" lon="17.90462">
        <ele>39.6</ele>
        <time>2013-08-11T16:07:28Z</time>
      </trkpt>
      <trkpt lat="59.343019" lon="17.904476">
        <ele>39.6</ele>
        <time>2013-08-11T16:07:29Z</time>
      </trkpt>
      <trkpt lat="59.343059" lon="17.904335">
        <ele>39.9</ele>
        <time>2013-08-11T16:07:30Z</time>
      </trkpt>
      <trkpt lat="59.343097" lon="17.904188">
        <ele>40.1</ele>
        <time>2013-08-11T16:07:31Z</time>
      </trkpt>
      <trkpt lat="59.343139" lon="17.90405">
        <ele>40.3</ele>
        <time>2013-08-11T16:07:32Z</time>
      </trkpt>
      <trkpt lat="59.343181" lon="17.90391">
        <ele>40.3</ele>
        <time>2013-08-11T16:07:33Z</time>
      </trkpt>
      <trkpt lat="59.34322" lon="17.903763">
        <ele>40.1</ele>
        <time>2013-08-11T16:07:34Z</time>
      </trkpt>
      <trkpt lat="59.343264" lon="17.903623">
        <ele>40.2</ele>
        <time>2013-08-11T16:07:35Z</time>
      </trkpt>
      <trkpt lat="59.343315" lon="17.903481">
        <ele>39.9</ele>
        <time>2013-08-11T16:07:36Z</time>
      </trkpt>
      <trkpt lat="59.343366" lon="17.903337">
        <ele>39.3</ele>
        <time>2013-08-11T16:07:37Z</time>
      </trkpt>
      <trkpt lat="59.343418" lon="17.903201">
        <ele>40.1</ele>
        <time>2013-08-11T16:07:38Z</time>
      </trkpt>
      <trkpt lat="59.343469" lon="17.90307">
        <ele>40.1</ele>
        <time>2013-08-11T16:07:39Z</time>
      </trkpt>
      <trkpt lat="59.343519" lon="17.902947">
        <ele>40.1</ele>
        <time>2013-08-11T16:07:40Z</time>
      </trkpt>
      <trkpt lat="59.343562" lon="17.902817">
        <ele>40.5</ele>
        <time>2013-08-11T16:07:41Z</time>
      </trkpt>
      <trkpt lat="59.343612" lon="17.902685">
        <ele>41.1</ele>
        <time>2013-08-11T16:07:42Z</time>
      </trkpt>
      <trkpt lat="59.343656" lon="17.902551">
        <ele>41.4</ele>
        <time>2013-08-11T16:07:43Z</time>
      </trkpt>
      <trkpt lat="59.343704" lon="17.902417">
        <ele>41.1</ele>
        <time>2013-08-11T16:07:44Z</time>
      </trkpt>
      <trkpt lat="59.343751" lon="17.902288">
        <ele>40.9</ele>
        <time>2013-08-11T16:07:45Z</time>
      </trkpt>
      <trkpt lat="59.343799" lon="17.902153">
        <ele>41.5</ele>
        <time>2013-08-11T16:07:46Z</time>
      </trkpt>
      <trkpt lat="59.343843" lon="17.902018">
        <ele>42.1</ele>
        <time>2013-08-11T16:07:47Z</time>
      </trkpt>
      <trkpt lat="59.343892" lon="17.901889">
        <ele>41.9</ele>
        <time>2013-08-11T16:07:48Z</time>
      </trkpt>
      <trkpt lat="59.343943" lon="17.901747">
        <ele>42.3</ele>
        <time>2013-08-11T16:07:49Z</time>
      </trkpt>
      <trkpt lat="59.343983" lon="17.901616">
        <ele>42.3</ele>
        <time>2013-08-11T16:07:50Z</time>
      </trkpt>
      <trkpt lat="59.344031" lon="17.901485">
        <ele>42.8</ele>
        <time>2013-08-11T16:07:51Z</time>
      </trkpt>
      <trkpt lat="59.344076" lon="17.901353">
        <ele>43</ele>
        <time>2013-08-11T16:07:52Z</time>
      </trkpt>
      <trkpt lat="59.344124" lon="17.901225">
        <ele>43.1</ele>
        <time>2013-08-11T16:07:53Z</time>
      </trkpt>
      <trkpt lat="59.344165" lon="17.901101">
        <ele>43.2</ele>
        <time>2013-08-11T16:07:54Z</time>
      </trkpt>
      <trkpt lat="59.344211" lon="17.900982">
        <ele>43.2</ele>
        <time>2013-08-11T16:07:55Z</time>
      </trkpt>
      <trkpt lat="59.34425" lon="17.90087">
        <ele>43.4</ele>
        <time>2013-08-11T16:07:56Z</time>
      </trkpt>
      <trkpt lat="59.344289" lon="17.900748">
        <ele>43.2</ele>
        <time>2013-08-11T16:07:57Z</time>
      </trkpt>
      <trkpt lat="59.344335" lon="17.900613">
        <ele>43.3</ele>
        <time>2013-08-11T16:07:58Z</time>
      </trkpt>
      <trkpt lat="59.34438" lon="17.900487">
        <ele>43.3</ele>
        <time>2013-08-11T16:07:59Z</time>
      </trkpt>
      <trkpt lat="59.344421" lon="17.900359">
        <ele>43</ele>
        <time>2013-08-11T16:08:00Z</time>
      </trkpt>
      <trkpt lat="59.344469" lon="17.900243">
        <ele>43</ele>
        <time>2013-08-11T16:08:01Z</time>
      </trkpt>
      <trkpt lat="59.344513" lon="17.900128">
        <ele>42.9</ele>
        <time>2013-08-11T16:08:02Z</time>
      </trkpt>
      <trkpt lat="59.344558" lon="17.9">
        <ele>42.8</ele>
        <time>2013-08-11T16:08:03Z</time>
      </trkpt>
      <trkpt lat="59.344605" lon="17.899885">
        <ele>42.3</ele>
        <time>2013-08-11T16:08:04Z</time>
      </trkpt>
      <trkpt lat="59.344654" lon="17.89975">
        <ele>42.8</ele>
        <time>2013-08-11T16:08:05Z</time>
      </trkpt>
      <trkpt lat="59.344697" lon="17.899623">
        <ele>42.2</ele>
        <time>2013-08-11T16:08:06Z</time>
      </trkpt>
      <trkpt lat="59.344741" lon="17.899488">
        <ele>42.3</ele>
        <time>2013-08-11T16:08:07Z</time>
      </trkpt>
      <trkpt lat="59.344783" lon="17.899355">
        <ele>42</ele>
        <time>2013-08-11T16:08:08Z</time>
      </trkpt>
      <trkpt lat="59.344827" lon="17.899224">
        <ele>42</ele>
        <time>2013-08-11T16:08:09Z</time>
      </trkpt>
      <trkpt lat="59.344876" lon="17.899098">
        <ele>41.9</ele>
        <time>2013-08-11T16:08:10Z</time>
      </trkpt>
      <trkpt lat="59.34492" lon="17.898967">
        <ele>42</ele>
        <time>2013-08-11T16:08:11Z</time>
      </trkpt>
      <trkpt lat="59.344968" lon="17.898831">
        <ele>42</ele>
        <time>2013-08-11T16:08:12Z</time>
      </trkpt>
      <trkpt lat="59.345014" lon="17.898703">
        <ele>41.8</ele>
        <time>2013-08-11T16:08:13Z</time>
      </trkpt>
      <trkpt lat="59.345059" lon="17.898573">
        <ele>41.6</ele>
        <time>2013-08-11T16:08:14Z</time>
      </trkpt>
      <trkpt lat="59.345105" lon="17.898435">
        <ele>41.6</ele>
        <time>2013-08-11T16:08:15Z</time>
      </trkpt>
      <trkpt lat="59.345153" lon="17.898301">
        <ele>41.7</ele>
        <time>2013-08-11T16:08:16Z</time>
      </trkpt>
      <trkpt lat="59.345199" lon="17.898169">
        <ele>41.6</ele>
        <time>2013-08-11T16:08:17Z</time>
      </trkpt>
      <trkpt lat="59.345246" lon="17.898045">
        <ele>41.7</ele>
        <time>2013-08-11T16:08:18Z</time>
      </trkpt>
      <trkpt lat="59.345289" lon="17.897919">
        <ele>41.9</ele>
        <time>2013-08-11T16:08:19Z</time>
      </trkpt>
      <trkpt lat="59.345336" lon="17.897791">
        <ele>42.3</ele>
        <time>2013-08-11T16:08:20Z</time>
      </trkpt>
      <trkpt lat="59.345377" lon="17.897644">
        <ele>41.2</ele>
        <time>2013-08-11T16:08:21Z</time>
      </trkpt>
      <trkpt lat="59.345423" lon="17.897507">
        <ele>41.1</ele>
        <time>2013-08-11T16:08:22Z</time>
      </trkpt>
      <trkpt lat="59.345467" lon="17.897376">
        <ele>40.7</ele>
        <time>2013-08-11T16:08:23Z</time>
      </trkpt>
      <trkpt lat="59.345511" lon="17.897241">
        <ele>40.4</ele>
        <time>2013-08-11T16:08:24Z</time>
      </trkpt>
      <trkpt lat="59.345555" lon="17.897104">
        <ele>40.3</ele>
        <time>2013-08-11T16:08:25Z</time>
      </trkpt>
      <trkpt lat="59.345612" lon="17.896964">
        <ele>40.7</ele>
        <time>2013-08-11T16:08:26Z</time>
      </trkpt>
      <trkpt lat="59.345655" lon="17.896823">
        <ele>40.1</ele>
        <time>2013-08-11T16:08:27Z</time>
      </trkpt>
      <trkpt lat="59.345704" lon="17.896683">
        <ele>39.9</ele>
        <time>2013-08-11T16:08:28Z</time>
      </trkpt>
      <trkpt lat="59.345751" lon="17.896544">
        <ele>39.9</ele>
        <time>2013-08-11T16:08:29Z</time>
      </trkpt>
      <trkpt lat="59.345799" lon="17.896416">
        <ele>41.3</ele>
        <time>2013-08-11T16:08:30Z</time>
      </trkpt>
      <trkpt lat="59.345846" lon="17.89628">
        <ele>41.9</ele>
        <time>2013-08-11T16:08:31Z</time>
      </trkpt>
      <trkpt lat="59.345884" lon="17.896128">
        <ele>39.4</ele>
        <time>2013-08-11T16:08:32Z</time>
      </trkpt>
      <trkpt lat="59.345929" lon="17.89599">
        <ele>39.4</ele>
        <time>2013-08-11T16:08:33Z</time>
      </trkpt>
      <trkpt lat="59.345977" lon="17.895843">
        <ele>39.7</ele>
        <time>2013-08-11T16:08:34Z</time>
      </trkpt>
      <trkpt lat="59.346022" lon="17.895703">
        <ele>39.8</ele>
        <time>2013-08-11T16:08:35Z</time>
      </trkpt>
      <trkpt lat="59.346057" lon="17.895576">
        <ele>39.4</ele>
        <time>2013-08-11T16:08:36Z</time>
      </trkpt>
      <trkpt lat="59.346098" lon="17.89544">
        <ele>39.1</ele>
        <time>2013-08-11T16:08:37Z</time>
      </trkpt>
      <trkpt lat="59.346143" lon="17.895301">
        <ele>40.2</ele>
        <time>2013-08-11T16:08:38Z</time>
      </trkpt>
      <trkpt lat="59.346191" lon="17.895164">
        <ele>41.1</ele>
        <time>2013-08-11T16:08:39Z</time>
      </trkpt>
      <trkpt lat="59.346239" lon="17.895037">
        <ele>40.9</ele>
        <time>2013-08-11T16:08:40Z</time>
      </trkpt>
      <trkpt lat="59.346285" lon="17.894915">
        <ele>41</ele>
        <time>2013-08-11T16:08:41Z</time>
      </trkpt>
      <trkpt lat="59.34633" lon="17.894796">
        <ele>40.4</ele>
        <time>2013-08-11T16:08:42Z</time>
      </trkpt>
      <trkpt lat="59.346373" lon="17.894676">
        <ele>40.6</ele>
        <time>2013-08-11T16:08:43Z</time>
      </trkpt>
      <trkpt lat="59.346414" lon="17.894566">
        <ele>40</ele>
        <time>2013-08-11T16:08:44Z</time>
      </trkpt>
      <trkpt lat="59.346453" lon="17.894465">
        <ele>39.7</ele>
        <time>2013-08-11T16:08:45Z</time>
      </trkpt>
      <trkpt lat="59.346493" lon="17.894363">
        <ele>39.8</ele>
        <time>2013-08-11T16:08:46Z</time>
      </trkpt>
      <trkpt lat="59.346531" lon="17.894262">
        <ele>39.8</ele>
        <time>2013-08-11T16:08:47Z</time>
      </trkpt>
      <trkpt lat="59.346561" lon="17.894179">
        <ele>40</ele>
        <time>2013-08-11T16:08:48Z</time>
      </trkpt>
      <trkpt lat="59.346592" lon="17.894094">
        <ele>40.3</ele>
        <time>2013-08-11T16:08:49Z</time>
      </trkpt>
      <trkpt lat="59.346624" lon="17.894019">
        <ele>40.3</ele>
        <time>2013-08-11T16:08:50Z</time>
      </trkpt>
      <trkpt lat="59.346654" lon="17.893946">
        <ele>40.4</ele>
        <time>2013-08-11T16:08:51Z</time>
      </trkpt>
      <trkpt lat="59.346683" lon="17.893893">
        <ele>40.4</ele>
        <time>2013-08-11T16:08:52Z</time>
      </trkpt>
      <trkpt lat="59.346719" lon="17.893851">
        <ele>41.3</ele>
        <time>2013-08-11T16:08:55Z</time>
      </trkpt>
      <trkpt lat="59.346751" lon="17.893794">
        <ele>40.3</ele>
        <time>2013-08-11T16:08:57Z</time>
      </trkpt>
      <trkpt lat="59.346779" lon="17.893741">
        <ele>40</ele>
        <time>2013-08-11T16:08:58Z</time>
      </trkpt>
      <trkpt lat="59.346807" lon="17.893651">
        <ele>40.4</ele>
        <time>2013-08-11T16:08:59Z</time>
      </trkpt>
      <trkpt lat="59.346837" lon="17.893578">
        <ele>40.3</ele>
        <time>2013-08-11T16:09:00Z</time>
      </trkpt>
      <trkpt lat="59.346867" lon="17.893504">
        <ele>39.9</ele>
        <time>2013-08-11T16:09:01Z</time>
      </trkpt>
      <trkpt lat="59.346923" lon="17.893449">
        <ele>40.4</ele>
        <time>2013-08-11T16:09:02Z</time>
      </trkpt>
      <trkpt lat="59.346968" lon="17.893387">
        <ele>40.3</ele>
        <time>2013-08-11T16:09:03Z</time>
      </trkpt>
      <trkpt lat="59.347009" lon="17.893309">
        <ele>39.8</ele>
        <time>2013-08-11T16:09:04Z</time>
      </trkpt>
      <trkpt lat="59.347055" lon="17.89323">
        <ele>39.8</ele>
        <time>2013-08-11T16:09:05Z</time>
      </trkpt>
      <trkpt lat="59.347107" lon="17.893117">
        <ele>40</ele>
        <time>2013-08-11T16:09:06Z</time>
      </trkpt>
      <trkpt lat="59.347158" lon="17.893019">
        <ele>39.9</ele>
        <time>2013-08-11T16:09:07Z</time>
      </trkpt>
      <trkpt lat="59.347221" lon="17.892916">
        <ele>40.4</ele>
        <time>2013-08-11T16:09:08Z</time>
      </trkpt>
      <trkpt lat="59.347277" lon="17.892813">
        <ele>40.7</ele>
        <time>2013-08-11T16:09:09Z</time>
      </trkpt>
      <trkpt lat="59.347332" lon="17.892709">
        <ele>40.6</ele>
        <time>2013-08-11T16:09:10Z</time>
      </trkpt>
      <trkpt lat="59.347385" lon="17.892609">
        <ele>40.6</ele>
        <time>2013-08-11T16:09:11Z</time>
      </trkpt>
      <trkpt lat="59.347445" lon="17.892508">
        <ele>40.6</ele>
        <time>2013-08-11T16:09:12Z</time>
      </trkpt>
      <trkpt lat="59.347502" lon="17.892398">
        <ele>40.9</ele>
        <time>2013-08-11T16:09:13Z</time>
      </trkpt>
      <trkpt lat="59.347562" lon="17.892288">
        <ele>40.7</ele>
        <time>2013-08-11T16:09:14Z</time>
      </trkpt>
      <trkpt lat="59.347622" lon="17.892179">
        <ele>40.7</ele>
        <time>2013-08-11T16:09:15Z</time>
      </trkpt>
      <trkpt lat="59.347685" lon="17.892071">
        <ele>41.4</ele>
        <time>2013-08-11T16:09:16Z</time>
      </trkpt>
      <trkpt lat="59.347746" lon="17.891963">
        <ele>41.7</ele>
        <time>2013-08-11T16:09:17Z</time>
      </trkpt>
      <trkpt lat="59.347805" lon="17.891866">
        <ele>41.2</ele>
        <time>2013-08-11T16:09:18Z</time>
      </trkpt>
      <trkpt lat="59.347861" lon="17.891764">
        <ele>41.1</ele>
        <time>2013-08-11T16:09:19Z</time>
      </trkpt>
      <trkpt lat="59.347923" lon="17.89166">
        <ele>40.6</ele>
        <time>2013-08-11T16:09:20Z</time>
      </trkpt>
      <trkpt lat="59.347979" lon="17.891554">
        <ele>40.8</ele>
        <time>2013-08-11T16:09:21Z</time>
      </trkpt>
      <trkpt lat="59.348033" lon="17.89145">
        <ele>40.8</ele>
        <time>2013-08-11T16:09:22Z</time>
      </trkpt>
      <trkpt lat="59.348095" lon="17.891347">
        <ele>40.8</ele>
        <time>2013-08-11T16:09:23Z</time>
      </trkpt>
      <trkpt lat="59.348154" lon="17.891245">
        <ele>40.8</ele>
        <time>2013-08-11T16:09:24Z</time>
      </trkpt>
      <trkpt lat="59.348211" lon="17.891134">
        <ele>40.4</ele>
        <time>2013-08-11T16:09:25Z</time>
      </trkpt>
      <trkpt lat="59.348271" lon="17.891026">
        <ele>40.4</ele>
        <time>2013-08-11T16:09:26Z</time>
      </trkpt>
      <trkpt lat="59.348329" lon="17.890915">
        <ele>39.7</ele>
        <time>2013-08-11T16:09:27Z</time>
      </trkpt>
      <trkpt lat="59.348392" lon="17.8908">
        <ele>39.9</ele>
        <time>2013-08-11T16:09:28Z</time>
      </trkpt>
      <trkpt lat="59.348454" lon="17.890693">
        <ele>39.9</ele>
        <time>2013-08-11T16:09:29Z</time>
      </trkpt>
      <trkpt lat="59.348513" lon="17.890589">
        <ele>39.7</ele>
        <time>2013-08-11T16:09:30Z</time>
      </trkpt>
      <trkpt lat="59.348578" lon="17.890481">
        <ele>40</ele>
        <time>2013-08-11T16:09:31Z</time>
      </trkpt>
      <trkpt lat="59.348641" lon="17.890369">
        <ele>39.9</ele>
        <time>2013-08-11T16:09:32Z</time>
      </trkpt>
      <trkpt lat="59.348708" lon="17.890254">
        <ele>40</ele>
        <time>2013-08-11T16:09:33Z</time>
      </trkpt>
      <trkpt lat="59.348772" lon="17.890135">
        <ele>40</ele>
        <time>2013-08-11T16:09:34Z</time>
      </trkpt>
      <trkpt lat="59.348833" lon="17.89002">
        <ele>39.9</ele>
        <time>2013-08-11T16:09:35Z</time>
      </trkpt>
      <trkpt lat="59.348895" lon="17.889906">
        <ele>39.9</ele>
        <time>2013-08-11T16:09:36Z</time>
      </trkpt>
      <trkpt lat="59.348961" lon="17.889792">
        <ele>39.9</ele>
        <time>2013-08-11T16:09:37Z</time>
      </trkpt>
      <trkpt lat="59.349023" lon="17.889682">
        <ele>39.9</ele>
        <time>2013-08-11T16:09:38Z</time>
      </trkpt>
      <trkpt lat="59.349085" lon="17.889546">
        <ele>40</ele>
        <time>2013-08-11T16:09:39Z</time>
      </trkpt>
      <trkpt lat="59.349152" lon="17.889438">
        <ele>40.5</ele>
        <time>2013-08-11T16:09:40Z</time>
      </trkpt>
      <trkpt lat="59.349213" lon="17.889317">
        <ele>40.3</ele>
        <time>2013-08-11T16:09:41Z</time>
      </trkpt>
      <trkpt lat="59.349281" lon="17.889208">
        <ele>40.1</ele>
        <time>2013-08-11T16:09:42Z</time>
      </trkpt>
      <trkpt lat="59.349345" lon="17.889089">
        <ele>40.2</ele>
        <time>2013-08-11T16:09:43Z</time>
      </trkpt>
      <trkpt lat="59.349405" lon="17.88897">
        <ele>40.1</ele>
        <time>2013-08-11T16:09:44Z</time>
      </trkpt>
      <trkpt lat="59.349474" lon="17.888859">
        <ele>39.9</ele>
        <time>2013-08-11T16:09:45Z</time>
      </trkpt>
      <trkpt lat="59.349544" lon="17.888741">
        <ele>40.2</ele>
        <time>2013-08-11T16:09:46Z</time>
      </trkpt>
      <trkpt lat="59.349607" lon="17.888622">
        <ele>40</ele>
        <time>2013-08-11T16:09:47Z</time>
      </trkpt>
      <trkpt lat="59.349664" lon="17.888527">
        <ele>39.8</ele>
        <time>2013-08-11T16:09:48Z</time>
      </trkpt>
      <trkpt lat="59.349731" lon="17.888411">
        <ele>40.2</ele>
        <time>2013-08-11T16:09:49Z</time>
      </trkpt>
      <trkpt lat="59.349803" lon="17.888289">
        <ele>40.1</ele>
        <time>2013-08-11T16:09:50Z</time>
      </trkpt>
      <trkpt lat="59.349868" lon="17.888166">
        <ele>39.7</ele>
        <time>2013-08-11T16:09:51Z</time>
      </trkpt>
      <trkpt lat="59.349934" lon="17.888042">
        <ele>39.9</ele>
        <time>2013-08-11T16:09:52Z</time>
      </trkpt>
      <trkpt lat="59.350003" lon="17.887919">
        <ele>39.7</ele>
        <time>2013-08-11T16:09:53Z</time>
      </trkpt>
      <trkpt lat="59.350073" lon="17.887795">
        <ele>39.4</ele>
        <time>2013-08-11T16:09:54Z</time>
      </trkpt>
      <trkpt lat="59.35014" lon="17.887681">
        <ele>39.8</ele>
        <time>2013-08-11T16:09:55Z</time>
      </trkpt>
      <trkpt lat="59.350212" lon="17.887556">
        <ele>39.7</ele>
        <time>2013-08-11T16:09:56Z</time>
      </trkpt>
      <trkpt lat="59.350279" lon="17.887423">
        <ele>40.1</ele>
        <time>2013-08-11T16:09:57Z</time>
      </trkpt>
      <trkpt lat="59.350346" lon="17.887292">
        <ele>40.1</ele>
        <time>2013-08-11T16:09:58Z</time>
      </trkpt>
      <trkpt lat="59.350419" lon="17.887171">
        <ele>41.2</ele>
        <time>2013-08-11T16:09:59Z</time>
      </trkpt>
      <trkpt lat="59.350487" lon="17.887051">
        <ele>41.3</ele>
        <time>2013-08-11T16:10:00Z</time>
      </trkpt>
      <trkpt lat="59.350553" lon="17.886933">
        <ele>41</ele>
        <time>2013-08-11T16:10:01Z</time>
      </trkpt>
      <trkpt lat="59.350614" lon="17.886807">
        <ele>41</ele>
        <time>2013-08-11T16:10:02Z</time>
      </trkpt>
      <trkpt lat="59.350681" lon="17.88669">
        <ele>40.7</ele>
        <time>2013-08-11T16:10:03Z</time>
      </trkpt>
      <trkpt lat="59.350748" lon="17.886563">
        <ele>40.8</ele>
        <time>2013-08-11T16:10:04Z</time>
      </trkpt>
      <trkpt lat="59.350814" lon="17.886447">
        <ele>40.8</ele>
        <time>2013-08-11T16:10:05Z</time>
      </trkpt>
      <trkpt lat="59.350875" lon="17.886328">
        <ele>40.4</ele>
        <time>2013-08-11T16:10:06Z</time>
      </trkpt>
      <trkpt lat="59.350935" lon="17.886213">
        <ele>40.5</ele>
        <time>2013-08-11T16:10:07Z</time>
      </trkpt>
      <trkpt lat="59.351" lon="17.886088">
        <ele>41.2</ele>
        <time>2013-08-11T16:10:08Z</time>
      </trkpt>
      <trkpt lat="59.351063" lon="17.885972">
        <ele>41.6</ele>
        <time>2013-08-11T16:10:09Z</time>
      </trkpt>
      <trkpt lat="59.351122" lon="17.885854">
        <ele>41.7</ele>
        <time>2013-08-11T16:10:10Z</time>
      </trkpt>
      <trkpt lat="59.351173" lon="17.885723">
        <ele>40.8</ele>
        <time>2013-08-11T16:10:11Z</time>
      </trkpt>
      <trkpt lat="59.351228" lon="17.8856">
        <ele>40.8</ele>
        <time>2013-08-11T16:10:12Z</time>
      </trkpt>
      <trkpt lat="59.351281" lon="17.885474">
        <ele>41</ele>
        <time>2013-08-11T16:10:13Z</time>
      </trkpt>
      <trkpt lat="59.35133" lon="17.885343">
        <ele>40.9</ele>
        <time>2013-08-11T16:10:14Z</time>
      </trkpt>
      <trkpt lat="59.351353" lon="17.885218">
        <ele>41.5</ele>
        <time>2013-08-11T16:10:15Z</time>
      </trkpt>
      <trkpt lat="59.351388" lon="17.88509">
        <ele>41.5</ele>
        <time>2013-08-11T16:10:16Z</time>
      </trkpt>
      <trkpt lat="59.351408" lon="17.884984">
        <ele>41.6</ele>
        <time>2013-08-11T16:10:17Z</time>
      </trkpt>
      <trkpt lat="59.351431" lon="17.884868">
        <ele>41.8</ele>
        <time>2013-08-11T16:10:18Z</time>
      </trkpt>
      <trkpt lat="59.351429" lon="17.884775">
        <ele>42.2</ele>
        <time>2013-08-11T16:10:19Z</time>
      </trkpt>
      <trkpt lat="59.351446" lon="17.884681">
        <ele>42.4</ele>
        <time>2013-08-11T16:10:20Z</time>
      </trkpt>
      <trkpt lat="59.351492" lon="17.88461">
        <ele>42.3</ele>
        <time>2013-08-11T16:10:21Z</time>
      </trkpt>
      <trkpt lat="59.351527" lon="17.884515">
        <ele>41.9</ele>
        <time>2013-08-11T16:10:22Z</time>
      </trkpt>
      <trkpt lat="59.351566" lon="17.884421">
        <ele>41.3</ele>
        <time>2013-08-11T16:10:23Z</time>
      </trkpt>
      <trkpt lat="59.351612" lon="17.884353">
        <ele>40.8</ele>
        <time>2013-08-11T16:10:24Z</time>
      </trkpt>
      <trkpt lat="59.351673" lon="17.884312">
        <ele>40.4</ele>
        <time>2013-08-11T16:10:25Z</time>
      </trkpt>
      <trkpt lat="59.351738" lon="17.884283">
        <ele>40.3</ele>
        <time>2013-08-11T16:10:26Z</time>
      </trkpt>
      <trkpt lat="59.351798" lon="17.884244">
        <ele>40.8</ele>
        <time>2013-08-11T16:10:27Z</time>
      </trkpt>
      <trkpt lat="59.351862" lon="17.884202">
        <ele>41.9</ele>
        <time>2013-08-11T16:10:28Z</time>
      </trkpt>
      <trkpt lat="59.351927" lon="17.884145">
        <ele>42.3</ele>
        <time>2013-08-11T16:10:29Z</time>
      </trkpt>
      <trkpt lat="59.351994" lon="17.884061">
        <ele>43</ele>
        <time>2013-08-11T16:10:30Z</time>
      </trkpt>
      <trkpt lat="59.352062" lon="17.883976">
        <ele>42.6</ele>
        <time>2013-08-11T16:10:31Z</time>
      </trkpt>
      <trkpt lat="59.352122" lon="17.883885">
        <ele>42.7</ele>
        <time>2013-08-11T16:10:32Z</time>
      </trkpt>
      <trkpt lat="59.352185" lon="17.883785">
        <ele>43.1</ele>
        <time>2013-08-11T16:10:33Z</time>
      </trkpt>
      <trkpt lat="59.352244" lon="17.883682">
        <ele>42.7</ele>
        <time>2013-08-11T16:10:34Z</time>
      </trkpt>
      <trkpt lat="59.352306" lon="17.88358">
        <ele>42.9</ele>
        <time>2013-08-11T16:10:35Z</time>
      </trkpt>
      <trkpt lat="59.352363" lon="17.883471">
        <ele>42.8</ele>
        <time>2013-08-11T16:10:36Z</time>
      </trkpt>
      <trkpt lat="59.352421" lon="17.883359">
        <ele>42.9</ele>
        <time>2013-08-11T16:10:37Z</time>
      </trkpt>
      <trkpt lat="59.352483" lon="17.883244">
        <ele>43.3</ele>
        <time>2013-08-11T16:10:38Z</time>
      </trkpt>
      <trkpt lat="59.352548" lon="17.88313">
        <ele>43.8</ele>
        <time>2013-08-11T16:10:39Z</time>
      </trkpt>
      <trkpt lat="59.352608" lon="17.883032">
        <ele>43.4</ele>
        <time>2013-08-11T16:10:40Z</time>
      </trkpt>
      <trkpt lat="59.352668" lon="17.882922">
        <ele>43.5</ele>
        <time>2013-08-11T16:10:41Z</time>
      </trkpt>
      <trkpt lat="59.352727" lon="17.88281">
        <ele>44</ele>
        <time>2013-08-11T16:10:42Z</time>
      </trkpt>
      <trkpt lat="59.352791" lon="17.882698">
        <ele>43.9</ele>
        <time>2013-08-11T16:10:43Z</time>
      </trkpt>
      <trkpt lat="59.352855" lon="17.882588">
        <ele>43.8</ele>
        <time>2013-08-11T16:10:44Z</time>
      </trkpt>
      <trkpt lat="59.352918" lon="17.882476">
        <ele>44.1</ele>
        <time>2013-08-11T16:10:45Z</time>
      </trkpt>
      <trkpt lat="59.352985" lon="17.882372">
        <ele>44.3</ele>
        <time>2013-08-11T16:10:46Z</time>
      </trkpt>
      <trkpt lat="59.353067" lon="17.882297">
        <ele>45</ele>
        <time>2013-08-11T16:10:47Z</time>
      </trkpt>
      <trkpt lat="59.353141" lon="17.882208">
        <ele>45.3</ele>
        <time>2013-08-11T16:10:48Z</time>
      </trkpt>
      <trkpt lat="59.353217" lon="17.88212">
        <ele>45</ele>
        <time>2013-08-11T16:10:49Z</time>
      </trkpt>
      <trkpt lat="59.353291" lon="17.88203">
        <ele>45.1</ele>
        <time>2013-08-11T16:10:50Z</time>
      </trkpt>
      <trkpt lat="59.353355" lon="17.881913">
        <ele>45</ele>
        <time>2013-08-11T16:10:51Z</time>
      </trkpt>
      <trkpt lat="59.353419" lon="17.881795">
        <ele>45</ele>
        <time>2013-08-11T16:10:52Z</time>
      </trkpt>
      <trkpt lat="59.353484" lon="17.881686">
        <ele>45.3</ele>
        <time>2013-08-11T16:10:53Z</time>
      </trkpt>
      <trkpt lat="59.353539" lon="17.881552">
        <ele>45.3</ele>
        <time>2013-08-11T16:10:54Z</time>
      </trkpt>
      <trkpt lat="59.353601" lon="17.881433">
        <ele>45.3</ele>
        <time>2013-08-11T16:10:55Z</time>
      </trkpt>
      <trkpt lat="59.353662" lon="17.881305">
        <ele>45.2</ele>
        <time>2013-08-11T16:10:56Z</time>
      </trkpt>
      <trkpt lat="59.353716" lon="17.881168">
        <ele>45.5</ele>
        <time>2013-08-11T16:10:57Z</time>
      </trkpt>
      <trkpt lat="59.353771" lon="17.881036">
        <ele>46.7</ele>
        <time>2013-08-11T16:10:58Z</time>
      </trkpt>
      <trkpt lat="59.353831" lon="17.880904">
        <ele>47.7</ele>
        <time>2013-08-11T16:10:59Z</time>
      </trkpt>
      <trkpt lat="59.353887" lon="17.880763">
        <ele>47.7</ele>
        <time>2013-08-11T16:11:00Z</time>
      </trkpt>
      <trkpt lat="59.353943" lon="17.880628">
        <ele>47.9</ele>
        <time>2013-08-11T16:11:01Z</time>
      </trkpt>
      <trkpt lat="59.354004" lon="17.880504">
        <ele>47</ele>
        <time>2013-08-11T16:11:02Z</time>
      </trkpt>
      <trkpt lat="59.354069" lon="17.880384">
        <ele>46.9</ele>
        <time>2013-08-11T16:11:03Z</time>
      </trkpt>
      <trkpt lat="59.354135" lon="17.880262">
        <ele>45.9</ele>
        <time>2013-08-11T16:11:04Z</time>
      </trkpt>
      <trkpt lat="59.354204" lon="17.880138">
        <ele>45.4</ele>
        <time>2013-08-11T16:11:05Z</time>
      </trkpt>
      <trkpt lat="59.354266" lon="17.880016">
        <ele>44.9</ele>
        <time>2013-08-11T16:11:06Z</time>
      </trkpt>
      <trkpt lat="59.35457" lon="17.879587">
        <ele>45</ele>
        <time>2013-08-11T16:11:10Z</time>
      </trkpt>
      <trkpt lat="59.354652" lon="17.879505">
        <ele>44.8</ele>
        <time>2013-08-11T16:11:11Z</time>
      </trkpt>
      <trkpt lat="59.354726" lon="17.879408">
        <ele>45.5</ele>
        <time>2013-08-11T16:11:12Z</time>
      </trkpt>
      <trkpt lat="59.354791" lon="17.879294">
        <ele>44.8</ele>
        <time>2013-08-11T16:11:13Z</time>
      </trkpt>
      <trkpt lat="59.354857" lon="17.879176">
        <ele>45.2</ele>
        <time>2013-08-11T16:11:14Z</time>
      </trkpt>
      <trkpt lat="59.354913" lon="17.879056">
        <ele>44.9</ele>
        <time>2013-08-11T16:11:15Z</time>
      </trkpt>
      <trkpt lat="59.354962" lon="17.87891">
        <ele>44.8</ele>
        <time>2013-08-11T16:11:16Z</time>
      </trkpt>
      <trkpt lat="59.355008" lon="17.878759">
        <ele>44.1</ele>
        <time>2013-08-11T16:11:17Z</time>
      </trkpt>
      <trkpt lat="59.355059" lon="17.878615">
        <ele>43.3</ele>
        <time>2013-08-11T16:11:18Z</time>
      </trkpt>
      <trkpt lat="59.355122" lon="17.878478">
        <ele>43.5</ele>
        <time>2013-08-11T16:11:19Z</time>
      </trkpt>
      <trkpt lat="59.355193" lon="17.87838">
        <ele>43.2</ele>
        <time>2013-08-11T16:11:20Z</time>
      </trkpt>
      <trkpt lat="59.355272" lon="17.878286">
        <ele>43.6</ele>
        <time>2013-08-11T16:11:21Z</time>
      </trkpt>
      <trkpt lat="59.355344" lon="17.878186">
        <ele>44.1</ele>
        <time>2013-08-11T16:11:22Z</time>
      </trkpt>
      <trkpt lat="59.355412" lon="17.878077">
        <ele>44.7</ele>
        <time>2013-08-11T16:11:23Z</time>
      </trkpt>
      <trkpt lat="59.355482" lon="17.877963">
        <ele>45.1</ele>
        <time>2013-08-11T16:11:24Z</time>
      </trkpt>
      <trkpt lat="59.355551" lon="17.877848">
        <ele>45.9</ele>
        <time>2013-08-11T16:11:25Z</time>
      </trkpt>
      <trkpt lat="59.355622" lon="17.877733">
        <ele>45.5</ele>
        <time>2013-08-11T16:11:26Z</time>
      </trkpt>
      <trkpt lat="59.355688" lon="17.877612">
        <ele>45.5</ele>
        <time>2013-08-11T16:11:27Z</time>
      </trkpt>
      <trkpt lat="59.355755" lon="17.877485">
        <ele>45.1</ele>
        <time>2013-08-11T16:11:28Z</time>
      </trkpt>
      <trkpt lat="59.355818" lon="17.877361">
        <ele>44.2</ele>
        <time>2013-08-11T16:11:29Z</time>
      </trkpt>
      <trkpt lat="59.355887" lon="17.877237">
        <ele>44.1</ele>
        <time>2013-08-11T16:11:30Z</time>
      </trkpt>
      <trkpt lat="59.35596" lon="17.877123">
        <ele>44.3</ele>
        <time>2013-08-11T16:11:31Z</time>
      </trkpt>
      <trkpt lat="59.356026" lon="17.877006">
        <ele>44.3</ele>
        <time>2013-08-11T16:11:32Z</time>
      </trkpt>
      <trkpt lat="59.356098" lon="17.876875">
        <ele>44.7</ele>
        <time>2013-08-11T16:11:33Z</time>
      </trkpt>
      <trkpt lat="59.356164" lon="17.876746">
        <ele>43.3</ele>
        <time>2013-08-11T16:11:34Z</time>
      </trkpt>
      <trkpt lat="59.356234" lon="17.876624">
        <ele>43.3</ele>
        <time>2013-08-11T16:11:35Z</time>
      </trkpt>
      <trkpt lat="59.356305" lon="17.876491">
        <ele>43.7</ele>
        <time>2013-08-11T16:11:36Z</time>
      </trkpt>
      <trkpt lat="59.356374" lon="17.876365">
        <ele>43.7</ele>
        <time>2013-08-11T16:11:37Z</time>
      </trkpt>
      <trkpt lat="59.356443" lon="17.876234">
        <ele>43.3</ele>
        <time>2013-08-11T16:11:38Z</time>
      </trkpt>
      <trkpt lat="59.356509" lon="17.876102">
        <ele>42.9</ele>
        <time>2013-08-11T16:11:39Z</time>
      </trkpt>
      <trkpt lat="59.356575" lon="17.875971">
        <ele>43</ele>
        <time>2013-08-11T16:11:40Z</time>
      </trkpt>
      <trkpt lat="59.356651" lon="17.875845">
        <ele>42.7</ele>
        <time>2013-08-11T16:11:41Z</time>
      </trkpt>
      <trkpt lat="59.356725" lon="17.875727">
        <ele>43.4</ele>
        <time>2013-08-11T16:11:42Z</time>
      </trkpt>
      <trkpt lat="59.3568" lon="17.875602">
        <ele>43.3</ele>
        <time>2013-08-11T16:11:43Z</time>
      </trkpt>
      <trkpt lat="59.356875" lon="17.875474">
        <ele>42.4</ele>
        <time>2013-08-11T16:11:44Z</time>
      </trkpt>
      <trkpt lat="59.35695" lon="17.875349">
        <ele>42.4</ele>
        <time>2013-08-11T16:11:45Z</time>
      </trkpt>
      <trkpt lat="59.357017" lon="17.875218">
        <ele>42.1</ele>
        <time>2013-08-11T16:11:46Z</time>
      </trkpt>
      <trkpt lat="59.357088" lon="17.875084">
        <ele>42</ele>
        <time>2013-08-11T16:11:47Z</time>
      </trkpt>
      <trkpt lat="59.357148" lon="17.874927">
        <ele>42</ele>
        <time>2013-08-11T16:11:48Z</time>
      </trkpt>
      <trkpt lat="59.357208" lon="17.874771">
        <ele>42.2</ele>
        <time>2013-08-11T16:11:49Z</time>
      </trkpt>
      <trkpt lat="59.357267" lon="17.874612">
        <ele>42.1</ele>
        <time>2013-08-11T16:11:50Z</time>
      </trkpt>
      <trkpt lat="59.357324" lon="17.874449">
        <ele>42</ele>
        <time>2013-08-11T16:11:51Z</time>
      </trkpt>
      <trkpt lat="59.357398" lon="17.874316">
        <ele>41.3</ele>
        <time>2013-08-11T16:11:52Z</time>
      </trkpt>
      <trkpt lat="59.357471" lon="17.874176">
        <ele>41.8</ele>
        <time>2013-08-11T16:11:53Z</time>
      </trkpt>
      <trkpt lat="59.35754" lon="17.874038">
        <ele>41</ele>
        <time>2013-08-11T16:11:54Z</time>
      </trkpt>
      <trkpt lat="59.357611" lon="17.873897">
        <ele>40.2</ele>
        <time>2013-08-11T16:11:55Z</time>
      </trkpt>
      <trkpt lat="59.357684" lon="17.873769">
        <ele>39.8</ele>
        <time>2013-08-11T16:11:56Z</time>
      </trkpt>
      <trkpt lat="59.357755" lon="17.87364">
        <ele>41</ele>
        <time>2013-08-11T16:11:57Z</time>
      </trkpt>
      <trkpt lat="59.357827" lon="17.873513">
        <ele>40.8</ele>
        <time>2013-08-11T16:11:58Z</time>
      </trkpt>
      <trkpt lat="59.357902" lon="17.873389">
        <ele>40.5</ele>
        <time>2013-08-11T16:11:59Z</time>
      </trkpt>
      <trkpt lat="59.357973" lon="17.873264">
        <ele>40.7</ele>
        <time>2013-08-11T16:12:00Z</time>
      </trkpt>
      <trkpt lat="59.358042" lon="17.873124">
        <ele>40.3</ele>
        <time>2013-08-11T16:12:01Z</time>
      </trkpt>
      <trkpt lat="59.358112" lon="17.873004">
        <ele>41.3</ele>
        <time>2013-08-11T16:12:02Z</time>
      </trkpt>
      <trkpt lat="59.358194" lon="17.872898">
        <ele>41.3</ele>
        <time>2013-08-11T16:12:03Z</time>
      </trkpt>
      <trkpt lat="59.358253" lon="17.872789">
        <ele>41</ele>
        <time>2013-08-11T16:12:04Z</time>
      </trkpt>
      <trkpt lat="59.358317" lon="17.872686">
        <ele>41.6</ele>
        <time>2013-08-11T16:12:05Z</time>
      </trkpt>
      <trkpt lat="59.358358" lon="17.87257">
        <ele>41.3</ele>
        <time>2013-08-11T16:12:06Z</time>
      </trkpt>
      <trkpt lat="59.358409" lon="17.872445">
        <ele>41.8</ele>
        <time>2013-08-11T16:12:07Z</time>
      </trkpt>
      <trkpt lat="59.358414" lon="17.872292">
        <ele>41.4</ele>
        <time>2013-08-11T16:12:08Z</time>
      </trkpt>
      <trkpt lat="59.358437" lon="17.872152">
        <ele>41.6</ele>
        <time>2013-08-11T16:12:09Z</time>
      </trkpt>
      <trkpt lat="59.358475" lon="17.872014">
        <ele>41.5</ele>
        <time>2013-08-11T16:12:10Z</time>
      </trkpt>
      <trkpt lat="59.358523" lon="17.871902">
        <ele>41.2</ele>
        <time>2013-08-11T16:12:11Z</time>
      </trkpt>
      <trkpt lat="59.358578" lon="17.871809">
        <ele>41.4</ele>
        <time>2013-08-11T16:12:12Z</time>
      </trkpt>
      <trkpt lat="59.358629" lon="17.871729">
        <ele>41.3</ele>
        <time>2013-08-11T16:12:13Z</time>
      </trkpt>
      <trkpt lat="59.35868" lon="17.87165">
        <ele>41.2</ele>
        <time>2013-08-11T16:12:14Z</time>
      </trkpt>
      <trkpt lat="59.358737" lon="17.871578">
        <ele>41</ele>
        <time>2013-08-11T16:12:15Z</time>
      </trkpt>
      <trkpt lat="59.358797" lon="17.871508">
        <ele>41.4</ele>
        <time>2013-08-11T16:12:16Z</time>
      </trkpt>
      <trkpt lat="59.358855" lon="17.871453">
        <ele>41.3</ele>
        <time>2013-08-11T16:12:17Z</time>
      </trkpt>
      <trkpt lat="59.358919" lon="17.871417">
        <ele>41.2</ele>
        <time>2013-08-11T16:12:18Z</time>
      </trkpt>
      <trkpt lat="59.358983" lon="17.87136">
        <ele>41.2</ele>
        <time>2013-08-11T16:12:19Z</time>
      </trkpt>
      <trkpt lat="59.359045" lon="17.871293">
        <ele>41.2</ele>
        <time>2013-08-11T16:12:20Z</time>
      </trkpt>
      <trkpt lat="59.359106" lon="17.871219">
        <ele>41.5</ele>
        <time>2013-08-11T16:12:21Z</time>
      </trkpt>
      <trkpt lat="59.35916" lon="17.87113">
        <ele>42.3</ele>
        <time>2013-08-11T16:12:22Z</time>
      </trkpt>
      <trkpt lat="59.359215" lon="17.871043">
        <ele>43.2</ele>
        <time>2013-08-11T16:12:23Z</time>
      </trkpt>
      <trkpt lat="59.35927" lon="17.870941">
        <ele>43.9</ele>
        <time>2013-08-11T16:12:24Z</time>
      </trkpt>
      <trkpt lat="59.359323" lon="17.870837">
        <ele>43.9</ele>
        <time>2013-08-11T16:12:25Z</time>
      </trkpt>
      <trkpt lat="59.35938" lon="17.870741">
        <ele>44.3</ele>
        <time>2013-08-11T16:12:26Z</time>
      </trkpt>
      <trkpt lat="59.359438" lon="17.870629">
        <ele>44.7</ele>
        <time>2013-08-11T16:12:27Z</time>
      </trkpt>
      <trkpt lat="59.359498" lon="17.870531">
        <ele>44.7</ele>
        <time>2013-08-11T16:12:28Z</time>
      </trkpt>
      <trkpt lat="59.359556" lon="17.870431">
        <ele>44.5</ele>
        <time>2013-08-11T16:12:29Z</time>
      </trkpt>
      <trkpt lat="59.35961" lon="17.87033">
        <ele>45.1</ele>
        <time>2013-08-11T16:12:30Z</time>
      </trkpt>
      <trkpt lat="59.359664" lon="17.870228">
        <ele>45.2</ele>
        <time>2013-08-11T16:12:31Z</time>
      </trkpt>
      <trkpt lat="59.359721" lon="17.870129">
        <ele>45.7</ele>
        <time>2013-08-11T16:12:32Z</time>
      </trkpt>
      <trkpt lat="59.359779" lon="17.870036">
        <ele>45.8</ele>
        <time>2013-08-11T16:12:33Z</time>
      </trkpt>
      <trkpt lat="59.359839" lon="17.869944">
        <ele>45.7</ele>
        <time>2013-08-11T16:12:34Z</time>
      </trkpt>
      <trkpt lat="59.3599" lon="17.869848">
        <ele>46.7</ele>
        <time>2013-08-11T16:12:35Z</time>
      </trkpt>
      <trkpt lat="59.359959" lon="17.869746">
        <ele>46.6</ele>
        <time>2013-08-11T16:12:36Z</time>
      </trkpt>
      <trkpt lat="59.360018" lon="17.869641">
        <ele>46.6</ele>
        <time>2013-08-11T16:12:37Z</time>
      </trkpt>
      <trkpt lat="59.36008" lon="17.869536">
        <ele>46.4</ele>
        <time>2013-08-11T16:12:38Z</time>
      </trkpt>
      <trkpt lat="59.360139" lon="17.869431">
        <ele>46.2</ele>
        <time>2013-08-11T16:12:39Z</time>
      </trkpt>
      <trkpt lat="59.360195" lon="17.869329">
        <ele>46.3</ele>
        <time>2013-08-11T16:12:40Z</time>
      </trkpt>
      <trkpt lat="59.360254" lon="17.869216">
        <ele>46.5</ele>
        <time>2013-08-11T16:12:41Z</time>
      </trkpt>
      <trkpt lat="59.360312" lon="17.86911">
        <ele>46.5</ele>
        <time>2013-08-11T16:12:42Z</time>
      </trkpt>
      <trkpt lat="59.360369" lon="17.869004">
        <ele>46.6</ele>
        <time>2013-08-11T16:12:43Z</time>
      </trkpt>
      <trkpt lat="59.360427" lon="17.868897">
        <ele>46.9</ele>
        <time>2013-08-11T16:12:44Z</time>
      </trkpt>
      <trkpt lat="59.360484" lon="17.86879">
        <ele>47.1</ele>
        <time>2013-08-11T16:12:45Z</time>
      </trkpt>
      <trkpt lat="59.360544" lon="17.868681">
        <ele>47.5</ele>
        <time>2013-08-11T16:12:46Z</time>
      </trkpt>
      <trkpt lat="59.360603" lon="17.868575">
        <ele>47.6</ele>
        <time>2013-08-11T16:12:47Z</time>
      </trkpt>
      <trkpt lat="59.360661" lon="17.86847">
        <ele>47.5</ele>
        <time>2013-08-11T16:12:48Z</time>
      </trkpt>
      <trkpt lat="59.360719" lon="17.868366">
        <ele>47.5</ele>
        <time>2013-08-11T16:12:49Z</time>
      </trkpt>
      <trkpt lat="59.360775" lon="17.868248">
        <ele>47.1</ele>
        <time>2013-08-11T16:12:50Z</time>
      </trkpt>
      <trkpt lat="59.36083" lon="17.868137">
        <ele>47.1</ele>
        <time>2013-08-11T16:12:51Z</time>
      </trkpt>
      <trkpt lat="59.360884" lon="17.868023">
        <ele>47.1</ele>
        <time>2013-08-11T16:12:52Z</time>
      </trkpt>
      <trkpt lat="59.360938" lon="17.867912">
        <ele>46.9</ele>
        <time>2013-08-11T16:12:53Z</time>
      </trkpt>
      <trkpt lat="59.360993" lon="17.867804">
        <ele>46.9</ele>
        <time>2013-08-11T16:12:54Z</time>
      </trkpt>
      <trkpt lat="59.36105" lon="17.867689">
        <ele>46.7</ele>
        <time>2013-08-11T16:12:55Z</time>
      </trkpt>
      <trkpt lat="59.361106" lon="17.867577">
        <ele>46.6</ele>
        <time>2013-08-11T16:12:56Z</time>
      </trkpt>
      <trkpt lat="59.361163" lon="17.86746">
        <ele>46.3</ele>
        <time>2013-08-11T16:12:57Z</time>
      </trkpt>
      <trkpt lat="59.361224" lon="17.867361">
        <ele>46.3</ele>
        <time>2013-08-11T16:12:58Z</time>
      </trkpt>
      <trkpt lat="59.361282" lon="17.867278">
        <ele>45.7</ele>
        <time>2013-08-11T16:12:59Z</time>
      </trkpt>
      <trkpt lat="59.361344" lon="17.867187">
        <ele>45.5</ele>
        <time>2013-08-11T16:13:00Z</time>
      </trkpt>
      <trkpt lat="59.361407" lon="17.867094">
        <ele>45.4</ele>
        <time>2013-08-11T16:13:01Z</time>
      </trkpt>
      <trkpt lat="59.361472" lon="17.866999">
        <ele>45.4</ele>
        <time>2013-08-11T16:13:02Z</time>
      </trkpt>
      <trkpt lat="59.361534" lon="17.866877">
        <ele>45.2</ele>
        <time>2013-08-11T16:13:03Z</time>
      </trkpt>
      <trkpt lat="59.361587" lon="17.866762">
        <ele>45.7</ele>
        <time>2013-08-11T16:13:04Z</time>
      </trkpt>
      <trkpt lat="59.36164" lon="17.86664">
        <ele>46.8</ele>
        <time>2013-08-11T16:13:05Z</time>
      </trkpt>
      <trkpt lat="59.361683" lon="17.866501">
        <ele>46.5</ele>
        <time>2013-08-11T16:13:06Z</time>
      </trkpt>
      <trkpt lat="59.361725" lon="17.866365">
        <ele>46.6</ele>
        <time>2013-08-11T16:13:07Z</time>
      </trkpt>
      <trkpt lat="59.361765" lon="17.866224">
        <ele>46.9</ele>
        <time>2013-08-11T16:13:08Z</time>
      </trkpt>
      <trkpt lat="59.361806" lon="17.866085">
        <ele>46.9</ele>
        <time>2013-08-11T16:13:09Z</time>
      </trkpt>
      <trkpt lat="59.361855" lon="17.865955">
        <ele>46.7</ele>
        <time>2013-08-11T16:13:10Z</time>
      </trkpt>
      <trkpt lat="59.361917" lon="17.865819">
        <ele>46.5</ele>
        <time>2013-08-11T16:13:11Z</time>
      </trkpt>
      <trkpt lat="59.361975" lon="17.865696">
        <ele>46.8</ele>
        <time>2013-08-11T16:13:12Z</time>
      </trkpt>
      <trkpt lat="59.362034" lon="17.865568">
        <ele>46.8</ele>
        <time>2013-08-11T16:13:13Z</time>
      </trkpt>
      <trkpt lat="59.362098" lon="17.865431">
        <ele>47.9</ele>
        <time>2013-08-11T16:13:14Z</time>
      </trkpt>
      <trkpt lat="59.362157" lon="17.8653">
        <ele>48</ele>
        <time>2013-08-11T16:13:15Z</time>
      </trkpt>
      <trkpt lat="59.362216" lon="17.86516">
        <ele>48.1</ele>
        <time>2013-08-11T16:13:16Z</time>
      </trkpt>
      <trkpt lat="59.362274" lon="17.865028">
        <ele>48</ele>
        <time>2013-08-11T16:13:17Z</time>
      </trkpt>
      <trkpt lat="59.362339" lon="17.864899">
        <ele>48.4</ele>
        <time>2013-08-11T16:13:18Z</time>
      </trkpt>
      <trkpt lat="59.362401" lon="17.86477">
        <ele>48.3</ele>
        <time>2013-08-11T16:13:19Z</time>
      </trkpt>
      <trkpt lat="59.362467" lon="17.86463">
        <ele>48.2</ele>
        <time>2013-08-11T16:13:20Z</time>
      </trkpt>
      <trkpt lat="59.36253" lon="17.864498">
        <ele>48.2</ele>
        <time>2013-08-11T16:13:21Z</time>
      </trkpt>
      <trkpt lat="59.36259" lon="17.864356">
        <ele>48</ele>
        <time>2013-08-11T16:13:22Z</time>
      </trkpt>
      <trkpt lat="59.362653" lon="17.86422">
        <ele>47.9</ele>
        <time>2013-08-11T16:13:23Z</time>
      </trkpt>
      <trkpt lat="59.362719" lon="17.86408">
        <ele>47.5</ele>
        <time>2013-08-11T16:13:24Z</time>
      </trkpt>
      <trkpt lat="59.362786" lon="17.863945">
        <ele>46.3</ele>
        <time>2013-08-11T16:13:25Z</time>
      </trkpt>
      <trkpt lat="59.362858" lon="17.863806">
        <ele>45.8</ele>
        <time>2013-08-11T16:13:26Z</time>
      </trkpt>
      <trkpt lat="59.362926" lon="17.863666">
        <ele>45.6</ele>
        <time>2013-08-11T16:13:27Z</time>
      </trkpt>
      <trkpt lat="59.363001" lon="17.863527">
        <ele>45.2</ele>
        <time>2013-08-11T16:13:28Z</time>
      </trkpt>
      <trkpt lat="59.363071" lon="17.863389">
        <ele>44.9</ele>
        <time>2013-08-11T16:13:29Z</time>
      </trkpt>
      <trkpt lat="59.363143" lon="17.86325">
        <ele>44.8</ele>
        <time>2013-08-11T16:13:30Z</time>
      </trkpt>
      <trkpt lat="59.363217" lon="17.863124">
        <ele>45.5</ele>
        <time>2013-08-11T16:13:31Z</time>
      </trkpt>
      <trkpt lat="59.363293" lon="17.862991">
        <ele>45.8</ele>
        <time>2013-08-11T16:13:32Z</time>
      </trkpt>
      <trkpt lat="59.363368" lon="17.862864">
        <ele>43.8</ele>
        <time>2013-08-11T16:13:33Z</time>
      </trkpt>
      <trkpt lat="59.363446" lon="17.862734">
        <ele>43.6</ele>
        <time>2013-08-11T16:13:34Z</time>
      </trkpt>
      <trkpt lat="59.363522" lon="17.862603">
        <ele>43.6</ele>
        <time>2013-08-11T16:13:35Z</time>
      </trkpt>
      <trkpt lat="59.363599" lon="17.862473">
        <ele>43.4</ele>
        <time>2013-08-11T16:13:36Z</time>
      </trkpt>
      <trkpt lat="59.363677" lon="17.862345">
        <ele>43.6</ele>
        <time>2013-08-11T16:13:37Z</time>
      </trkpt>
      <trkpt lat="59.363755" lon="17.862221">
        <ele>43.3</ele>
        <time>2013-08-11T16:13:38Z</time>
      </trkpt>
      <trkpt lat="59.36383" lon="17.862099">
        <ele>43.7</ele>
        <time>2013-08-11T16:13:39Z</time>
      </trkpt>
      <trkpt lat="59.363912" lon="17.861975">
        <ele>44</ele>
        <time>2013-08-11T16:13:40Z</time>
      </trkpt>
      <trkpt lat="59.36399" lon="17.861868">
        <ele>44.4</ele>
        <time>2013-08-11T16:13:41Z</time>
      </trkpt>
      <trkpt lat="59.36407" lon="17.861754">
        <ele>44.8</ele>
        <time>2013-08-11T16:13:42Z</time>
      </trkpt>
      <trkpt lat="59.364155" lon="17.861653">
        <ele>44.4</ele>
        <time>2013-08-11T16:13:43Z</time>
      </trkpt>
      <trkpt lat="59.364233" lon="17.861552">
        <ele>44.5</ele>
        <time>2013-08-11T16:13:44Z</time>
      </trkpt>
      <trkpt lat="59.364312" lon="17.861449">
        <ele>44.6</ele>
        <time>2013-08-11T16:13:45Z</time>
      </trkpt>
      <trkpt lat="59.364408" lon="17.86133">
        <ele>44.3</ele>
        <time>2013-08-11T16:13:46Z</time>
      </trkpt>
      <trkpt lat="59.364492" lon="17.861223">
        <ele>44.6</ele>
        <time>2013-08-11T16:13:47Z</time>
      </trkpt>
      <trkpt lat="59.364572" lon="17.861123">
        <ele>44.3</ele>
        <time>2013-08-11T16:13:48Z</time>
      </trkpt>
      <trkpt lat="59.364649" lon="17.861016">
        <ele>44.7</ele>
        <time>2013-08-11T16:13:49Z</time>
      </trkpt>
      <trkpt lat="59.36473" lon="17.860917">
        <ele>44.7</ele>
        <time>2013-08-11T16:13:50Z</time>
      </trkpt>
      <trkpt lat="59.36481" lon="17.860825">
        <ele>45.6</ele>
        <time>2013-08-11T16:13:51Z</time>
      </trkpt>
      <trkpt lat="59.364891" lon="17.860737">
        <ele>45.6</ele>
        <time>2013-08-11T16:13:52Z</time>
      </trkpt>
      <trkpt lat="59.364963" lon="17.860659">
        <ele>46</ele>
        <time>2013-08-11T16:13:53Z</time>
      </trkpt>
      <trkpt lat="59.365036" lon="17.860571">
        <ele>46.1</ele>
        <time>2013-08-11T16:13:54Z</time>
      </trkpt>
      <trkpt lat="59.365106" lon="17.860496">
        <ele>46.6</ele>
        <time>2013-08-11T16:13:55Z</time>
      </trkpt>
      <trkpt lat="59.365173" lon="17.860413">
        <ele>46.2</ele>
        <time>2013-08-11T16:13:56Z</time>
      </trkpt>
      <trkpt lat="59.365236" lon="17.860343">
        <ele>46.1</ele>
        <time>2013-08-11T16:13:57Z</time>
      </trkpt>
      <trkpt lat="59.365303" lon="17.860266">
        <ele>46.2</ele>
        <time>2013-08-11T16:13:58Z</time>
      </trkpt>
      <trkpt lat="59.365358" lon="17.860189">
        <ele>45.8</ele>
        <time>2013-08-11T16:13:59Z</time>
      </trkpt>
      <trkpt lat="59.365419" lon="17.860113">
        <ele>45.9</ele>
        <time>2013-08-11T16:14:00Z</time>
      </trkpt>
      <trkpt lat="59.365468" lon="17.860022">
        <ele>45.8</ele>
        <time>2013-08-11T16:14:01Z</time>
      </trkpt>
      <trkpt lat="59.36551" lon="17.859917">
        <ele>45.4</ele>
        <time>2013-08-11T16:14:02Z</time>
      </trkpt>
      <trkpt lat="59.365549" lon="17.859821">
        <ele>45.1</ele>
        <time>2013-08-11T16:14:03Z</time>
      </trkpt>
      <trkpt lat="59.365595" lon="17.859724">
        <ele>45.1</ele>
        <time>2013-08-11T16:14:04Z</time>
      </trkpt>
      <trkpt lat="59.365631" lon="17.859632">
        <ele>44.4</ele>
        <time>2013-08-11T16:14:05Z</time>
      </trkpt>
      <trkpt lat="59.365674" lon="17.859541">
        <ele>44.3</ele>
        <time>2013-08-11T16:14:06Z</time>
      </trkpt>
      <trkpt lat="59.365714" lon="17.859456">
        <ele>44.4</ele>
        <time>2013-08-11T16:14:07Z</time>
      </trkpt>
      <trkpt lat="59.365757" lon="17.859379">
        <ele>44.4</ele>
        <time>2013-08-11T16:14:08Z</time>
      </trkpt>
      <trkpt lat="59.365786" lon="17.859317">
        <ele>44.4</ele>
        <time>2013-08-11T16:14:09Z</time>
      </trkpt>
      <trkpt lat="59.365807" lon="17.859271">
        <ele>44.6</ele>
        <time>2013-08-11T16:14:10Z</time>
      </trkpt>
      <trkpt lat="59.365847" lon="17.859211">
        <ele>43.9</ele>
        <time>2013-08-11T16:14:11Z</time>
      </trkpt>
      <trkpt lat="59.365885" lon="17.859155">
        <ele>44</ele>
        <time>2013-08-11T16:14:12Z</time>
      </trkpt>
      <trkpt lat="59.365929" lon="17.859115">
        <ele>43.9</ele>
        <time>2013-08-11T16:14:13Z</time>
      </trkpt>
      <trkpt lat="59.36597" lon="17.859068">
        <ele>44</ele>
        <time>2013-08-11T16:14:14Z</time>
      </trkpt>
      <trkpt lat="59.366006" lon="17.859024">
        <ele>44.3</ele>
        <time>2013-08-11T16:14:15Z</time>
      </trkpt>
      <trkpt lat="59.366046" lon="17.858975">
        <ele>44.4</ele>
        <time>2013-08-11T16:14:16Z</time>
      </trkpt>
      <trkpt lat="59.366098" lon="17.858918">
        <ele>44.5</ele>
        <time>2013-08-11T16:14:17Z</time>
      </trkpt>
      <trkpt lat="59.366146" lon="17.858867">
        <ele>44.3</ele>
        <time>2013-08-11T16:14:18Z</time>
      </trkpt>
      <trkpt lat="59.366184" lon="17.858839">
        <ele>43.8</ele>
        <time>2013-08-11T16:14:19Z</time>
      </trkpt>
      <trkpt lat="59.366216" lon="17.858812">
        <ele>43.7</ele>
        <time>2013-08-11T16:14:20Z</time>
      </trkpt>
      <trkpt lat="59.36625" lon="17.858784">
        <ele>43.9</ele>
        <time>2013-08-11T16:14:21Z</time>
      </trkpt>
      <trkpt lat="59.366289" lon="17.858779">
        <ele>44.2</ele>
        <time>2013-08-11T16:14:23Z</time>
      </trkpt>
      <trkpt lat="59.366323" lon="17.858792">
        <ele>44.3</ele>
        <time>2013-08-11T16:14:27Z</time>
      </trkpt>
      <trkpt lat="59.366342" lon="17.858859">
        <ele>44.4</ele>
        <time>2013-08-11T16:14:29Z</time>
      </trkpt>
      <trkpt lat="59.366382" lon="17.858914">
        <ele>44.3</ele>
        <time>2013-08-11T16:14:31Z</time>
      </trkpt>
      <trkpt lat="59.366416" lon="17.858968">
        <ele>44.9</ele>
        <time>2013-08-11T16:14:33Z</time>
      </trkpt>
      <trkpt lat="59.366447" lon="17.859008">
        <ele>45</ele>
        <time>2013-08-11T16:14:35Z</time>
      </trkpt>
      <trkpt lat="59.366478" lon="17.859066">
        <ele>45.8</ele>
        <time>2013-08-11T16:14:37Z</time>
      </trkpt>
      <trkpt lat="59.366527" lon="17.85915">
        <ele>45.5</ele>
        <time>2013-08-11T16:14:39Z</time>
      </trkpt>
      <trkpt lat="59.36655" lon="17.859186">
        <ele>45.5</ele>
        <time>2013-08-11T16:14:40Z</time>
      </trkpt>
      <trkpt lat="59.366578" lon="17.859231">
        <ele>45.2</ele>
        <time>2013-08-11T16:14:41Z</time>
      </trkpt>
      <trkpt lat="59.366608" lon="17.859278">
        <ele>45.2</ele>
        <time>2013-08-11T16:14:42Z</time>
      </trkpt>
      <trkpt lat="59.36665" lon="17.859341">
        <ele>45.2</ele>
        <time>2013-08-11T16:14:43Z</time>
      </trkpt>
      <trkpt lat="59.366691" lon="17.859399">
        <ele>45.1</ele>
        <time>2013-08-11T16:14:44Z</time>
      </trkpt>
      <trkpt lat="59.366724" lon="17.85945">
        <ele>45.1</ele>
        <time>2013-08-11T16:14:45Z</time>
      </trkpt>
      <trkpt lat="59.366743" lon="17.859537">
        <ele>44.8</ele>
        <time>2013-08-11T16:14:46Z</time>
      </trkpt>
      <trkpt lat="59.366765" lon="17.859607">
        <ele>44.6</ele>
        <time>2013-08-11T16:14:47Z</time>
      </trkpt>
      <trkpt lat="59.366742" lon="17.859695">
        <ele>44.8</ele>
        <time>2013-08-11T16:14:48Z</time>
      </trkpt>
      <trkpt lat="59.366741" lon="17.859771">
        <ele>44.9</ele>
        <time>2013-08-11T16:14:49Z</time>
      </trkpt>
      <trkpt lat="59.366729" lon="17.859822">
        <ele>45.6</ele>
        <time>2013-08-11T16:14:52Z</time>
      </trkpt>
      <trkpt lat="59.366722" lon="17.859902">
        <ele>47.1</ele>
        <time>2013-08-11T16:14:53Z</time>
      </trkpt>
      <trkpt lat="59.366719" lon="17.859959">
        <ele>47.3</ele>
        <time>2013-08-11T16:14:54Z</time>
      </trkpt>
      <trkpt lat="59.366709" lon="17.860089">
        <ele>46.2</ele>
        <time>2013-08-11T16:14:55Z</time>
      </trkpt>
      <trkpt lat="59.366702" lon="17.860228">
        <ele>46</ele>
        <time>2013-08-11T16:14:56Z</time>
      </trkpt>
      <trkpt lat="59.366695" lon="17.860322">
        <ele>45.9</ele>
        <time>2013-08-11T16:14:57Z</time>
      </trkpt>
      <trkpt lat="59.36669" lon="17.860417">
        <ele>45.8</ele>
        <time>2013-08-11T16:14:58Z</time>
      </trkpt>
      <trkpt lat="59.366686" lon="17.860514">
        <ele>45.2</ele>
        <time>2013-08-11T16:14:59Z</time>
      </trkpt>
      <trkpt lat="59.366714" lon="17.860621">
        <ele>46.3</ele>
        <time>2013-08-11T16:15:00Z</time>
      </trkpt>
      <trkpt lat="59.366742" lon="17.860717">
        <ele>45.8</ele>
        <time>2013-08-11T16:15:01Z</time>
      </trkpt>
      <trkpt lat="59.366782" lon="17.860803">
        <ele>45.8</ele>
        <time>2013-08-11T16:15:02Z</time>
      </trkpt>
      <trkpt lat="59.366822" lon="17.860893">
        <ele>45.9</ele>
        <time>2013-08-11T16:15:03Z</time>
      </trkpt>
      <trkpt lat="59.366877" lon="17.860951">
        <ele>46.3</ele>
        <time>2013-08-11T16:15:04Z</time>
      </trkpt>
      <trkpt lat="59.366945" lon="17.860973">
        <ele>46.2</ele>
        <time>2013-08-11T16:15:05Z</time>
      </trkpt>
      <trkpt lat="59.367018" lon="17.860995">
        <ele>45.6</ele>
        <time>2013-08-11T16:15:06Z</time>
      </trkpt>
      <trkpt lat="59.367093" lon="17.861029">
        <ele>47.2</ele>
        <time>2013-08-11T16:15:07Z</time>
      </trkpt>
      <trkpt lat="59.367161" lon="17.861076">
        <ele>47.4</ele>
        <time>2013-08-11T16:15:08Z</time>
      </trkpt>
      <trkpt lat="59.367223" lon="17.86116">
        <ele>47.9</ele>
        <time>2013-08-11T16:15:09Z</time>
      </trkpt>
      <trkpt lat="59.367287" lon="17.861231">
        <ele>48.6</ele>
        <time>2013-08-11T16:15:10Z</time>
      </trkpt>
      <trkpt lat="59.367353" lon="17.861305">
        <ele>48.7</ele>
        <time>2013-08-11T16:15:11Z</time>
      </trkpt>
      <trkpt lat="59.36742" lon="17.861373">
        <ele>48.5</ele>
        <time>2013-08-11T16:15:12Z</time>
      </trkpt>
      <trkpt lat="59.367494" lon="17.861422">
        <ele>48.6</ele>
        <time>2013-08-11T16:15:13Z</time>
      </trkpt>
      <trkpt lat="59.367565" lon="17.861448">
        <ele>48.1</ele>
        <time>2013-08-11T16:15:14Z</time>
      </trkpt>
      <trkpt lat="59.367638" lon="17.861482">
        <ele>48.4</ele>
        <time>2013-08-11T16:15:15Z</time>
      </trkpt>
      <trkpt lat="59.36772" lon="17.861509">
        <ele>48.8</ele>
        <time>2013-08-11T16:15:16Z</time>
      </trkpt>
      <trkpt lat="59.367799" lon="17.861543">
        <ele>49.1</ele>
        <time>2013-08-11T16:15:17Z</time>
      </trkpt>
      <trkpt lat="59.367874" lon="17.861565">
        <ele>49.5</ele>
        <time>2013-08-11T16:15:18Z</time>
      </trkpt>
      <trkpt lat="59.367954" lon="17.861578">
        <ele>49.3</ele>
        <time>2013-08-11T16:15:19Z</time>
      </trkpt>
      <trkpt lat="59.368037" lon="17.861588">
        <ele>48</ele>
        <time>2013-08-11T16:15:20Z</time>
      </trkpt>
      <trkpt lat="59.368126" lon="17.861611">
        <ele>48.3</ele>
        <time>2013-08-11T16:15:21Z</time>
      </trkpt>
      <trkpt lat="59.368217" lon="17.861618">
        <ele>48.1</ele>
        <time>2013-08-11T16:15:22Z</time>
      </trkpt>
      <trkpt lat="59.368309" lon="17.861623">
        <ele>48.1</ele>
        <time>2013-08-11T16:15:23Z</time>
      </trkpt>
      <trkpt lat="59.368401" lon="17.861628">
        <ele>48.2</ele>
        <time>2013-08-11T16:15:24Z</time>
      </trkpt>
      <trkpt lat="59.368493" lon="17.86164">
        <ele>48.5</ele>
        <time>2013-08-11T16:15:25Z</time>
      </trkpt>
      <trkpt lat="59.368582" lon="17.86165">
        <ele>48.7</ele>
        <time>2013-08-11T16:15:26Z</time>
      </trkpt>
      <trkpt lat="59.36867" lon="17.861669">
        <ele>47.6</ele>
        <time>2013-08-11T16:15:27Z</time>
      </trkpt>
      <trkpt lat="59.368757" lon="17.861697">
        <ele>47</ele>
        <time>2013-08-11T16:15:28Z</time>
      </trkpt>
      <trkpt lat="59.368844" lon="17.861696">
        <ele>47.1</ele>
        <time>2013-08-11T16:15:29Z</time>
      </trkpt>
      <trkpt lat="59.368944" lon="17.861716">
        <ele>47.6</ele>
        <time>2013-08-11T16:15:30Z</time>
      </trkpt>
      <trkpt lat="59.369039" lon="17.861721">
        <ele>46.6</ele>
        <time>2013-08-11T16:15:31Z</time>
      </trkpt>
      <trkpt lat="59.369138" lon="17.861714">
        <ele>46</ele>
        <time>2013-08-11T16:15:32Z</time>
      </trkpt>
      <trkpt lat="59.369234" lon="17.861696">
        <ele>45.5</ele>
        <time>2013-08-11T16:15:33Z</time>
      </trkpt>
      <trkpt lat="59.369327" lon="17.86167">
        <ele>45.5</ele>
        <time>2013-08-11T16:15:34Z</time>
      </trkpt>
      <trkpt lat="59.369423" lon="17.861646">
        <ele>45.4</ele>
        <time>2013-08-11T16:15:35Z</time>
      </trkpt>
      <trkpt lat="59.369516" lon="17.861616">
        <ele>45.4</ele>
        <time>2013-08-11T16:15:36Z</time>
      </trkpt>
      <trkpt lat="59.369612" lon="17.861595">
        <ele>44.8</ele>
        <time>2013-08-11T16:15:37Z</time>
      </trkpt>
      <trkpt lat="59.369704" lon="17.861618">
        <ele>45.3</ele>
        <time>2013-08-11T16:15:38Z</time>
      </trkpt>
      <trkpt lat="59.369796" lon="17.861669">
        <ele>44.9</ele>
        <time>2013-08-11T16:15:39Z</time>
      </trkpt>
      <trkpt lat="59.369888" lon="17.861716">
        <ele>45</ele>
        <time>2013-08-11T16:15:40Z</time>
      </trkpt>
      <trkpt lat="59.369975" lon="17.861768">
        <ele>44.8</ele>
        <time>2013-08-11T16:15:41Z</time>
      </trkpt>
      <trkpt lat="59.370065" lon="17.861815">
        <ele>44.8</ele>
        <time>2013-08-11T16:15:42Z</time>
      </trkpt>
      <trkpt lat="59.370162" lon="17.861861">
        <ele>44.8</ele>
        <time>2013-08-11T16:15:43Z</time>
      </trkpt>
      <trkpt lat="59.370253" lon="17.861908">
        <ele>44.8</ele>
        <time>2013-08-11T16:15:44Z</time>
      </trkpt>
      <trkpt lat="59.370343" lon="17.861959">
        <ele>44.8</ele>
        <time>2013-08-11T16:15:45Z</time>
      </trkpt>
      <trkpt lat="59.370433" lon="17.862009">
        <ele>44.8</ele>
        <time>2013-08-11T16:15:46Z</time>
      </trkpt>
      <trkpt lat="59.370523" lon="17.86205">
        <ele>45.1</ele>
        <time>2013-08-11T16:15:47Z</time>
      </trkpt>
      <trkpt lat="59.370615" lon="17.862098">
        <ele>45</ele>
        <time>2013-08-11T16:15:48Z</time>
      </trkpt>
      <trkpt lat="59.370706" lon="17.862138">
        <ele>45.2</ele>
        <time>2013-08-11T16:15:49Z</time>
      </trkpt>
      <trkpt lat="59.370796" lon="17.862185">
        <ele>45.6</ele>
        <time>2013-08-11T16:15:50Z</time>
      </trkpt>
      <trkpt lat="59.370883" lon="17.862244">
        <ele>44.7</ele>
        <time>2013-08-11T16:15:51Z</time>
      </trkpt>
      <trkpt lat="59.370973" lon="17.862274">
        <ele>44.2</ele>
        <time>2013-08-11T16:15:52Z</time>
      </trkpt>
      <trkpt lat="59.371056" lon="17.862312">
        <ele>43.9</ele>
        <time>2013-08-11T16:15:53Z</time>
      </trkpt>
      <trkpt lat="59.371136" lon="17.862339">
        <ele>44.9</ele>
        <time>2013-08-11T16:15:54Z</time>
      </trkpt>
      <trkpt lat="59.37121" lon="17.86237">
        <ele>45.5</ele>
        <time>2013-08-11T16:15:55Z</time>
      </trkpt>
      <trkpt lat="59.371283" lon="17.862403">
        <ele>46.2</ele>
        <time>2013-08-11T16:15:56Z</time>
      </trkpt>
      <trkpt lat="59.371351" lon="17.862432">
        <ele>46.6</ele>
        <time>2013-08-11T16:15:57Z</time>
      </trkpt>
      <trkpt lat="59.371421" lon="17.862455">
        <ele>46.8</ele>
        <time>2013-08-11T16:15:58Z</time>
      </trkpt>
      <trkpt lat="59.371484" lon="17.862471">
        <ele>46.6</ele>
        <time>2013-08-11T16:15:59Z</time>
      </trkpt>
      <trkpt lat="59.371548" lon="17.862489">
        <ele>46.7</ele>
        <time>2013-08-11T16:16:00Z</time>
      </trkpt>
      <trkpt lat="59.371594" lon="17.862465">
        <ele>47.6</ele>
        <time>2013-08-11T16:16:01Z</time>
      </trkpt>
      <trkpt lat="59.37165" lon="17.862456">
        <ele>48</ele>
        <time>2013-08-11T16:16:02Z</time>
      </trkpt>
      <trkpt lat="59.371677" lon="17.862474">
        <ele>47.4</ele>
        <time>2013-08-11T16:16:04Z</time>
      </trkpt>
      <trkpt lat="59.371713" lon="17.862478">
        <ele>46.9</ele>
        <time>2013-08-11T16:16:21Z</time>
      </trkpt>
      <trkpt lat="59.371743" lon="17.862502">
        <ele>46.7</ele>
        <time>2013-08-11T16:16:23Z</time>
      </trkpt>
      <trkpt lat="59.371779" lon="17.862518">
        <ele>47.5</ele>
        <time>2013-08-11T16:16:24Z</time>
      </trkpt>
      <trkpt lat="59.371808" lon="17.862528">
        <ele>47.6</ele>
        <time>2013-08-11T16:16:25Z</time>
      </trkpt>
      <trkpt lat="59.371841" lon="17.862549">
        <ele>48.2</ele>
        <time>2013-08-11T16:16:26Z</time>
      </trkpt>
      <trkpt lat="59.371872" lon="17.862589">
        <ele>48.2</ele>
        <time>2013-08-11T16:16:27Z</time>
      </trkpt>
      <trkpt lat="59.3719" lon="17.86262">
        <ele>48.1</ele>
        <time>2013-08-11T16:16:28Z</time>
      </trkpt>
      <trkpt lat="59.371884" lon="17.862729">
        <ele>47.8</ele>
        <time>2013-08-11T16:16:29Z</time>
      </trkpt>
      <trkpt lat="59.371868" lon="17.862832">
        <ele>47.5</ele>
        <time>2013-08-11T16:16:30Z</time>
      </trkpt>
      <trkpt lat="59.371859" lon="17.862923">
        <ele>47.2</ele>
        <time>2013-08-11T16:16:31Z</time>
      </trkpt>
      <trkpt lat="59.371831" lon="17.863076">
        <ele>46.8</ele>
        <time>2013-08-11T16:16:32Z</time>
      </trkpt>
      <trkpt lat="59.37189" lon="17.863153">
        <ele>47.5</ele>
        <time>2013-08-11T16:16:33Z</time>
      </trkpt>
      <trkpt lat="59.371922" lon="17.863236">
        <ele>47.5</ele>
        <time>2013-08-11T16:16:34Z</time>
      </trkpt>
      <trkpt lat="59.372" lon="17.863239">
        <ele>47.5</ele>
        <time>2013-08-11T16:16:35Z</time>
      </trkpt>
      <trkpt lat="59.372056" lon="17.863272">
        <ele>47.7</ele>
        <time>2013-08-11T16:16:36Z</time>
      </trkpt>
      <trkpt lat="59.372127" lon="17.863275">
        <ele>47.8</ele>
        <time>2013-08-11T16:16:37Z</time>
      </trkpt>
      <trkpt lat="59.372193" lon="17.863299">
        <ele>48.2</ele>
        <time>2013-08-11T16:16:38Z</time>
      </trkpt>
      <trkpt lat="59.372257" lon="17.863322">
        <ele>48.7</ele>
        <time>2013-08-11T16:16:39Z</time>
      </trkpt>
      <trkpt lat="59.37232" lon="17.863349">
        <ele>49</ele>
        <time>2013-08-11T16:16:40Z</time>
      </trkpt>
      <trkpt lat="59.37238" lon="17.863368">
        <ele>49.1</ele>
        <time>2013-08-11T16:16:41Z</time>
      </trkpt>
      <trkpt lat="59.372436" lon="17.86339">
        <ele>49.8</ele>
        <time>2013-08-11T16:16:42Z</time>
      </trkpt>
      <trkpt lat="59.372494" lon="17.863398">
        <ele>50.2</ele>
        <time>2013-08-11T16:16:43Z</time>
      </trkpt>
      <trkpt lat="59.372551" lon="17.863413">
        <ele>50.7</ele>
        <time>2013-08-11T16:16:44Z</time>
      </trkpt>
      <trkpt lat="59.372601" lon="17.863441">
        <ele>50.4</ele>
        <time>2013-08-11T16:16:45Z</time>
      </trkpt>
      <trkpt lat="59.372656" lon="17.863464">
        <ele>50.8</ele>
        <time>2013-08-11T16:16:46Z</time>
      </trkpt>
      <trkpt lat="59.372719" lon="17.86351">
        <ele>50.5</ele>
        <time>2013-08-11T16:16:47Z</time>
      </trkpt>
      <trkpt lat="59.372775" lon="17.863543">
        <ele>51.2</ele>
        <time>2013-08-11T16:16:48Z</time>
      </trkpt>
      <trkpt lat="59.372834" lon="17.863587">
        <ele>51.7</ele>
        <time>2013-08-11T16:16:49Z</time>
      </trkpt>
      <trkpt lat="59.372891" lon="17.863642">
        <ele>52.1</ele>
        <time>2013-08-11T16:16:50Z</time>
      </trkpt>
      <trkpt lat="59.372949" lon="17.863698">
        <ele>52.6</ele>
        <time>2013-08-11T16:16:51Z</time>
      </trkpt>
      <trkpt lat="59.373003" lon="17.86375">
        <ele>52.9</ele>
        <time>2013-08-11T16:16:52Z</time>
      </trkpt>
      <trkpt lat="59.373057" lon="17.863803">
        <ele>53.4</ele>
        <time>2013-08-11T16:16:53Z</time>
      </trkpt>
      <trkpt lat="59.373106" lon="17.863861">
        <ele>53.5</ele>
        <time>2013-08-11T16:16:54Z</time>
      </trkpt>
      <trkpt lat="59.373159" lon="17.863916">
        <ele>53.6</ele>
        <time>2013-08-11T16:16:55Z</time>
      </trkpt>
      <trkpt lat="59.373219" lon="17.86395">
        <ele>53</ele>
        <time>2013-08-11T16:16:56Z</time>
      </trkpt>
      <trkpt lat="59.373272" lon="17.864001">
        <ele>53.1</ele>
        <time>2013-08-11T16:16:57Z</time>
      </trkpt>
      <trkpt lat="59.373326" lon="17.864041">
        <ele>54.1</ele>
        <time>2013-08-11T16:16:58Z</time>
      </trkpt>
      <trkpt lat="59.373386" lon="17.864089">
        <ele>53.8</ele>
        <time>2013-08-11T16:16:59Z</time>
      </trkpt>
      <trkpt lat="59.373444" lon="17.864138">
        <ele>53.6</ele>
        <time>2013-08-11T16:17:00Z</time>
      </trkpt>
      <trkpt lat="59.373521" lon="17.864193">
        <ele>52.6</ele>
        <time>2013-08-11T16:17:01Z</time>
      </trkpt>
      <trkpt lat="59.373588" lon="17.864245">
        <ele>52.3</ele>
        <time>2013-08-11T16:17:02Z</time>
      </trkpt>
      <trkpt lat="59.373662" lon="17.864297">
        <ele>51.8</ele>
        <time>2013-08-11T16:17:03Z</time>
      </trkpt>
      <trkpt lat="59.373745" lon="17.864355">
        <ele>51.2</ele>
        <time>2013-08-11T16:17:04Z</time>
      </trkpt>
      <trkpt lat="59.37382" lon="17.864414">
        <ele>51.1</ele>
        <time>2013-08-11T16:17:05Z</time>
      </trkpt>
      <trkpt lat="59.373903" lon="17.864482">
        <ele>51.6</ele>
        <time>2013-08-11T16:17:06Z</time>
      </trkpt>
      <trkpt lat="59.373983" lon="17.864548">
        <ele>51.5</ele>
        <time>2013-08-11T16:17:07Z</time>
      </trkpt>
      <trkpt lat="59.374079" lon="17.864612">
        <ele>51.1</ele>
        <time>2013-08-11T16:17:08Z</time>
      </trkpt>
      <trkpt lat="59.374166" lon="17.864677">
        <ele>50.9</ele>
        <time>2013-08-11T16:17:09Z</time>
      </trkpt>
      <trkpt lat="59.374258" lon="17.864732">
        <ele>50.9</ele>
        <time>2013-08-11T16:17:10Z</time>
      </trkpt>
      <trkpt lat="59.374342" lon="17.864812">
        <ele>51.5</ele>
        <time>2013-08-11T16:17:11Z</time>
      </trkpt>
      <trkpt lat="59.374423" lon="17.864911">
        <ele>51.3</ele>
        <time>2013-08-11T16:17:12Z</time>
      </trkpt>
      <trkpt lat="59.374497" lon="17.865062">
        <ele>52.6</ele>
        <time>2013-08-11T16:17:13Z</time>
      </trkpt>
      <trkpt lat="59.374576" lon="17.865175">
        <ele>52.6</ele>
        <time>2013-08-11T16:17:14Z</time>
      </trkpt>
      <trkpt lat="59.374656" lon="17.865285">
        <ele>53.8</ele>
        <time>2013-08-11T16:17:15Z</time>
      </trkpt>
      <trkpt lat="59.37474" lon="17.865385">
        <ele>53.4</ele>
        <time>2013-08-11T16:17:16Z</time>
      </trkpt>
      <trkpt lat="59.37482" lon="17.86546">
        <ele>53.2</ele>
        <time>2013-08-11T16:17:17Z</time>
      </trkpt>
      <trkpt lat="59.374907" lon="17.865509">
        <ele>53.5</ele>
        <time>2013-08-11T16:17:18Z</time>
      </trkpt>
      <trkpt lat="59.374996" lon="17.865503">
        <ele>53</ele>
        <time>2013-08-11T16:17:19Z</time>
      </trkpt>
      <trkpt lat="59.375082" lon="17.865502">
        <ele>53.3</ele>
        <time>2013-08-11T16:17:20Z</time>
      </trkpt>
      <trkpt lat="59.375159" lon="17.865502">
        <ele>52.5</ele>
        <time>2013-08-11T16:17:21Z</time>
      </trkpt>
      <trkpt lat="59.375225" lon="17.865558">
        <ele>53.5</ele>
        <time>2013-08-11T16:17:22Z</time>
      </trkpt>
      <trkpt lat="59.375298" lon="17.865608">
        <ele>53.7</ele>
        <time>2013-08-11T16:17:23Z</time>
      </trkpt>
      <trkpt lat="59.375357" lon="17.86575">
        <ele>54.7</ele>
        <time>2013-08-11T16:17:24Z</time>
      </trkpt>
      <trkpt lat="59.375426" lon="17.865821">
        <ele>54.5</ele>
        <time>2013-08-11T16:17:25Z</time>
      </trkpt>
      <trkpt lat="59.375499" lon="17.865886">
        <ele>54.6</ele>
        <time>2013-08-11T16:17:26Z</time>
      </trkpt>
      <trkpt lat="59.375556" lon="17.865944">
        <ele>56.7</ele>
        <time>2013-08-11T16:17:27Z</time>
      </trkpt>
      <trkpt lat="59.37562" lon="17.86602">
        <ele>57.3</ele>
        <time>2013-08-11T16:17:28Z</time>
      </trkpt>
      <trkpt lat="59.375693" lon="17.866111">
        <ele>57.7</ele>
        <time>2013-08-11T16:17:29Z</time>
      </trkpt>
      <trkpt lat="59.375757" lon="17.866189">
        <ele>58.1</ele>
        <time>2013-08-11T16:17:30Z</time>
      </trkpt>
      <trkpt lat="59.375827" lon="17.866239">
        <ele>57.9</ele>
        <time>2013-08-11T16:17:31Z</time>
      </trkpt>
      <trkpt lat="59.375893" lon="17.866293">
        <ele>58.1</ele>
        <time>2013-08-11T16:17:32Z</time>
      </trkpt>
      <trkpt lat="59.375965" lon="17.866273">
        <ele>57.7</ele>
        <time>2013-08-11T16:17:33Z</time>
      </trkpt>
      <trkpt lat="59.376037" lon="17.866288">
        <ele>57.5</ele>
        <time>2013-08-11T16:17:34Z</time>
      </trkpt>
      <trkpt lat="59.376119" lon="17.866298">
        <ele>56.7</ele>
        <time>2013-08-11T16:17:35Z</time>
      </trkpt>
      <trkpt lat="59.37621" lon="17.866325">
        <ele>55.9</ele>
        <time>2013-08-11T16:17:36Z</time>
      </trkpt>
      <trkpt lat="59.376299" lon="17.866344">
        <ele>55.1</ele>
        <time>2013-08-11T16:17:37Z</time>
      </trkpt>
      <trkpt lat="59.376402" lon="17.86639">
        <ele>54.8</ele>
        <time>2013-08-11T16:17:38Z</time>
      </trkpt>
      <trkpt lat="59.376506" lon="17.866453">
        <ele>53</ele>
        <time>2013-08-11T16:17:39Z</time>
      </trkpt>
      <trkpt lat="59.376608" lon="17.866493">
        <ele>52.5</ele>
        <time>2013-08-11T16:17:40Z</time>
      </trkpt>
      <trkpt lat="59.376712" lon="17.866535">
        <ele>52.1</ele>
        <time>2013-08-11T16:17:41Z</time>
      </trkpt>
      <trkpt lat="59.376813" lon="17.866578">
        <ele>51.2</ele>
        <time>2013-08-11T16:17:42Z</time>
      </trkpt>
      <trkpt lat="59.376915" lon="17.866611">
        <ele>51.9</ele>
        <time>2013-08-11T16:17:43Z</time>
      </trkpt>
      <trkpt lat="59.377017" lon="17.866649">
        <ele>52.3</ele>
        <time>2013-08-11T16:17:44Z</time>
      </trkpt>
      <trkpt lat="59.377113" lon="17.866656">
        <ele>51.6</ele>
        <time>2013-08-11T16:17:45Z</time>
      </trkpt>
      <trkpt lat="59.377212" lon="17.866673">
        <ele>51.7</ele>
        <time>2013-08-11T16:17:46Z</time>
      </trkpt>
      <trkpt lat="59.377315" lon="17.866675">
        <ele>51.7</ele>
        <time>2013-08-11T16:17:47Z</time>
      </trkpt>
      <trkpt lat="59.377415" lon="17.866683">
        <ele>52</ele>
        <time>2013-08-11T16:17:48Z</time>
      </trkpt>
      <trkpt lat="59.377513" lon="17.866708">
        <ele>51.1</ele>
        <time>2013-08-11T16:17:49Z</time>
      </trkpt>
      <trkpt lat="59.377613" lon="17.866725">
        <ele>51.3</ele>
        <time>2013-08-11T16:17:50Z</time>
      </trkpt>
      <trkpt lat="59.377693" lon="17.866735">
        <ele>49.8</ele>
        <time>2013-08-11T16:17:51Z</time>
      </trkpt>
      <trkpt lat="59.377783" lon="17.866755">
        <ele>49.6</ele>
        <time>2013-08-11T16:17:52Z</time>
      </trkpt>
      <trkpt lat="59.377864" lon="17.866774">
        <ele>49.3</ele>
        <time>2013-08-11T16:17:53Z</time>
      </trkpt>
      <trkpt lat="59.377957" lon="17.8668">
        <ele>49.2</ele>
        <time>2013-08-11T16:17:54Z</time>
      </trkpt>
      <trkpt lat="59.378045" lon="17.866823">
        <ele>49.1</ele>
        <time>2013-08-11T16:17:55Z</time>
      </trkpt>
      <trkpt lat="59.37814" lon="17.866875">
        <ele>49.2</ele>
        <time>2013-08-11T16:17:56Z</time>
      </trkpt>
      <trkpt lat="59.378222" lon="17.866917">
        <ele>51</ele>
        <time>2013-08-11T16:17:57Z</time>
      </trkpt>
      <trkpt lat="59.378307" lon="17.866953">
        <ele>51.4</ele>
        <time>2013-08-11T16:17:58Z</time>
      </trkpt>
      <trkpt lat="59.378395" lon="17.866926">
        <ele>50.2</ele>
        <time>2013-08-11T16:17:59Z</time>
      </trkpt>
      <trkpt lat="59.378482" lon="17.866916">
        <ele>49.9</ele>
        <time>2013-08-11T16:18:00Z</time>
      </trkpt>
      <trkpt lat="59.378578" lon="17.866837">
        <ele>50.5</ele>
        <time>2013-08-11T16:18:01Z</time>
      </trkpt>
      <trkpt lat="59.378667" lon="17.866793">
        <ele>50.5</ele>
        <time>2013-08-11T16:18:02Z</time>
      </trkpt>
      <trkpt lat="59.378766" lon="17.866833">
        <ele>50.1</ele>
        <time>2013-08-11T16:18:03Z</time>
      </trkpt>
      <trkpt lat="59.37886" lon="17.866839">
        <ele>49.9</ele>
        <time>2013-08-11T16:18:04Z</time>
      </trkpt>
      <trkpt lat="59.378949" lon="17.866881">
        <ele>50.6</ele>
        <time>2013-08-11T16:18:05Z</time>
      </trkpt>
      <trkpt lat="59.37904" lon="17.866905">
        <ele>50.8</ele>
        <time>2013-08-11T16:18:06Z</time>
      </trkpt>
      <trkpt lat="59.379137" lon="17.866923">
        <ele>51.2</ele>
        <time>2013-08-11T16:18:07Z</time>
      </trkpt>
      <trkpt lat="59.379234" lon="17.866935">
        <ele>51</ele>
        <time>2013-08-11T16:18:08Z</time>
      </trkpt>
      <trkpt lat="59.379332" lon="17.866954">
        <ele>50.9</ele>
        <time>2013-08-11T16:18:09Z</time>
      </trkpt>
      <trkpt lat="59.379422" lon="17.866981">
        <ele>50.5</ele>
        <time>2013-08-11T16:18:10Z</time>
      </trkpt>
      <trkpt lat="59.379516" lon="17.867003">
        <ele>50.1</ele>
        <time>2013-08-11T16:18:11Z</time>
      </trkpt>
      <trkpt lat="59.379616" lon="17.867014">
        <ele>50</ele>
        <time>2013-08-11T16:18:12Z</time>
      </trkpt>
      <trkpt lat="59.379717" lon="17.867027">
        <ele>50.3</ele>
        <time>2013-08-11T16:18:13Z</time>
      </trkpt>
      <trkpt lat="59.379814" lon="17.867038">
        <ele>50.7</ele>
        <time>2013-08-11T16:18:14Z</time>
      </trkpt>
      <trkpt lat="59.379904" lon="17.867045">
        <ele>50.7</ele>
        <time>2013-08-11T16:18:15Z</time>
      </trkpt>
      <trkpt lat="59.379995" lon="17.867059">
        <ele>51.6</ele>
        <time>2013-08-11T16:18:16Z</time>
      </trkpt>
      <trkpt lat="59.380079" lon="17.867059">
        <ele>51.6</ele>
        <time>2013-08-11T16:18:17Z</time>
      </trkpt>
      <trkpt lat="59.380166" lon="17.867064">
        <ele>51.8</ele>
        <time>2013-08-11T16:18:18Z</time>
      </trkpt>
      <trkpt lat="59.380254" lon="17.867074">
        <ele>51.6</ele>
        <time>2013-08-11T16:18:19Z</time>
      </trkpt>
      <trkpt lat="59.380342" lon="17.867084">
        <ele>51.8</ele>
        <time>2013-08-11T16:18:20Z</time>
      </trkpt>
      <trkpt lat="59.380432" lon="17.867103">
        <ele>51.7</ele>
        <time>2013-08-11T16:18:21Z</time>
      </trkpt>
      <trkpt lat="59.380516" lon="17.867105">
        <ele>51.6</ele>
        <time>2013-08-11T16:18:22Z</time>
      </trkpt>
      <trkpt lat="59.380615" lon="17.86712">
        <ele>50.5</ele>
        <time>2013-08-11T16:18:23Z</time>
      </trkpt>
      <trkpt lat="59.380709" lon="17.867135">
        <ele>50.2</ele>
        <time>2013-08-11T16:18:24Z</time>
      </trkpt>
      <trkpt lat="59.380807" lon="17.867139">
        <ele>50.4</ele>
        <time>2013-08-11T16:18:25Z</time>
      </trkpt>
      <trkpt lat="59.380904" lon="17.86715">
        <ele>49.9</ele>
        <time>2013-08-11T16:18:26Z</time>
      </trkpt>
      <trkpt lat="59.381001" lon="17.867162">
        <ele>49.7</ele>
        <time>2013-08-11T16:18:27Z</time>
      </trkpt>
      <trkpt lat="59.381102" lon="17.867183">
        <ele>49.7</ele>
        <time>2013-08-11T16:18:28Z</time>
      </trkpt>
      <trkpt lat="59.381194" lon="17.867211">
        <ele>49.6</ele>
        <time>2013-08-11T16:18:29Z</time>
      </trkpt>
      <trkpt lat="59.381289" lon="17.867225">
        <ele>49.3</ele>
        <time>2013-08-11T16:18:30Z</time>
      </trkpt>
      <trkpt lat="59.381383" lon="17.867242">
        <ele>50.1</ele>
        <time>2013-08-11T16:18:31Z</time>
      </trkpt>
      <trkpt lat="59.381478" lon="17.867254">
        <ele>50.1</ele>
        <time>2013-08-11T16:18:32Z</time>
      </trkpt>
      <trkpt lat="59.381571" lon="17.86728">
        <ele>50.7</ele>
        <time>2013-08-11T16:18:33Z</time>
      </trkpt>
      <trkpt lat="59.381664" lon="17.867304">
        <ele>50.9</ele>
        <time>2013-08-11T16:18:34Z</time>
      </trkpt>
      <trkpt lat="59.381759" lon="17.867324">
        <ele>50.9</ele>
        <time>2013-08-11T16:18:35Z</time>
      </trkpt>
      <trkpt lat="59.381848" lon="17.867361">
        <ele>50.8</ele>
        <time>2013-08-11T16:18:36Z</time>
      </trkpt>
      <trkpt lat="59.381937" lon="17.867392">
        <ele>50.8</ele>
        <time>2013-08-11T16:18:37Z</time>
      </trkpt>
      <trkpt lat="59.382025" lon="17.867409">
        <ele>51.1</ele>
        <time>2013-08-11T16:18:38Z</time>
      </trkpt>
      <trkpt lat="59.382114" lon="17.867422">
        <ele>51.2</ele>
        <time>2013-08-11T16:18:39Z</time>
      </trkpt>
      <trkpt lat="59.382202" lon="17.867435">
        <ele>51.2</ele>
        <time>2013-08-11T16:18:40Z</time>
      </trkpt>
      <trkpt lat="59.382273" lon="17.867419">
        <ele>51.9</ele>
        <time>2013-08-11T16:18:41Z</time>
      </trkpt>
      <trkpt lat="59.382353" lon="17.867418">
        <ele>52.2</ele>
        <time>2013-08-11T16:18:42Z</time>
      </trkpt>
      <trkpt lat="59.382425" lon="17.867424">
        <ele>52.3</ele>
        <time>2013-08-11T16:18:43Z</time>
      </trkpt>
      <trkpt lat="59.382501" lon="17.867423">
        <ele>52.3</ele>
        <time>2013-08-11T16:18:44Z</time>
      </trkpt>
      <trkpt lat="59.382572" lon="17.867449">
        <ele>52.4</ele>
        <time>2013-08-11T16:18:45Z</time>
      </trkpt>
      <trkpt lat="59.382658" lon="17.867468">
        <ele>51.8</ele>
        <time>2013-08-11T16:18:46Z</time>
      </trkpt>
      <trkpt lat="59.38274" lon="17.867484">
        <ele>51.4</ele>
        <time>2013-08-11T16:18:47Z</time>
      </trkpt>
      <trkpt lat="59.382827" lon="17.867498">
        <ele>50.9</ele>
        <time>2013-08-11T16:18:48Z</time>
      </trkpt>
      <trkpt lat="59.382913" lon="17.867504">
        <ele>50.8</ele>
        <time>2013-08-11T16:18:49Z</time>
      </trkpt>
      <trkpt lat="59.382968" lon="17.867492">
        <ele>50.4</ele>
        <time>2013-08-11T16:18:50Z</time>
      </trkpt>
      <trkpt lat="59.38302" lon="17.867481">
        <ele>50.2</ele>
        <time>2013-08-11T16:18:51Z</time>
      </trkpt>
      <trkpt lat="59.383077" lon="17.86748">
        <ele>50.2</ele>
        <time>2013-08-11T16:18:52Z</time>
      </trkpt>
      <trkpt lat="59.383105" lon="17.867482">
        <ele>51.7</ele>
        <time>2013-08-11T16:19:45Z</time>
      </trkpt>
      <trkpt lat="59.38314" lon="17.867483">
        <ele>52</ele>
        <time>2013-08-11T16:19:46Z</time>
      </trkpt>
      <trkpt lat="59.383175" lon="17.867486">
        <ele>51.9</ele>
        <time>2013-08-11T16:19:47Z</time>
      </trkpt>
      <trkpt lat="59.383207" lon="17.867491">
        <ele>51.8</ele>
        <time>2013-08-11T16:19:48Z</time>
      </trkpt>
      <trkpt lat="59.383244" lon="17.8675">
        <ele>51.7</ele>
        <time>2013-08-11T16:19:49Z</time>
      </trkpt>
      <trkpt lat="59.383282" lon="17.867527">
        <ele>51.6</ele>
        <time>2013-08-11T16:19:50Z</time>
      </trkpt>
      <trkpt lat="59.383322" lon="17.867554">
        <ele>51.4</ele>
        <time>2013-08-11T16:19:51Z</time>
      </trkpt>
      <trkpt lat="59.383382" lon="17.867608">
        <ele>51.2</ele>
        <time>2013-08-11T16:19:52Z</time>
      </trkpt>
      <trkpt lat="59.383435" lon="17.867645">
        <ele>51</ele>
        <time>2013-08-11T16:19:53Z</time>
      </trkpt>
      <trkpt lat="59.38349" lon="17.867686">
        <ele>50.9</ele>
        <time>2013-08-11T16:19:54Z</time>
      </trkpt>
      <trkpt lat="59.383546" lon="17.86772">
        <ele>50.7</ele>
        <time>2013-08-11T16:19:55Z</time>
      </trkpt>
      <trkpt lat="59.383613" lon="17.867751">
        <ele>50.5</ele>
        <time>2013-08-11T16:19:56Z</time>
      </trkpt>
      <trkpt lat="59.383675" lon="17.867782">
        <ele>50.4</ele>
        <time>2013-08-11T16:19:57Z</time>
      </trkpt>
      <trkpt lat="59.383746" lon="17.867777">
        <ele>50.2</ele>
        <time>2013-08-11T16:19:58Z</time>
      </trkpt>
      <trkpt lat="59.383821" lon="17.867784">
        <ele>50</ele>
        <time>2013-08-11T16:19:59Z</time>
      </trkpt>
      <trkpt lat="59.383891" lon="17.867779">
        <ele>50.1</ele>
        <time>2013-08-11T16:20:00Z</time>
      </trkpt>
      <trkpt lat="59.383961" lon="17.867779">
        <ele>49.9</ele>
        <time>2013-08-11T16:20:01Z</time>
      </trkpt>
      <trkpt lat="59.384037" lon="17.86779">
        <ele>49.9</ele>
        <time>2013-08-11T16:20:02Z</time>
      </trkpt>
      <trkpt lat="59.384108" lon="17.867798">
        <ele>50.3</ele>
        <time>2013-08-11T16:20:03Z</time>
      </trkpt>
      <trkpt lat="59.384179" lon="17.867807">
        <ele>49.9</ele>
        <time>2013-08-11T16:20:04Z</time>
      </trkpt>
      <trkpt lat="59.38425" lon="17.867813">
        <ele>50</ele>
        <time>2013-08-11T16:20:05Z</time>
      </trkpt>
      <trkpt lat="59.384326" lon="17.867815">
        <ele>50.1</ele>
        <time>2013-08-11T16:20:06Z</time>
      </trkpt>
      <trkpt lat="59.384399" lon="17.867815">
        <ele>50.2</ele>
        <time>2013-08-11T16:20:07Z</time>
      </trkpt>
      <trkpt lat="59.384473" lon="17.867819">
        <ele>50</ele>
        <time>2013-08-11T16:20:08Z</time>
      </trkpt>
      <trkpt lat="59.384547" lon="17.867821">
        <ele>50.3</ele>
        <time>2013-08-11T16:20:09Z</time>
      </trkpt>
      <trkpt lat="59.384618" lon="17.867833">
        <ele>49.9</ele>
        <time>2013-08-11T16:20:10Z</time>
      </trkpt>
      <trkpt lat="59.38469" lon="17.867837">
        <ele>50</ele>
        <time>2013-08-11T16:20:11Z</time>
      </trkpt>
      <trkpt lat="59.384767" lon="17.867848">
        <ele>50.4</ele>
        <time>2013-08-11T16:20:12Z</time>
      </trkpt>
      <trkpt lat="59.384844" lon="17.867858">
        <ele>50.7</ele>
        <time>2013-08-11T16:20:13Z</time>
      </trkpt>
      <trkpt lat="59.384923" lon="17.867858">
        <ele>50.6</ele>
        <time>2013-08-11T16:20:14Z</time>
      </trkpt>
      <trkpt lat="59.385002" lon="17.867861">
        <ele>50.8</ele>
        <time>2013-08-11T16:20:15Z</time>
      </trkpt>
      <trkpt lat="59.38508" lon="17.867857">
        <ele>51.5</ele>
        <time>2013-08-11T16:20:16Z</time>
      </trkpt>
      <trkpt lat="59.385157" lon="17.867863">
        <ele>51.6</ele>
        <time>2013-08-11T16:20:17Z</time>
      </trkpt>
      <trkpt lat="59.385233" lon="17.867881">
        <ele>51.7</ele>
        <time>2013-08-11T16:20:18Z</time>
      </trkpt>
      <trkpt lat="59.385312" lon="17.867912">
        <ele>52</ele>
        <time>2013-08-11T16:20:19Z</time>
      </trkpt>
      <trkpt lat="59.385383" lon="17.867971">
        <ele>52.2</ele>
        <time>2013-08-11T16:20:20Z</time>
      </trkpt>
      <trkpt lat="59.385452" lon="17.868051">
        <ele>51.6</ele>
        <time>2013-08-11T16:20:21Z</time>
      </trkpt>
      <trkpt lat="59.385518" lon="17.868102">
        <ele>52.3</ele>
        <time>2013-08-11T16:20:22Z</time>
      </trkpt>
      <trkpt lat="59.385587" lon="17.868147">
        <ele>52.6</ele>
        <time>2013-08-11T16:20:23Z</time>
      </trkpt>
      <trkpt lat="59.385664" lon="17.868115">
        <ele>52.7</ele>
        <time>2013-08-11T16:20:24Z</time>
      </trkpt>
      <trkpt lat="59.385731" lon="17.868039">
        <ele>53.1</ele>
        <time>2013-08-11T16:20:25Z</time>
      </trkpt>
      <trkpt lat="59.385786" lon="17.868011">
        <ele>54.8</ele>
        <time>2013-08-11T16:20:26Z</time>
      </trkpt>
      <trkpt lat="59.385846" lon="17.867984">
        <ele>55.5</ele>
        <time>2013-08-11T16:20:27Z</time>
      </trkpt>
      <trkpt lat="59.385902" lon="17.867955">
        <ele>55.3</ele>
        <time>2013-08-11T16:20:28Z</time>
      </trkpt>
      <trkpt lat="59.385965" lon="17.86792">
        <ele>55.1</ele>
        <time>2013-08-11T16:20:29Z</time>
      </trkpt>
      <trkpt lat="59.386042" lon="17.867902">
        <ele>54.2</ele>
        <time>2013-08-11T16:20:30Z</time>
      </trkpt>
      <trkpt lat="59.386126" lon="17.867916">
        <ele>52.6</ele>
        <time>2013-08-11T16:20:31Z</time>
      </trkpt>
      <trkpt lat="59.386219" lon="17.867929">
        <ele>52.5</ele>
        <time>2013-08-11T16:20:32Z</time>
      </trkpt>
      <trkpt lat="59.386327" lon="17.86796">
        <ele>51.5</ele>
        <time>2013-08-11T16:20:33Z</time>
      </trkpt>
      <trkpt lat="59.386431" lon="17.867998">
        <ele>50.4</ele>
        <time>2013-08-11T16:20:34Z</time>
      </trkpt>
      <trkpt lat="59.386537" lon="17.868046">
        <ele>49.9</ele>
        <time>2013-08-11T16:20:35Z</time>
      </trkpt>
      <trkpt lat="59.386644" lon="17.868098">
        <ele>49.1</ele>
        <time>2013-08-11T16:20:36Z</time>
      </trkpt>
      <trkpt lat="59.386755" lon="17.868147">
        <ele>48.2</ele>
        <time>2013-08-11T16:20:37Z</time>
      </trkpt>
      <trkpt lat="59.386872" lon="17.868165">
        <ele>47.2</ele>
        <time>2013-08-11T16:20:38Z</time>
      </trkpt>
      <trkpt lat="59.386992" lon="17.868156">
        <ele>47.3</ele>
        <time>2013-08-11T16:20:39Z</time>
      </trkpt>
      <trkpt lat="59.387099" lon="17.868154">
        <ele>46.9</ele>
        <time>2013-08-11T16:20:40Z</time>
      </trkpt>
      <trkpt lat="59.387207" lon="17.868152">
        <ele>46.9</ele>
        <time>2013-08-11T16:20:41Z</time>
      </trkpt>
      <trkpt lat="59.3873" lon="17.868157">
        <ele>48.2</ele>
        <time>2013-08-11T16:20:42Z</time>
      </trkpt>
      <trkpt lat="59.387385" lon="17.86817">
        <ele>47.4</ele>
        <time>2013-08-11T16:20:43Z</time>
      </trkpt>
      <trkpt lat="59.387455" lon="17.868169">
        <ele>47.3</ele>
        <time>2013-08-11T16:20:44Z</time>
      </trkpt>
      <trkpt lat="59.387515" lon="17.868146">
        <ele>47.5</ele>
        <time>2013-08-11T16:20:45Z</time>
      </trkpt>
      <trkpt lat="59.387551" lon="17.868115">
        <ele>47.5</ele>
        <time>2013-08-11T16:20:46Z</time>
      </trkpt>
      <trkpt lat="59.387559" lon="17.868062">
        <ele>47.7</ele>
        <time>2013-08-11T16:20:47Z</time>
      </trkpt>
      <trkpt lat="59.387563" lon="17.867972">
        <ele>48</ele>
        <time>2013-08-11T16:21:39Z</time>
      </trkpt>
      <trkpt lat="59.387567" lon="17.867917">
        <ele>48.8</ele>
        <time>2013-08-11T16:21:40Z</time>
      </trkpt>
      <trkpt lat="59.387572" lon="17.867863">
        <ele>48.8</ele>
        <time>2013-08-11T16:21:41Z</time>
      </trkpt>
      <trkpt lat="59.387579" lon="17.867788">
        <ele>48.7</ele>
        <time>2013-08-11T16:21:42Z</time>
      </trkpt>
      <trkpt lat="59.387589" lon="17.867705">
        <ele>49</ele>
        <time>2013-08-11T16:21:43Z</time>
      </trkpt>
      <trkpt lat="59.387622" lon="17.867623">
        <ele>47.5</ele>
        <time>2013-08-11T16:21:44Z</time>
      </trkpt>
      <trkpt lat="59.387668" lon="17.867502">
        <ele>47.2</ele>
        <time>2013-08-11T16:21:45Z</time>
      </trkpt>
      <trkpt lat="59.38769" lon="17.867404">
        <ele>47.1</ele>
        <time>2013-08-11T16:21:46Z</time>
      </trkpt>
      <trkpt lat="59.387716" lon="17.867308">
        <ele>47.1</ele>
        <time>2013-08-11T16:21:47Z</time>
      </trkpt>
      <trkpt lat="59.387737" lon="17.867196">
        <ele>47.1</ele>
        <time>2013-08-11T16:21:48Z</time>
      </trkpt>
      <trkpt lat="59.387756" lon="17.867089">
        <ele>47</ele>
        <time>2013-08-11T16:21:49Z</time>
      </trkpt>
      <trkpt lat="59.387776" lon="17.866981">
        <ele>46.9</ele>
        <time>2013-08-11T16:21:50Z</time>
      </trkpt>
      <trkpt lat="59.387797" lon="17.86688">
        <ele>46.9</ele>
        <time>2013-08-11T16:21:51Z</time>
      </trkpt>
      <trkpt lat="59.387826" lon="17.866759">
        <ele>46.4</ele>
        <time>2013-08-11T16:21:52Z</time>
      </trkpt>
      <trkpt lat="59.387849" lon="17.866644">
        <ele>46.4</ele>
        <time>2013-08-11T16:21:53Z</time>
      </trkpt>
      <trkpt lat="59.387883" lon="17.866519">
        <ele>47</ele>
        <time>2013-08-11T16:21:54Z</time>
      </trkpt>
      <trkpt lat="59.387911" lon="17.8664">
        <ele>46.9</ele>
        <time>2013-08-11T16:21:55Z</time>
      </trkpt>
      <trkpt lat="59.387963" lon="17.86627">
        <ele>46.1</ele>
        <time>2013-08-11T16:21:56Z</time>
      </trkpt>
      <trkpt lat="59.388001" lon="17.866156">
        <ele>46</ele>
        <time>2013-08-11T16:21:57Z</time>
      </trkpt>
      <trkpt lat="59.388056" lon="17.866049">
        <ele>45.9</ele>
        <time>2013-08-11T16:21:58Z</time>
      </trkpt>
      <trkpt lat="59.388106" lon="17.865942">
        <ele>45.8</ele>
        <time>2013-08-11T16:21:59Z</time>
      </trkpt>
      <trkpt lat="59.388161" lon="17.865829">
        <ele>45.5</ele>
        <time>2013-08-11T16:22:00Z</time>
      </trkpt>
      <trkpt lat="59.388212" lon="17.865724">
        <ele>45.4</ele>
        <time>2013-08-11T16:22:01Z</time>
      </trkpt>
      <trkpt lat="59.388268" lon="17.86563">
        <ele>45.3</ele>
        <time>2013-08-11T16:22:02Z</time>
      </trkpt>
      <trkpt lat="59.388327" lon="17.865536">
        <ele>45</ele>
        <time>2013-08-11T16:22:03Z</time>
      </trkpt>
      <trkpt lat="59.388393" lon="17.86545">
        <ele>44.4</ele>
        <time>2013-08-11T16:22:04Z</time>
      </trkpt>
      <trkpt lat="59.388458" lon="17.865364">
        <ele>44.1</ele>
        <time>2013-08-11T16:22:05Z</time>
      </trkpt>
      <trkpt lat="59.388526" lon="17.865296">
        <ele>44.3</ele>
        <time>2013-08-11T16:22:06Z</time>
      </trkpt>
      <trkpt lat="59.388603" lon="17.86524">
        <ele>44.3</ele>
        <time>2013-08-11T16:22:07Z</time>
      </trkpt>
      <trkpt lat="59.388676" lon="17.865184">
        <ele>44.4</ele>
        <time>2013-08-11T16:22:08Z</time>
      </trkpt>
      <trkpt lat="59.388751" lon="17.865119">
        <ele>44.5</ele>
        <time>2013-08-11T16:22:09Z</time>
      </trkpt>
      <trkpt lat="59.388824" lon="17.865071">
        <ele>45.5</ele>
        <time>2013-08-11T16:22:10Z</time>
      </trkpt>
      <trkpt lat="59.3889" lon="17.865021">
        <ele>45.6</ele>
        <time>2013-08-11T16:22:11Z</time>
      </trkpt>
      <trkpt lat="59.388975" lon="17.864975">
        <ele>45.8</ele>
        <time>2013-08-11T16:22:12Z</time>
      </trkpt>
      <trkpt lat="59.389052" lon="17.864928">
        <ele>45.9</ele>
        <time>2013-08-11T16:22:13Z</time>
      </trkpt>
      <trkpt lat="59.38913" lon="17.864886">
        <ele>45.8</ele>
        <time>2013-08-11T16:22:14Z</time>
      </trkpt>
      <trkpt lat="59.389205" lon="17.864835">
        <ele>45.9</ele>
        <time>2013-08-11T16:22:15Z</time>
      </trkpt>
      <trkpt lat="59.389286" lon="17.864807">
        <ele>46</ele>
        <time>2013-08-11T16:22:16Z</time>
      </trkpt>
      <trkpt lat="59.389368" lon="17.864792">
        <ele>45.9</ele>
        <time>2013-08-11T16:22:17Z</time>
      </trkpt>
      <trkpt lat="59.389446" lon="17.864758">
        <ele>46</ele>
        <time>2013-08-11T16:22:18Z</time>
      </trkpt>
      <trkpt lat="59.389518" lon="17.864707">
        <ele>45.9</ele>
        <time>2013-08-11T16:22:19Z</time>
      </trkpt>
      <trkpt lat="59.389598" lon="17.864658">
        <ele>46.4</ele>
        <time>2013-08-11T16:22:20Z</time>
      </trkpt>
      <trkpt lat="59.389672" lon="17.864625">
        <ele>46.6</ele>
        <time>2013-08-11T16:22:21Z</time>
      </trkpt>
      <trkpt lat="59.389744" lon="17.864581">
        <ele>46.8</ele>
        <time>2013-08-11T16:22:22Z</time>
      </trkpt>
      <trkpt lat="59.389814" lon="17.86454">
        <ele>47.4</ele>
        <time>2013-08-11T16:22:23Z</time>
      </trkpt>
      <trkpt lat="59.389878" lon="17.864495">
        <ele>47.6</ele>
        <time>2013-08-11T16:22:24Z</time>
      </trkpt>
      <trkpt lat="59.389946" lon="17.864453">
        <ele>47.3</ele>
        <time>2013-08-11T16:22:25Z</time>
      </trkpt>
      <trkpt lat="59.390009" lon="17.864403">
        <ele>47.8</ele>
        <time>2013-08-11T16:22:26Z</time>
      </trkpt>
      <trkpt lat="59.390074" lon="17.864359">
        <ele>47.8</ele>
        <time>2013-08-11T16:22:27Z</time>
      </trkpt>
      <trkpt lat="59.390139" lon="17.864285">
        <ele>48</ele>
        <time>2013-08-11T16:22:28Z</time>
      </trkpt>
      <trkpt lat="59.390203" lon="17.864223">
        <ele>48</ele>
        <time>2013-08-11T16:22:29Z</time>
      </trkpt>
      <trkpt lat="59.390273" lon="17.864155">
        <ele>48.5</ele>
        <time>2013-08-11T16:22:30Z</time>
      </trkpt>
      <trkpt lat="59.390345" lon="17.864088">
        <ele>48.3</ele>
        <time>2013-08-11T16:22:31Z</time>
      </trkpt>
      <trkpt lat="59.390416" lon="17.864021">
        <ele>48.4</ele>
        <time>2013-08-11T16:22:32Z</time>
      </trkpt>
      <trkpt lat="59.390489" lon="17.86394">
        <ele>47.3</ele>
        <time>2013-08-11T16:22:33Z</time>
      </trkpt>
      <trkpt lat="59.390558" lon="17.863867">
        <ele>47.3</ele>
        <time>2013-08-11T16:22:34Z</time>
      </trkpt>
      <trkpt lat="59.390617" lon="17.863765">
        <ele>46.9</ele>
        <time>2013-08-11T16:22:35Z</time>
      </trkpt>
      <trkpt lat="59.390682" lon="17.863674">
        <ele>46.9</ele>
        <time>2013-08-11T16:22:36Z</time>
      </trkpt>
      <trkpt lat="59.390734" lon="17.863572">
        <ele>47</ele>
        <time>2013-08-11T16:22:37Z</time>
      </trkpt>
      <trkpt lat="59.390792" lon="17.863473">
        <ele>47.2</ele>
        <time>2013-08-11T16:22:38Z</time>
      </trkpt>
      <trkpt lat="59.390853" lon="17.863393">
        <ele>46.8</ele>
        <time>2013-08-11T16:22:39Z</time>
      </trkpt>
      <trkpt lat="59.390907" lon="17.8633">
        <ele>47</ele>
        <time>2013-08-11T16:22:40Z</time>
      </trkpt>
      <trkpt lat="59.390966" lon="17.863221">
        <ele>46.7</ele>
        <time>2013-08-11T16:22:41Z</time>
      </trkpt>
      <trkpt lat="59.391021" lon="17.863135">
        <ele>46.6</ele>
        <time>2013-08-11T16:22:42Z</time>
      </trkpt>
      <trkpt lat="59.391065" lon="17.863058">
        <ele>47.5</ele>
        <time>2013-08-11T16:22:43Z</time>
      </trkpt>
      <trkpt lat="59.391104" lon="17.862968">
        <ele>46.1</ele>
        <time>2013-08-11T16:22:44Z</time>
      </trkpt>
      <trkpt lat="59.391146" lon="17.862888">
        <ele>45.9</ele>
        <time>2013-08-11T16:22:45Z</time>
      </trkpt>
      <trkpt lat="59.391191" lon="17.862777">
        <ele>45.4</ele>
        <time>2013-08-11T16:22:46Z</time>
      </trkpt>
      <trkpt lat="59.391227" lon="17.862654">
        <ele>45.5</ele>
        <time>2013-08-11T16:22:47Z</time>
      </trkpt>
      <trkpt lat="59.39127" lon="17.862548">
        <ele>45</ele>
        <time>2013-08-11T16:22:48Z</time>
      </trkpt>
      <trkpt lat="59.391313" lon="17.862444">
        <ele>44.8</ele>
        <time>2013-08-11T16:22:49Z</time>
      </trkpt>
      <trkpt lat="59.391358" lon="17.86234">
        <ele>45</ele>
        <time>2013-08-11T16:22:50Z</time>
      </trkpt>
      <trkpt lat="59.391406" lon="17.862234">
        <ele>46.2</ele>
        <time>2013-08-11T16:22:51Z</time>
      </trkpt>
      <trkpt lat="59.391453" lon="17.862124">
        <ele>46.2</ele>
        <time>2013-08-11T16:22:52Z</time>
      </trkpt>
      <trkpt lat="59.391507" lon="17.862026">
        <ele>46.4</ele>
        <time>2013-08-11T16:22:53Z</time>
      </trkpt>
      <trkpt lat="59.391555" lon="17.861919">
        <ele>46.6</ele>
        <time>2013-08-11T16:22:54Z</time>
      </trkpt>
      <trkpt lat="59.391589" lon="17.861815">
        <ele>45.5</ele>
        <time>2013-08-11T16:22:55Z</time>
      </trkpt>
      <trkpt lat="59.391636" lon="17.861709">
        <ele>45.5</ele>
        <time>2013-08-11T16:22:56Z</time>
      </trkpt>
      <trkpt lat="59.391684" lon="17.861592">
        <ele>45.6</ele>
        <time>2013-08-11T16:22:57Z</time>
      </trkpt>
      <trkpt lat="59.391728" lon="17.86149">
        <ele>46</ele>
        <time>2013-08-11T16:22:58Z</time>
      </trkpt>
      <trkpt lat="59.39178" lon="17.86139">
        <ele>46.7</ele>
        <time>2013-08-11T16:22:59Z</time>
      </trkpt>
      <trkpt lat="59.391828" lon="17.861286">
        <ele>47.1</ele>
        <time>2013-08-11T16:23:00Z</time>
      </trkpt>
      <trkpt lat="59.39187" lon="17.861169">
        <ele>48.8</ele>
        <time>2013-08-11T16:23:01Z</time>
      </trkpt>
      <trkpt lat="59.391915" lon="17.86106">
        <ele>49.4</ele>
        <time>2013-08-11T16:23:02Z</time>
      </trkpt>
      <trkpt lat="59.391961" lon="17.860954">
        <ele>49.9</ele>
        <time>2013-08-11T16:23:03Z</time>
      </trkpt>
      <trkpt lat="59.39201" lon="17.860856">
        <ele>50</ele>
        <time>2013-08-11T16:23:04Z</time>
      </trkpt>
      <trkpt lat="59.392063" lon="17.860763">
        <ele>50.1</ele>
        <time>2013-08-11T16:23:05Z</time>
      </trkpt>
      <trkpt lat="59.392111" lon="17.860664">
        <ele>50.5</ele>
        <time>2013-08-11T16:23:06Z</time>
      </trkpt>
      <trkpt lat="59.392151" lon="17.86058">
        <ele>52.1</ele>
        <time>2013-08-11T16:23:07Z</time>
      </trkpt>
      <trkpt lat="59.392195" lon="17.860492">
        <ele>52.2</ele>
        <time>2013-08-11T16:23:08Z</time>
      </trkpt>
      <trkpt lat="59.392245" lon="17.860418">
        <ele>52.6</ele>
        <time>2013-08-11T16:23:09Z</time>
      </trkpt>
      <trkpt lat="59.392296" lon="17.860334">
        <ele>52.4</ele>
        <time>2013-08-11T16:23:10Z</time>
      </trkpt>
      <trkpt lat="59.392348" lon="17.860248">
        <ele>51.8</ele>
        <time>2013-08-11T16:23:11Z</time>
      </trkpt>
      <trkpt lat="59.392401" lon="17.860167">
        <ele>51.7</ele>
        <time>2013-08-11T16:23:12Z</time>
      </trkpt>
      <trkpt lat="59.392452" lon="17.860074">
        <ele>51.6</ele>
        <time>2013-08-11T16:23:13Z</time>
      </trkpt>
      <trkpt lat="59.392504" lon="17.85999">
        <ele>51.4</ele>
        <time>2013-08-11T16:23:14Z</time>
      </trkpt>
      <trkpt lat="59.392557" lon="17.859909">
        <ele>50.8</ele>
        <time>2013-08-11T16:23:15Z</time>
      </trkpt>
      <trkpt lat="59.392617" lon="17.859837">
        <ele>50.8</ele>
        <time>2013-08-11T16:23:16Z</time>
      </trkpt>
      <trkpt lat="59.392673" lon="17.859757">
        <ele>50.6</ele>
        <time>2013-08-11T16:23:17Z</time>
      </trkpt>
      <trkpt lat="59.392729" lon="17.859678">
        <ele>50.5</ele>
        <time>2013-08-11T16:23:18Z</time>
      </trkpt>
      <trkpt lat="59.392788" lon="17.85959">
        <ele>50.1</ele>
        <time>2013-08-11T16:23:19Z</time>
      </trkpt>
      <trkpt lat="59.392848" lon="17.859502">
        <ele>49.6</ele>
        <time>2013-08-11T16:23:20Z</time>
      </trkpt>
      <trkpt lat="59.392901" lon="17.859411">
        <ele>49</ele>
        <time>2013-08-11T16:23:21Z</time>
      </trkpt>
      <trkpt lat="59.392963" lon="17.859328">
        <ele>48.7</ele>
        <time>2013-08-11T16:23:22Z</time>
      </trkpt>
      <trkpt lat="59.393022" lon="17.859238">
        <ele>48.1</ele>
        <time>2013-08-11T16:23:23Z</time>
      </trkpt>
      <trkpt lat="59.393081" lon="17.859152">
        <ele>47.6</ele>
        <time>2013-08-11T16:23:24Z</time>
      </trkpt>
      <trkpt lat="59.393132" lon="17.859066">
        <ele>47.1</ele>
        <time>2013-08-11T16:23:25Z</time>
      </trkpt>
      <trkpt lat="59.393189" lon="17.858975">
        <ele>46.4</ele>
        <time>2013-08-11T16:23:26Z</time>
      </trkpt>
      <trkpt lat="59.393256" lon="17.858876">
        <ele>45.9</ele>
        <time>2013-08-11T16:23:27Z</time>
      </trkpt>
      <trkpt lat="59.393324" lon="17.858789">
        <ele>45.7</ele>
        <time>2013-08-11T16:23:28Z</time>
      </trkpt>
      <trkpt lat="59.3934" lon="17.858678">
        <ele>45.2</ele>
        <time>2013-08-11T16:23:29Z</time>
      </trkpt>
      <trkpt lat="59.393473" lon="17.858574">
        <ele>44.7</ele>
        <time>2013-08-11T16:23:30Z</time>
      </trkpt>
      <trkpt lat="59.393543" lon="17.858471">
        <ele>44.2</ele>
        <time>2013-08-11T16:23:31Z</time>
      </trkpt>
      <trkpt lat="59.393615" lon="17.858366">
        <ele>43.8</ele>
        <time>2013-08-11T16:23:32Z</time>
      </trkpt>
      <trkpt lat="59.393688" lon="17.858267">
        <ele>43.3</ele>
        <time>2013-08-11T16:23:33Z</time>
      </trkpt>
      <trkpt lat="59.393754" lon="17.858169">
        <ele>43.6</ele>
        <time>2013-08-11T16:23:34Z</time>
      </trkpt>
      <trkpt lat="59.393822" lon="17.858069">
        <ele>43.5</ele>
        <time>2013-08-11T16:23:35Z</time>
      </trkpt>
      <trkpt lat="59.393896" lon="17.857963">
        <ele>42.1</ele>
        <time>2013-08-11T16:23:36Z</time>
      </trkpt>
      <trkpt lat="59.393973" lon="17.857869">
        <ele>42.3</ele>
        <time>2013-08-11T16:23:37Z</time>
      </trkpt>
      <trkpt lat="59.394042" lon="17.857761">
        <ele>41.9</ele>
        <time>2013-08-11T16:23:38Z</time>
      </trkpt>
      <trkpt lat="59.394108" lon="17.857659">
        <ele>41.4</ele>
        <time>2013-08-11T16:23:39Z</time>
      </trkpt>
      <trkpt lat="59.394174" lon="17.857566">
        <ele>41.1</ele>
        <time>2013-08-11T16:23:40Z</time>
      </trkpt>
      <trkpt lat="59.394228" lon="17.857492">
        <ele>40.6</ele>
        <time>2013-08-11T16:23:41Z</time>
      </trkpt>
      <trkpt lat="59.39427" lon="17.857483">
        <ele>40</ele>
        <time>2013-08-11T16:23:42Z</time>
      </trkpt>
      <trkpt lat="59.394316" lon="17.857465">
        <ele>39.9</ele>
        <time>2013-08-11T16:23:43Z</time>
      </trkpt>
      <trkpt lat="59.394361" lon="17.857451">
        <ele>39.8</ele>
        <time>2013-08-11T16:23:44Z</time>
      </trkpt>
      <trkpt lat="59.394394" lon="17.85741">
        <ele>39.7</ele>
        <time>2013-08-11T16:23:45Z</time>
      </trkpt>
      <trkpt lat="59.394414" lon="17.857346">
        <ele>43.2</ele>
        <time>2013-08-11T16:23:46Z</time>
      </trkpt>
      <trkpt lat="59.394429" lon="17.85728">
        <ele>41.5</ele>
        <time>2013-08-11T16:23:47Z</time>
      </trkpt>
      <trkpt lat="59.394447" lon="17.857216">
        <ele>41</ele>
        <time>2013-08-11T16:23:48Z</time>
      </trkpt>
      <trkpt lat="59.394462" lon="17.857146">
        <ele>40.4</ele>
        <time>2013-08-11T16:23:49Z</time>
      </trkpt>
      <trkpt lat="59.394479" lon="17.857079">
        <ele>40.4</ele>
        <time>2013-08-11T16:23:50Z</time>
      </trkpt>
      <trkpt lat="59.394499" lon="17.857029">
        <ele>40.2</ele>
        <time>2013-08-11T16:23:51Z</time>
      </trkpt>
      <trkpt lat="59.394525" lon="17.856969">
        <ele>40.1</ele>
        <time>2013-08-11T16:23:53Z</time>
      </trkpt>
      <trkpt lat="59.394557" lon="17.856898">
        <ele>38.6</ele>
        <time>2013-08-11T16:24:22Z</time>
      </trkpt>
      <trkpt lat="59.394579" lon="17.856866">
        <ele>38.6</ele>
        <time>2013-08-11T16:24:23Z</time>
      </trkpt>
      <trkpt lat="59.394603" lon="17.856829">
        <ele>38.9</ele>
        <time>2013-08-11T16:24:24Z</time>
      </trkpt>
      <trkpt lat="59.394634" lon="17.856786">
        <ele>38.9</ele>
        <time>2013-08-11T16:24:25Z</time>
      </trkpt>
      <trkpt lat="59.394661" lon="17.856746">
        <ele>38.8</ele>
        <time>2013-08-11T16:24:26Z</time>
      </trkpt>
      <trkpt lat="59.394704" lon="17.856694">
        <ele>38.9</ele>
        <time>2013-08-11T16:24:27Z</time>
      </trkpt>
      <trkpt lat="59.394746" lon="17.856641">
        <ele>38.5</ele>
        <time>2013-08-11T16:24:28Z</time>
      </trkpt>
      <trkpt lat="59.394806" lon="17.856585">
        <ele>38.4</ele>
        <time>2013-08-11T16:24:29Z</time>
      </trkpt>
      <trkpt lat="59.394852" lon="17.856534">
        <ele>38.3</ele>
        <time>2013-08-11T16:24:30Z</time>
      </trkpt>
      <trkpt lat="59.394903" lon="17.856481">
        <ele>38.4</ele>
        <time>2013-08-11T16:24:31Z</time>
      </trkpt>
      <trkpt lat="59.39495" lon="17.856429">
        <ele>38.4</ele>
        <time>2013-08-11T16:24:32Z</time>
      </trkpt>
      <trkpt lat="59.39501" lon="17.856347">
        <ele>37.8</ele>
        <time>2013-08-11T16:24:33Z</time>
      </trkpt>
      <trkpt lat="59.395078" lon="17.856247">
        <ele>38.3</ele>
        <time>2013-08-11T16:24:34Z</time>
      </trkpt>
      <trkpt lat="59.395135" lon="17.856162">
        <ele>38.2</ele>
        <time>2013-08-11T16:24:35Z</time>
      </trkpt>
      <trkpt lat="59.395196" lon="17.85606">
        <ele>38.3</ele>
        <time>2013-08-11T16:24:36Z</time>
      </trkpt>
      <trkpt lat="59.395257" lon="17.855971">
        <ele>38.1</ele>
        <time>2013-08-11T16:24:37Z</time>
      </trkpt>
      <trkpt lat="59.395331" lon="17.855872">
        <ele>38</ele>
        <time>2013-08-11T16:24:38Z</time>
      </trkpt>
      <trkpt lat="59.395405" lon="17.85577">
        <ele>38</ele>
        <time>2013-08-11T16:24:39Z</time>
      </trkpt>
      <trkpt lat="59.395481" lon="17.855667">
        <ele>37.7</ele>
        <time>2013-08-11T16:24:40Z</time>
      </trkpt>
      <trkpt lat="59.395557" lon="17.855562">
        <ele>37.5</ele>
        <time>2013-08-11T16:24:41Z</time>
      </trkpt>
      <trkpt lat="59.395628" lon="17.855458">
        <ele>37.4</ele>
        <time>2013-08-11T16:24:42Z</time>
      </trkpt>
      <trkpt lat="59.3957" lon="17.855351">
        <ele>37.5</ele>
        <time>2013-08-11T16:24:43Z</time>
      </trkpt>
      <trkpt lat="59.395773" lon="17.855247">
        <ele>37.4</ele>
        <time>2013-08-11T16:24:44Z</time>
      </trkpt>
      <trkpt lat="59.395843" lon="17.855142">
        <ele>37.2</ele>
        <time>2013-08-11T16:24:45Z</time>
      </trkpt>
      <trkpt lat="59.395917" lon="17.855048">
        <ele>37.3</ele>
        <time>2013-08-11T16:24:46Z</time>
      </trkpt>
      <trkpt lat="59.395996" lon="17.854937">
        <ele>37.1</ele>
        <time>2013-08-11T16:24:47Z</time>
      </trkpt>
      <trkpt lat="59.396075" lon="17.854826">
        <ele>37</ele>
        <time>2013-08-11T16:24:48Z</time>
      </trkpt>
      <trkpt lat="59.396156" lon="17.854714">
        <ele>36.6</ele>
        <time>2013-08-11T16:24:49Z</time>
      </trkpt>
      <trkpt lat="59.396238" lon="17.8546">
        <ele>37.1</ele>
        <time>2013-08-11T16:24:50Z</time>
      </trkpt>
      <trkpt lat="59.396312" lon="17.854493">
        <ele>37</ele>
        <time>2013-08-11T16:24:51Z</time>
      </trkpt>
      <trkpt lat="59.396388" lon="17.854384">
        <ele>36.3</ele>
        <time>2013-08-11T16:24:52Z</time>
      </trkpt>
      <trkpt lat="59.396462" lon="17.854281">
        <ele>36.6</ele>
        <time>2013-08-11T16:24:53Z</time>
      </trkpt>
      <trkpt lat="59.396533" lon="17.854176">
        <ele>36.7</ele>
        <time>2013-08-11T16:24:54Z</time>
      </trkpt>
      <trkpt lat="59.396606" lon="17.854078">
        <ele>36.6</ele>
        <time>2013-08-11T16:24:55Z</time>
      </trkpt>
      <trkpt lat="59.396672" lon="17.853976">
        <ele>36.3</ele>
        <time>2013-08-11T16:24:56Z</time>
      </trkpt>
      <trkpt lat="59.396742" lon="17.853882">
        <ele>36.7</ele>
        <time>2013-08-11T16:24:57Z</time>
      </trkpt>
      <trkpt lat="59.396813" lon="17.853783">
        <ele>36.6</ele>
        <time>2013-08-11T16:24:58Z</time>
      </trkpt>
      <trkpt lat="59.396884" lon="17.853668">
        <ele>36.9</ele>
        <time>2013-08-11T16:24:59Z</time>
      </trkpt>
      <trkpt lat="59.396959" lon="17.853546">
        <ele>37.6</ele>
        <time>2013-08-11T16:25:00Z</time>
      </trkpt>
      <trkpt lat="59.397031" lon="17.853446">
        <ele>37.3</ele>
        <time>2013-08-11T16:25:01Z</time>
      </trkpt>
      <trkpt lat="59.397104" lon="17.85334">
        <ele>37.3</ele>
        <time>2013-08-11T16:25:02Z</time>
      </trkpt>
      <trkpt lat="59.397174" lon="17.853237">
        <ele>37.2</ele>
        <time>2013-08-11T16:25:03Z</time>
      </trkpt>
      <trkpt lat="59.397244" lon="17.853121">
        <ele>36.5</ele>
        <time>2013-08-11T16:25:04Z</time>
      </trkpt>
      <trkpt lat="59.397322" lon="17.852994">
        <ele>36.3</ele>
        <time>2013-08-11T16:25:05Z</time>
      </trkpt>
      <trkpt lat="59.397401" lon="17.852879">
        <ele>37</ele>
        <time>2013-08-11T16:25:06Z</time>
      </trkpt>
      <trkpt lat="59.397477" lon="17.852765">
        <ele>37.1</ele>
        <time>2013-08-11T16:25:07Z</time>
      </trkpt>
      <trkpt lat="59.397558" lon="17.852674">
        <ele>37</ele>
        <time>2013-08-11T16:25:08Z</time>
      </trkpt>
      <trkpt lat="59.397634" lon="17.852575">
        <ele>36.9</ele>
        <time>2013-08-11T16:25:09Z</time>
      </trkpt>
      <trkpt lat="59.397723" lon="17.852476">
        <ele>36.8</ele>
        <time>2013-08-11T16:25:10Z</time>
      </trkpt>
      <trkpt lat="59.397805" lon="17.852374">
        <ele>36.8</ele>
        <time>2013-08-11T16:25:11Z</time>
      </trkpt>
      <trkpt lat="59.397881" lon="17.852261">
        <ele>37.5</ele>
        <time>2013-08-11T16:25:12Z</time>
      </trkpt>
      <trkpt lat="59.397961" lon="17.852154">
        <ele>37.7</ele>
        <time>2013-08-11T16:25:13Z</time>
      </trkpt>
      <trkpt lat="59.398039" lon="17.852047">
        <ele>36.8</ele>
        <time>2013-08-11T16:25:14Z</time>
      </trkpt>
      <trkpt lat="59.398115" lon="17.851938">
        <ele>36.9</ele>
        <time>2013-08-11T16:25:15Z</time>
      </trkpt>
      <trkpt lat="59.398192" lon="17.851829">
        <ele>36.7</ele>
        <time>2013-08-11T16:25:16Z</time>
      </trkpt>
      <trkpt lat="59.398265" lon="17.851712">
        <ele>36.7</ele>
        <time>2013-08-11T16:25:17Z</time>
      </trkpt>
      <trkpt lat="59.39834" lon="17.851611">
        <ele>36.5</ele>
        <time>2013-08-11T16:25:18Z</time>
      </trkpt>
      <trkpt lat="59.39841" lon="17.851507">
        <ele>36.1</ele>
        <time>2013-08-11T16:25:19Z</time>
      </trkpt>
      <trkpt lat="59.398487" lon="17.851404">
        <ele>36.2</ele>
        <time>2013-08-11T16:25:20Z</time>
      </trkpt>
      <trkpt lat="59.39856" lon="17.851298">
        <ele>36</ele>
        <time>2013-08-11T16:25:21Z</time>
      </trkpt>
      <trkpt lat="59.398637" lon="17.851191">
        <ele>36</ele>
        <time>2013-08-11T16:25:22Z</time>
      </trkpt>
      <trkpt lat="59.398711" lon="17.851083">
        <ele>36</ele>
        <time>2013-08-11T16:25:23Z</time>
      </trkpt>
      <trkpt lat="59.398786" lon="17.850977">
        <ele>36.5</ele>
        <time>2013-08-11T16:25:24Z</time>
      </trkpt>
      <trkpt lat="59.39886" lon="17.850866">
        <ele>35.9</ele>
        <time>2013-08-11T16:25:25Z</time>
      </trkpt>
      <trkpt lat="59.398934" lon="17.850755">
        <ele>35.5</ele>
        <time>2013-08-11T16:25:26Z</time>
      </trkpt>
      <trkpt lat="59.399002" lon="17.850624">
        <ele>35.4</ele>
        <time>2013-08-11T16:25:27Z</time>
      </trkpt>
      <trkpt lat="59.39907" lon="17.850494">
        <ele>35.1</ele>
        <time>2013-08-11T16:25:28Z</time>
      </trkpt>
      <trkpt lat="59.399146" lon="17.850446">
        <ele>35.4</ele>
        <time>2013-08-11T16:25:29Z</time>
      </trkpt>
      <trkpt lat="59.399215" lon="17.850328">
        <ele>35</ele>
        <time>2013-08-11T16:25:30Z</time>
      </trkpt>
      <trkpt lat="59.399259" lon="17.850204">
        <ele>35.2</ele>
        <time>2013-08-11T16:25:31Z</time>
      </trkpt>
      <trkpt lat="59.399317" lon="17.850091">
        <ele>35.2</ele>
        <time>2013-08-11T16:25:32Z</time>
      </trkpt>
      <trkpt lat="59.399365" lon="17.849971">
        <ele>35.5</ele>
        <time>2013-08-11T16:25:33Z</time>
      </trkpt>
      <trkpt lat="59.39942" lon="17.849857">
        <ele>35.6</ele>
        <time>2013-08-11T16:25:34Z</time>
      </trkpt>
      <trkpt lat="59.399468" lon="17.849755">
        <ele>36.1</ele>
        <time>2013-08-11T16:25:35Z</time>
      </trkpt>
      <trkpt lat="59.399509" lon="17.849657">
        <ele>35.8</ele>
        <time>2013-08-11T16:25:36Z</time>
      </trkpt>
      <trkpt lat="59.399566" lon="17.849566">
        <ele>36.4</ele>
        <time>2013-08-11T16:25:37Z</time>
      </trkpt>
      <trkpt lat="59.399628" lon="17.849442">
        <ele>36.5</ele>
        <time>2013-08-11T16:25:38Z</time>
      </trkpt>
      <trkpt lat="59.39968" lon="17.849334">
        <ele>36.6</ele>
        <time>2013-08-11T16:25:39Z</time>
      </trkpt>
      <trkpt lat="59.399727" lon="17.849207">
        <ele>37</ele>
        <time>2013-08-11T16:25:40Z</time>
      </trkpt>
      <trkpt lat="59.399765" lon="17.849103">
        <ele>36.2</ele>
        <time>2013-08-11T16:25:41Z</time>
      </trkpt>
      <trkpt lat="59.399806" lon="17.848986">
        <ele>36.6</ele>
        <time>2013-08-11T16:25:42Z</time>
      </trkpt>
      <trkpt lat="59.399851" lon="17.848871">
        <ele>36.7</ele>
        <time>2013-08-11T16:25:43Z</time>
      </trkpt>
      <trkpt lat="59.3999" lon="17.848729">
        <ele>37.2</ele>
        <time>2013-08-11T16:25:44Z</time>
      </trkpt>
      <trkpt lat="59.39995" lon="17.848598">
        <ele>36.6</ele>
        <time>2013-08-11T16:25:45Z</time>
      </trkpt>
      <trkpt lat="59.400002" lon="17.848482">
        <ele>36.8</ele>
        <time>2013-08-11T16:25:46Z</time>
      </trkpt>
      <trkpt lat="59.400051" lon="17.848338">
        <ele>37.1</ele>
        <time>2013-08-11T16:25:47Z</time>
      </trkpt>
      <trkpt lat="59.400102" lon="17.848203">
        <ele>37.2</ele>
        <time>2013-08-11T16:25:48Z</time>
      </trkpt>
      <trkpt lat="59.400151" lon="17.848056">
        <ele>37.3</ele>
        <time>2013-08-11T16:25:49Z</time>
      </trkpt>
      <trkpt lat="59.400204" lon="17.84792">
        <ele>37.4</ele>
        <time>2013-08-11T16:25:50Z</time>
      </trkpt>
      <trkpt lat="59.400252" lon="17.847793">
        <ele>37.5</ele>
        <time>2013-08-11T16:25:51Z</time>
      </trkpt>
      <trkpt lat="59.400296" lon="17.847657">
        <ele>37.3</ele>
        <time>2013-08-11T16:25:52Z</time>
      </trkpt>
      <trkpt lat="59.400345" lon="17.847524">
        <ele>37.6</ele>
        <time>2013-08-11T16:25:53Z</time>
      </trkpt>
      <trkpt lat="59.400391" lon="17.847387">
        <ele>37.1</ele>
        <time>2013-08-11T16:25:54Z</time>
      </trkpt>
      <trkpt lat="59.400448" lon="17.847248">
        <ele>37.4</ele>
        <time>2013-08-11T16:25:55Z</time>
      </trkpt>
      <trkpt lat="59.400511" lon="17.847115">
        <ele>37.5</ele>
        <time>2013-08-11T16:25:56Z</time>
      </trkpt>
      <trkpt lat="59.400566" lon="17.846967">
        <ele>37.4</ele>
        <time>2013-08-11T16:25:57Z</time>
      </trkpt>
      <trkpt lat="59.400619" lon="17.846826">
        <ele>37.5</ele>
        <time>2013-08-11T16:25:58Z</time>
      </trkpt>
      <trkpt lat="59.40067" lon="17.846685">
        <ele>37.2</ele>
        <time>2013-08-11T16:25:59Z</time>
      </trkpt>
      <trkpt lat="59.400727" lon="17.846547">
        <ele>37.2</ele>
        <time>2013-08-11T16:26:00Z</time>
      </trkpt>
      <trkpt lat="59.40078" lon="17.846411">
        <ele>37.2</ele>
        <time>2013-08-11T16:26:01Z</time>
      </trkpt>
      <trkpt lat="59.40083" lon="17.846278">
        <ele>37.5</ele>
        <time>2013-08-11T16:26:02Z</time>
      </trkpt>
      <trkpt lat="59.400883" lon="17.846139">
        <ele>37.5</ele>
        <time>2013-08-11T16:26:03Z</time>
      </trkpt>
      <trkpt lat="59.400934" lon="17.846002">
        <ele>37.8</ele>
        <time>2013-08-11T16:26:04Z</time>
      </trkpt>
      <trkpt lat="59.400988" lon="17.845867">
        <ele>37.9</ele>
        <time>2013-08-11T16:26:05Z</time>
      </trkpt>
      <trkpt lat="59.401041" lon="17.845732">
        <ele>37.9</ele>
        <time>2013-08-11T16:26:06Z</time>
      </trkpt>
      <trkpt lat="59.401101" lon="17.845607">
        <ele>38.2</ele>
        <time>2013-08-11T16:26:07Z</time>
      </trkpt>
      <trkpt lat="59.401158" lon="17.845478">
        <ele>37.8</ele>
        <time>2013-08-11T16:26:08Z</time>
      </trkpt>
      <trkpt lat="59.401218" lon="17.845348">
        <ele>38.1</ele>
        <time>2013-08-11T16:26:09Z</time>
      </trkpt>
      <trkpt lat="59.401281" lon="17.845217">
        <ele>37.8</ele>
        <time>2013-08-11T16:26:10Z</time>
      </trkpt>
      <trkpt lat="59.401342" lon="17.845086">
        <ele>37.8</ele>
        <time>2013-08-11T16:26:11Z</time>
      </trkpt>
      <trkpt lat="59.401404" lon="17.84496">
        <ele>37.9</ele>
        <time>2013-08-11T16:26:12Z</time>
      </trkpt>
      <trkpt lat="59.401464" lon="17.844829">
        <ele>37.8</ele>
        <time>2013-08-11T16:26:13Z</time>
      </trkpt>
      <trkpt lat="59.401524" lon="17.844703">
        <ele>38.3</ele>
        <time>2013-08-11T16:26:14Z</time>
      </trkpt>
      <trkpt lat="59.401581" lon="17.844574">
        <ele>38.3</ele>
        <time>2013-08-11T16:26:15Z</time>
      </trkpt>
      <trkpt lat="59.401639" lon="17.844454">
        <ele>38.5</ele>
        <time>2013-08-11T16:26:16Z</time>
      </trkpt>
      <trkpt lat="59.401697" lon="17.844329">
        <ele>38.4</ele>
        <time>2013-08-11T16:26:17Z</time>
      </trkpt>
      <trkpt lat="59.401761" lon="17.844205">
        <ele>38.1</ele>
        <time>2013-08-11T16:26:18Z</time>
      </trkpt>
      <trkpt lat="59.401826" lon="17.844092">
        <ele>38.4</ele>
        <time>2013-08-11T16:26:19Z</time>
      </trkpt>
      <trkpt lat="59.401893" lon="17.843999">
        <ele>38.7</ele>
        <time>2013-08-11T16:26:20Z</time>
      </trkpt>
      <trkpt lat="59.401961" lon="17.843901">
        <ele>38.7</ele>
        <time>2013-08-11T16:26:21Z</time>
      </trkpt>
      <trkpt lat="59.402027" lon="17.843778">
        <ele>38.9</ele>
        <time>2013-08-11T16:26:22Z</time>
      </trkpt>
      <trkpt lat="59.402081" lon="17.843657">
        <ele>39.4</ele>
        <time>2013-08-11T16:26:23Z</time>
      </trkpt>
      <trkpt lat="59.402122" lon="17.843512">
        <ele>39.5</ele>
        <time>2013-08-11T16:26:24Z</time>
      </trkpt>
      <trkpt lat="59.402147" lon="17.84336">
        <ele>40.1</ele>
        <time>2013-08-11T16:26:25Z</time>
      </trkpt>
      <trkpt lat="59.402177" lon="17.843221">
        <ele>39.9</ele>
        <time>2013-08-11T16:26:26Z</time>
      </trkpt>
      <trkpt lat="59.402206" lon="17.84309">
        <ele>39.7</ele>
        <time>2013-08-11T16:26:27Z</time>
      </trkpt>
      <trkpt lat="59.402252" lon="17.842961">
        <ele>40</ele>
        <time>2013-08-11T16:26:28Z</time>
      </trkpt>
      <trkpt lat="59.402303" lon="17.842863">
        <ele>39.7</ele>
        <time>2013-08-11T16:26:29Z</time>
      </trkpt>
      <trkpt lat="59.402365" lon="17.842757">
        <ele>39.6</ele>
        <time>2013-08-11T16:26:30Z</time>
      </trkpt>
      <trkpt lat="59.402427" lon="17.842656">
        <ele>39.7</ele>
        <time>2013-08-11T16:26:31Z</time>
      </trkpt>
      <trkpt lat="59.402515" lon="17.842629">
        <ele>39.4</ele>
        <time>2013-08-11T16:26:32Z</time>
      </trkpt>
      <trkpt lat="59.402586" lon="17.842581">
        <ele>39.6</ele>
        <time>2013-08-11T16:26:33Z</time>
      </trkpt>
      <trkpt lat="59.402661" lon="17.842553">
        <ele>39.6</ele>
        <time>2013-08-11T16:26:34Z</time>
      </trkpt>
      <trkpt lat="59.402742" lon="17.842571">
        <ele>40</ele>
        <time>2013-08-11T16:26:35Z</time>
      </trkpt>
      <trkpt lat="59.402815" lon="17.842614">
        <ele>40.2</ele>
        <time>2013-08-11T16:26:36Z</time>
      </trkpt>
      <trkpt lat="59.402889" lon="17.842628">
        <ele>40.5</ele>
        <time>2013-08-11T16:26:37Z</time>
      </trkpt>
      <trkpt lat="59.402956" lon="17.842621">
        <ele>40.3</ele>
        <time>2013-08-11T16:26:38Z</time>
      </trkpt>
      <trkpt lat="59.403036" lon="17.842617">
        <ele>39.7</ele>
        <time>2013-08-11T16:26:39Z</time>
      </trkpt>
      <trkpt lat="59.403114" lon="17.84261">
        <ele>39.7</ele>
        <time>2013-08-11T16:26:40Z</time>
      </trkpt>
      <trkpt lat="59.403197" lon="17.842555">
        <ele>38.5</ele>
        <time>2013-08-11T16:26:41Z</time>
      </trkpt>
      <trkpt lat="59.403283" lon="17.842518">
        <ele>38.7</ele>
        <time>2013-08-11T16:26:42Z</time>
      </trkpt>
      <trkpt lat="59.403357" lon="17.842478">
        <ele>38.3</ele>
        <time>2013-08-11T16:26:43Z</time>
      </trkpt>
      <trkpt lat="59.403435" lon="17.842439">
        <ele>38.2</ele>
        <time>2013-08-11T16:26:44Z</time>
      </trkpt>
      <trkpt lat="59.403515" lon="17.842394">
        <ele>37.9</ele>
        <time>2013-08-11T16:26:45Z</time>
      </trkpt>
      <trkpt lat="59.4036" lon="17.842348">
        <ele>38.5</ele>
        <time>2013-08-11T16:26:46Z</time>
      </trkpt>
      <trkpt lat="59.403679" lon="17.842293">
        <ele>38.3</ele>
        <time>2013-08-11T16:26:47Z</time>
      </trkpt>
      <trkpt lat="59.40376" lon="17.84224">
        <ele>38.4</ele>
        <time>2013-08-11T16:26:48Z</time>
      </trkpt>
      <trkpt lat="59.403838" lon="17.842169">
        <ele>38.6</ele>
        <time>2013-08-11T16:26:49Z</time>
      </trkpt>
      <trkpt lat="59.403913" lon="17.842104">
        <ele>38.8</ele>
        <time>2013-08-11T16:26:50Z</time>
      </trkpt>
      <trkpt lat="59.403986" lon="17.842035">
        <ele>39.1</ele>
        <time>2013-08-11T16:26:51Z</time>
      </trkpt>
      <trkpt lat="59.404057" lon="17.841978">
        <ele>39.9</ele>
        <time>2013-08-11T16:26:52Z</time>
      </trkpt>
      <trkpt lat="59.404126" lon="17.841915">
        <ele>40.1</ele>
        <time>2013-08-11T16:26:53Z</time>
      </trkpt>
      <trkpt lat="59.404194" lon="17.841864">
        <ele>41.4</ele>
        <time>2013-08-11T16:26:54Z</time>
      </trkpt>
      <trkpt lat="59.404266" lon="17.841799">
        <ele>41.7</ele>
        <time>2013-08-11T16:26:55Z</time>
      </trkpt>
      <trkpt lat="59.404343" lon="17.841722">
        <ele>41.1</ele>
        <time>2013-08-11T16:26:56Z</time>
      </trkpt>
      <trkpt lat="59.404417" lon="17.841653">
        <ele>41.7</ele>
        <time>2013-08-11T16:26:57Z</time>
      </trkpt>
      <trkpt lat="59.404483" lon="17.841586">
        <ele>42.3</ele>
        <time>2013-08-11T16:26:58Z</time>
      </trkpt>
      <trkpt lat="59.40456" lon="17.841515">
        <ele>41.9</ele>
        <time>2013-08-11T16:26:59Z</time>
      </trkpt>
      <trkpt lat="59.40463" lon="17.841455">
        <ele>42.5</ele>
        <time>2013-08-11T16:27:00Z</time>
      </trkpt>
      <trkpt lat="59.404699" lon="17.841386">
        <ele>43.4</ele>
        <time>2013-08-11T16:27:01Z</time>
      </trkpt>
      <trkpt lat="59.404771" lon="17.84132">
        <ele>44.1</ele>
        <time>2013-08-11T16:27:02Z</time>
      </trkpt>
      <trkpt lat="59.40484" lon="17.841249">
        <ele>44.3</ele>
        <time>2013-08-11T16:27:03Z</time>
      </trkpt>
      <trkpt lat="59.404906" lon="17.841185">
        <ele>45</ele>
        <time>2013-08-11T16:27:04Z</time>
      </trkpt>
      <trkpt lat="59.404976" lon="17.841116">
        <ele>45.3</ele>
        <time>2013-08-11T16:27:05Z</time>
      </trkpt>
      <trkpt lat="59.405045" lon="17.841051">
        <ele>45.5</ele>
        <time>2013-08-11T16:27:06Z</time>
      </trkpt>
      <trkpt lat="59.405115" lon="17.840984">
        <ele>45.2</ele>
        <time>2013-08-11T16:27:07Z</time>
      </trkpt>
      <trkpt lat="59.405185" lon="17.840914">
        <ele>45.3</ele>
        <time>2013-08-11T16:27:08Z</time>
      </trkpt>
      <trkpt lat="59.405247" lon="17.840854">
        <ele>46.5</ele>
        <time>2013-08-11T16:27:09Z</time>
      </trkpt>
      <trkpt lat="59.405317" lon="17.84079">
        <ele>46.7</ele>
        <time>2013-08-11T16:27:10Z</time>
      </trkpt>
      <trkpt lat="59.405382" lon="17.840738">
        <ele>47.2</ele>
        <time>2013-08-11T16:27:11Z</time>
      </trkpt>
      <trkpt lat="59.405457" lon="17.840672">
        <ele>47.2</ele>
        <time>2013-08-11T16:27:12Z</time>
      </trkpt>
      <trkpt lat="59.405526" lon="17.840598">
        <ele>47.9</ele>
        <time>2013-08-11T16:27:13Z</time>
      </trkpt>
      <trkpt lat="59.405596" lon="17.840527">
        <ele>48.2</ele>
        <time>2013-08-11T16:27:14Z</time>
      </trkpt>
      <trkpt lat="59.405665" lon="17.84047">
        <ele>48.1</ele>
        <time>2013-08-11T16:27:15Z</time>
      </trkpt>
      <trkpt lat="59.405734" lon="17.840404">
        <ele>48.2</ele>
        <time>2013-08-11T16:27:16Z</time>
      </trkpt>
      <trkpt lat="59.405799" lon="17.840333">
        <ele>48.2</ele>
        <time>2013-08-11T16:27:17Z</time>
      </trkpt>
      <trkpt lat="59.405869" lon="17.840266">
        <ele>48.5</ele>
        <time>2013-08-11T16:27:18Z</time>
      </trkpt>
      <trkpt lat="59.405944" lon="17.840195">
        <ele>48.7</ele>
        <time>2013-08-11T16:27:19Z</time>
      </trkpt>
      <trkpt lat="59.406012" lon="17.840116">
        <ele>48.4</ele>
        <time>2013-08-11T16:27:20Z</time>
      </trkpt>
      <trkpt lat="59.406079" lon="17.840046">
        <ele>48.4</ele>
        <time>2013-08-11T16:27:21Z</time>
      </trkpt>
      <trkpt lat="59.406149" lon="17.839958">
        <ele>48.3</ele>
        <time>2013-08-11T16:27:22Z</time>
      </trkpt>
      <trkpt lat="59.406214" lon="17.839875">
        <ele>48.3</ele>
        <time>2013-08-11T16:27:23Z</time>
      </trkpt>
      <trkpt lat="59.406279" lon="17.839786">
        <ele>48.1</ele>
        <time>2013-08-11T16:27:24Z</time>
      </trkpt>
      <trkpt lat="59.40634" lon="17.839686">
        <ele>48.2</ele>
        <time>2013-08-11T16:27:25Z</time>
      </trkpt>
      <trkpt lat="59.406394" lon="17.839562">
        <ele>47.9</ele>
        <time>2013-08-11T16:27:26Z</time>
      </trkpt>
      <trkpt lat="59.406456" lon="17.839451">
        <ele>47.7</ele>
        <time>2013-08-11T16:27:27Z</time>
      </trkpt>
      <trkpt lat="59.406522" lon="17.839307">
        <ele>47.9</ele>
        <time>2013-08-11T16:27:28Z</time>
      </trkpt>
      <trkpt lat="59.406596" lon="17.839201">
        <ele>47.8</ele>
        <time>2013-08-11T16:27:29Z</time>
      </trkpt>
      <trkpt lat="59.406661" lon="17.839108">
        <ele>47.8</ele>
        <time>2013-08-11T16:27:30Z</time>
      </trkpt>
      <trkpt lat="59.406716" lon="17.839022">
        <ele>47.7</ele>
        <time>2013-08-11T16:27:31Z</time>
      </trkpt>
      <trkpt lat="59.406809" lon="17.839011">
        <ele>47.3</ele>
        <time>2013-08-11T16:27:32Z</time>
      </trkpt>
      <trkpt lat="59.406886" lon="17.838963">
        <ele>47</ele>
        <time>2013-08-11T16:27:33Z</time>
      </trkpt>
      <trkpt lat="59.406961" lon="17.839027">
        <ele>47.9</ele>
        <time>2013-08-11T16:27:34Z</time>
      </trkpt>
      <trkpt lat="59.407031" lon="17.839043">
        <ele>48.8</ele>
        <time>2013-08-11T16:27:35Z</time>
      </trkpt>
      <trkpt lat="59.407106" lon="17.839062">
        <ele>50.9</ele>
        <time>2013-08-11T16:27:36Z</time>
      </trkpt>
      <trkpt lat="59.407182" lon="17.839069">
        <ele>50.8</ele>
        <time>2013-08-11T16:27:37Z</time>
      </trkpt>
      <trkpt lat="59.407249" lon="17.839047">
        <ele>50</ele>
        <time>2013-08-11T16:27:38Z</time>
      </trkpt>
      <trkpt lat="59.407321" lon="17.838995">
        <ele>49.5</ele>
        <time>2013-08-11T16:27:39Z</time>
      </trkpt>
      <trkpt lat="59.407392" lon="17.838946">
        <ele>50.2</ele>
        <time>2013-08-11T16:27:40Z</time>
      </trkpt>
      <trkpt lat="59.407463" lon="17.838891">
        <ele>50.1</ele>
        <time>2013-08-11T16:27:41Z</time>
      </trkpt>
      <trkpt lat="59.407535" lon="17.838829">
        <ele>49.9</ele>
        <time>2013-08-11T16:27:42Z</time>
      </trkpt>
      <trkpt lat="59.407606" lon="17.838768">
        <ele>50.1</ele>
        <time>2013-08-11T16:27:43Z</time>
      </trkpt>
      <trkpt lat="59.407677" lon="17.838696">
        <ele>50.2</ele>
        <time>2013-08-11T16:27:44Z</time>
      </trkpt>
      <trkpt lat="59.407746" lon="17.838621">
        <ele>49.5</ele>
        <time>2013-08-11T16:27:45Z</time>
      </trkpt>
      <trkpt lat="59.407814" lon="17.838553">
        <ele>49.4</ele>
        <time>2013-08-11T16:27:46Z</time>
      </trkpt>
      <trkpt lat="59.40789" lon="17.838469">
        <ele>49.2</ele>
        <time>2013-08-11T16:27:47Z</time>
      </trkpt>
      <trkpt lat="59.407961" lon="17.838385">
        <ele>49.2</ele>
        <time>2013-08-11T16:27:48Z</time>
      </trkpt>
      <trkpt lat="59.408032" lon="17.8383">
        <ele>49.4</ele>
        <time>2013-08-11T16:27:49Z</time>
      </trkpt>
      <trkpt lat="59.408103" lon="17.838218">
        <ele>49.3</ele>
        <time>2013-08-11T16:27:50Z</time>
      </trkpt>
      <trkpt lat="59.40818" lon="17.838168">
        <ele>49.2</ele>
        <time>2013-08-11T16:27:51Z</time>
      </trkpt>
      <trkpt lat="59.408257" lon="17.838119">
        <ele>50.4</ele>
        <time>2013-08-11T16:27:52Z</time>
      </trkpt>
      <trkpt lat="59.408336" lon="17.838064">
        <ele>50.3</ele>
        <time>2013-08-11T16:27:53Z</time>
      </trkpt>
      <trkpt lat="59.408414" lon="17.83801">
        <ele>50.4</ele>
        <time>2013-08-11T16:27:54Z</time>
      </trkpt>
      <trkpt lat="59.408493" lon="17.837956">
        <ele>50.1</ele>
        <time>2013-08-11T16:27:55Z</time>
      </trkpt>
      <trkpt lat="59.408563" lon="17.837883">
        <ele>50.8</ele>
        <time>2013-08-11T16:27:56Z</time>
      </trkpt>
      <trkpt lat="59.408639" lon="17.837809">
        <ele>50.4</ele>
        <time>2013-08-11T16:27:57Z</time>
      </trkpt>
      <trkpt lat="59.408715" lon="17.837735">
        <ele>50.3</ele>
        <time>2013-08-11T16:27:58Z</time>
      </trkpt>
      <trkpt lat="59.408784" lon="17.837642">
        <ele>50.8</ele>
        <time>2013-08-11T16:27:59Z</time>
      </trkpt>
      <trkpt lat="59.408857" lon="17.837556">
        <ele>50.7</ele>
        <time>2013-08-11T16:28:00Z</time>
      </trkpt>
      <trkpt lat="59.408926" lon="17.83747">
        <ele>50.6</ele>
        <time>2013-08-11T16:28:01Z</time>
      </trkpt>
      <trkpt lat="59.409" lon="17.837379">
        <ele>50.6</ele>
        <time>2013-08-11T16:28:02Z</time>
      </trkpt>
      <trkpt lat="59.409072" lon="17.837289">
        <ele>50.4</ele>
        <time>2013-08-11T16:28:03Z</time>
      </trkpt>
      <trkpt lat="59.409139" lon="17.837192">
        <ele>50.5</ele>
        <time>2013-08-11T16:28:04Z</time>
      </trkpt>
      <trkpt lat="59.409206" lon="17.837072">
        <ele>50.3</ele>
        <time>2013-08-11T16:28:05Z</time>
      </trkpt>
      <trkpt lat="59.409273" lon="17.836959">
        <ele>50.1</ele>
        <time>2013-08-11T16:28:06Z</time>
      </trkpt>
      <trkpt lat="59.409344" lon="17.836851">
        <ele>49.9</ele>
        <time>2013-08-11T16:28:07Z</time>
      </trkpt>
      <trkpt lat="59.409396" lon="17.836725">
        <ele>49.6</ele>
        <time>2013-08-11T16:28:08Z</time>
      </trkpt>
      <trkpt lat="59.409459" lon="17.836604">
        <ele>49.5</ele>
        <time>2013-08-11T16:28:09Z</time>
      </trkpt>
      <trkpt lat="59.409509" lon="17.83647">
        <ele>49.4</ele>
        <time>2013-08-11T16:28:10Z</time>
      </trkpt>
      <trkpt lat="59.40956" lon="17.836323">
        <ele>49</ele>
        <time>2013-08-11T16:28:11Z</time>
      </trkpt>
      <trkpt lat="59.409612" lon="17.836185">
        <ele>48.9</ele>
        <time>2013-08-11T16:28:12Z</time>
      </trkpt>
      <trkpt lat="59.409652" lon="17.836032">
        <ele>50.3</ele>
        <time>2013-08-11T16:28:13Z</time>
      </trkpt>
      <trkpt lat="59.409695" lon="17.835893">
        <ele>50.1</ele>
        <time>2013-08-11T16:28:14Z</time>
      </trkpt>
      <trkpt lat="59.409727" lon="17.835741">
        <ele>50.1</ele>
        <time>2013-08-11T16:28:15Z</time>
      </trkpt>
      <trkpt lat="59.409775" lon="17.835597">
        <ele>50</ele>
        <time>2013-08-11T16:28:16Z</time>
      </trkpt>
      <trkpt lat="59.409821" lon="17.835448">
        <ele>50.3</ele>
        <time>2013-08-11T16:28:17Z</time>
      </trkpt>
      <trkpt lat="59.409862" lon="17.835301">
        <ele>50.4</ele>
        <time>2013-08-11T16:28:18Z</time>
      </trkpt>
      <trkpt lat="59.409901" lon="17.835142">
        <ele>50.2</ele>
        <time>2013-08-11T16:28:19Z</time>
      </trkpt>
      <trkpt lat="59.409935" lon="17.834987">
        <ele>49.6</ele>
        <time>2013-08-11T16:28:20Z</time>
      </trkpt>
      <trkpt lat="59.40997" lon="17.834835">
        <ele>49.6</ele>
        <time>2013-08-11T16:28:21Z</time>
      </trkpt>
      <trkpt lat="59.409993" lon="17.834686">
        <ele>49.7</ele>
        <time>2013-08-11T16:28:22Z</time>
      </trkpt>
      <trkpt lat="59.410016" lon="17.83454">
        <ele>49.2</ele>
        <time>2013-08-11T16:28:23Z</time>
      </trkpt>
      <trkpt lat="59.410036" lon="17.834425">
        <ele>49</ele>
        <time>2013-08-11T16:28:24Z</time>
      </trkpt>
      <trkpt lat="59.410058" lon="17.834294">
        <ele>49.2</ele>
        <time>2013-08-11T16:28:25Z</time>
      </trkpt>
      <trkpt lat="59.410082" lon="17.834163">
        <ele>49.2</ele>
        <time>2013-08-11T16:28:26Z</time>
      </trkpt>
      <trkpt lat="59.410121" lon="17.834003">
        <ele>48.9</ele>
        <time>2013-08-11T16:28:27Z</time>
      </trkpt>
      <trkpt lat="59.410151" lon="17.833853">
        <ele>48.8</ele>
        <time>2013-08-11T16:28:28Z</time>
      </trkpt>
      <trkpt lat="59.410181" lon="17.83368">
        <ele>49.1</ele>
        <time>2013-08-11T16:28:29Z</time>
      </trkpt>
      <trkpt lat="59.410213" lon="17.833518">
        <ele>49.2</ele>
        <time>2013-08-11T16:28:30Z</time>
      </trkpt>
      <trkpt lat="59.410246" lon="17.833376">
        <ele>49.7</ele>
        <time>2013-08-11T16:28:31Z</time>
      </trkpt>
      <trkpt lat="59.410278" lon="17.833224">
        <ele>50.1</ele>
        <time>2013-08-11T16:28:32Z</time>
      </trkpt>
      <trkpt lat="59.410303" lon="17.833052">
        <ele>48.9</ele>
        <time>2013-08-11T16:28:33Z</time>
      </trkpt>
      <trkpt lat="59.410344" lon="17.832909">
        <ele>49.7</ele>
        <time>2013-08-11T16:28:34Z</time>
      </trkpt>
      <trkpt lat="59.410374" lon="17.832749">
        <ele>49.6</ele>
        <time>2013-08-11T16:28:35Z</time>
      </trkpt>
      <trkpt lat="59.410411" lon="17.832597">
        <ele>51.7</ele>
        <time>2013-08-11T16:28:36Z</time>
      </trkpt>
      <trkpt lat="59.410446" lon="17.83244">
        <ele>51.5</ele>
        <time>2013-08-11T16:28:37Z</time>
      </trkpt>
      <trkpt lat="59.410477" lon="17.832287">
        <ele>51.6</ele>
        <time>2013-08-11T16:28:38Z</time>
      </trkpt>
      <trkpt lat="59.410516" lon="17.832141">
        <ele>52.8</ele>
        <time>2013-08-11T16:28:39Z</time>
      </trkpt>
      <trkpt lat="59.410546" lon="17.83199">
        <ele>53</ele>
        <time>2013-08-11T16:28:40Z</time>
      </trkpt>
      <trkpt lat="59.410571" lon="17.831842">
        <ele>53</ele>
        <time>2013-08-11T16:28:41Z</time>
      </trkpt>
      <trkpt lat="59.410603" lon="17.831691">
        <ele>52.8</ele>
        <time>2013-08-11T16:28:42Z</time>
      </trkpt>
      <trkpt lat="59.410636" lon="17.831536">
        <ele>52.8</ele>
        <time>2013-08-11T16:28:43Z</time>
      </trkpt>
      <trkpt lat="59.41067" lon="17.831383">
        <ele>52.9</ele>
        <time>2013-08-11T16:28:44Z</time>
      </trkpt>
      <trkpt lat="59.410721" lon="17.831242">
        <ele>52.2</ele>
        <time>2013-08-11T16:28:45Z</time>
      </trkpt>
      <trkpt lat="59.410762" lon="17.831094">
        <ele>52.1</ele>
        <time>2013-08-11T16:28:46Z</time>
      </trkpt>
      <trkpt lat="59.410817" lon="17.830934">
        <ele>52.8</ele>
        <time>2013-08-11T16:28:47Z</time>
      </trkpt>
      <trkpt lat="59.410869" lon="17.830772">
        <ele>52.5</ele>
        <time>2013-08-11T16:28:48Z</time>
      </trkpt>
      <trkpt lat="59.410924" lon="17.830622">
        <ele>52.4</ele>
        <time>2013-08-11T16:28:49Z</time>
      </trkpt>
      <trkpt lat="59.410978" lon="17.830469">
        <ele>52</ele>
        <time>2013-08-11T16:28:50Z</time>
      </trkpt>
      <trkpt lat="59.411046" lon="17.830338">
        <ele>52.9</ele>
        <time>2013-08-11T16:28:51Z</time>
      </trkpt>
      <trkpt lat="59.411113" lon="17.830208">
        <ele>53.3</ele>
        <time>2013-08-11T16:28:52Z</time>
      </trkpt>
      <trkpt lat="59.411184" lon="17.830078">
        <ele>53.3</ele>
        <time>2013-08-11T16:28:53Z</time>
      </trkpt>
      <trkpt lat="59.411254" lon="17.829946">
        <ele>53.4</ele>
        <time>2013-08-11T16:28:54Z</time>
      </trkpt>
      <trkpt lat="59.41134" lon="17.829797">
        <ele>51</ele>
        <time>2013-08-11T16:28:55Z</time>
      </trkpt>
      <trkpt lat="59.411419" lon="17.829656">
        <ele>50.4</ele>
        <time>2013-08-11T16:28:56Z</time>
      </trkpt>
      <trkpt lat="59.411502" lon="17.829522">
        <ele>48.9</ele>
        <time>2013-08-11T16:28:57Z</time>
      </trkpt>
      <trkpt lat="59.411588" lon="17.829394">
        <ele>47.9</ele>
        <time>2013-08-11T16:28:58Z</time>
      </trkpt>
      <trkpt lat="59.411678" lon="17.829268">
        <ele>47.3</ele>
        <time>2013-08-11T16:28:59Z</time>
      </trkpt>
      <trkpt lat="59.411771" lon="17.829151">
        <ele>46.6</ele>
        <time>2013-08-11T16:29:00Z</time>
      </trkpt>
      <trkpt lat="59.411869" lon="17.829048">
        <ele>47.4</ele>
        <time>2013-08-11T16:29:01Z</time>
      </trkpt>
      <trkpt lat="59.411963" lon="17.828939">
        <ele>47.1</ele>
        <time>2013-08-11T16:29:02Z</time>
      </trkpt>
      <trkpt lat="59.412063" lon="17.828855">
        <ele>46</ele>
        <time>2013-08-11T16:29:03Z</time>
      </trkpt>
      <trkpt lat="59.412163" lon="17.828766">
        <ele>45.8</ele>
        <time>2013-08-11T16:29:04Z</time>
      </trkpt>
      <trkpt lat="59.412266" lon="17.828704">
        <ele>45.5</ele>
        <time>2013-08-11T16:29:05Z</time>
      </trkpt>
      <trkpt lat="59.412372" lon="17.828638">
        <ele>44.4</ele>
        <time>2013-08-11T16:29:06Z</time>
      </trkpt>
      <trkpt lat="59.412483" lon="17.828585">
        <ele>43.7</ele>
        <time>2013-08-11T16:29:07Z</time>
      </trkpt>
      <trkpt lat="59.412592" lon="17.828529">
        <ele>43.3</ele>
        <time>2013-08-11T16:29:08Z</time>
      </trkpt>
      <trkpt lat="59.412708" lon="17.828486">
        <ele>41.7</ele>
        <time>2013-08-11T16:29:09Z</time>
      </trkpt>
      <trkpt lat="59.412823" lon="17.82844">
        <ele>41.1</ele>
        <time>2013-08-11T16:29:10Z</time>
      </trkpt>
      <trkpt lat="59.412947" lon="17.828411">
        <ele>40.1</ele>
        <time>2013-08-11T16:29:11Z</time>
      </trkpt>
      <trkpt lat="59.413069" lon="17.828382">
        <ele>39.7</ele>
        <time>2013-08-11T16:29:12Z</time>
      </trkpt>
      <trkpt lat="59.413193" lon="17.828364">
        <ele>39.3</ele>
        <time>2013-08-11T16:29:13Z</time>
      </trkpt>
      <trkpt lat="59.413315" lon="17.828344">
        <ele>38.7</ele>
        <time>2013-08-11T16:29:14Z</time>
      </trkpt>
      <trkpt lat="59.413439" lon="17.828325">
        <ele>37.5</ele>
        <time>2013-08-11T16:29:15Z</time>
      </trkpt>
      <trkpt lat="59.41356" lon="17.828309">
        <ele>37.1</ele>
        <time>2013-08-11T16:29:16Z</time>
      </trkpt>
      <trkpt lat="59.413675" lon="17.828287">
        <ele>36.4</ele>
        <time>2013-08-11T16:29:17Z</time>
      </trkpt>
      <trkpt lat="59.413794" lon="17.828265">
        <ele>36</ele>
        <time>2013-08-11T16:29:18Z</time>
      </trkpt>
      <trkpt lat="59.413909" lon="17.828223">
        <ele>36.1</ele>
        <time>2013-08-11T16:29:19Z</time>
      </trkpt>
      <trkpt lat="59.414028" lon="17.8282">
        <ele>35.8</ele>
        <time>2013-08-11T16:29:20Z</time>
      </trkpt>
      <trkpt lat="59.414145" lon="17.828175">
        <ele>35.7</ele>
        <time>2013-08-11T16:29:21Z</time>
      </trkpt>
      <trkpt lat="59.414252" lon="17.828151">
        <ele>36</ele>
        <time>2013-08-11T16:29:22Z</time>
      </trkpt>
      <trkpt lat="59.414359" lon="17.828128">
        <ele>36.1</ele>
        <time>2013-08-11T16:29:23Z</time>
      </trkpt>
      <trkpt lat="59.414436" lon="17.82812">
        <ele>36</ele>
        <time>2013-08-11T16:29:24Z</time>
      </trkpt>
      <trkpt lat="59.414523" lon="17.828106">
        <ele>36.1</ele>
        <time>2013-08-11T16:29:25Z</time>
      </trkpt>
      <trkpt lat="59.41459" lon="17.828101">
        <ele>35.7</ele>
        <time>2013-08-11T16:29:26Z</time>
      </trkpt>
      <trkpt lat="59.414663" lon="17.828091">
        <ele>35.6</ele>
        <time>2013-08-11T16:29:27Z</time>
      </trkpt>
      <trkpt lat="59.414701" lon="17.828095">
        <ele>35.6</ele>
        <time>2013-08-11T16:29:29Z</time>
      </trkpt>
      <trkpt lat="59.414731" lon="17.828101">
        <ele>44.2</ele>
        <time>2013-08-11T16:29:32Z</time>
      </trkpt>
      <trkpt lat="59.414774" lon="17.828098">
        <ele>38.4</ele>
        <time>2013-08-11T16:29:47Z</time>
      </trkpt>
      <trkpt lat="59.414807" lon="17.828097">
        <ele>38.1</ele>
        <time>2013-08-11T16:29:49Z</time>
      </trkpt>
      <trkpt lat="59.414864" lon="17.828116">
        <ele>38.2</ele>
        <time>2013-08-11T16:29:51Z</time>
      </trkpt>
      <trkpt lat="59.414903" lon="17.828125">
        <ele>37.7</ele>
        <time>2013-08-11T16:29:52Z</time>
      </trkpt>
      <trkpt lat="59.41494" lon="17.828132">
        <ele>37.7</ele>
        <time>2013-08-11T16:29:53Z</time>
      </trkpt>
      <trkpt lat="59.414999" lon="17.828117">
        <ele>36.5</ele>
        <time>2013-08-11T16:29:54Z</time>
      </trkpt>
      <trkpt lat="59.415047" lon="17.828108">
        <ele>36.6</ele>
        <time>2013-08-11T16:29:55Z</time>
      </trkpt>
      <trkpt lat="59.415106" lon="17.828051">
        <ele>36.3</ele>
        <time>2013-08-11T16:29:56Z</time>
      </trkpt>
      <trkpt lat="59.415156" lon="17.828021">
        <ele>36.2</ele>
        <time>2013-08-11T16:29:57Z</time>
      </trkpt>
      <trkpt lat="59.415209" lon="17.827998">
        <ele>36</ele>
        <time>2013-08-11T16:29:58Z</time>
      </trkpt>
      <trkpt lat="59.415259" lon="17.827977">
        <ele>35.9</ele>
        <time>2013-08-11T16:29:59Z</time>
      </trkpt>
      <trkpt lat="59.415317" lon="17.827992">
        <ele>35.3</ele>
        <time>2013-08-11T16:30:00Z</time>
      </trkpt>
      <trkpt lat="59.415376" lon="17.828036">
        <ele>35.7</ele>
        <time>2013-08-11T16:30:01Z</time>
      </trkpt>
      <trkpt lat="59.415432" lon="17.828054">
        <ele>35.9</ele>
        <time>2013-08-11T16:30:02Z</time>
      </trkpt>
      <trkpt lat="59.415491" lon="17.82808">
        <ele>35.5</ele>
        <time>2013-08-11T16:30:03Z</time>
      </trkpt>
      <trkpt lat="59.415559" lon="17.828089">
        <ele>36</ele>
        <time>2013-08-11T16:30:04Z</time>
      </trkpt>
      <trkpt lat="59.415623" lon="17.828107">
        <ele>35.6</ele>
        <time>2013-08-11T16:30:05Z</time>
      </trkpt>
      <trkpt lat="59.415684" lon="17.828124">
        <ele>35.7</ele>
        <time>2013-08-11T16:30:06Z</time>
      </trkpt>
      <trkpt lat="59.41575" lon="17.828135">
        <ele>35.9</ele>
        <time>2013-08-11T16:30:07Z</time>
      </trkpt>
      <trkpt lat="59.415823" lon="17.828171">
        <ele>35.6</ele>
        <time>2013-08-11T16:30:08Z</time>
      </trkpt>
      <trkpt lat="59.415889" lon="17.828184">
        <ele>36.2</ele>
        <time>2013-08-11T16:30:09Z</time>
      </trkpt>
      <trkpt lat="59.415961" lon="17.828203">
        <ele>36.1</ele>
        <time>2013-08-11T16:30:10Z</time>
      </trkpt>
      <trkpt lat="59.416035" lon="17.828222">
        <ele>36.1</ele>
        <time>2013-08-11T16:30:11Z</time>
      </trkpt>
      <trkpt lat="59.416108" lon="17.828242">
        <ele>36</ele>
        <time>2013-08-11T16:30:12Z</time>
      </trkpt>
      <trkpt lat="59.416179" lon="17.82827">
        <ele>36</ele>
        <time>2013-08-11T16:30:13Z</time>
      </trkpt>
      <trkpt lat="59.416256" lon="17.828313">
        <ele>35.2</ele>
        <time>2013-08-11T16:30:14Z</time>
      </trkpt>
      <trkpt lat="59.416328" lon="17.828342">
        <ele>35.1</ele>
        <time>2013-08-11T16:30:15Z</time>
      </trkpt>
      <trkpt lat="59.416404" lon="17.828389">
        <ele>34.7</ele>
        <time>2013-08-11T16:30:16Z</time>
      </trkpt>
      <trkpt lat="59.416473" lon="17.828426">
        <ele>35.6</ele>
        <time>2013-08-11T16:30:17Z</time>
      </trkpt>
      <trkpt lat="59.416543" lon="17.82847">
        <ele>36</ele>
        <time>2013-08-11T16:30:18Z</time>
      </trkpt>
      <trkpt lat="59.416618" lon="17.828515">
        <ele>36.1</ele>
        <time>2013-08-11T16:30:19Z</time>
      </trkpt>
      <trkpt lat="59.416689" lon="17.828536">
        <ele>36.2</ele>
        <time>2013-08-11T16:30:20Z</time>
      </trkpt>
      <trkpt lat="59.416762" lon="17.828579">
        <ele>35.7</ele>
        <time>2013-08-11T16:30:21Z</time>
      </trkpt>
      <trkpt lat="59.416832" lon="17.828622">
        <ele>36</ele>
        <time>2013-08-11T16:30:22Z</time>
      </trkpt>
      <trkpt lat="59.416899" lon="17.828664">
        <ele>36.3</ele>
        <time>2013-08-11T16:30:23Z</time>
      </trkpt>
      <trkpt lat="59.416963" lon="17.828702">
        <ele>37</ele>
        <time>2013-08-11T16:30:24Z</time>
      </trkpt>
      <trkpt lat="59.417036" lon="17.828742">
        <ele>37.3</ele>
        <time>2013-08-11T16:30:25Z</time>
      </trkpt>
      <trkpt lat="59.417108" lon="17.828785">
        <ele>38</ele>
        <time>2013-08-11T16:30:26Z</time>
      </trkpt>
      <trkpt lat="59.417174" lon="17.828828">
        <ele>38.1</ele>
        <time>2013-08-11T16:30:27Z</time>
      </trkpt>
      <trkpt lat="59.417243" lon="17.828873">
        <ele>38.7</ele>
        <time>2013-08-11T16:30:28Z</time>
      </trkpt>
      <trkpt lat="59.417312" lon="17.828915">
        <ele>38.4</ele>
        <time>2013-08-11T16:30:29Z</time>
      </trkpt>
      <trkpt lat="59.417378" lon="17.828949">
        <ele>38.3</ele>
        <time>2013-08-11T16:30:30Z</time>
      </trkpt>
      <trkpt lat="59.417447" lon="17.828994">
        <ele>38.7</ele>
        <time>2013-08-11T16:30:31Z</time>
      </trkpt>
      <trkpt lat="59.417525" lon="17.829037">
        <ele>38.7</ele>
        <time>2013-08-11T16:30:32Z</time>
      </trkpt>
      <trkpt lat="59.417597" lon="17.829095">
        <ele>38.8</ele>
        <time>2013-08-11T16:30:33Z</time>
      </trkpt>
      <trkpt lat="59.417658" lon="17.829131">
        <ele>39.3</ele>
        <time>2013-08-11T16:30:34Z</time>
      </trkpt>
      <trkpt lat="59.417733" lon="17.829185">
        <ele>38.7</ele>
        <time>2013-08-11T16:30:35Z</time>
      </trkpt>
      <trkpt lat="59.417804" lon="17.829224">
        <ele>39</ele>
        <time>2013-08-11T16:30:36Z</time>
      </trkpt>
      <trkpt lat="59.417866" lon="17.829256">
        <ele>39</ele>
        <time>2013-08-11T16:30:37Z</time>
      </trkpt>
      <trkpt lat="59.417926" lon="17.829292">
        <ele>38.9</ele>
        <time>2013-08-11T16:30:38Z</time>
      </trkpt>
      <trkpt lat="59.417987" lon="17.829328">
        <ele>38.9</ele>
        <time>2013-08-11T16:30:39Z</time>
      </trkpt>
      <trkpt lat="59.418049" lon="17.829324">
        <ele>40</ele>
        <time>2013-08-11T16:30:40Z</time>
      </trkpt>
      <trkpt lat="59.418112" lon="17.829325">
        <ele>39.9</ele>
        <time>2013-08-11T16:30:41Z</time>
      </trkpt>
      <trkpt lat="59.418159" lon="17.829239">
        <ele>39.9</ele>
        <time>2013-08-11T16:30:42Z</time>
      </trkpt>
      <trkpt lat="59.418213" lon="17.829188">
        <ele>40.1</ele>
        <time>2013-08-11T16:30:43Z</time>
      </trkpt>
      <trkpt lat="59.418265" lon="17.829137">
        <ele>40</ele>
        <time>2013-08-11T16:30:44Z</time>
      </trkpt>
      <trkpt lat="59.418326" lon="17.829114">
        <ele>39</ele>
        <time>2013-08-11T16:30:45Z</time>
      </trkpt>
      <trkpt lat="59.418377" lon="17.829136">
        <ele>39.3</ele>
        <time>2013-08-11T16:30:46Z</time>
      </trkpt>
      <trkpt lat="59.418432" lon="17.829137">
        <ele>39</ele>
        <time>2013-08-11T16:30:47Z</time>
      </trkpt>
      <trkpt lat="59.418499" lon="17.829187">
        <ele>39.4</ele>
        <time>2013-08-11T16:30:48Z</time>
      </trkpt>
      <trkpt lat="59.418559" lon="17.829217">
        <ele>39.6</ele>
        <time>2013-08-11T16:30:49Z</time>
      </trkpt>
      <trkpt lat="59.418611" lon="17.829294">
        <ele>40.4</ele>
        <time>2013-08-11T16:30:50Z</time>
      </trkpt>
      <trkpt lat="59.418652" lon="17.829389">
        <ele>41.4</ele>
        <time>2013-08-11T16:30:51Z</time>
      </trkpt>
      <trkpt lat="59.418699" lon="17.829464">
        <ele>41.7</ele>
        <time>2013-08-11T16:30:52Z</time>
      </trkpt>
      <trkpt lat="59.418742" lon="17.829544">
        <ele>41.8</ele>
        <time>2013-08-11T16:30:53Z</time>
      </trkpt>
      <trkpt lat="59.418784" lon="17.829632">
        <ele>42.2</ele>
        <time>2013-08-11T16:30:54Z</time>
      </trkpt>
      <trkpt lat="59.41883" lon="17.829698">
        <ele>41.8</ele>
        <time>2013-08-11T16:30:55Z</time>
      </trkpt>
      <trkpt lat="59.41889" lon="17.829723">
        <ele>42.2</ele>
        <time>2013-08-11T16:30:56Z</time>
      </trkpt>
      <trkpt lat="59.418941" lon="17.829774">
        <ele>42.2</ele>
        <time>2013-08-11T16:30:57Z</time>
      </trkpt>
      <trkpt lat="59.419006" lon="17.829813">
        <ele>42.6</ele>
        <time>2013-08-11T16:30:58Z</time>
      </trkpt>
      <trkpt lat="59.419063" lon="17.829856">
        <ele>42.9</ele>
        <time>2013-08-11T16:30:59Z</time>
      </trkpt>
      <trkpt lat="59.419124" lon="17.829889">
        <ele>43.7</ele>
        <time>2013-08-11T16:31:00Z</time>
      </trkpt>
      <trkpt lat="59.419186" lon="17.829923">
        <ele>44</ele>
        <time>2013-08-11T16:31:01Z</time>
      </trkpt>
      <trkpt lat="59.419247" lon="17.829964">
        <ele>44</ele>
        <time>2013-08-11T16:31:02Z</time>
      </trkpt>
      <trkpt lat="59.419305" lon="17.830014">
        <ele>43.9</ele>
        <time>2013-08-11T16:31:03Z</time>
      </trkpt>
      <trkpt lat="59.419362" lon="17.830071">
        <ele>43.2</ele>
        <time>2013-08-11T16:31:04Z</time>
      </trkpt>
      <trkpt lat="59.419421" lon="17.830114">
        <ele>44.2</ele>
        <time>2013-08-11T16:31:05Z</time>
      </trkpt>
      <trkpt lat="59.419481" lon="17.830151">
        <ele>44.5</ele>
        <time>2013-08-11T16:31:06Z</time>
      </trkpt>
      <trkpt lat="59.419546" lon="17.830183">
        <ele>43.3</ele>
        <time>2013-08-11T16:31:07Z</time>
      </trkpt>
      <trkpt lat="59.419608" lon="17.830217">
        <ele>43.1</ele>
        <time>2013-08-11T16:31:08Z</time>
      </trkpt>
      <trkpt lat="59.419663" lon="17.830242">
        <ele>43.9</ele>
        <time>2013-08-11T16:31:09Z</time>
      </trkpt>
      <trkpt lat="59.419712" lon="17.830265">
        <ele>44</ele>
        <time>2013-08-11T16:31:10Z</time>
      </trkpt>
      <trkpt lat="59.419753" lon="17.830299">
        <ele>43.7</ele>
        <time>2013-08-11T16:31:11Z</time>
      </trkpt>
      <trkpt lat="59.41979" lon="17.830339">
        <ele>44</ele>
        <time>2013-08-11T16:31:12Z</time>
      </trkpt>
      <trkpt lat="59.419817" lon="17.830396">
        <ele>43.5</ele>
        <time>2013-08-11T16:31:13Z</time>
      </trkpt>
      <trkpt lat="59.419848" lon="17.830457">
        <ele>43.6</ele>
        <time>2013-08-11T16:31:14Z</time>
      </trkpt>
      <trkpt lat="59.419894" lon="17.830527">
        <ele>43.7</ele>
        <time>2013-08-11T16:31:15Z</time>
      </trkpt>
      <trkpt lat="59.419943" lon="17.830598">
        <ele>44.1</ele>
        <time>2013-08-11T16:31:16Z</time>
      </trkpt>
      <trkpt lat="59.419992" lon="17.830668">
        <ele>44.1</ele>
        <time>2013-08-11T16:31:17Z</time>
      </trkpt>
      <trkpt lat="59.420058" lon="17.830703">
        <ele>43.7</ele>
        <time>2013-08-11T16:31:18Z</time>
      </trkpt>
      <trkpt lat="59.420117" lon="17.830756">
        <ele>43.6</ele>
        <time>2013-08-11T16:31:19Z</time>
      </trkpt>
      <trkpt lat="59.420194" lon="17.830783">
        <ele>42.8</ele>
        <time>2013-08-11T16:31:20Z</time>
      </trkpt>
      <trkpt lat="59.420264" lon="17.830824">
        <ele>43.4</ele>
        <time>2013-08-11T16:31:21Z</time>
      </trkpt>
      <trkpt lat="59.420332" lon="17.830869">
        <ele>43.4</ele>
        <time>2013-08-11T16:31:22Z</time>
      </trkpt>
      <trkpt lat="59.420394" lon="17.830901">
        <ele>43.5</ele>
        <time>2013-08-11T16:31:23Z</time>
      </trkpt>
      <trkpt lat="59.420471" lon="17.830936">
        <ele>43.6</ele>
        <time>2013-08-11T16:31:24Z</time>
      </trkpt>
      <trkpt lat="59.420541" lon="17.830982">
        <ele>42.9</ele>
        <time>2013-08-11T16:31:25Z</time>
      </trkpt>
      <trkpt lat="59.420612" lon="17.831027">
        <ele>42.9</ele>
        <time>2013-08-11T16:31:26Z</time>
      </trkpt>
      <trkpt lat="59.420681" lon="17.831079">
        <ele>43.5</ele>
        <time>2013-08-11T16:31:27Z</time>
      </trkpt>
      <trkpt lat="59.42075" lon="17.831132">
        <ele>43.7</ele>
        <time>2013-08-11T16:31:28Z</time>
      </trkpt>
      <trkpt lat="59.420823" lon="17.831184">
        <ele>43.5</ele>
        <time>2013-08-11T16:31:29Z</time>
      </trkpt>
      <trkpt lat="59.420898" lon="17.831243">
        <ele>43.7</ele>
        <time>2013-08-11T16:31:30Z</time>
      </trkpt>
      <trkpt lat="59.42097" lon="17.83131">
        <ele>43.4</ele>
        <time>2013-08-11T16:31:31Z</time>
      </trkpt>
      <trkpt lat="59.421037" lon="17.831374">
        <ele>43.3</ele>
        <time>2013-08-11T16:31:32Z</time>
      </trkpt>
      <trkpt lat="59.421107" lon="17.831433">
        <ele>43</ele>
        <time>2013-08-11T16:31:33Z</time>
      </trkpt>
      <trkpt lat="59.421185" lon="17.831503">
        <ele>43.1</ele>
        <time>2013-08-11T16:31:34Z</time>
      </trkpt>
      <trkpt lat="59.421261" lon="17.831567">
        <ele>43</ele>
        <time>2013-08-11T16:31:35Z</time>
      </trkpt>
      <trkpt lat="59.42134" lon="17.831621">
        <ele>42.4</ele>
        <time>2013-08-11T16:31:36Z</time>
      </trkpt>
      <trkpt lat="59.421412" lon="17.831644">
        <ele>42.4</ele>
        <time>2013-08-11T16:31:37Z</time>
      </trkpt>
      <trkpt lat="59.421488" lon="17.83169">
        <ele>42.3</ele>
        <time>2013-08-11T16:31:38Z</time>
      </trkpt>
      <trkpt lat="59.421569" lon="17.831717">
        <ele>42.8</ele>
        <time>2013-08-11T16:31:39Z</time>
      </trkpt>
      <trkpt lat="59.421649" lon="17.831753">
        <ele>42.8</ele>
        <time>2013-08-11T16:31:40Z</time>
      </trkpt>
      <trkpt lat="59.42173" lon="17.831767">
        <ele>42.8</ele>
        <time>2013-08-11T16:31:41Z</time>
      </trkpt>
      <trkpt lat="59.421812" lon="17.831785">
        <ele>43.2</ele>
        <time>2013-08-11T16:31:42Z</time>
      </trkpt>
      <trkpt lat="59.421889" lon="17.831782">
        <ele>43.7</ele>
        <time>2013-08-11T16:31:43Z</time>
      </trkpt>
      <trkpt lat="59.421972" lon="17.83179">
        <ele>43.8</ele>
        <time>2013-08-11T16:31:44Z</time>
      </trkpt>
      <trkpt lat="59.42205" lon="17.831779">
        <ele>43.7</ele>
        <time>2013-08-11T16:31:45Z</time>
      </trkpt>
      <trkpt lat="59.422134" lon="17.831776">
        <ele>43.7</ele>
        <time>2013-08-11T16:31:46Z</time>
      </trkpt>
      <trkpt lat="59.422225" lon="17.831772">
        <ele>43.7</ele>
        <time>2013-08-11T16:31:47Z</time>
      </trkpt>
      <trkpt lat="59.42231" lon="17.83177">
        <ele>43.6</ele>
        <time>2013-08-11T16:31:48Z</time>
      </trkpt>
      <trkpt lat="59.422394" lon="17.831766">
        <ele>43.4</ele>
        <time>2013-08-11T16:31:49Z</time>
      </trkpt>
      <trkpt lat="59.42248" lon="17.831765">
        <ele>43.2</ele>
        <time>2013-08-11T16:31:50Z</time>
      </trkpt>
      <trkpt lat="59.42256" lon="17.831766">
        <ele>43.5</ele>
        <time>2013-08-11T16:31:51Z</time>
      </trkpt>
      <trkpt lat="59.422643" lon="17.831762">
        <ele>43.8</ele>
        <time>2013-08-11T16:31:52Z</time>
      </trkpt>
      <trkpt lat="59.422732" lon="17.831771">
        <ele>44.2</ele>
        <time>2013-08-11T16:31:53Z</time>
      </trkpt>
      <trkpt lat="59.422818" lon="17.831773">
        <ele>44.2</ele>
        <time>2013-08-11T16:31:54Z</time>
      </trkpt>
      <trkpt lat="59.422907" lon="17.831775">
        <ele>43.7</ele>
        <time>2013-08-11T16:31:55Z</time>
      </trkpt>
      <trkpt lat="59.422994" lon="17.831779">
        <ele>43.5</ele>
        <time>2013-08-11T16:31:56Z</time>
      </trkpt>
      <trkpt lat="59.423087" lon="17.831776">
        <ele>44</ele>
        <time>2013-08-11T16:31:57Z</time>
      </trkpt>
      <trkpt lat="59.423175" lon="17.831777">
        <ele>44</ele>
        <time>2013-08-11T16:31:58Z</time>
      </trkpt>
      <trkpt lat="59.423255" lon="17.831773">
        <ele>46.3</ele>
        <time>2013-08-11T16:31:59Z</time>
      </trkpt>
      <trkpt lat="59.423342" lon="17.831771">
        <ele>46.5</ele>
        <time>2013-08-11T16:32:00Z</time>
      </trkpt>
      <trkpt lat="59.42343" lon="17.831757">
        <ele>47.7</ele>
        <time>2013-08-11T16:32:01Z</time>
      </trkpt>
      <trkpt lat="59.423518" lon="17.831754">
        <ele>47.8</ele>
        <time>2013-08-11T16:32:02Z</time>
      </trkpt>
      <trkpt lat="59.423604" lon="17.831742">
        <ele>48.4</ele>
        <time>2013-08-11T16:32:03Z</time>
      </trkpt>
      <trkpt lat="59.423686" lon="17.831725">
        <ele>49.2</ele>
        <time>2013-08-11T16:32:04Z</time>
      </trkpt>
      <trkpt lat="59.423804" lon="17.831768">
        <ele>47.1</ele>
        <time>2013-08-11T16:32:05Z</time>
      </trkpt>
      <trkpt lat="59.423893" lon="17.831758">
        <ele>47.4</ele>
        <time>2013-08-11T16:32:06Z</time>
      </trkpt>
      <trkpt lat="59.423981" lon="17.831757">
        <ele>47.3</ele>
        <time>2013-08-11T16:32:07Z</time>
      </trkpt>
      <trkpt lat="59.424069" lon="17.831768">
        <ele>47.3</ele>
        <time>2013-08-11T16:32:08Z</time>
      </trkpt>
      <trkpt lat="59.424157" lon="17.831768">
        <ele>46.9</ele>
        <time>2013-08-11T16:32:09Z</time>
      </trkpt>
      <trkpt lat="59.424247" lon="17.831768">
        <ele>45.9</ele>
        <time>2013-08-11T16:32:10Z</time>
      </trkpt>
      <trkpt lat="59.424349" lon="17.831782">
        <ele>46.4</ele>
        <time>2013-08-11T16:32:11Z</time>
      </trkpt>
      <trkpt lat="59.424439" lon="17.83178">
        <ele>46.4</ele>
        <time>2013-08-11T16:32:12Z</time>
      </trkpt>
      <trkpt lat="59.424529" lon="17.831772">
        <ele>45.3</ele>
        <time>2013-08-11T16:32:13Z</time>
      </trkpt>
      <trkpt lat="59.424618" lon="17.831766">
        <ele>45.2</ele>
        <time>2013-08-11T16:32:14Z</time>
      </trkpt>
      <trkpt lat="59.424713" lon="17.83177">
        <ele>44.8</ele>
        <time>2013-08-11T16:32:15Z</time>
      </trkpt>
      <trkpt lat="59.424804" lon="17.831762">
        <ele>44.8</ele>
        <time>2013-08-11T16:32:16Z</time>
      </trkpt>
      <trkpt lat="59.424898" lon="17.831754">
        <ele>44.8</ele>
        <time>2013-08-11T16:32:17Z</time>
      </trkpt>
      <trkpt lat="59.424991" lon="17.831746">
        <ele>44.8</ele>
        <time>2013-08-11T16:32:18Z</time>
      </trkpt>
      <trkpt lat="59.425078" lon="17.831748">
        <ele>44.2</ele>
        <time>2013-08-11T16:32:19Z</time>
      </trkpt>
      <trkpt lat="59.425172" lon="17.831742">
        <ele>44.3</ele>
        <time>2013-08-11T16:32:20Z</time>
      </trkpt>
      <trkpt lat="59.425258" lon="17.831731">
        <ele>44.1</ele>
        <time>2013-08-11T16:32:21Z</time>
      </trkpt>
      <trkpt lat="59.425347" lon="17.831723">
        <ele>44</ele>
        <time>2013-08-11T16:32:22Z</time>
      </trkpt>
      <trkpt lat="59.425439" lon="17.831715">
        <ele>44.1</ele>
        <time>2013-08-11T16:32:23Z</time>
      </trkpt>
      <trkpt lat="59.425527" lon="17.831676">
        <ele>44.4</ele>
        <time>2013-08-11T16:32:24Z</time>
      </trkpt>
      <trkpt lat="59.425621" lon="17.831668">
        <ele>44.4</ele>
        <time>2013-08-11T16:32:25Z</time>
      </trkpt>
      <trkpt lat="59.425714" lon="17.831671">
        <ele>44.1</ele>
        <time>2013-08-11T16:32:26Z</time>
      </trkpt>
      <trkpt lat="59.425805" lon="17.831657">
        <ele>44.2</ele>
        <time>2013-08-11T16:32:27Z</time>
      </trkpt>
      <trkpt lat="59.425903" lon="17.831646">
        <ele>44.4</ele>
        <time>2013-08-11T16:32:28Z</time>
      </trkpt>
      <trkpt lat="59.425996" lon="17.831619">
        <ele>43.9</ele>
        <time>2013-08-11T16:32:29Z</time>
      </trkpt>
      <trkpt lat="59.426084" lon="17.831587">
        <ele>43.1</ele>
        <time>2013-08-11T16:32:30Z</time>
      </trkpt>
      <trkpt lat="59.426174" lon="17.831558">
        <ele>43.2</ele>
        <time>2013-08-11T16:32:31Z</time>
      </trkpt>
      <trkpt lat="59.426259" lon="17.831511">
        <ele>42.5</ele>
        <time>2013-08-11T16:32:32Z</time>
      </trkpt>
      <trkpt lat="59.426347" lon="17.831471">
        <ele>42.5</ele>
        <time>2013-08-11T16:32:33Z</time>
      </trkpt>
      <trkpt lat="59.426431" lon="17.831422">
        <ele>42.9</ele>
        <time>2013-08-11T16:32:34Z</time>
      </trkpt>
      <trkpt lat="59.426516" lon="17.831372">
        <ele>42.9</ele>
        <time>2013-08-11T16:32:35Z</time>
      </trkpt>
      <trkpt lat="59.426599" lon="17.831316">
        <ele>42.8</ele>
        <time>2013-08-11T16:32:36Z</time>
      </trkpt>
      <trkpt lat="59.426683" lon="17.831262">
        <ele>42.8</ele>
        <time>2013-08-11T16:32:37Z</time>
      </trkpt>
      <trkpt lat="59.426772" lon="17.831198">
        <ele>42.2</ele>
        <time>2013-08-11T16:32:38Z</time>
      </trkpt>
      <trkpt lat="59.426857" lon="17.831142">
        <ele>42.2</ele>
        <time>2013-08-11T16:32:39Z</time>
      </trkpt>
      <trkpt lat="59.426947" lon="17.831085">
        <ele>42</ele>
        <time>2013-08-11T16:32:40Z</time>
      </trkpt>
      <trkpt lat="59.427033" lon="17.831029">
        <ele>42</ele>
        <time>2013-08-11T16:32:41Z</time>
      </trkpt>
      <trkpt lat="59.427112" lon="17.830978">
        <ele>41.6</ele>
        <time>2013-08-11T16:32:42Z</time>
      </trkpt>
      <trkpt lat="59.427193" lon="17.830924">
        <ele>41.6</ele>
        <time>2013-08-11T16:32:43Z</time>
      </trkpt>
      <trkpt lat="59.427278" lon="17.830867">
        <ele>41.6</ele>
        <time>2013-08-11T16:32:44Z</time>
      </trkpt>
      <trkpt lat="59.427362" lon="17.830809">
        <ele>41.6</ele>
        <time>2013-08-11T16:32:45Z</time>
      </trkpt>
      <trkpt lat="59.427438" lon="17.830731">
        <ele>41.6</ele>
        <time>2013-08-11T16:32:46Z</time>
      </trkpt>
      <trkpt lat="59.427515" lon="17.830646">
        <ele>41.5</ele>
        <time>2013-08-11T16:32:47Z</time>
      </trkpt>
      <trkpt lat="59.427591" lon="17.830566">
        <ele>41.3</ele>
        <time>2013-08-11T16:32:48Z</time>
      </trkpt>
      <trkpt lat="59.427667" lon="17.830486">
        <ele>41.2</ele>
        <time>2013-08-11T16:32:49Z</time>
      </trkpt>
      <trkpt lat="59.427738" lon="17.830399">
        <ele>41.7</ele>
        <time>2013-08-11T16:32:50Z</time>
      </trkpt>
      <trkpt lat="59.427811" lon="17.830312">
        <ele>41.8</ele>
        <time>2013-08-11T16:32:51Z</time>
      </trkpt>
      <trkpt lat="59.427867" lon="17.830206">
        <ele>41.9</ele>
        <time>2013-08-11T16:32:52Z</time>
      </trkpt>
      <trkpt lat="59.427935" lon="17.830106">
        <ele>42</ele>
        <time>2013-08-11T16:32:53Z</time>
      </trkpt>
      <trkpt lat="59.427998" lon="17.83">
        <ele>42.3</ele>
        <time>2013-08-11T16:32:54Z</time>
      </trkpt>
      <trkpt lat="59.428065" lon="17.829901">
        <ele>42.6</ele>
        <time>2013-08-11T16:32:55Z</time>
      </trkpt>
      <trkpt lat="59.428125" lon="17.829796">
        <ele>42.4</ele>
        <time>2013-08-11T16:32:56Z</time>
      </trkpt>
      <trkpt lat="59.428188" lon="17.829696">
        <ele>42.4</ele>
        <time>2013-08-11T16:32:57Z</time>
      </trkpt>
      <trkpt lat="59.428247" lon="17.829593">
        <ele>42.5</ele>
        <time>2013-08-11T16:32:58Z</time>
      </trkpt>
      <trkpt lat="59.428308" lon="17.82949">
        <ele>42.5</ele>
        <time>2013-08-11T16:32:59Z</time>
      </trkpt>
      <trkpt lat="59.428367" lon="17.82939">
        <ele>42.7</ele>
        <time>2013-08-11T16:33:00Z</time>
      </trkpt>
      <trkpt lat="59.428419" lon="17.829288">
        <ele>42.6</ele>
        <time>2013-08-11T16:33:01Z</time>
      </trkpt>
      <trkpt lat="59.428471" lon="17.829189">
        <ele>43</ele>
        <time>2013-08-11T16:33:02Z</time>
      </trkpt>
      <trkpt lat="59.428525" lon="17.829087">
        <ele>43.2</ele>
        <time>2013-08-11T16:33:03Z</time>
      </trkpt>
      <trkpt lat="59.428572" lon="17.828987">
        <ele>43.8</ele>
        <time>2013-08-11T16:33:04Z</time>
      </trkpt>
      <trkpt lat="59.428622" lon="17.828885">
        <ele>44.1</ele>
        <time>2013-08-11T16:33:05Z</time>
      </trkpt>
      <trkpt lat="59.428658" lon="17.828796">
        <ele>43.5</ele>
        <time>2013-08-11T16:33:06Z</time>
      </trkpt>
      <trkpt lat="59.428703" lon="17.828704">
        <ele>43.6</ele>
        <time>2013-08-11T16:33:07Z</time>
      </trkpt>
      <trkpt lat="59.428748" lon="17.828615">
        <ele>43.4</ele>
        <time>2013-08-11T16:33:08Z</time>
      </trkpt>
      <trkpt lat="59.428791" lon="17.828531">
        <ele>43.5</ele>
        <time>2013-08-11T16:33:09Z</time>
      </trkpt>
      <trkpt lat="59.428821" lon="17.828466">
        <ele>43.7</ele>
        <time>2013-08-11T16:33:10Z</time>
      </trkpt>
      <trkpt lat="59.428856" lon="17.828398">
        <ele>43.8</ele>
        <time>2013-08-11T16:33:11Z</time>
      </trkpt>
      <trkpt lat="59.428896" lon="17.828419">
        <ele>43.9</ele>
        <time>2013-08-11T16:33:12Z</time>
      </trkpt>
      <trkpt lat="59.428938" lon="17.828407">
        <ele>44</ele>
        <time>2013-08-11T16:33:13Z</time>
      </trkpt>
      <trkpt lat="59.428991" lon="17.828532">
        <ele>43.5</ele>
        <time>2013-08-11T16:33:14Z</time>
      </trkpt>
      <trkpt lat="59.429028" lon="17.828636">
        <ele>43.2</ele>
        <time>2013-08-11T16:33:15Z</time>
      </trkpt>
      <trkpt lat="59.429062" lon="17.828741">
        <ele>43.3</ele>
        <time>2013-08-11T16:33:16Z</time>
      </trkpt>
      <trkpt lat="59.429097" lon="17.828849">
        <ele>43.2</ele>
        <time>2013-08-11T16:33:17Z</time>
      </trkpt>
      <trkpt lat="59.429142" lon="17.828967">
        <ele>42.7</ele>
        <time>2013-08-11T16:33:18Z</time>
      </trkpt>
      <trkpt lat="59.429185" lon="17.829076">
        <ele>42.7</ele>
        <time>2013-08-11T16:33:19Z</time>
      </trkpt>
      <trkpt lat="59.429227" lon="17.829183">
        <ele>42.1</ele>
        <time>2013-08-11T16:33:20Z</time>
      </trkpt>
      <trkpt lat="59.429269" lon="17.829293">
        <ele>41.7</ele>
        <time>2013-08-11T16:33:21Z</time>
      </trkpt>
      <trkpt lat="59.429329" lon="17.829421">
        <ele>40.8</ele>
        <time>2013-08-11T16:33:22Z</time>
      </trkpt>
      <trkpt lat="59.429378" lon="17.829545">
        <ele>40.2</ele>
        <time>2013-08-11T16:33:23Z</time>
      </trkpt>
      <trkpt lat="59.429415" lon="17.829719">
        <ele>39.6</ele>
        <time>2013-08-11T16:33:24Z</time>
      </trkpt>
      <trkpt lat="59.429453" lon="17.829861">
        <ele>39.6</ele>
        <time>2013-08-11T16:33:25Z</time>
      </trkpt>
      <trkpt lat="59.429483" lon="17.829995">
        <ele>39.4</ele>
        <time>2013-08-11T16:33:26Z</time>
      </trkpt>
      <trkpt lat="59.429526" lon="17.830136">
        <ele>40.2</ele>
        <time>2013-08-11T16:33:27Z</time>
      </trkpt>
      <trkpt lat="59.429564" lon="17.830266">
        <ele>40.6</ele>
        <time>2013-08-11T16:33:28Z</time>
      </trkpt>
      <trkpt lat="59.429587" lon="17.830367">
        <ele>41.7</ele>
        <time>2013-08-11T16:33:29Z</time>
      </trkpt>
      <trkpt lat="59.429617" lon="17.830468">
        <ele>42.3</ele>
        <time>2013-08-11T16:33:30Z</time>
      </trkpt>
      <trkpt lat="59.429669" lon="17.830512">
        <ele>43.1</ele>
        <time>2013-08-11T16:33:31Z</time>
      </trkpt>
      <trkpt lat="59.429711" lon="17.830576">
        <ele>43.5</ele>
        <time>2013-08-11T16:33:32Z</time>
      </trkpt>
      <trkpt lat="59.429757" lon="17.830607">
        <ele>43.4</ele>
        <time>2013-08-11T16:33:33Z</time>
      </trkpt>
      <trkpt lat="59.429781" lon="17.83068">
        <ele>43.7</ele>
        <time>2013-08-11T16:33:34Z</time>
      </trkpt>
      <trkpt lat="59.429809" lon="17.830774">
        <ele>43.3</ele>
        <time>2013-08-11T16:33:35Z</time>
      </trkpt>
      <trkpt lat="59.429836" lon="17.830866">
        <ele>43</ele>
        <time>2013-08-11T16:33:36Z</time>
      </trkpt>
      <trkpt lat="59.42988" lon="17.830964">
        <ele>43.7</ele>
        <time>2013-08-11T16:33:37Z</time>
      </trkpt>
      <trkpt lat="59.429911" lon="17.831068">
        <ele>43.7</ele>
        <time>2013-08-11T16:33:38Z</time>
      </trkpt>
      <trkpt lat="59.429942" lon="17.831175">
        <ele>44.4</ele>
        <time>2013-08-11T16:33:39Z</time>
      </trkpt>
      <trkpt lat="59.429973" lon="17.83128">
        <ele>44.5</ele>
        <time>2013-08-11T16:33:40Z</time>
      </trkpt>
      <trkpt lat="59.429999" lon="17.831365">
        <ele>44.8</ele>
        <time>2013-08-11T16:33:41Z</time>
      </trkpt>
      <trkpt lat="59.430033" lon="17.831458">
        <ele>44.7</ele>
        <time>2013-08-11T16:33:42Z</time>
      </trkpt>
      <trkpt lat="59.430057" lon="17.831548">
        <ele>44.5</ele>
        <time>2013-08-11T16:33:43Z</time>
      </trkpt>
      <trkpt lat="59.430084" lon="17.831639">
        <ele>44.6</ele>
        <time>2013-08-11T16:33:44Z</time>
      </trkpt>
      <trkpt lat="59.43012" lon="17.831715">
        <ele>45.6</ele>
        <time>2013-08-11T16:33:45Z</time>
      </trkpt>
      <trkpt lat="59.430149" lon="17.831792">
        <ele>46.4</ele>
        <time>2013-08-11T16:33:46Z</time>
      </trkpt>
      <trkpt lat="59.430218" lon="17.831789">
        <ele>45.9</ele>
        <time>2013-08-11T16:33:47Z</time>
      </trkpt>
      <trkpt lat="59.430271" lon="17.831802">
        <ele>45.9</ele>
        <time>2013-08-11T16:33:48Z</time>
      </trkpt>
      <trkpt lat="59.430329" lon="17.831763">
        <ele>46.1</ele>
        <time>2013-08-11T16:33:49Z</time>
      </trkpt>
      <trkpt lat="59.430388" lon="17.831746">
        <ele>46.3</ele>
        <time>2013-08-11T16:33:50Z</time>
      </trkpt>
      <trkpt lat="59.430457" lon="17.831707">
        <ele>45.5</ele>
        <time>2013-08-11T16:33:51Z</time>
      </trkpt>
      <trkpt lat="59.430518" lon="17.831681">
        <ele>45.6</ele>
        <time>2013-08-11T16:33:52Z</time>
      </trkpt>
      <trkpt lat="59.430579" lon="17.831646">
        <ele>45.1</ele>
        <time>2013-08-11T16:33:53Z</time>
      </trkpt>
      <trkpt lat="59.430641" lon="17.831615">
        <ele>45</ele>
        <time>2013-08-11T16:33:54Z</time>
      </trkpt>
      <trkpt lat="59.430701" lon="17.831573">
        <ele>45.1</ele>
        <time>2013-08-11T16:33:55Z</time>
      </trkpt>
      <trkpt lat="59.430759" lon="17.831542">
        <ele>45.9</ele>
        <time>2013-08-11T16:33:56Z</time>
      </trkpt>
      <trkpt lat="59.430817" lon="17.831487">
        <ele>45.6</ele>
        <time>2013-08-11T16:33:57Z</time>
      </trkpt>
      <trkpt lat="59.430877" lon="17.831433">
        <ele>45.7</ele>
        <time>2013-08-11T16:33:58Z</time>
      </trkpt>
      <trkpt lat="59.430946" lon="17.831381">
        <ele>44.9</ele>
        <time>2013-08-11T16:33:59Z</time>
      </trkpt>
      <trkpt lat="59.43101" lon="17.831324">
        <ele>44</ele>
        <time>2013-08-11T16:34:00Z</time>
      </trkpt>
      <trkpt lat="59.43107" lon="17.831258">
        <ele>43.8</ele>
        <time>2013-08-11T16:34:01Z</time>
      </trkpt>
      <trkpt lat="59.431131" lon="17.831191">
        <ele>43.7</ele>
        <time>2013-08-11T16:34:02Z</time>
      </trkpt>
      <trkpt lat="59.431188" lon="17.831112">
        <ele>43.7</ele>
        <time>2013-08-11T16:34:03Z</time>
      </trkpt>
      <trkpt lat="59.431247" lon="17.831039">
        <ele>43.9</ele>
        <time>2013-08-11T16:34:04Z</time>
      </trkpt>
      <trkpt lat="59.431303" lon="17.83094">
        <ele>44</ele>
        <time>2013-08-11T16:34:05Z</time>
      </trkpt>
      <trkpt lat="59.431361" lon="17.830854">
        <ele>44</ele>
        <time>2013-08-11T16:34:06Z</time>
      </trkpt>
      <trkpt lat="59.431432" lon="17.830762">
        <ele>43.4</ele>
        <time>2013-08-11T16:34:07Z</time>
      </trkpt>
      <trkpt lat="59.431492" lon="17.830676">
        <ele>43.5</ele>
        <time>2013-08-11T16:34:08Z</time>
      </trkpt>
      <trkpt lat="59.431549" lon="17.830585">
        <ele>43.1</ele>
        <time>2013-08-11T16:34:09Z</time>
      </trkpt>
      <trkpt lat="59.431606" lon="17.830502">
        <ele>43.1</ele>
        <time>2013-08-11T16:34:10Z</time>
      </trkpt>
      <trkpt lat="59.431664" lon="17.830417">
        <ele>43</ele>
        <time>2013-08-11T16:34:11Z</time>
      </trkpt>
      <trkpt lat="59.431719" lon="17.830331">
        <ele>42.8</ele>
        <time>2013-08-11T16:34:12Z</time>
      </trkpt>
      <trkpt lat="59.431784" lon="17.830249">
        <ele>42.9</ele>
        <time>2013-08-11T16:34:13Z</time>
      </trkpt>
      <trkpt lat="59.431847" lon="17.830169">
        <ele>42.8</ele>
        <time>2013-08-11T16:34:14Z</time>
      </trkpt>
      <trkpt lat="59.431908" lon="17.830086">
        <ele>42.9</ele>
        <time>2013-08-11T16:34:15Z</time>
      </trkpt>
      <trkpt lat="59.431975" lon="17.830012">
        <ele>42.6</ele>
        <time>2013-08-11T16:34:16Z</time>
      </trkpt>
      <trkpt lat="59.432038" lon="17.829925">
        <ele>42.6</ele>
        <time>2013-08-11T16:34:17Z</time>
      </trkpt>
      <trkpt lat="59.432097" lon="17.829841">
        <ele>43.1</ele>
        <time>2013-08-11T16:34:18Z</time>
      </trkpt>
      <trkpt lat="59.432159" lon="17.829775">
        <ele>43.7</ele>
        <time>2013-08-11T16:34:19Z</time>
      </trkpt>
      <trkpt lat="59.432225" lon="17.829702">
        <ele>44</ele>
        <time>2013-08-11T16:34:20Z</time>
      </trkpt>
      <trkpt lat="59.432288" lon="17.82963">
        <ele>43.8</ele>
        <time>2013-08-11T16:34:21Z</time>
      </trkpt>
      <trkpt lat="59.432352" lon="17.829557">
        <ele>43.9</ele>
        <time>2013-08-11T16:34:22Z</time>
      </trkpt>
      <trkpt lat="59.432415" lon="17.829493">
        <ele>43.4</ele>
        <time>2013-08-11T16:34:23Z</time>
      </trkpt>
      <trkpt lat="59.43248" lon="17.82943">
        <ele>43.2</ele>
        <time>2013-08-11T16:34:24Z</time>
      </trkpt>
      <trkpt lat="59.432543" lon="17.829359">
        <ele>43</ele>
        <time>2013-08-11T16:34:25Z</time>
      </trkpt>
      <trkpt lat="59.432607" lon="17.829291">
        <ele>43.2</ele>
        <time>2013-08-11T16:34:26Z</time>
      </trkpt>
      <trkpt lat="59.43268" lon="17.829229">
        <ele>42.8</ele>
        <time>2013-08-11T16:34:27Z</time>
      </trkpt>
      <trkpt lat="59.432748" lon="17.829155">
        <ele>43.5</ele>
        <time>2013-08-11T16:34:28Z</time>
      </trkpt>
      <trkpt lat="59.432813" lon="17.829097">
        <ele>43.8</ele>
        <time>2013-08-11T16:34:29Z</time>
      </trkpt>
      <trkpt lat="59.43288" lon="17.829028">
        <ele>43.8</ele>
        <time>2013-08-11T16:34:30Z</time>
      </trkpt>
      <trkpt lat="59.43295" lon="17.828961">
        <ele>43.4</ele>
        <time>2013-08-11T16:34:31Z</time>
      </trkpt>
      <trkpt lat="59.433021" lon="17.828904">
        <ele>43.5</ele>
        <time>2013-08-11T16:34:32Z</time>
      </trkpt>
      <trkpt lat="59.433088" lon="17.828838">
        <ele>43.7</ele>
        <time>2013-08-11T16:34:33Z</time>
      </trkpt>
      <trkpt lat="59.433158" lon="17.82879">
        <ele>44</ele>
        <time>2013-08-11T16:34:34Z</time>
      </trkpt>
      <trkpt lat="59.433229" lon="17.828743">
        <ele>44</ele>
        <time>2013-08-11T16:34:35Z</time>
      </trkpt>
      <trkpt lat="59.433299" lon="17.828692">
        <ele>44.1</ele>
        <time>2013-08-11T16:34:36Z</time>
      </trkpt>
      <trkpt lat="59.433367" lon="17.828666">
        <ele>43.9</ele>
        <time>2013-08-11T16:34:37Z</time>
      </trkpt>
      <trkpt lat="59.433438" lon="17.828627">
        <ele>44</ele>
        <time>2013-08-11T16:34:38Z</time>
      </trkpt>
      <trkpt lat="59.433506" lon="17.82861">
        <ele>43.9</ele>
        <time>2013-08-11T16:34:39Z</time>
      </trkpt>
      <trkpt lat="59.433573" lon="17.828586">
        <ele>43.8</ele>
        <time>2013-08-11T16:34:40Z</time>
      </trkpt>
      <trkpt lat="59.433635" lon="17.828592">
        <ele>44.8</ele>
        <time>2013-08-11T16:34:41Z</time>
      </trkpt>
      <trkpt lat="59.433699" lon="17.828584">
        <ele>45.2</ele>
        <time>2013-08-11T16:34:42Z</time>
      </trkpt>
      <trkpt lat="59.433772" lon="17.828576">
        <ele>45.3</ele>
        <time>2013-08-11T16:34:43Z</time>
      </trkpt>
      <trkpt lat="59.433841" lon="17.828574">
        <ele>45.5</ele>
        <time>2013-08-11T16:34:44Z</time>
      </trkpt>
      <trkpt lat="59.433912" lon="17.828559">
        <ele>45.8</ele>
        <time>2013-08-11T16:34:45Z</time>
      </trkpt>
      <trkpt lat="59.433983" lon="17.828545">
        <ele>46</ele>
        <time>2013-08-11T16:34:46Z</time>
      </trkpt>
      <trkpt lat="59.434049" lon="17.828529">
        <ele>45.5</ele>
        <time>2013-08-11T16:34:47Z</time>
      </trkpt>
      <trkpt lat="59.434118" lon="17.828517">
        <ele>45.3</ele>
        <time>2013-08-11T16:34:48Z</time>
      </trkpt>
      <trkpt lat="59.434189" lon="17.8285">
        <ele>45.7</ele>
        <time>2013-08-11T16:34:49Z</time>
      </trkpt>
      <trkpt lat="59.434257" lon="17.828496">
        <ele>46.3</ele>
        <time>2013-08-11T16:34:50Z</time>
      </trkpt>
      <trkpt lat="59.434325" lon="17.828491">
        <ele>46.4</ele>
        <time>2013-08-11T16:34:51Z</time>
      </trkpt>
      <trkpt lat="59.434391" lon="17.828484">
        <ele>46.8</ele>
        <time>2013-08-11T16:34:52Z</time>
      </trkpt>
      <trkpt lat="59.434453" lon="17.828464">
        <ele>47.6</ele>
        <time>2013-08-11T16:34:53Z</time>
      </trkpt>
      <trkpt lat="59.434524" lon="17.828441">
        <ele>48</ele>
        <time>2013-08-11T16:34:54Z</time>
      </trkpt>
      <trkpt lat="59.434594" lon="17.828431">
        <ele>48</ele>
        <time>2013-08-11T16:34:55Z</time>
      </trkpt>
      <trkpt lat="59.434659" lon="17.828425">
        <ele>48.6</ele>
        <time>2013-08-11T16:34:56Z</time>
      </trkpt>
      <trkpt lat="59.43472" lon="17.82842">
        <ele>48.6</ele>
        <time>2013-08-11T16:34:57Z</time>
      </trkpt>
      <trkpt lat="59.434784" lon="17.828414">
        <ele>48.6</ele>
        <time>2013-08-11T16:34:58Z</time>
      </trkpt>
      <trkpt lat="59.434848" lon="17.828417">
        <ele>48.7</ele>
        <time>2013-08-11T16:34:59Z</time>
      </trkpt>
      <trkpt lat="59.43491" lon="17.828425">
        <ele>48.9</ele>
        <time>2013-08-11T16:35:00Z</time>
      </trkpt>
      <trkpt lat="59.434971" lon="17.828446">
        <ele>49.1</ele>
        <time>2013-08-11T16:35:01Z</time>
      </trkpt>
      <trkpt lat="59.435029" lon="17.828463">
        <ele>49.4</ele>
        <time>2013-08-11T16:35:02Z</time>
      </trkpt>
      <trkpt lat="59.435075" lon="17.828564">
        <ele>49.8</ele>
        <time>2013-08-11T16:35:03Z</time>
      </trkpt>
      <trkpt lat="59.43512" lon="17.828628">
        <ele>49.1</ele>
        <time>2013-08-11T16:35:04Z</time>
      </trkpt>
      <trkpt lat="59.435166" lon="17.828692">
        <ele>49.5</ele>
        <time>2013-08-11T16:35:05Z</time>
      </trkpt>
      <trkpt lat="59.435209" lon="17.828758">
        <ele>49.9</ele>
        <time>2013-08-11T16:35:06Z</time>
      </trkpt>
      <trkpt lat="59.435269" lon="17.828759">
        <ele>50.1</ele>
        <time>2013-08-11T16:35:07Z</time>
      </trkpt>
      <trkpt lat="59.435324" lon="17.828747">
        <ele>49.8</ele>
        <time>2013-08-11T16:35:08Z</time>
      </trkpt>
      <trkpt lat="59.435378" lon="17.828721">
        <ele>50.1</ele>
        <time>2013-08-11T16:35:09Z</time>
      </trkpt>
      <trkpt lat="59.435433" lon="17.828696">
        <ele>50.1</ele>
        <time>2013-08-11T16:35:10Z</time>
      </trkpt>
      <trkpt lat="59.435489" lon="17.828658">
        <ele>50.5</ele>
        <time>2013-08-11T16:35:11Z</time>
      </trkpt>
      <trkpt lat="59.435547" lon="17.828628">
        <ele>50.5</ele>
        <time>2013-08-11T16:35:12Z</time>
      </trkpt>
      <trkpt lat="59.435611" lon="17.828584">
        <ele>49.9</ele>
        <time>2013-08-11T16:35:13Z</time>
      </trkpt>
      <trkpt lat="59.435672" lon="17.828536">
        <ele>49.8</ele>
        <time>2013-08-11T16:35:14Z</time>
      </trkpt>
      <trkpt lat="59.435732" lon="17.828489">
        <ele>50</ele>
        <time>2013-08-11T16:35:15Z</time>
      </trkpt>
      <trkpt lat="59.435792" lon="17.828441">
        <ele>50.2</ele>
        <time>2013-08-11T16:35:16Z</time>
      </trkpt>
      <trkpt lat="59.435843" lon="17.828388">
        <ele>51.2</ele>
        <time>2013-08-11T16:35:17Z</time>
      </trkpt>
      <trkpt lat="59.435898" lon="17.828327">
        <ele>50.9</ele>
        <time>2013-08-11T16:35:18Z</time>
      </trkpt>
      <trkpt lat="59.435953" lon="17.828264">
        <ele>51.6</ele>
        <time>2013-08-11T16:35:19Z</time>
      </trkpt>
      <trkpt lat="59.436009" lon="17.828203">
        <ele>51.7</ele>
        <time>2013-08-11T16:35:20Z</time>
      </trkpt>
      <trkpt lat="59.436058" lon="17.828146">
        <ele>52.4</ele>
        <time>2013-08-11T16:35:21Z</time>
      </trkpt>
      <trkpt lat="59.436115" lon="17.828096">
        <ele>52.8</ele>
        <time>2013-08-11T16:35:22Z</time>
      </trkpt>
      <trkpt lat="59.436169" lon="17.828052">
        <ele>53</ele>
        <time>2013-08-11T16:35:23Z</time>
      </trkpt>
      <trkpt lat="59.436222" lon="17.828001">
        <ele>53.1</ele>
        <time>2013-08-11T16:35:24Z</time>
      </trkpt>
      <trkpt lat="59.436275" lon="17.827952">
        <ele>52.9</ele>
        <time>2013-08-11T16:35:25Z</time>
      </trkpt>
      <trkpt lat="59.436328" lon="17.827902">
        <ele>53.2</ele>
        <time>2013-08-11T16:35:26Z</time>
      </trkpt>
      <trkpt lat="59.436386" lon="17.827842">
        <ele>53.2</ele>
        <time>2013-08-11T16:35:27Z</time>
      </trkpt>
      <trkpt lat="59.436442" lon="17.827789">
        <ele>53.2</ele>
        <time>2013-08-11T16:35:28Z</time>
      </trkpt>
      <trkpt lat="59.436493" lon="17.827739">
        <ele>52.9</ele>
        <time>2013-08-11T16:35:29Z</time>
      </trkpt>
      <trkpt lat="59.436548" lon="17.82769">
        <ele>53</ele>
        <time>2013-08-11T16:35:30Z</time>
      </trkpt>
      <trkpt lat="59.436601" lon="17.827635">
        <ele>53.6</ele>
        <time>2013-08-11T16:35:31Z</time>
      </trkpt>
      <trkpt lat="59.436661" lon="17.827587">
        <ele>53.6</ele>
        <time>2013-08-11T16:35:32Z</time>
      </trkpt>
      <trkpt lat="59.436722" lon="17.827539">
        <ele>53.5</ele>
        <time>2013-08-11T16:35:33Z</time>
      </trkpt>
      <trkpt lat="59.436783" lon="17.827496">
        <ele>53.5</ele>
        <time>2013-08-11T16:35:34Z</time>
      </trkpt>
      <trkpt lat="59.436842" lon="17.827486">
        <ele>53.9</ele>
        <time>2013-08-11T16:35:35Z</time>
      </trkpt>
      <trkpt lat="59.436902" lon="17.827472">
        <ele>54.5</ele>
        <time>2013-08-11T16:35:36Z</time>
      </trkpt>
      <trkpt lat="59.436963" lon="17.827477">
        <ele>54.4</ele>
        <time>2013-08-11T16:35:37Z</time>
      </trkpt>
      <trkpt lat="59.43702" lon="17.827484">
        <ele>54.7</ele>
        <time>2013-08-11T16:35:38Z</time>
      </trkpt>
      <trkpt lat="59.437082" lon="17.827493">
        <ele>55.1</ele>
        <time>2013-08-11T16:35:39Z</time>
      </trkpt>
      <trkpt lat="59.437144" lon="17.827516">
        <ele>55.2</ele>
        <time>2013-08-11T16:35:40Z</time>
      </trkpt>
      <trkpt lat="59.437206" lon="17.827553">
        <ele>55</ele>
        <time>2013-08-11T16:35:41Z</time>
      </trkpt>
      <trkpt lat="59.437271" lon="17.827583">
        <ele>54.8</ele>
        <time>2013-08-11T16:35:42Z</time>
      </trkpt>
      <trkpt lat="59.437334" lon="17.827615">
        <ele>54.2</ele>
        <time>2013-08-11T16:35:43Z</time>
      </trkpt>
      <trkpt lat="59.437397" lon="17.827651">
        <ele>54.4</ele>
        <time>2013-08-11T16:35:44Z</time>
      </trkpt>
      <trkpt lat="59.43746" lon="17.827686">
        <ele>54.6</ele>
        <time>2013-08-11T16:35:45Z</time>
      </trkpt>
      <trkpt lat="59.437525" lon="17.827719">
        <ele>54.4</ele>
        <time>2013-08-11T16:35:46Z</time>
      </trkpt>
      <trkpt lat="59.437588" lon="17.827749">
        <ele>54.7</ele>
        <time>2013-08-11T16:35:47Z</time>
      </trkpt>
      <trkpt lat="59.437651" lon="17.827795">
        <ele>54.1</ele>
        <time>2013-08-11T16:35:48Z</time>
      </trkpt>
      <trkpt lat="59.437712" lon="17.827836">
        <ele>54.3</ele>
        <time>2013-08-11T16:35:49Z</time>
      </trkpt>
      <trkpt lat="59.437774" lon="17.827875">
        <ele>54.2</ele>
        <time>2013-08-11T16:35:50Z</time>
      </trkpt>
      <trkpt lat="59.437842" lon="17.827903">
        <ele>54.6</ele>
        <time>2013-08-11T16:35:51Z</time>
      </trkpt>
      <trkpt lat="59.437905" lon="17.827939">
        <ele>54.7</ele>
        <time>2013-08-11T16:35:52Z</time>
      </trkpt>
      <trkpt lat="59.437972" lon="17.827985">
        <ele>54.8</ele>
        <time>2013-08-11T16:35:53Z</time>
      </trkpt>
      <trkpt lat="59.438039" lon="17.82802">
        <ele>55</ele>
        <time>2013-08-11T16:35:54Z</time>
      </trkpt>
      <trkpt lat="59.438103" lon="17.828049">
        <ele>54.8</ele>
        <time>2013-08-11T16:35:55Z</time>
      </trkpt>
      <trkpt lat="59.438167" lon="17.828078">
        <ele>54.8</ele>
        <time>2013-08-11T16:35:56Z</time>
      </trkpt>
      <trkpt lat="59.438224" lon="17.82802">
        <ele>54.6</ele>
        <time>2013-08-11T16:35:57Z</time>
      </trkpt>
      <trkpt lat="59.438278" lon="17.827962">
        <ele>54.9</ele>
        <time>2013-08-11T16:35:58Z</time>
      </trkpt>
      <trkpt lat="59.438323" lon="17.827862">
        <ele>55.1</ele>
        <time>2013-08-11T16:35:59Z</time>
      </trkpt>
      <trkpt lat="59.438367" lon="17.827763">
        <ele>55.4</ele>
        <time>2013-08-11T16:36:00Z</time>
      </trkpt>
      <trkpt lat="59.438383" lon="17.827614">
        <ele>55.2</ele>
        <time>2013-08-11T16:36:01Z</time>
      </trkpt>
      <trkpt lat="59.438408" lon="17.827487">
        <ele>55.2</ele>
        <time>2013-08-11T16:36:02Z</time>
      </trkpt>
      <trkpt lat="59.438432" lon="17.827354">
        <ele>55.1</ele>
        <time>2013-08-11T16:36:03Z</time>
      </trkpt>
      <trkpt lat="59.438446" lon="17.827224">
        <ele>54.9</ele>
        <time>2013-08-11T16:36:04Z</time>
      </trkpt>
      <trkpt lat="59.438467" lon="17.827097">
        <ele>55</ele>
        <time>2013-08-11T16:36:05Z</time>
      </trkpt>
      <trkpt lat="59.43849" lon="17.826965">
        <ele>54.8</ele>
        <time>2013-08-11T16:36:06Z</time>
      </trkpt>
      <trkpt lat="59.438535" lon="17.826837">
        <ele>55.2</ele>
        <time>2013-08-11T16:36:07Z</time>
      </trkpt>
      <trkpt lat="59.43857" lon="17.826711">
        <ele>55.2</ele>
        <time>2013-08-11T16:36:08Z</time>
      </trkpt>
      <trkpt lat="59.438667" lon="17.826666">
        <ele>54.4</ele>
        <time>2013-08-11T16:36:09Z</time>
      </trkpt>
      <trkpt lat="59.438732" lon="17.826595">
        <ele>54.2</ele>
        <time>2013-08-11T16:36:10Z</time>
      </trkpt>
      <trkpt lat="59.438815" lon="17.826652">
        <ele>54</ele>
        <time>2013-08-11T16:36:11Z</time>
      </trkpt>
      <trkpt lat="59.438889" lon="17.826661">
        <ele>54.1</ele>
        <time>2013-08-11T16:36:12Z</time>
      </trkpt>
      <trkpt lat="59.438964" lon="17.826692">
        <ele>54.3</ele>
        <time>2013-08-11T16:36:13Z</time>
      </trkpt>
      <trkpt lat="59.439041" lon="17.826712">
        <ele>54.2</ele>
        <time>2013-08-11T16:36:14Z</time>
      </trkpt>
      <trkpt lat="59.439115" lon="17.826726">
        <ele>54.2</ele>
        <time>2013-08-11T16:36:15Z</time>
      </trkpt>
      <trkpt lat="59.439191" lon="17.826742">
        <ele>54.3</ele>
        <time>2013-08-11T16:36:16Z</time>
      </trkpt>
      <trkpt lat="59.439268" lon="17.826751">
        <ele>54.4</ele>
        <time>2013-08-11T16:36:17Z</time>
      </trkpt>
      <trkpt lat="59.439346" lon="17.826749">
        <ele>54.3</ele>
        <time>2013-08-11T16:36:18Z</time>
      </trkpt>
      <trkpt lat="59.439421" lon="17.826747">
        <ele>54.3</ele>
        <time>2013-08-11T16:36:19Z</time>
      </trkpt>
      <trkpt lat="59.439497" lon="17.826749">
        <ele>54.2</ele>
        <time>2013-08-11T16:36:20Z</time>
      </trkpt>
      <trkpt lat="59.439573" lon="17.826738">
        <ele>55.3</ele>
        <time>2013-08-11T16:36:21Z</time>
      </trkpt>
      <trkpt lat="59.439653" lon="17.826729">
        <ele>55.7</ele>
        <time>2013-08-11T16:36:22Z</time>
      </trkpt>
      <trkpt lat="59.439728" lon="17.826722">
        <ele>56.4</ele>
        <time>2013-08-11T16:36:23Z</time>
      </trkpt>
      <trkpt lat="59.439806" lon="17.826714">
        <ele>56.6</ele>
        <time>2013-08-11T16:36:24Z</time>
      </trkpt>
      <trkpt lat="59.439886" lon="17.826694">
        <ele>57.2</ele>
        <time>2013-08-11T16:36:25Z</time>
      </trkpt>
      <trkpt lat="59.439965" lon="17.82668">
        <ele>57.6</ele>
        <time>2013-08-11T16:36:26Z</time>
      </trkpt>
      <trkpt lat="59.440047" lon="17.826645">
        <ele>57.6</ele>
        <time>2013-08-11T16:36:27Z</time>
      </trkpt>
      <trkpt lat="59.440128" lon="17.826615">
        <ele>58</ele>
        <time>2013-08-11T16:36:28Z</time>
      </trkpt>
      <trkpt lat="59.4402" lon="17.826596">
        <ele>56.8</ele>
        <time>2013-08-11T16:36:29Z</time>
      </trkpt>
      <trkpt lat="59.440276" lon="17.826574">
        <ele>57.1</ele>
        <time>2013-08-11T16:36:30Z</time>
      </trkpt>
      <trkpt lat="59.440354" lon="17.826533">
        <ele>56.8</ele>
        <time>2013-08-11T16:36:31Z</time>
      </trkpt>
      <trkpt lat="59.440428" lon="17.82649">
        <ele>57.2</ele>
        <time>2013-08-11T16:36:32Z</time>
      </trkpt>
      <trkpt lat="59.440501" lon="17.826447">
        <ele>58</ele>
        <time>2013-08-11T16:36:33Z</time>
      </trkpt>
      <trkpt lat="59.440579" lon="17.826408">
        <ele>58.2</ele>
        <time>2013-08-11T16:36:34Z</time>
      </trkpt>
      <trkpt lat="59.440653" lon="17.826371">
        <ele>58.3</ele>
        <time>2013-08-11T16:36:35Z</time>
      </trkpt>
      <trkpt lat="59.44073" lon="17.826329">
        <ele>58.8</ele>
        <time>2013-08-11T16:36:36Z</time>
      </trkpt>
      <trkpt lat="59.440806" lon="17.826281">
        <ele>59.3</ele>
        <time>2013-08-11T16:36:37Z</time>
      </trkpt>
      <trkpt lat="59.440881" lon="17.826233">
        <ele>59.8</ele>
        <time>2013-08-11T16:36:38Z</time>
      </trkpt>
      <trkpt lat="59.440951" lon="17.826174">
        <ele>58.5</ele>
        <time>2013-08-11T16:36:39Z</time>
      </trkpt>
      <trkpt lat="59.441028" lon="17.826122">
        <ele>58.8</ele>
        <time>2013-08-11T16:36:40Z</time>
      </trkpt>
      <trkpt lat="59.441099" lon="17.826073">
        <ele>58.5</ele>
        <time>2013-08-11T16:36:41Z</time>
      </trkpt>
      <trkpt lat="59.441174" lon="17.826025">
        <ele>58.6</ele>
        <time>2013-08-11T16:36:42Z</time>
      </trkpt>
      <trkpt lat="59.441253" lon="17.82598">
        <ele>58.9</ele>
        <time>2013-08-11T16:36:43Z</time>
      </trkpt>
      <trkpt lat="59.441322" lon="17.825928">
        <ele>58.5</ele>
        <time>2013-08-11T16:36:44Z</time>
      </trkpt>
      <trkpt lat="59.441394" lon="17.825878">
        <ele>58.2</ele>
        <time>2013-08-11T16:36:45Z</time>
      </trkpt>
      <trkpt lat="59.441468" lon="17.825828">
        <ele>58.3</ele>
        <time>2013-08-11T16:36:46Z</time>
      </trkpt>
      <trkpt lat="59.441546" lon="17.825781">
        <ele>59</ele>
        <time>2013-08-11T16:36:47Z</time>
      </trkpt>
      <trkpt lat="59.441621" lon="17.825733">
        <ele>59.2</ele>
        <time>2013-08-11T16:36:48Z</time>
      </trkpt>
      <trkpt lat="59.441696" lon="17.825683">
        <ele>58.9</ele>
        <time>2013-08-11T16:36:49Z</time>
      </trkpt>
      <trkpt lat="59.441775" lon="17.82565">
        <ele>58.5</ele>
        <time>2013-08-11T16:36:50Z</time>
      </trkpt>
      <trkpt lat="59.441855" lon="17.82561">
        <ele>58.7</ele>
        <time>2013-08-11T16:36:51Z</time>
      </trkpt>
      <trkpt lat="59.441933" lon="17.825568">
        <ele>58.8</ele>
        <time>2013-08-11T16:36:52Z</time>
      </trkpt>
      <trkpt lat="59.442014" lon="17.82554">
        <ele>59.2</ele>
        <time>2013-08-11T16:36:53Z</time>
      </trkpt>
      <trkpt lat="59.442096" lon="17.8255">
        <ele>59.3</ele>
        <time>2013-08-11T16:36:54Z</time>
      </trkpt>
      <trkpt lat="59.442179" lon="17.82546">
        <ele>59.5</ele>
        <time>2013-08-11T16:36:55Z</time>
      </trkpt>
      <trkpt lat="59.442257" lon="17.825423">
        <ele>59.5</ele>
        <time>2013-08-11T16:36:56Z</time>
      </trkpt>
      <trkpt lat="59.442335" lon="17.825386">
        <ele>59.7</ele>
        <time>2013-08-11T16:36:57Z</time>
      </trkpt>
      <trkpt lat="59.442414" lon="17.825355">
        <ele>60</ele>
        <time>2013-08-11T16:36:58Z</time>
      </trkpt>
      <trkpt lat="59.442492" lon="17.825335">
        <ele>59.7</ele>
        <time>2013-08-11T16:36:59Z</time>
      </trkpt>
      <trkpt lat="59.442572" lon="17.82531">
        <ele>59.9</ele>
        <time>2013-08-11T16:37:00Z</time>
      </trkpt>
      <trkpt lat="59.442657" lon="17.825281">
        <ele>59.6</ele>
        <time>2013-08-11T16:37:01Z</time>
      </trkpt>
      <trkpt lat="59.442738" lon="17.825253">
        <ele>59.6</ele>
        <time>2013-08-11T16:37:02Z</time>
      </trkpt>
      <trkpt lat="59.442821" lon="17.825236">
        <ele>59.5</ele>
        <time>2013-08-11T16:37:03Z</time>
      </trkpt>
      <trkpt lat="59.442906" lon="17.825236">
        <ele>59.1</ele>
        <time>2013-08-11T16:37:04Z</time>
      </trkpt>
      <trkpt lat="59.442994" lon="17.825226">
        <ele>58.1</ele>
        <time>2013-08-11T16:37:05Z</time>
      </trkpt>
      <trkpt lat="59.443079" lon="17.825209">
        <ele>58.6</ele>
        <time>2013-08-11T16:37:06Z</time>
      </trkpt>
      <trkpt lat="59.443158" lon="17.825193">
        <ele>58.9</ele>
        <time>2013-08-11T16:37:07Z</time>
      </trkpt>
      <trkpt lat="59.443241" lon="17.825178">
        <ele>59.9</ele>
        <time>2013-08-11T16:37:08Z</time>
      </trkpt>
      <trkpt lat="59.443329" lon="17.825164">
        <ele>59.7</ele>
        <time>2013-08-11T16:37:09Z</time>
      </trkpt>
      <trkpt lat="59.443406" lon="17.825159">
        <ele>59.8</ele>
        <time>2013-08-11T16:37:10Z</time>
      </trkpt>
      <trkpt lat="59.443494" lon="17.825155">
        <ele>59.8</ele>
        <time>2013-08-11T16:37:11Z</time>
      </trkpt>
      <trkpt lat="59.443577" lon="17.825151">
        <ele>59.9</ele>
        <time>2013-08-11T16:37:12Z</time>
      </trkpt>
      <trkpt lat="59.443664" lon="17.82516">
        <ele>59.9</ele>
        <time>2013-08-11T16:37:13Z</time>
      </trkpt>
      <trkpt lat="59.443751" lon="17.825163">
        <ele>59.9</ele>
        <time>2013-08-11T16:37:14Z</time>
      </trkpt>
      <trkpt lat="59.443831" lon="17.825166">
        <ele>59.4</ele>
        <time>2013-08-11T16:37:15Z</time>
      </trkpt>
      <trkpt lat="59.443915" lon="17.825174">
        <ele>59.2</ele>
        <time>2013-08-11T16:37:16Z</time>
      </trkpt>
      <trkpt lat="59.443998" lon="17.82518">
        <ele>59.1</ele>
        <time>2013-08-11T16:37:17Z</time>
      </trkpt>
      <trkpt lat="59.44408" lon="17.825186">
        <ele>59.1</ele>
        <time>2013-08-11T16:37:18Z</time>
      </trkpt>
      <trkpt lat="59.444164" lon="17.825211">
        <ele>58.6</ele>
        <time>2013-08-11T16:37:19Z</time>
      </trkpt>
      <trkpt lat="59.444252" lon="17.825223">
        <ele>59.2</ele>
        <time>2013-08-11T16:37:20Z</time>
      </trkpt>
      <trkpt lat="59.444326" lon="17.825235">
        <ele>59.2</ele>
        <time>2013-08-11T16:37:21Z</time>
      </trkpt>
      <trkpt lat="59.4444" lon="17.825245">
        <ele>61.6</ele>
        <time>2013-08-11T16:37:22Z</time>
      </trkpt>
      <trkpt lat="59.44448" lon="17.825272">
        <ele>61.8</ele>
        <time>2013-08-11T16:37:23Z</time>
      </trkpt>
      <trkpt lat="59.444558" lon="17.825284">
        <ele>61</ele>
        <time>2013-08-11T16:37:24Z</time>
      </trkpt>
      <trkpt lat="59.444637" lon="17.825301">
        <ele>61.1</ele>
        <time>2013-08-11T16:37:25Z</time>
      </trkpt>
      <trkpt lat="59.444723" lon="17.825331">
        <ele>60.7</ele>
        <time>2013-08-11T16:37:26Z</time>
      </trkpt>
      <trkpt lat="59.44481" lon="17.825348">
        <ele>60</ele>
        <time>2013-08-11T16:37:27Z</time>
      </trkpt>
      <trkpt lat="59.444887" lon="17.825357">
        <ele>60.9</ele>
        <time>2013-08-11T16:37:28Z</time>
      </trkpt>
      <trkpt lat="59.444978" lon="17.825375">
        <ele>61.2</ele>
        <time>2013-08-11T16:37:29Z</time>
      </trkpt>
      <trkpt lat="59.445055" lon="17.825396">
        <ele>60.8</ele>
        <time>2013-08-11T16:37:30Z</time>
      </trkpt>
      <trkpt lat="59.445142" lon="17.825415">
        <ele>60.3</ele>
        <time>2013-08-11T16:37:31Z</time>
      </trkpt>
      <trkpt lat="59.445223" lon="17.825436">
        <ele>60.3</ele>
        <time>2013-08-11T16:37:32Z</time>
      </trkpt>
      <trkpt lat="59.445326" lon="17.825476">
        <ele>60.7</ele>
        <time>2013-08-11T16:37:33Z</time>
      </trkpt>
      <trkpt lat="59.445413" lon="17.825498">
        <ele>60.6</ele>
        <time>2013-08-11T16:37:34Z</time>
      </trkpt>
      <trkpt lat="59.445489" lon="17.825507">
        <ele>59.6</ele>
        <time>2013-08-11T16:37:35Z</time>
      </trkpt>
      <trkpt lat="59.445576" lon="17.825523">
        <ele>59.8</ele>
        <time>2013-08-11T16:37:36Z</time>
      </trkpt>
      <trkpt lat="59.445659" lon="17.825536">
        <ele>60.2</ele>
        <time>2013-08-11T16:37:37Z</time>
      </trkpt>
      <trkpt lat="59.445739" lon="17.825551">
        <ele>60.6</ele>
        <time>2013-08-11T16:37:38Z</time>
      </trkpt>
      <trkpt lat="59.445817" lon="17.82555">
        <ele>58.9</ele>
        <time>2013-08-11T16:37:39Z</time>
      </trkpt>
      <trkpt lat="59.445902" lon="17.825562">
        <ele>59.3</ele>
        <time>2013-08-11T16:37:40Z</time>
      </trkpt>
      <trkpt lat="59.445979" lon="17.825566">
        <ele>59.9</ele>
        <time>2013-08-11T16:37:41Z</time>
      </trkpt>
      <trkpt lat="59.446054" lon="17.825572">
        <ele>60.1</ele>
        <time>2013-08-11T16:37:42Z</time>
      </trkpt>
      <trkpt lat="59.446139" lon="17.825561">
        <ele>60.7</ele>
        <time>2013-08-11T16:37:43Z</time>
      </trkpt>
      <trkpt lat="59.446222" lon="17.825558">
        <ele>60.8</ele>
        <time>2013-08-11T16:37:44Z</time>
      </trkpt>
      <trkpt lat="59.446307" lon="17.825551">
        <ele>61.8</ele>
        <time>2013-08-11T16:37:45Z</time>
      </trkpt>
      <trkpt lat="59.446391" lon="17.825541">
        <ele>62.1</ele>
        <time>2013-08-11T16:37:46Z</time>
      </trkpt>
      <trkpt lat="59.44648" lon="17.82552">
        <ele>62.1</ele>
        <time>2013-08-11T16:37:47Z</time>
      </trkpt>
      <trkpt lat="59.446564" lon="17.825505">
        <ele>62.2</ele>
        <time>2013-08-11T16:37:48Z</time>
      </trkpt>
      <trkpt lat="59.446649" lon="17.825473">
        <ele>61</ele>
        <time>2013-08-11T16:37:49Z</time>
      </trkpt>
      <trkpt lat="59.446733" lon="17.825452">
        <ele>61</ele>
        <time>2013-08-11T16:37:50Z</time>
      </trkpt>
      <trkpt lat="59.44682" lon="17.825436">
        <ele>61</ele>
        <time>2013-08-11T16:37:51Z</time>
      </trkpt>
      <trkpt lat="59.446904" lon="17.825416">
        <ele>61</ele>
        <time>2013-08-11T16:37:52Z</time>
      </trkpt>
      <trkpt lat="59.446981" lon="17.825389">
        <ele>60.7</ele>
        <time>2013-08-11T16:37:53Z</time>
      </trkpt>
      <trkpt lat="59.447059" lon="17.825358">
        <ele>60.4</ele>
        <time>2013-08-11T16:37:54Z</time>
      </trkpt>
      <trkpt lat="59.44714" lon="17.825332">
        <ele>60.6</ele>
        <time>2013-08-11T16:37:55Z</time>
      </trkpt>
      <trkpt lat="59.447221" lon="17.825306">
        <ele>60.8</ele>
        <time>2013-08-11T16:37:56Z</time>
      </trkpt>
      <trkpt lat="59.447299" lon="17.825273">
        <ele>59.6</ele>
        <time>2013-08-11T16:37:57Z</time>
      </trkpt>
      <trkpt lat="59.447381" lon="17.825225">
        <ele>58.9</ele>
        <time>2013-08-11T16:37:58Z</time>
      </trkpt>
      <trkpt lat="59.447457" lon="17.825179">
        <ele>58.6</ele>
        <time>2013-08-11T16:37:59Z</time>
      </trkpt>
      <trkpt lat="59.447533" lon="17.825131">
        <ele>58.6</ele>
        <time>2013-08-11T16:38:00Z</time>
      </trkpt>
      <trkpt lat="59.447607" lon="17.82506">
        <ele>57.4</ele>
        <time>2013-08-11T16:38:01Z</time>
      </trkpt>
      <trkpt lat="59.447681" lon="17.825002">
        <ele>57.2</ele>
        <time>2013-08-11T16:38:02Z</time>
      </trkpt>
      <trkpt lat="59.44775" lon="17.824945">
        <ele>57</ele>
        <time>2013-08-11T16:38:03Z</time>
      </trkpt>
      <trkpt lat="59.447828" lon="17.824888">
        <ele>56.8</ele>
        <time>2013-08-11T16:38:04Z</time>
      </trkpt>
      <trkpt lat="59.447902" lon="17.82483">
        <ele>58.3</ele>
        <time>2013-08-11T16:38:05Z</time>
      </trkpt>
      <trkpt lat="59.447975" lon="17.824772">
        <ele>58.3</ele>
        <time>2013-08-11T16:38:06Z</time>
      </trkpt>
      <trkpt lat="59.448042" lon="17.824713">
        <ele>57.1</ele>
        <time>2013-08-11T16:38:07Z</time>
      </trkpt>
      <trkpt lat="59.448113" lon="17.824659">
        <ele>57.2</ele>
        <time>2013-08-11T16:38:08Z</time>
      </trkpt>
      <trkpt lat="59.448181" lon="17.824607">
        <ele>57.3</ele>
        <time>2013-08-11T16:38:09Z</time>
      </trkpt>
      <trkpt lat="59.448248" lon="17.824559">
        <ele>57.6</ele>
        <time>2013-08-11T16:38:10Z</time>
      </trkpt>
      <trkpt lat="59.448316" lon="17.824514">
        <ele>57.4</ele>
        <time>2013-08-11T16:38:11Z</time>
      </trkpt>
      <trkpt lat="59.448377" lon="17.824468">
        <ele>57.7</ele>
        <time>2013-08-11T16:38:12Z</time>
      </trkpt>
      <trkpt lat="59.448435" lon="17.824433">
        <ele>57.6</ele>
        <time>2013-08-11T16:38:13Z</time>
      </trkpt>
      <trkpt lat="59.448492" lon="17.824398">
        <ele>57.7</ele>
        <time>2013-08-11T16:38:14Z</time>
      </trkpt>
      <trkpt lat="59.448541" lon="17.824363">
        <ele>57.1</ele>
        <time>2013-08-11T16:38:15Z</time>
      </trkpt>
      <trkpt lat="59.448589" lon="17.824336">
        <ele>56.9</ele>
        <time>2013-08-11T16:38:16Z</time>
      </trkpt>
      <trkpt lat="59.448638" lon="17.824299">
        <ele>56.3</ele>
        <time>2013-08-11T16:38:17Z</time>
      </trkpt>
      <trkpt lat="59.448687" lon="17.824255">
        <ele>56.3</ele>
        <time>2013-08-11T16:38:18Z</time>
      </trkpt>
      <trkpt lat="59.448705" lon="17.824131">
        <ele>56.3</ele>
        <time>2013-08-11T16:38:19Z</time>
      </trkpt>
      <trkpt lat="59.44873" lon="17.824037">
        <ele>56.4</ele>
        <time>2013-08-11T16:38:20Z</time>
      </trkpt>
      <trkpt lat="59.44872" lon="17.823915">
        <ele>55.8</ele>
        <time>2013-08-11T16:38:21Z</time>
      </trkpt>
      <trkpt lat="59.448722" lon="17.823799">
        <ele>55.3</ele>
        <time>2013-08-11T16:38:22Z</time>
      </trkpt>
      <trkpt lat="59.448701" lon="17.823662">
        <ele>55.8</ele>
        <time>2013-08-11T16:38:23Z</time>
      </trkpt>
      <trkpt lat="59.44869" lon="17.823535">
        <ele>55.9</ele>
        <time>2013-08-11T16:38:24Z</time>
      </trkpt>
      <trkpt lat="59.448675" lon="17.82339">
        <ele>56.1</ele>
        <time>2013-08-11T16:38:25Z</time>
      </trkpt>
      <trkpt lat="59.448664" lon="17.823255">
        <ele>56.1</ele>
        <time>2013-08-11T16:38:26Z</time>
      </trkpt>
      <trkpt lat="59.44865" lon="17.8231">
        <ele>55.9</ele>
        <time>2013-08-11T16:38:27Z</time>
      </trkpt>
      <trkpt lat="59.448641" lon="17.822952">
        <ele>55.7</ele>
        <time>2013-08-11T16:38:28Z</time>
      </trkpt>
      <trkpt lat="59.448641" lon="17.822805">
        <ele>55.7</ele>
        <time>2013-08-11T16:38:29Z</time>
      </trkpt>
      <trkpt lat="59.448639" lon="17.822656">
        <ele>55.7</ele>
        <time>2013-08-11T16:38:30Z</time>
      </trkpt>
      <trkpt lat="59.448636" lon="17.822503">
        <ele>55.6</ele>
        <time>2013-08-11T16:38:31Z</time>
      </trkpt>
      <trkpt lat="59.448633" lon="17.822351">
        <ele>55.6</ele>
        <time>2013-08-11T16:38:32Z</time>
      </trkpt>
      <trkpt lat="59.448634" lon="17.822207">
        <ele>55.4</ele>
        <time>2013-08-11T16:38:33Z</time>
      </trkpt>
      <trkpt lat="59.448635" lon="17.822054">
        <ele>55.4</ele>
        <time>2013-08-11T16:38:34Z</time>
      </trkpt>
      <trkpt lat="59.448626" lon="17.821902">
        <ele>54.6</ele>
        <time>2013-08-11T16:38:35Z</time>
      </trkpt>
      <trkpt lat="59.448626" lon="17.821747">
        <ele>54.6</ele>
        <time>2013-08-11T16:38:36Z</time>
      </trkpt>
      <trkpt lat="59.448631" lon="17.82159">
        <ele>54.5</ele>
        <time>2013-08-11T16:38:37Z</time>
      </trkpt>
      <trkpt lat="59.448634" lon="17.821433">
        <ele>54.5</ele>
        <time>2013-08-11T16:38:38Z</time>
      </trkpt>
      <trkpt lat="59.448632" lon="17.821286">
        <ele>55</ele>
        <time>2013-08-11T16:38:39Z</time>
      </trkpt>
      <trkpt lat="59.448637" lon="17.821131">
        <ele>54.9</ele>
        <time>2013-08-11T16:38:40Z</time>
      </trkpt>
      <trkpt lat="59.448651" lon="17.820971">
        <ele>54.5</ele>
        <time>2013-08-11T16:38:41Z</time>
      </trkpt>
      <trkpt lat="59.448658" lon="17.820813">
        <ele>54.3</ele>
        <time>2013-08-11T16:38:42Z</time>
      </trkpt>
      <trkpt lat="59.448663" lon="17.820653">
        <ele>54.3</ele>
        <time>2013-08-11T16:38:43Z</time>
      </trkpt>
      <trkpt lat="59.448673" lon="17.820488">
        <ele>54.4</ele>
        <time>2013-08-11T16:38:44Z</time>
      </trkpt>
      <trkpt lat="59.448682" lon="17.820332">
        <ele>54</ele>
        <time>2013-08-11T16:38:45Z</time>
      </trkpt>
      <trkpt lat="59.44869" lon="17.820173">
        <ele>53.8</ele>
        <time>2013-08-11T16:38:46Z</time>
      </trkpt>
      <trkpt lat="59.4487" lon="17.820006">
        <ele>54.5</ele>
        <time>2013-08-11T16:38:47Z</time>
      </trkpt>
      <trkpt lat="59.448715" lon="17.819851">
        <ele>54.6</ele>
        <time>2013-08-11T16:38:48Z</time>
      </trkpt>
      <trkpt lat="59.448729" lon="17.819687">
        <ele>54.8</ele>
        <time>2013-08-11T16:38:49Z</time>
      </trkpt>
      <trkpt lat="59.448744" lon="17.819529">
        <ele>54.7</ele>
        <time>2013-08-11T16:38:50Z</time>
      </trkpt>
      <trkpt lat="59.448748" lon="17.819357">
        <ele>54.7</ele>
        <time>2013-08-11T16:38:51Z</time>
      </trkpt>
      <trkpt lat="59.448764" lon="17.819196">
        <ele>54.8</ele>
        <time>2013-08-11T16:38:52Z</time>
      </trkpt>
      <trkpt lat="59.44878" lon="17.819032">
        <ele>52.8</ele>
        <time>2013-08-11T16:38:53Z</time>
      </trkpt>
      <trkpt lat="59.448798" lon="17.818871">
        <ele>52.6</ele>
        <time>2013-08-11T16:38:54Z</time>
      </trkpt>
      <trkpt lat="59.448821" lon="17.818699">
        <ele>51.1</ele>
        <time>2013-08-11T16:38:55Z</time>
      </trkpt>
      <trkpt lat="59.448841" lon="17.818539">
        <ele>50.8</ele>
        <time>2013-08-11T16:38:56Z</time>
      </trkpt>
      <trkpt lat="59.448868" lon="17.818379">
        <ele>51</ele>
        <time>2013-08-11T16:38:57Z</time>
      </trkpt>
      <trkpt lat="59.44889" lon="17.818217">
        <ele>50.8</ele>
        <time>2013-08-11T16:38:58Z</time>
      </trkpt>
      <trkpt lat="59.448915" lon="17.818048">
        <ele>51.7</ele>
        <time>2013-08-11T16:38:59Z</time>
      </trkpt>
      <trkpt lat="59.448941" lon="17.817885">
        <ele>51.5</ele>
        <time>2013-08-11T16:39:00Z</time>
      </trkpt>
      <trkpt lat="59.448976" lon="17.817733">
        <ele>51.6</ele>
        <time>2013-08-11T16:39:01Z</time>
      </trkpt>
      <trkpt lat="59.449006" lon="17.817569">
        <ele>51.8</ele>
        <time>2013-08-11T16:39:02Z</time>
      </trkpt>
      <trkpt lat="59.449041" lon="17.817405">
        <ele>52</ele>
        <time>2013-08-11T16:39:03Z</time>
      </trkpt>
      <trkpt lat="59.449071" lon="17.817239">
        <ele>51.9</ele>
        <time>2013-08-11T16:39:04Z</time>
      </trkpt>
      <trkpt lat="59.449115" lon="17.817082">
        <ele>52.9</ele>
        <time>2013-08-11T16:39:05Z</time>
      </trkpt>
      <trkpt lat="59.449153" lon="17.816922">
        <ele>52.7</ele>
        <time>2013-08-11T16:39:06Z</time>
      </trkpt>
      <trkpt lat="59.449193" lon="17.816762">
        <ele>50.8</ele>
        <time>2013-08-11T16:39:07Z</time>
      </trkpt>
      <trkpt lat="59.449233" lon="17.816604">
        <ele>50.5</ele>
        <time>2013-08-11T16:39:08Z</time>
      </trkpt>
      <trkpt lat="59.449269" lon="17.816429">
        <ele>49.9</ele>
        <time>2013-08-11T16:39:09Z</time>
      </trkpt>
      <trkpt lat="59.449309" lon="17.81626">
        <ele>49.6</ele>
        <time>2013-08-11T16:39:10Z</time>
      </trkpt>
      <trkpt lat="59.449365" lon="17.81611">
        <ele>48.9</ele>
        <time>2013-08-11T16:39:11Z</time>
      </trkpt>
      <trkpt lat="59.449409" lon="17.815943">
        <ele>48.1</ele>
        <time>2013-08-11T16:39:12Z</time>
      </trkpt>
      <trkpt lat="59.449457" lon="17.81578">
        <ele>52.9</ele>
        <time>2013-08-11T16:39:13Z</time>
      </trkpt>
      <trkpt lat="59.449504" lon="17.815615">
        <ele>52.7</ele>
        <time>2013-08-11T16:39:14Z</time>
      </trkpt>
      <trkpt lat="59.449552" lon="17.815449">
        <ele>49.3</ele>
        <time>2013-08-11T16:39:15Z</time>
      </trkpt>
      <trkpt lat="59.449601" lon="17.815285">
        <ele>49</ele>
        <time>2013-08-11T16:39:16Z</time>
      </trkpt>
      <trkpt lat="59.44965" lon="17.815118">
        <ele>47.9</ele>
        <time>2013-08-11T16:39:17Z</time>
      </trkpt>
      <trkpt lat="59.449698" lon="17.814955">
        <ele>47.7</ele>
        <time>2013-08-11T16:39:18Z</time>
      </trkpt>
      <trkpt lat="59.449757" lon="17.814796">
        <ele>46.8</ele>
        <time>2013-08-11T16:39:19Z</time>
      </trkpt>
      <trkpt lat="59.449811" lon="17.814636">
        <ele>46.5</ele>
        <time>2013-08-11T16:39:20Z</time>
      </trkpt>
      <trkpt lat="59.449856" lon="17.81448">
        <ele>45.7</ele>
        <time>2013-08-11T16:39:21Z</time>
      </trkpt>
      <trkpt lat="59.449909" lon="17.814316">
        <ele>46</ele>
        <time>2013-08-11T16:39:22Z</time>
      </trkpt>
      <trkpt lat="59.449966" lon="17.814162">
        <ele>46.3</ele>
        <time>2013-08-11T16:39:23Z</time>
      </trkpt>
      <trkpt lat="59.450022" lon="17.814006">
        <ele>46.3</ele>
        <time>2013-08-11T16:39:24Z</time>
      </trkpt>
      <trkpt lat="59.450071" lon="17.813842">
        <ele>45.3</ele>
        <time>2013-08-11T16:39:25Z</time>
      </trkpt>
      <trkpt lat="59.450125" lon="17.813688">
        <ele>45.2</ele>
        <time>2013-08-11T16:39:26Z</time>
      </trkpt>
      <trkpt lat="59.450183" lon="17.813532">
        <ele>45.5</ele>
        <time>2013-08-11T16:39:27Z</time>
      </trkpt>
      <trkpt lat="59.450238" lon="17.813376">
        <ele>45.4</ele>
        <time>2013-08-11T16:39:28Z</time>
      </trkpt>
      <trkpt lat="59.45029" lon="17.81323">
        <ele>45.7</ele>
        <time>2013-08-11T16:39:29Z</time>
      </trkpt>
      <trkpt lat="59.450343" lon="17.81308">
        <ele>45.2</ele>
        <time>2013-08-11T16:39:30Z</time>
      </trkpt>
      <trkpt lat="59.450404" lon="17.812947">
        <ele>45.5</ele>
        <time>2013-08-11T16:39:31Z</time>
      </trkpt>
      <trkpt lat="59.450462" lon="17.812802">
        <ele>45.4</ele>
        <time>2013-08-11T16:39:32Z</time>
      </trkpt>
      <trkpt lat="59.45052" lon="17.812663">
        <ele>45.4</ele>
        <time>2013-08-11T16:39:33Z</time>
      </trkpt>
      <trkpt lat="59.450575" lon="17.812526">
        <ele>45</ele>
        <time>2013-08-11T16:39:34Z</time>
      </trkpt>
      <trkpt lat="59.450633" lon="17.812396">
        <ele>44.8</ele>
        <time>2013-08-11T16:39:35Z</time>
      </trkpt>
      <trkpt lat="59.450688" lon="17.812257">
        <ele>44.5</ele>
        <time>2013-08-11T16:39:36Z</time>
      </trkpt>
      <trkpt lat="59.450745" lon="17.812121">
        <ele>44</ele>
        <time>2013-08-11T16:39:37Z</time>
      </trkpt>
      <trkpt lat="59.450802" lon="17.811985">
        <ele>43.7</ele>
        <time>2013-08-11T16:39:38Z</time>
      </trkpt>
      <trkpt lat="59.450856" lon="17.811854">
        <ele>44</ele>
        <time>2013-08-11T16:39:39Z</time>
      </trkpt>
      <trkpt lat="59.450914" lon="17.811721">
        <ele>43.8</ele>
        <time>2013-08-11T16:39:40Z</time>
      </trkpt>
      <trkpt lat="59.450969" lon="17.811583">
        <ele>43.7</ele>
        <time>2013-08-11T16:39:41Z</time>
      </trkpt>
      <trkpt lat="59.451024" lon="17.811448">
        <ele>43.7</ele>
        <time>2013-08-11T16:39:42Z</time>
      </trkpt>
      <trkpt lat="59.451079" lon="17.811312">
        <ele>43.7</ele>
        <time>2013-08-11T16:39:43Z</time>
      </trkpt>
      <trkpt lat="59.451145" lon="17.811188">
        <ele>43.4</ele>
        <time>2013-08-11T16:39:44Z</time>
      </trkpt>
      <trkpt lat="59.4512" lon="17.811051">
        <ele>43.2</ele>
        <time>2013-08-11T16:39:45Z</time>
      </trkpt>
      <trkpt lat="59.451259" lon="17.81092">
        <ele>43.6</ele>
        <time>2013-08-11T16:39:46Z</time>
      </trkpt>
      <trkpt lat="59.451318" lon="17.810785">
        <ele>43.5</ele>
        <time>2013-08-11T16:39:47Z</time>
      </trkpt>
      <trkpt lat="59.451379" lon="17.810661">
        <ele>43.4</ele>
        <time>2013-08-11T16:39:48Z</time>
      </trkpt>
      <trkpt lat="59.451435" lon="17.810532">
        <ele>43.1</ele>
        <time>2013-08-11T16:39:49Z</time>
      </trkpt>
      <trkpt lat="59.451495" lon="17.8104">
        <ele>43.5</ele>
        <time>2013-08-11T16:39:50Z</time>
      </trkpt>
      <trkpt lat="59.451556" lon="17.810275">
        <ele>42.9</ele>
        <time>2013-08-11T16:39:51Z</time>
      </trkpt>
      <trkpt lat="59.451611" lon="17.81014">
        <ele>42.6</ele>
        <time>2013-08-11T16:39:52Z</time>
      </trkpt>
      <trkpt lat="59.451671" lon="17.810025">
        <ele>42.9</ele>
        <time>2013-08-11T16:39:53Z</time>
      </trkpt>
      <trkpt lat="59.451733" lon="17.809902">
        <ele>42.3</ele>
        <time>2013-08-11T16:39:54Z</time>
      </trkpt>
      <trkpt lat="59.451793" lon="17.809775">
        <ele>42.1</ele>
        <time>2013-08-11T16:39:55Z</time>
      </trkpt>
      <trkpt lat="59.451853" lon="17.809651">
        <ele>41.9</ele>
        <time>2013-08-11T16:39:56Z</time>
      </trkpt>
      <trkpt lat="59.451912" lon="17.809518">
        <ele>41.7</ele>
        <time>2013-08-11T16:39:57Z</time>
      </trkpt>
      <trkpt lat="59.451966" lon="17.809393">
        <ele>41.3</ele>
        <time>2013-08-11T16:39:58Z</time>
      </trkpt>
      <trkpt lat="59.452027" lon="17.809278">
        <ele>41.1</ele>
        <time>2013-08-11T16:39:59Z</time>
      </trkpt>
      <trkpt lat="59.452087" lon="17.809158">
        <ele>41</ele>
        <time>2013-08-11T16:40:00Z</time>
      </trkpt>
      <trkpt lat="59.452147" lon="17.809038">
        <ele>41.4</ele>
        <time>2013-08-11T16:40:01Z</time>
      </trkpt>
      <trkpt lat="59.452209" lon="17.808919">
        <ele>41.4</ele>
        <time>2013-08-11T16:40:02Z</time>
      </trkpt>
      <trkpt lat="59.452266" lon="17.808808">
        <ele>40.8</ele>
        <time>2013-08-11T16:40:03Z</time>
      </trkpt>
      <trkpt lat="59.452327" lon="17.808692">
        <ele>40.8</ele>
        <time>2013-08-11T16:40:04Z</time>
      </trkpt>
      <trkpt lat="59.452397" lon="17.808578">
        <ele>40.7</ele>
        <time>2013-08-11T16:40:05Z</time>
      </trkpt>
      <trkpt lat="59.45246" lon="17.808464">
        <ele>40.6</ele>
        <time>2013-08-11T16:40:06Z</time>
      </trkpt>
      <trkpt lat="59.452519" lon="17.808335">
        <ele>40.8</ele>
        <time>2013-08-11T16:40:07Z</time>
      </trkpt>
      <trkpt lat="59.452578" lon="17.80822">
        <ele>40.9</ele>
        <time>2013-08-11T16:40:08Z</time>
      </trkpt>
      <trkpt lat="59.452641" lon="17.808104">
        <ele>41.5</ele>
        <time>2013-08-11T16:40:09Z</time>
      </trkpt>
      <trkpt lat="59.452704" lon="17.807987">
        <ele>41.7</ele>
        <time>2013-08-11T16:40:10Z</time>
      </trkpt>
      <trkpt lat="59.452764" lon="17.807882">
        <ele>41.6</ele>
        <time>2013-08-11T16:40:11Z</time>
      </trkpt>
      <trkpt lat="59.452828" lon="17.80777">
        <ele>41.6</ele>
        <time>2013-08-11T16:40:12Z</time>
      </trkpt>
      <trkpt lat="59.452891" lon="17.807658">
        <ele>41.7</ele>
        <time>2013-08-11T16:40:13Z</time>
      </trkpt>
      <trkpt lat="59.452954" lon="17.807551">
        <ele>41.9</ele>
        <time>2013-08-11T16:40:14Z</time>
      </trkpt>
      <trkpt lat="59.45301" lon="17.807448">
        <ele>41.8</ele>
        <time>2013-08-11T16:40:15Z</time>
      </trkpt>
      <trkpt lat="59.45307" lon="17.807342">
        <ele>42</ele>
        <time>2013-08-11T16:40:16Z</time>
      </trkpt>
      <trkpt lat="59.453128" lon="17.807235">
        <ele>42.4</ele>
        <time>2013-08-11T16:40:17Z</time>
      </trkpt>
      <trkpt lat="59.453187" lon="17.80713">
        <ele>42.6</ele>
        <time>2013-08-11T16:40:18Z</time>
      </trkpt>
      <trkpt lat="59.453246" lon="17.807032">
        <ele>43.1</ele>
        <time>2013-08-11T16:40:19Z</time>
      </trkpt>
      <trkpt lat="59.453304" lon="17.80693">
        <ele>43.4</ele>
        <time>2013-08-11T16:40:20Z</time>
      </trkpt>
      <trkpt lat="59.453355" lon="17.806808">
        <ele>43.3</ele>
        <time>2013-08-11T16:40:21Z</time>
      </trkpt>
      <trkpt lat="59.453408" lon="17.806695">
        <ele>43.4</ele>
        <time>2013-08-11T16:40:22Z</time>
      </trkpt>
      <trkpt lat="59.453473" lon="17.806602">
        <ele>43.5</ele>
        <time>2013-08-11T16:40:23Z</time>
      </trkpt>
      <trkpt lat="59.453534" lon="17.806506">
        <ele>43.7</ele>
        <time>2013-08-11T16:40:24Z</time>
      </trkpt>
      <trkpt lat="59.453593" lon="17.806416">
        <ele>43.9</ele>
        <time>2013-08-11T16:40:25Z</time>
      </trkpt>
      <trkpt lat="59.453651" lon="17.806318">
        <ele>43.7</ele>
        <time>2013-08-11T16:40:26Z</time>
      </trkpt>
      <trkpt lat="59.453706" lon="17.806215">
        <ele>44</ele>
        <time>2013-08-11T16:40:27Z</time>
      </trkpt>
      <trkpt lat="59.453762" lon="17.806111">
        <ele>44.1</ele>
        <time>2013-08-11T16:40:28Z</time>
      </trkpt>
      <trkpt lat="59.45382" lon="17.806013">
        <ele>44</ele>
        <time>2013-08-11T16:40:29Z</time>
      </trkpt>
      <trkpt lat="59.453879" lon="17.805915">
        <ele>44.1</ele>
        <time>2013-08-11T16:40:30Z</time>
      </trkpt>
      <trkpt lat="59.453939" lon="17.805818">
        <ele>43.8</ele>
        <time>2013-08-11T16:40:31Z</time>
      </trkpt>
      <trkpt lat="59.453994" lon="17.805719">
        <ele>44.2</ele>
        <time>2013-08-11T16:40:32Z</time>
      </trkpt>
      <trkpt lat="59.454048" lon="17.80562">
        <ele>44.1</ele>
        <time>2013-08-11T16:40:33Z</time>
      </trkpt>
      <trkpt lat="59.454103" lon="17.80552">
        <ele>44.2</ele>
        <time>2013-08-11T16:40:34Z</time>
      </trkpt>
      <trkpt lat="59.454159" lon="17.805433">
        <ele>44.6</ele>
        <time>2013-08-11T16:40:35Z</time>
      </trkpt>
      <trkpt lat="59.454215" lon="17.805333">
        <ele>44.6</ele>
        <time>2013-08-11T16:40:36Z</time>
      </trkpt>
      <trkpt lat="59.454275" lon="17.80523">
        <ele>44</ele>
        <time>2013-08-11T16:40:37Z</time>
      </trkpt>
      <trkpt lat="59.454335" lon="17.805134">
        <ele>43.9</ele>
        <time>2013-08-11T16:40:38Z</time>
      </trkpt>
      <trkpt lat="59.454389" lon="17.805032">
        <ele>44</ele>
        <time>2013-08-11T16:40:39Z</time>
      </trkpt>
      <trkpt lat="59.454449" lon="17.804929">
        <ele>44.5</ele>
        <time>2013-08-11T16:40:40Z</time>
      </trkpt>
      <trkpt lat="59.454507" lon="17.804829">
        <ele>44.8</ele>
        <time>2013-08-11T16:40:41Z</time>
      </trkpt>
      <trkpt lat="59.45457" lon="17.804738">
        <ele>44.2</ele>
        <time>2013-08-11T16:40:42Z</time>
      </trkpt>
      <trkpt lat="59.454633" lon="17.804653">
        <ele>43.8</ele>
        <time>2013-08-11T16:40:43Z</time>
      </trkpt>
      <trkpt lat="59.454706" lon="17.804581">
        <ele>43.9</ele>
        <time>2013-08-11T16:40:44Z</time>
      </trkpt>
      <trkpt lat="59.454782" lon="17.80452">
        <ele>43.8</ele>
        <time>2013-08-11T16:40:45Z</time>
      </trkpt>
      <trkpt lat="59.454859" lon="17.804467">
        <ele>44.4</ele>
        <time>2013-08-11T16:40:46Z</time>
      </trkpt>
      <trkpt lat="59.454939" lon="17.804433">
        <ele>44.7</ele>
        <time>2013-08-11T16:40:47Z</time>
      </trkpt>
      <trkpt lat="59.455016" lon="17.804403">
        <ele>45.1</ele>
        <time>2013-08-11T16:40:48Z</time>
      </trkpt>
      <trkpt lat="59.455095" lon="17.804382">
        <ele>45.7</ele>
        <time>2013-08-11T16:40:49Z</time>
      </trkpt>
      <trkpt lat="59.455175" lon="17.804363">
        <ele>45.9</ele>
        <time>2013-08-11T16:40:50Z</time>
      </trkpt>
      <trkpt lat="59.455248" lon="17.804371">
        <ele>45.8</ele>
        <time>2013-08-11T16:40:51Z</time>
      </trkpt>
      <trkpt lat="59.455321" lon="17.804395">
        <ele>46</ele>
        <time>2013-08-11T16:40:52Z</time>
      </trkpt>
      <trkpt lat="59.455392" lon="17.804429">
        <ele>46.6</ele>
        <time>2013-08-11T16:40:53Z</time>
      </trkpt>
      <trkpt lat="59.455461" lon="17.804467">
        <ele>46.7</ele>
        <time>2013-08-11T16:40:54Z</time>
      </trkpt>
      <trkpt lat="59.455528" lon="17.804517">
        <ele>46.5</ele>
        <time>2013-08-11T16:40:55Z</time>
      </trkpt>
      <trkpt lat="59.455591" lon="17.804558">
        <ele>47.8</ele>
        <time>2013-08-11T16:40:56Z</time>
      </trkpt>
      <trkpt lat="59.455656" lon="17.804618">
        <ele>47.7</ele>
        <time>2013-08-11T16:40:57Z</time>
      </trkpt>
      <trkpt lat="59.455723" lon="17.804678">
        <ele>47.9</ele>
        <time>2013-08-11T16:40:58Z</time>
      </trkpt>
      <trkpt lat="59.45579" lon="17.804735">
        <ele>48.2</ele>
        <time>2013-08-11T16:40:59Z</time>
      </trkpt>
      <trkpt lat="59.455854" lon="17.804795">
        <ele>48.6</ele>
        <time>2013-08-11T16:41:00Z</time>
      </trkpt>
      <trkpt lat="59.455926" lon="17.804852">
        <ele>49</ele>
        <time>2013-08-11T16:41:01Z</time>
      </trkpt>
      <trkpt lat="59.455988" lon="17.804903">
        <ele>49</ele>
        <time>2013-08-11T16:41:02Z</time>
      </trkpt>
      <trkpt lat="59.456052" lon="17.804952">
        <ele>49.5</ele>
        <time>2013-08-11T16:41:03Z</time>
      </trkpt>
      <trkpt lat="59.456117" lon="17.805001">
        <ele>49.8</ele>
        <time>2013-08-11T16:41:04Z</time>
      </trkpt>
      <trkpt lat="59.456168" lon="17.805039">
        <ele>50.1</ele>
        <time>2013-08-11T16:41:05Z</time>
      </trkpt>
      <trkpt lat="59.456234" lon="17.805079">
        <ele>49.5</ele>
        <time>2013-08-11T16:41:06Z</time>
      </trkpt>
      <trkpt lat="59.456305" lon="17.805131">
        <ele>50</ele>
        <time>2013-08-11T16:41:07Z</time>
      </trkpt>
      <trkpt lat="59.456374" lon="17.805178">
        <ele>49.9</ele>
        <time>2013-08-11T16:41:08Z</time>
      </trkpt>
      <trkpt lat="59.456438" lon="17.805223">
        <ele>49.9</ele>
        <time>2013-08-11T16:41:09Z</time>
      </trkpt>
      <trkpt lat="59.456506" lon="17.805277">
        <ele>49.6</ele>
        <time>2013-08-11T16:41:10Z</time>
      </trkpt>
      <trkpt lat="59.456572" lon="17.80533">
        <ele>49.1</ele>
        <time>2013-08-11T16:41:11Z</time>
      </trkpt>
      <trkpt lat="59.456638" lon="17.805384">
        <ele>49.9</ele>
        <time>2013-08-11T16:41:12Z</time>
      </trkpt>
      <trkpt lat="59.456702" lon="17.805426">
        <ele>50.7</ele>
        <time>2013-08-11T16:41:13Z</time>
      </trkpt>
      <trkpt lat="59.456765" lon="17.805465">
        <ele>50.5</ele>
        <time>2013-08-11T16:41:14Z</time>
      </trkpt>
      <trkpt lat="59.456828" lon="17.805522">
        <ele>51.7</ele>
        <time>2013-08-11T16:41:15Z</time>
      </trkpt>
      <trkpt lat="59.456899" lon="17.805558">
        <ele>50.5</ele>
        <time>2013-08-11T16:41:16Z</time>
      </trkpt>
      <trkpt lat="59.456964" lon="17.805604">
        <ele>50.9</ele>
        <time>2013-08-11T16:41:17Z</time>
      </trkpt>
      <trkpt lat="59.457026" lon="17.805645">
        <ele>51.1</ele>
        <time>2013-08-11T16:41:18Z</time>
      </trkpt>
      <trkpt lat="59.457088" lon="17.805643">
        <ele>50.3</ele>
        <time>2013-08-11T16:41:19Z</time>
      </trkpt>
      <trkpt lat="59.457153" lon="17.805654">
        <ele>50.3</ele>
        <time>2013-08-11T16:41:20Z</time>
      </trkpt>
      <trkpt lat="59.457195" lon="17.805515">
        <ele>50.7</ele>
        <time>2013-08-11T16:41:21Z</time>
      </trkpt>
      <trkpt lat="59.457231" lon="17.805395">
        <ele>51</ele>
        <time>2013-08-11T16:41:22Z</time>
      </trkpt>
      <trkpt lat="59.457272" lon="17.805272">
        <ele>51.4</ele>
        <time>2013-08-11T16:41:23Z</time>
      </trkpt>
      <trkpt lat="59.457314" lon="17.805145">
        <ele>51.8</ele>
        <time>2013-08-11T16:41:24Z</time>
      </trkpt>
      <trkpt lat="59.457377" lon="17.80505">
        <ele>51.4</ele>
        <time>2013-08-11T16:41:25Z</time>
      </trkpt>
      <trkpt lat="59.457439" lon="17.804952">
        <ele>50.8</ele>
        <time>2013-08-11T16:41:26Z</time>
      </trkpt>
      <trkpt lat="59.457504" lon="17.80487">
        <ele>50.1</ele>
        <time>2013-08-11T16:41:27Z</time>
      </trkpt>
      <trkpt lat="59.457568" lon="17.804783">
        <ele>50.1</ele>
        <time>2013-08-11T16:41:28Z</time>
      </trkpt>
      <trkpt lat="59.457632" lon="17.804713">
        <ele>49.7</ele>
        <time>2013-08-11T16:41:29Z</time>
      </trkpt>
      <trkpt lat="59.4577" lon="17.804631">
        <ele>49.7</ele>
        <time>2013-08-11T16:41:30Z</time>
      </trkpt>
      <trkpt lat="59.457769" lon="17.804562">
        <ele>49.7</ele>
        <time>2013-08-11T16:41:31Z</time>
      </trkpt>
      <trkpt lat="59.457843" lon="17.804517">
        <ele>48.7</ele>
        <time>2013-08-11T16:41:32Z</time>
      </trkpt>
      <trkpt lat="59.457915" lon="17.804475">
        <ele>48.1</ele>
        <time>2013-08-11T16:41:33Z</time>
      </trkpt>
      <trkpt lat="59.457993" lon="17.80443">
        <ele>48.3</ele>
        <time>2013-08-11T16:41:34Z</time>
      </trkpt>
      <trkpt lat="59.458073" lon="17.804407">
        <ele>48.1</ele>
        <time>2013-08-11T16:41:35Z</time>
      </trkpt>
      <trkpt lat="59.458154" lon="17.804402">
        <ele>48.4</ele>
        <time>2013-08-11T16:41:36Z</time>
      </trkpt>
      <trkpt lat="59.45823" lon="17.804399">
        <ele>48.6</ele>
        <time>2013-08-11T16:41:37Z</time>
      </trkpt>
      <trkpt lat="59.458298" lon="17.804388">
        <ele>49.5</ele>
        <time>2013-08-11T16:41:38Z</time>
      </trkpt>
      <trkpt lat="59.458373" lon="17.804396">
        <ele>49.7</ele>
        <time>2013-08-11T16:41:39Z</time>
      </trkpt>
      <trkpt lat="59.458444" lon="17.804408">
        <ele>49.4</ele>
        <time>2013-08-11T16:41:40Z</time>
      </trkpt>
      <trkpt lat="59.458513" lon="17.804418">
        <ele>49.4</ele>
        <time>2013-08-11T16:41:41Z</time>
      </trkpt>
      <trkpt lat="59.458575" lon="17.804412">
        <ele>49.6</ele>
        <time>2013-08-11T16:41:42Z</time>
      </trkpt>
      <trkpt lat="59.458641" lon="17.804413">
        <ele>49.9</ele>
        <time>2013-08-11T16:41:43Z</time>
      </trkpt>
      <trkpt lat="59.458702" lon="17.804403">
        <ele>49.9</ele>
        <time>2013-08-11T16:41:44Z</time>
      </trkpt>
      <trkpt lat="59.458762" lon="17.804394">
        <ele>50.5</ele>
        <time>2013-08-11T16:41:45Z</time>
      </trkpt>
      <trkpt lat="59.458818" lon="17.804351">
        <ele>51.2</ele>
        <time>2013-08-11T16:41:46Z</time>
      </trkpt>
      <trkpt lat="59.458877" lon="17.804313">
        <ele>51</ele>
        <time>2013-08-11T16:41:47Z</time>
      </trkpt>
      <trkpt lat="59.458921" lon="17.804268">
        <ele>51.7</ele>
        <time>2013-08-11T16:41:48Z</time>
      </trkpt>
      <trkpt lat="59.458954" lon="17.804257">
        <ele>51.6</ele>
        <time>2013-08-11T16:41:50Z</time>
      </trkpt>
      <trkpt lat="59.458934" lon="17.804209">
        <ele>52.6</ele>
        <time>2013-08-11T16:41:55Z</time>
      </trkpt>
      <trkpt lat="59.458914" lon="17.804249">
        <ele>53.7</ele>
        <time>2013-08-11T16:42:03Z</time>
      </trkpt>
      <trkpt lat="59.458901" lon="17.804299">
        <ele>53.1</ele>
        <time>2013-08-11T16:42:08Z</time>
      </trkpt>
      <trkpt lat="59.458885" lon="17.804351">
        <ele>53.7</ele>
        <time>2013-08-11T16:42:13Z</time>
      </trkpt>
    </trkseg>
  </trk>
</gpx>